<?xml version='1.0' encoding='UTF-8'?><gpx version="1.1" creator="JPX - https://github.com/jenetics/jpx" xmlns="http://www.topografix.com/GPX/1/1"><trk><trkseg><trkpt lat="45.14772403626902" lon="8.444042810766136"><ele>114.0</ele><time>2026-03-29T09:55:41Z</time></trkpt><trkpt lat="45.1477561860486" lon="8.444141018736165"><ele>114.0</ele><time>2026-03-29T09:58:31.999Z</time></trkpt><trkpt lat="45.14771826364224" lon="8.444236425951088"><ele>114.0</ele><time>2026-03-29T09:58:34.999Z</time></trkpt><trkpt lat="45.14773424024912" lon="8.4443517198822"><ele>114.0</ele><time>2026-03-29T09:59:48Z</time></trkpt><trkpt lat="45.14780579555969" lon="8.444367124656514"><ele>114.0</ele><time>2026-03-29T09:59:50Z</time></trkpt><trkpt lat="45.14789381231608" lon="8.444314959007375"><ele>114.0</ele><time>2026-03-29T10:00:13.999Z</time></trkpt><trkpt lat="45.148012892132506" lon="8.444236851210716"><ele>114.0</ele><time>2026-03-29T10:00:15.999Z</time></trkpt><trkpt lat="45.14807910286238" lon="8.444196651554414"><ele>114.0</ele><time>2026-03-29T10:00:16.999Z</time></trkpt><trkpt lat="45.14814361926011" lon="8.44416070163598"><ele>114.0</ele><time>2026-03-29T10:00:17.999Z</time></trkpt><trkpt lat="45.148212441996094" lon="8.444121364090563"><ele>114.0</ele><time>2026-03-29T10:00:18.999Z</time></trkpt><trkpt lat="45.14828472098437" lon="8.444081354219515"><ele>114.0</ele><time>2026-03-29T10:00:19.999Z</time></trkpt><trkpt lat="45.14835613866173" lon="8.444039004181935"><ele>114.0</ele><time>2026-03-29T10:00:20.999Z</time></trkpt><trkpt lat="45.14843020907927" lon="8.443996239913327"><ele>114.0</ele><time>2026-03-29T10:00:21.999Z</time></trkpt><trkpt lat="45.148505834165974" lon="8.44395335574975"><ele>114.0</ele><time>2026-03-29T10:00:22.999Z</time></trkpt><trkpt lat="45.14857940336238" lon="8.443910367001662"><ele>114.0</ele><time>2026-03-29T10:00:23.999Z</time></trkpt><trkpt lat="45.14865134500444" lon="8.443870721322922"><ele>114.0</ele><time>2026-03-29T10:00:24.999Z</time></trkpt><trkpt lat="45.14872556639515" lon="8.443830421243494"><ele>114.0</ele><time>2026-03-29T10:00:25.999Z</time></trkpt><trkpt lat="45.148803280101525" lon="8.443786916246589"><ele>114.0</ele><time>2026-03-29T10:00:26.999Z</time></trkpt><trkpt lat="45.148883247393144" lon="8.443739025521912"><ele>114.4</ele><time>2026-03-29T10:00:27.999Z</time></trkpt><trkpt lat="45.14897501377909" lon="8.443682106119821"><ele>114.80000000000001</ele><time>2026-03-29T10:00:28.999Z</time></trkpt><trkpt lat="45.149075428074305" lon="8.443625982249817"><ele>115.19999999999999</ele><time>2026-03-29T10:00:29.999Z</time></trkpt><trkpt lat="45.1491836191699" lon="8.443567558731232"><ele>115.6</ele><time>2026-03-29T10:00:30.999Z</time></trkpt><trkpt lat="45.149292046350084" lon="8.443508966347554"><ele>116.0</ele><time>2026-03-29T10:00:31.999Z</time></trkpt><trkpt lat="45.14939299396359" lon="8.443450478372316"><ele>116.0</ele><time>2026-03-29T10:00:32.999Z</time></trkpt><trkpt lat="45.14948947516222" lon="8.44338956502582"><ele>116.0</ele><time>2026-03-29T10:00:33.999Z</time></trkpt><trkpt lat="45.14958069876671" lon="8.44333046766103"><ele>116.0</ele><time>2026-03-29T10:00:34.999Z</time></trkpt><trkpt lat="45.14967691036509" lon="8.443270396717905"><ele>116.0</ele><time>2026-03-29T10:00:35.999Z</time></trkpt><trkpt lat="45.14982352443367" lon="8.443191874422823"><ele>115.75</ele><time>2026-03-29T10:00:36.999Z</time></trkpt><trkpt lat="45.14993934883709" lon="8.443117065380624"><ele>115.5</ele><time>2026-03-29T10:00:37.999Z</time></trkpt><trkpt lat="45.15005512196187" lon="8.443041071367746"><ele>115.25</ele><time>2026-03-29T10:00:38.999Z</time></trkpt><trkpt lat="45.15016658253202" lon="8.442960905635092"><ele>115.0</ele><time>2026-03-29T10:00:39.999Z</time></trkpt><trkpt lat="45.15027847859974" lon="8.44287095011083"><ele>114.8</ele><time>2026-03-29T10:00:40.999Z</time></trkpt><trkpt lat="45.15038046452376" lon="8.442777238773632"><ele>114.6</ele><time>2026-03-29T10:00:41.999Z</time></trkpt><trkpt lat="45.150475935800685" lon="8.442702213422729"><ele>114.4</ele><time>2026-03-29T10:00:42.999Z</time></trkpt><trkpt lat="45.150557853890476" lon="8.442630939062575"><ele>114.2</ele><time>2026-03-29T10:00:43.999Z</time></trkpt><trkpt lat="45.150636214353" lon="8.442556623553887"><ele>114.0</ele><time>2026-03-29T10:00:44.999Z</time></trkpt><trkpt lat="45.150726483080845" lon="8.442469661790907"><ele>114.0</ele><time>2026-03-29T10:00:45.999Z</time></trkpt><trkpt lat="45.150822153393406" lon="8.442374607435717"><ele>114.0</ele><time>2026-03-29T10:00:46.999Z</time></trkpt><trkpt lat="45.150926015026066" lon="8.442253636534579"><ele>114.0</ele><time>2026-03-29T10:00:47.999Z</time></trkpt><trkpt lat="45.15102129229466" lon="8.442114764887835"><ele>114.0</ele><time>2026-03-29T10:00:48.999Z</time></trkpt><trkpt lat="45.15112557046485" lon="8.441971814138334"><ele>113.75</ele><time>2026-03-29T10:00:49.999Z</time></trkpt><trkpt lat="45.15122730973941" lon="8.441831062294476"><ele>113.5</ele><time>2026-03-29T10:00:50.999Z</time></trkpt><trkpt lat="45.151328573661424" lon="8.44168729996636"><ele>113.25</ele><time>2026-03-29T10:00:51.999Z</time></trkpt><trkpt lat="45.15141887190124" lon="8.441545043717806"><ele>113.0</ele><time>2026-03-29T10:00:52.999Z</time></trkpt><trkpt lat="45.15150687082015" lon="8.44141130063637"><ele>113.0</ele><time>2026-03-29T10:00:53.999Z</time></trkpt><trkpt lat="45.15158846982197" lon="8.441290064638943"><ele>113.0</ele><time>2026-03-29T10:00:54.999Z</time></trkpt><trkpt lat="45.151667609760615" lon="8.441172182330519"><ele>113.0</ele><time>2026-03-29T10:00:55.999Z</time></trkpt><trkpt lat="45.15174737129602" lon="8.441063652714115"><ele>113.0</ele><time>2026-03-29T10:00:56.999Z</time></trkpt><trkpt lat="45.15182017740488" lon="8.440949447990624"><ele>113.0</ele><time>2026-03-29T10:00:57.999Z</time></trkpt><trkpt lat="45.151893462941715" lon="8.440836801811646"><ele>113.00000000000001</ele><time>2026-03-29T10:00:58.999Z</time></trkpt><trkpt lat="45.15198242409936" lon="8.44074751298559"><ele>113.00000000000001</ele><time>2026-03-29T10:00:59.999Z</time></trkpt><trkpt lat="45.15208811288939" lon="8.440716144062678"><ele>113.0</ele><time>2026-03-29T10:01:00.999Z</time></trkpt><trkpt lat="45.152204524501144" lon="8.440698063679037"><ele>113.0</ele><time>2026-03-29T10:01:01.999Z</time></trkpt><trkpt lat="45.15233074544623" lon="8.440680872000073"><ele>112.80000000000001</ele><time>2026-03-29T10:01:02.999Z</time></trkpt><trkpt lat="45.15245062366254" lon="8.440717898107751"><ele>112.60000000000001</ele><time>2026-03-29T10:01:03.999Z</time></trkpt><trkpt lat="45.152556978625114" lon="8.440730995334032"><ele>112.39999999999999</ele><time>2026-03-29T10:01:04.999Z</time></trkpt><trkpt lat="45.15263681027902" lon="8.440715302648586"><ele>112.19999999999999</ele><time>2026-03-29T10:01:05.999Z</time></trkpt><trkpt lat="45.15269158578465" lon="8.440656934452806"><ele>112.0</ele><time>2026-03-29T10:01:06.999Z</time></trkpt><trkpt lat="45.15273332470768" lon="8.440567589477126"><ele>111.8</ele><time>2026-03-29T10:01:07.999Z</time></trkpt><trkpt lat="45.15276542679938" lon="8.440446535730436"><ele>111.6</ele><time>2026-03-29T10:01:08.999Z</time></trkpt><trkpt lat="45.15278948880245" lon="8.440301526076535"><ele>111.39999999999999</ele><time>2026-03-29T10:01:09.998Z</time></trkpt><trkpt lat="45.15283011833994" lon="8.440159568887841"><ele>111.19999999999999</ele><time>2026-03-29T10:01:10.998Z</time></trkpt><trkpt lat="45.15286992906002" lon="8.440029796157358"><ele>111.0</ele><time>2026-03-29T10:01:11.998Z</time></trkpt><trkpt lat="45.152900394371784" lon="8.439915588349844"><ele>111.0</ele><time>2026-03-29T10:01:12.998Z</time></trkpt><trkpt lat="45.15292049198334" lon="8.43980944379179"><ele>111.0</ele><time>2026-03-29T10:01:13.998Z</time></trkpt><trkpt lat="45.152927498495266" lon="8.439711068094853"><ele>111.0</ele><time>2026-03-29T10:01:14.998Z</time></trkpt><trkpt lat="45.152941860437345" lon="8.43962120986848"><ele>111.0</ele><time>2026-03-29T10:01:15.998Z</time></trkpt><trkpt lat="45.152868280207606" lon="8.439540191362116"><ele>111.0</ele><time>2026-03-29T10:01:17Z</time></trkpt><trkpt lat="45.152805613724944" lon="8.439488997913049"><ele>111.0</ele><time>2026-03-29T10:01:18Z</time></trkpt><trkpt lat="45.15272766339323" lon="8.439476608495873"><ele>111.0</ele><time>2026-03-29T10:01:19Z</time></trkpt><trkpt lat="45.152643443287744" lon="8.439501161070712"><ele>111.0</ele><time>2026-03-29T10:01:20Z</time></trkpt><trkpt lat="45.15254777671652" lon="8.439571996061803"><ele>111.0</ele><time>2026-03-29T10:01:21Z</time></trkpt><trkpt lat="45.15245483753524" lon="8.439656990721698"><ele>111.0</ele><time>2026-03-29T10:01:22Z</time></trkpt><trkpt lat="45.15235875529345" lon="8.439749251577487"><ele>111.0</ele><time>2026-03-29T10:01:23Z</time></trkpt><trkpt lat="45.152272799614664" lon="8.43986069853562"><ele>111.0</ele><time>2026-03-29T10:01:24Z</time></trkpt><trkpt lat="45.152197447155515" lon="8.439991494052007"><ele>111.0</ele><time>2026-03-29T10:01:25Z</time></trkpt><trkpt lat="45.15214130990865" lon="8.440140642550945"><ele>111.0</ele><time>2026-03-29T10:01:26Z</time></trkpt><trkpt lat="45.1521120959668" lon="8.44029459205737"><ele>111.0</ele><time>2026-03-29T10:01:27Z</time></trkpt><trkpt lat="45.15204646642481" lon="8.440422272567107"><ele>111.4</ele><time>2026-03-29T10:01:28Z</time></trkpt><trkpt lat="45.151995169906755" lon="8.440540382118376"><ele>111.8</ele><time>2026-03-29T10:01:29Z</time></trkpt><trkpt lat="45.15193962199121" lon="8.440660667388233"><ele>112.20000000000002</ele><time>2026-03-29T10:01:30Z</time></trkpt><trkpt lat="45.15187036540202" lon="8.440781278909151"><ele>112.60000000000001</ele><time>2026-03-29T10:01:31Z</time></trkpt><trkpt lat="45.151789717627324" lon="8.440895252633998"><ele>113.0</ele><time>2026-03-29T10:01:32Z</time></trkpt><trkpt lat="45.151698506604916" lon="8.441016771440948"><ele>113.0</ele><time>2026-03-29T10:01:33Z</time></trkpt><trkpt lat="45.151606489218395" lon="8.441149398130678"><ele>113.0</ele><time>2026-03-29T10:01:34Z</time></trkpt><trkpt lat="45.15151794030191" lon="8.44128502404572"><ele>113.0</ele><time>2026-03-29T10:01:35Z</time></trkpt><trkpt lat="45.15142770997694" lon="8.441422945233402"><ele>113.0</ele><time>2026-03-29T10:01:36Z</time></trkpt><trkpt lat="45.151333280207" lon="8.441561723260197"><ele>113.0</ele><time>2026-03-29T10:01:37Z</time></trkpt><trkpt lat="45.15123828515134" lon="8.441698826039605"><ele>113.0</ele><time>2026-03-29T10:01:38Z</time></trkpt><trkpt lat="45.151143909633426" lon="8.441828548836712"><ele>113.0</ele><time>2026-03-29T10:01:39Z</time></trkpt><trkpt lat="45.15105356307758" lon="8.441945160805549"><ele>113.0</ele><time>2026-03-29T10:01:40Z</time></trkpt><trkpt lat="45.150965279788835" lon="8.44206092388631"><ele>113.25</ele><time>2026-03-29T10:01:41Z</time></trkpt><trkpt lat="45.15087438388449" lon="8.442178334467735"><ele>113.5</ele><time>2026-03-29T10:01:42Z</time></trkpt><trkpt lat="45.150777842628926" lon="8.44229545850335"><ele>113.75</ele><time>2026-03-29T10:01:43Z</time></trkpt><trkpt lat="45.150676440940174" lon="8.442410267707071"><ele>114.0</ele><time>2026-03-29T10:01:44Z</time></trkpt><trkpt lat="45.15057679134577" lon="8.442518132402057"><ele>114.0</ele><time>2026-03-29T10:01:45Z</time></trkpt><trkpt lat="45.15047115464098" lon="8.442622968176972"><ele>114.0</ele><time>2026-03-29T10:01:46Z</time></trkpt><trkpt lat="45.15036022011048" lon="8.442727082386027"><ele>114.0</ele><time>2026-03-29T10:01:47Z</time></trkpt><trkpt lat="45.15024478457292" lon="8.442824756414133"><ele>114.0</ele><time>2026-03-29T10:01:48Z</time></trkpt><trkpt lat="45.15012835677455" lon="8.44291835921314"><ele>114.25</ele><time>2026-03-29T10:01:49Z</time></trkpt><trkpt lat="45.150005579150154" lon="8.443010036892751"><ele>114.5</ele><time>2026-03-29T10:01:50Z</time></trkpt><trkpt lat="45.14987652887255" lon="8.443095578131029"><ele>114.75</ele><time>2026-03-29T10:01:51Z</time></trkpt><trkpt lat="45.14974875432659" lon="8.443175647188848"><ele>115.0</ele><time>2026-03-29T10:01:52Z</time></trkpt><trkpt lat="45.149622132700586" lon="8.443249546793407"><ele>115.25</ele><time>2026-03-29T10:01:53Z</time></trkpt><trkpt lat="45.1494955321708" lon="8.443323415060183"><ele>115.5</ele><time>2026-03-29T10:01:54Z</time></trkpt><trkpt lat="45.149365289968095" lon="8.443398446087986"><ele>115.75</ele><time>2026-03-29T10:01:55Z</time></trkpt><trkpt lat="45.149235576264374" lon="8.443473435430148"><ele>116.0</ele><time>2026-03-29T10:01:56Z</time></trkpt><trkpt lat="45.14910547283411" lon="8.443547737551679"><ele>116.25</ele><time>2026-03-29T10:01:57Z</time></trkpt><trkpt lat="45.14897667551415" lon="8.443618143311541"><ele>116.5</ele><time>2026-03-29T10:01:58Z</time></trkpt><trkpt lat="45.14884984516846" lon="8.443689515595997"><ele>116.75</ele><time>2026-03-29T10:01:59Z</time></trkpt><trkpt lat="45.148718755453785" lon="8.443761050868423"><ele>117.0</ele><time>2026-03-29T10:02:00Z</time></trkpt><trkpt lat="45.148587685523616" lon="8.44383512689567"><ele>116.25</ele><time>2026-03-29T10:02:00.999Z</time></trkpt><trkpt lat="45.148455896520446" lon="8.443910174843056"><ele>115.5</ele><time>2026-03-29T10:02:01.999Z</time></trkpt><trkpt lat="45.14832789662467" lon="8.443977560437753"><ele>114.75</ele><time>2026-03-29T10:02:02.999Z</time></trkpt><trkpt lat="45.14820676686118" lon="8.444045471942117"><ele>114.0</ele><time>2026-03-29T10:02:03.999Z</time></trkpt><trkpt lat="45.14808859647524" lon="8.444117744563721"><ele>114.0</ele><time>2026-03-29T10:02:04.999Z</time></trkpt><trkpt lat="45.14797077003265" lon="8.44418308409737"><ele>114.0</ele><time>2026-03-29T10:02:05.999Z</time></trkpt><trkpt lat="45.14785479471469" lon="8.44424556130018"><ele>114.0</ele><time>2026-03-29T10:02:06.999Z</time></trkpt><trkpt lat="45.1477395010691" lon="8.444308134809047"><ele>114.0</ele><time>2026-03-29T10:02:07.999Z</time></trkpt><trkpt lat="45.147626198404886" lon="8.444371260631451"><ele>114.0</ele><time>2026-03-29T10:02:08.999Z</time></trkpt><trkpt lat="45.14751355667675" lon="8.44444257501717"><ele>114.0</ele><time>2026-03-29T10:02:09.999Z</time></trkpt><trkpt lat="45.14740074142758" lon="8.444509473756023"><ele>114.0</ele><time>2026-03-29T10:02:10.999Z</time></trkpt><trkpt lat="45.14729043377712" lon="8.444572584665313"><ele>114.0</ele><time>2026-03-29T10:02:11.999Z</time></trkpt><trkpt lat="45.14717863685237" lon="8.444635942630171"><ele>114.25</ele><time>2026-03-29T10:02:12.999Z</time></trkpt><trkpt lat="45.14706772436868" lon="8.444697938465303"><ele>114.5</ele><time>2026-03-29T10:02:13.999Z</time></trkpt><trkpt lat="45.14695846601394" lon="8.444755003278592"><ele>114.75</ele><time>2026-03-29T10:02:14.999Z</time></trkpt><trkpt lat="45.14685557879187" lon="8.444816933137728"><ele>115.0</ele><time>2026-03-29T10:02:15.999Z</time></trkpt><trkpt lat="45.14675931257087" lon="8.444871464596517"><ele>115.00000000000001</ele><time>2026-03-29T10:02:16.999Z</time></trkpt><trkpt lat="45.146674825692195" lon="8.44492110608571"><ele>115.0</ele><time>2026-03-29T10:02:17.999Z</time></trkpt><trkpt lat="45.14659349844947" lon="8.444963645569755"><ele>115.0</ele><time>2026-03-29T10:02:18.999Z</time></trkpt><trkpt lat="45.14652332490053" lon="8.444999662494578"><ele>115.0</ele><time>2026-03-29T10:02:19.999Z</time></trkpt><trkpt lat="45.14645558168656" lon="8.445028907206327"><ele>115.00000000000001</ele><time>2026-03-29T10:02:20.999Z</time></trkpt><trkpt lat="45.14634751191658" lon="8.445060557643329"><ele>115.0</ele><time>2026-03-29T10:02:22.999Z</time></trkpt><trkpt lat="45.14624445001976" lon="8.445077843766942"><ele>115.6</ele><time>2026-03-29T10:02:24.999Z</time></trkpt><trkpt lat="45.146121534305216" lon="8.445172850568015"><ele>116.2</ele><time>2026-03-29T10:02:26.999Z</time></trkpt><trkpt lat="45.14604986810537" lon="8.445246877201392"><ele>116.80000000000001</ele><time>2026-03-29T10:02:27.999Z</time></trkpt><trkpt lat="45.14596326272245" lon="8.445304326187006"><ele>117.4</ele><time>2026-03-29T10:02:28.999Z</time></trkpt><trkpt lat="45.14589155057338" lon="8.445351877781162"><ele>118.0</ele><time>2026-03-29T10:02:29.999Z</time></trkpt><trkpt lat="45.14580737433538" lon="8.445409374675346"><ele>118.0</ele><time>2026-03-29T10:02:30.999Z</time></trkpt><trkpt lat="45.1457173484184" lon="8.445455200929333"><ele>118.00000000000001</ele><time>2026-03-29T10:02:31.999Z</time></trkpt><trkpt lat="45.145619880758346" lon="8.44550857766392"><ele>118.00000000000001</ele><time>2026-03-29T10:02:32.999Z</time></trkpt><trkpt lat="45.145511228800785" lon="8.44557114711735"><ele>118.0</ele><time>2026-03-29T10:02:33.999Z</time></trkpt><trkpt lat="45.14540598434832" lon="8.44562704008638"><ele>118.0</ele><time>2026-03-29T10:02:34.999Z</time></trkpt><trkpt lat="45.14530973458925" lon="8.445683180563998"><ele>117.80000000000001</ele><time>2026-03-29T10:02:35.999Z</time></trkpt><trkpt lat="45.145220135833455" lon="8.445732879681913"><ele>117.60000000000001</ele><time>2026-03-29T10:02:36.999Z</time></trkpt><trkpt lat="45.145132538023375" lon="8.445785565561813"><ele>117.39999999999999</ele><time>2026-03-29T10:02:37.999Z</time></trkpt><trkpt lat="45.14504200868598" lon="8.445834672048072"><ele>117.19999999999999</ele><time>2026-03-29T10:02:38.999Z</time></trkpt><trkpt lat="45.144955023218046" lon="8.445884407616646"><ele>117.0</ele><time>2026-03-29T10:02:39.999Z</time></trkpt><trkpt lat="45.14487016627063" lon="8.445930293908699"><ele>117.0</ele><time>2026-03-29T10:02:40.999Z</time></trkpt><trkpt lat="45.14478158563549" lon="8.445982611463515"><ele>116.99999999999999</ele><time>2026-03-29T10:02:41.999Z</time></trkpt><trkpt lat="45.144695833285674" lon="8.446040462975503"><ele>116.99999999999999</ele><time>2026-03-29T10:02:42.999Z</time></trkpt><trkpt lat="45.144606899974306" lon="8.446091925816969"><ele>117.0</ele><time>2026-03-29T10:02:43.999Z</time></trkpt><trkpt lat="45.14451341204756" lon="8.446145279989311"><ele>117.0</ele><time>2026-03-29T10:02:44.999Z</time></trkpt><trkpt lat="45.144422636006" lon="8.446193107317772"><ele>117.0</ele><time>2026-03-29T10:02:45.999Z</time></trkpt><trkpt lat="45.1443304187909" lon="8.446242382373244"><ele>116.99999999999999</ele><time>2026-03-29T10:02:46.999Z</time></trkpt><trkpt lat="45.14423913742298" lon="8.446296698665437"><ele>116.99999999999999</ele><time>2026-03-29T10:02:47.999Z</time></trkpt><trkpt lat="45.14414771821814" lon="8.446356020166323"><ele>117.0</ele><time>2026-03-29T10:02:48.999Z</time></trkpt><trkpt lat="45.14405213865696" lon="8.446415307661503"><ele>117.0</ele><time>2026-03-29T10:02:49.999Z</time></trkpt><trkpt lat="45.14395444723351" lon="8.446470310237423"><ele>117.0</ele><time>2026-03-29T10:02:50.999Z</time></trkpt><trkpt lat="45.14385536988702" lon="8.446519051905321"><ele>116.99999999999999</ele><time>2026-03-29T10:02:51.999Z</time></trkpt><trkpt lat="45.14375770100407" lon="8.446571021657194"><ele>116.99999999999999</ele><time>2026-03-29T10:02:52.999Z</time></trkpt><trkpt lat="45.14367089083938" lon="8.446612260252847"><ele>117.0</ele><time>2026-03-29T10:02:53.999Z</time></trkpt><trkpt lat="45.143590796113294" lon="8.44665468534489"><ele>117.0</ele><time>2026-03-29T10:02:54.999Z</time></trkpt><trkpt lat="45.14351833819708" lon="8.44669725041817"><ele>117.0</ele><time>2026-03-29T10:02:55.999Z</time></trkpt><trkpt lat="45.143457791656516" lon="8.446733240552852"><ele>117.0</ele><time>2026-03-29T10:02:56.999Z</time></trkpt><trkpt lat="45.14334689335717" lon="8.44677266422828"><ele>117.0</ele><time>2026-03-29T10:02:58.999Z</time></trkpt><trkpt lat="45.14328341261417" lon="8.446757562701492"><ele>117.0</ele><time>2026-03-29T10:02:59.999Z</time></trkpt><trkpt lat="45.143212141297646" lon="8.446724888153069"><ele>117.0</ele><time>2026-03-29T10:03:00.999Z</time></trkpt><trkpt lat="45.143137932313756" lon="8.446702620218185"><ele>117.0</ele><time>2026-03-29T10:03:01.999Z</time></trkpt><trkpt lat="45.143068877571615" lon="8.446709798262694"><ele>116.39999999999999</ele><time>2026-03-29T10:03:02.999Z</time></trkpt><trkpt lat="45.14299352633302" lon="8.446749538527893"><ele>115.79999999999998</ele><time>2026-03-29T10:03:03.999Z</time></trkpt><trkpt lat="45.1429280962562" lon="8.446819557965435"><ele>115.2</ele><time>2026-03-29T10:03:04.999Z</time></trkpt><trkpt lat="45.14286062828041" lon="8.44689839709235"><ele>114.6</ele><time>2026-03-29T10:03:05.999Z</time></trkpt><trkpt lat="45.14278358757249" lon="8.446984591289803"><ele>114.0</ele><time>2026-03-29T10:03:06.999Z</time></trkpt><trkpt lat="45.142691743067594" lon="8.447056321555008"><ele>114.0</ele><time>2026-03-29T10:03:07.999Z</time></trkpt><trkpt lat="45.1425918312271" lon="8.447118892350204"><ele>114.0</ele><time>2026-03-29T10:03:08.999Z</time></trkpt><trkpt lat="45.142496109832884" lon="8.447174259817187"><ele>114.0</ele><time>2026-03-29T10:03:09.999Z</time></trkpt><trkpt lat="45.14239593327503" lon="8.447233797705254"><ele>114.0</ele><time>2026-03-29T10:03:10.999Z</time></trkpt><trkpt lat="45.14228815355771" lon="8.447300636253708"><ele>114.0</ele><time>2026-03-29T10:03:11.999Z</time></trkpt><trkpt lat="45.14218540344918" lon="8.447360945388365"><ele>112.25</ele><time>2026-03-29T10:03:12.999Z</time></trkpt><trkpt lat="45.14208333075713" lon="8.447422246253483"><ele>110.5</ele><time>2026-03-29T10:03:13.999Z</time></trkpt><trkpt lat="45.141971852077624" lon="8.447483007496697"><ele>108.75</ele><time>2026-03-29T10:03:14.999Z</time></trkpt><trkpt lat="45.14185931052755" lon="8.447549193838402"><ele>107.0</ele><time>2026-03-29T10:03:15.998Z</time></trkpt><trkpt lat="45.14172251852334" lon="8.447624288128898"><ele>107.0</ele><time>2026-03-29T10:03:16.998Z</time></trkpt><trkpt lat="45.1415703012936" lon="8.447704724689844"><ele>107.0</ele><time>2026-03-29T10:03:17.998Z</time></trkpt><trkpt lat="45.14144469657065" lon="8.447770934448585"><ele>107.0</ele><time>2026-03-29T10:03:18.998Z</time></trkpt><trkpt lat="45.141329201201195" lon="8.447830319752175"><ele>107.0</ele><time>2026-03-29T10:03:19.998Z</time></trkpt><trkpt lat="45.14122651122023" lon="8.447883694690011"><ele>107.99999999999999</ele><time>2026-03-29T10:03:20.998Z</time></trkpt><trkpt lat="45.14114453097677" lon="8.44792967306503"><ele>109.0</ele><time>2026-03-29T10:03:21.998Z</time></trkpt><trkpt lat="45.14107740362913" lon="8.447968337724113"><ele>110.0</ele><time>2026-03-29T10:03:23Z</time></trkpt><trkpt lat="45.14101262042512" lon="8.448007412050867"><ele>111.0</ele><time>2026-03-29T10:03:24Z</time></trkpt><trkpt lat="45.140948434107976" lon="8.448047085648687"><ele>111.99999999999999</ele><time>2026-03-29T10:03:25Z</time></trkpt><trkpt lat="45.140842320685984" lon="8.448086967916165"><ele>113.0</ele><time>2026-03-29T10:03:27Z</time></trkpt><trkpt lat="45.14072999993303" lon="8.44805361764117"><ele>114.60000000000001</ele><time>2026-03-29T10:03:29Z</time></trkpt><trkpt lat="45.14060889989194" lon="8.447911014178313"><ele>116.20000000000002</ele><time>2026-03-29T10:03:31Z</time></trkpt><trkpt lat="45.14054476267706" lon="8.44782944927206"><ele>117.8</ele><time>2026-03-29T10:03:32Z</time></trkpt><trkpt lat="45.14048143137155" lon="8.447748172348383"><ele>119.4</ele><time>2026-03-29T10:03:33Z</time></trkpt><trkpt lat="45.140421757161825" lon="8.44766010359925"><ele>121.0</ele><time>2026-03-29T10:03:34Z</time></trkpt><trkpt lat="45.14036671880938" lon="8.447562423373109"><ele>121.0</ele><time>2026-03-29T10:03:35Z</time></trkpt><trkpt lat="45.14031109103765" lon="8.447447576348502"><ele>121.0</ele><time>2026-03-29T10:03:36Z</time></trkpt><trkpt lat="45.14026476318061" lon="8.447338699405613"><ele>121.0</ele><time>2026-03-29T10:03:37Z</time></trkpt><trkpt lat="45.14021108616469" lon="8.447220505341088"><ele>121.0</ele><time>2026-03-29T10:03:38Z</time></trkpt><trkpt lat="45.14014760012603" lon="8.447108993026617"><ele>121.0</ele><time>2026-03-29T10:03:39Z</time></trkpt><trkpt lat="45.140082662780074" lon="8.447008007740566"><ele>120.25</ele><time>2026-03-29T10:03:40Z</time></trkpt><trkpt lat="45.140005272293635" lon="8.446909868215679"><ele>119.5</ele><time>2026-03-29T10:03:41Z</time></trkpt><trkpt lat="45.139909784948635" lon="8.446801094273438"><ele>118.75</ele><time>2026-03-29T10:03:42Z</time></trkpt><trkpt lat="45.139790409404135" lon="8.446747504948505"><ele>118.0</ele><time>2026-03-29T10:03:43Z</time></trkpt><trkpt lat="45.13967638179763" lon="8.4466846871163"><ele>118.0</ele><time>2026-03-29T10:03:44Z</time></trkpt><trkpt lat="45.13956583100473" lon="8.446630392887519"><ele>118.00000000000001</ele><time>2026-03-29T10:03:45Z</time></trkpt><trkpt lat="45.13945379909674" lon="8.44658067993426"><ele>118.00000000000001</ele><time>2026-03-29T10:03:46Z</time></trkpt><trkpt lat="45.139348281402604" lon="8.44653959832207"><ele>118.0</ele><time>2026-03-29T10:03:47Z</time></trkpt><trkpt lat="45.1392509950867" lon="8.446502296738077"><ele>118.0</ele><time>2026-03-29T10:03:48Z</time></trkpt><trkpt lat="45.139162603526614" lon="8.446468878329249"><ele>118.00000000000001</ele><time>2026-03-29T10:03:49Z</time></trkpt><trkpt lat="45.13908551534502" lon="8.446439262055137"><ele>118.0</ele><time>2026-03-29T10:03:50Z</time></trkpt><trkpt lat="45.13901352186433" lon="8.44640589824912"><ele>118.0</ele><time>2026-03-29T10:03:51Z</time></trkpt><trkpt lat="45.138946674638184" lon="8.446361150756635"><ele>118.0</ele><time>2026-03-29T10:03:52Z</time></trkpt><trkpt lat="45.13887807889198" lon="8.446310885141818"><ele>118.00000000000001</ele><time>2026-03-29T10:03:53Z</time></trkpt><trkpt lat="45.13880489525954" lon="8.446247350392888"><ele>118.0</ele><time>2026-03-29T10:03:54Z</time></trkpt><trkpt lat="45.13872777193165" lon="8.446161630892624"><ele>117.5</ele><time>2026-03-29T10:03:55Z</time></trkpt><trkpt lat="45.138651815768085" lon="8.446050908620865"><ele>117.0</ele><time>2026-03-29T10:03:56Z</time></trkpt><trkpt lat="45.1385747257226" lon="8.445933536331932"><ele>116.5</ele><time>2026-03-29T10:03:57Z</time></trkpt><trkpt lat="45.13848952620092" lon="8.445809041796803"><ele>116.0</ele><time>2026-03-29T10:03:58Z</time></trkpt><trkpt lat="45.138394526478976" lon="8.445686232144729"><ele>116.0</ele><time>2026-03-29T10:03:59Z</time></trkpt><trkpt lat="45.138306311662824" lon="8.445558745367586"><ele>116.0</ele><time>2026-03-29T10:04:00Z</time></trkpt><trkpt lat="45.13822565902308" lon="8.44544839538693"><ele>116.0</ele><time>2026-03-29T10:04:01Z</time></trkpt><trkpt lat="45.13814004269135" lon="8.445328536255964"><ele>116.0</ele><time>2026-03-29T10:04:02Z</time></trkpt><trkpt lat="45.13805552326155" lon="8.445215056418869"><ele>116.4</ele><time>2026-03-29T10:04:03Z</time></trkpt><trkpt lat="45.13797323823235" lon="8.445115194309084"><ele>116.8</ele><time>2026-03-29T10:04:04Z</time></trkpt><trkpt lat="45.137899197471974" lon="8.445019309591618"><ele>117.20000000000002</ele><time>2026-03-29T10:04:05Z</time></trkpt><trkpt lat="45.13782611959685" lon="8.444915596892143"><ele>117.60000000000001</ele><time>2026-03-29T10:04:06Z</time></trkpt><trkpt lat="45.13774837505434" lon="8.444816472059502"><ele>118.0</ele><time>2026-03-29T10:04:07Z</time></trkpt><trkpt lat="45.137669243032036" lon="8.444716751796431"><ele>118.0</ele><time>2026-03-29T10:04:08Z</time></trkpt><trkpt lat="45.137577911182454" lon="8.444635825803237"><ele>118.0</ele><time>2026-03-29T10:04:09Z</time></trkpt><trkpt lat="45.13747015184473" lon="8.444577081361201"><ele>118.0</ele><time>2026-03-29T10:04:10Z</time></trkpt><trkpt lat="45.13735010949114" lon="8.444529869022706"><ele>118.0</ele><time>2026-03-29T10:04:10.999Z</time></trkpt><trkpt lat="45.13722505610223" lon="8.444501455095995"><ele>118.0</ele><time>2026-03-29T10:04:11.999Z</time></trkpt><trkpt lat="45.137098911432254" lon="8.444485695797916"><ele>118.0</ele><time>2026-03-29T10:04:12.999Z</time></trkpt><trkpt lat="45.136969703414294" lon="8.444463826130015"><ele>118.0</ele><time>2026-03-29T10:04:13.999Z</time></trkpt><trkpt lat="45.13684609705686" lon="8.444438865659501"><ele>118.0</ele><time>2026-03-29T10:04:14.999Z</time></trkpt><trkpt lat="45.136718615508926" lon="8.444414281106852"><ele>118.0</ele><time>2026-03-29T10:04:15.999Z</time></trkpt><trkpt lat="45.136595625415524" lon="8.444390640121506"><ele>118.0</ele><time>2026-03-29T10:04:16.999Z</time></trkpt><trkpt lat="45.136471342064425" lon="8.444363659554535"><ele>118.0</ele><time>2026-03-29T10:04:17.999Z</time></trkpt><trkpt lat="45.13635855953566" lon="8.44434323030726"><ele>118.0</ele><time>2026-03-29T10:04:18.999Z</time></trkpt><trkpt lat="45.13625369819457" lon="8.444315594913624"><ele>118.0</ele><time>2026-03-29T10:04:19.999Z</time></trkpt><trkpt lat="45.136156372659926" lon="8.444285402102558"><ele>118.00000000000001</ele><time>2026-03-29T10:04:20.999Z</time></trkpt><trkpt lat="45.13608459885991" lon="8.444262513104107"><ele>118.00000000000001</ele><time>2026-03-29T10:04:21.999Z</time></trkpt><trkpt lat="45.13594769317811" lon="8.444264068193633"><ele>118.0</ele><time>2026-03-29T10:04:23.999Z</time></trkpt><trkpt lat="45.135870393772365" lon="8.444270463447829"><ele>118.0</ele><time>2026-03-29T10:04:24.999Z</time></trkpt><trkpt lat="45.13578492271277" lon="8.444272600150438"><ele>117.60000000000001</ele><time>2026-03-29T10:04:25.999Z</time></trkpt><trkpt lat="45.13569029884053" lon="8.444269963466725"><ele>117.20000000000002</ele><time>2026-03-29T10:04:26.999Z</time></trkpt><trkpt lat="45.135591176588655" lon="8.444262008020935"><ele>116.8</ele><time>2026-03-29T10:04:27.999Z</time></trkpt><trkpt lat="45.135483433852514" lon="8.44426160573445"><ele>116.4</ele><time>2026-03-29T10:04:28.999Z</time></trkpt><trkpt lat="45.13538021269505" lon="8.44426538750996"><ele>116.0</ele><time>2026-03-29T10:04:29.999Z</time></trkpt><trkpt lat="45.13528188170816" lon="8.444270415614701"><ele>115.99999999999999</ele><time>2026-03-29T10:04:30.999Z</time></trkpt><trkpt lat="45.135186062034165" lon="8.444272683808594"><ele>116.0</ele><time>2026-03-29T10:04:31.999Z</time></trkpt><trkpt lat="45.13509504080552" lon="8.44427902809169"><ele>116.0</ele><time>2026-03-29T10:04:32.999Z</time></trkpt><trkpt lat="45.135010574169115" lon="8.444287856355357"><ele>116.0</ele><time>2026-03-29T10:04:33.999Z</time></trkpt><trkpt lat="45.13493223652903" lon="8.444295339539817"><ele>115.99999999999999</ele><time>2026-03-29T10:04:34.999Z</time></trkpt><trkpt lat="45.13486413804581" lon="8.444299577964395"><ele>116.0</ele><time>2026-03-29T10:04:35.999Z</time></trkpt><trkpt lat="45.134749150717575" lon="8.444293242966095"><ele>115.99999999999999</ele><time>2026-03-29T10:04:37.999Z</time></trkpt><trkpt lat="45.134682726440836" lon="8.444289239087887"><ele>116.0</ele><time>2026-03-29T10:04:38.999Z</time></trkpt><trkpt lat="45.1346048598102" lon="8.444298073009017"><ele>116.0</ele><time>2026-03-29T10:04:39.999Z</time></trkpt><trkpt lat="45.1345095924395" lon="8.444310932795663"><ele>116.0</ele><time>2026-03-29T10:04:40.999Z</time></trkpt><trkpt lat="45.13440983678668" lon="8.444322383645497"><ele>115.99999999999999</ele><time>2026-03-29T10:04:41.999Z</time></trkpt><trkpt lat="45.13430962555935" lon="8.4443319844912"><ele>116.0</ele><time>2026-03-29T10:04:42.999Z</time></trkpt><trkpt lat="45.134208855870035" lon="8.444337467710973"><ele>115.99999999999999</ele><time>2026-03-29T10:04:43.999Z</time></trkpt><trkpt lat="45.13411481979982" lon="8.444350705582238"><ele>116.0</ele><time>2026-03-29T10:04:44.999Z</time></trkpt><trkpt lat="45.13402213200615" lon="8.444366739511505"><ele>116.0</ele><time>2026-03-29T10:04:45.999Z</time></trkpt><trkpt lat="45.133932081673876" lon="8.444384796841783"><ele>116.0</ele><time>2026-03-29T10:04:46.999Z</time></trkpt><trkpt lat="45.13385148895821" lon="8.444414109251426"><ele>115.99999999999999</ele><time>2026-03-29T10:04:47.999Z</time></trkpt><trkpt lat="45.13378711976548" lon="8.444448708004542"><ele>116.0</ele><time>2026-03-29T10:04:48.999Z</time></trkpt><trkpt lat="45.13372825259996" lon="8.444486719331177"><ele>115.99999999999999</ele><time>2026-03-29T10:04:49.999Z</time></trkpt><trkpt lat="45.13364317719594" lon="8.444549452665456"><ele>116.0</ele><time>2026-03-29T10:04:51.999Z</time></trkpt><trkpt lat="45.13357608450878" lon="8.44460918078976"><ele>116.0</ele><time>2026-03-29T10:04:53.999Z</time></trkpt><trkpt lat="45.13351382942" lon="8.444652558883103"><ele>116.0</ele><time>2026-03-29T10:04:56.999Z</time></trkpt><trkpt lat="45.1334227063332" lon="8.444684178667773"><ele>115.99999999999999</ele><time>2026-03-29T10:04:59.999Z</time></trkpt><trkpt lat="45.133358389720016" lon="8.444665268303854"><ele>116.0</ele><time>2026-03-29T10:05:01.999Z</time></trkpt><trkpt lat="45.13328775605779" lon="8.444617418402263"><ele>116.8</ele><time>2026-03-29T10:05:04.999Z</time></trkpt><trkpt lat="45.13321715773615" lon="8.444564313147058"><ele>117.6</ele><time>2026-03-29T10:05:07.999Z</time></trkpt><trkpt lat="45.13313009802652" lon="8.444510230394574"><ele>118.4</ele><time>2026-03-29T10:05:10.999Z</time></trkpt><trkpt lat="45.13306254845669" lon="8.444466207997703"><ele>119.2</ele><time>2026-03-29T10:05:12.999Z</time></trkpt><trkpt lat="45.13300618318294" lon="8.44454998946854"><ele>120.0</ele><time>2026-03-29T10:05:13.999Z</time></trkpt><trkpt lat="45.13292907757064" lon="8.444701883683376"><ele>120.0</ele><time>2026-03-29T10:05:15.999Z</time></trkpt><trkpt lat="45.13288410333393" lon="8.444803705884448"><ele>120.0</ele><time>2026-03-29T10:05:16.999Z</time></trkpt><trkpt lat="45.132838065413694" lon="8.444902089598498"><ele>120.0</ele><time>2026-03-29T10:05:17.999Z</time></trkpt><trkpt lat="45.132788614111" lon="8.444993793649385"><ele>120.0</ele><time>2026-03-29T10:05:18.999Z</time></trkpt><trkpt lat="45.13272540339877" lon="8.44509941130361"><ele>120.0</ele><time>2026-03-29T10:05:19.999Z</time></trkpt><trkpt lat="45.132657016970406" lon="8.445205746112242"><ele>120.0</ele><time>2026-03-29T10:05:20.999Z</time></trkpt><trkpt lat="45.13258752575157" lon="8.445313172077748"><ele>120.0</ele><time>2026-03-29T10:05:21.999Z</time></trkpt><trkpt lat="45.13250633346497" lon="8.445436413065623"><ele>120.0</ele><time>2026-03-29T10:05:22.999Z</time></trkpt><trkpt lat="45.13242198045775" lon="8.445560109119272"><ele>120.0</ele><time>2026-03-29T10:05:23.999Z</time></trkpt><trkpt lat="45.13234488974337" lon="8.44567564835188"><ele>120.0</ele><time>2026-03-29T10:05:24.999Z</time></trkpt><trkpt lat="45.132266252661" lon="8.44579334032923"><ele>119.0</ele><time>2026-03-29T10:05:25.999Z</time></trkpt><trkpt lat="45.132184054730764" lon="8.445915524895394"><ele>118.0</ele><time>2026-03-29T10:05:26.999Z</time></trkpt><trkpt lat="45.1320910723724" lon="8.446048947267386"><ele>117.0</ele><time>2026-03-29T10:05:28Z</time></trkpt><trkpt lat="45.13199826754232" lon="8.44618335561606"><ele>116.0</ele><time>2026-03-29T10:05:29Z</time></trkpt><trkpt lat="45.13190456935907" lon="8.446319602629286"><ele>116.0</ele><time>2026-03-29T10:05:30Z</time></trkpt><trkpt lat="45.13180897917303" lon="8.446455012049302"><ele>116.0</ele><time>2026-03-29T10:05:31Z</time></trkpt><trkpt lat="45.13171516147381" lon="8.44659266050232"><ele>116.0</ele><time>2026-03-29T10:05:32Z</time></trkpt><trkpt lat="45.13162137038377" lon="8.446732524690068"><ele>116.0</ele><time>2026-03-29T10:05:33Z</time></trkpt><trkpt lat="45.13152760009845" lon="8.446871984414084"><ele>116.25</ele><time>2026-03-29T10:05:34Z</time></trkpt><trkpt lat="45.1314343479151" lon="8.447000471495906"><ele>116.5</ele><time>2026-03-29T10:05:35Z</time></trkpt><trkpt lat="45.13134862387307" lon="8.44712939802607"><ele>116.75</ele><time>2026-03-29T10:05:36Z</time></trkpt><trkpt lat="45.13126290980819" lon="8.447260686554717"><ele>117.0</ele><time>2026-03-29T10:05:37Z</time></trkpt><trkpt lat="45.13117731732676" lon="8.44738670498131"><ele>117.0</ele><time>2026-03-29T10:05:38Z</time></trkpt><trkpt lat="45.131095269656896" lon="8.447506861924637"><ele>116.99999999999999</ele><time>2026-03-29T10:05:39Z</time></trkpt><trkpt lat="45.13101607306938" lon="8.447621736204505"><ele>116.99999999999999</ele><time>2026-03-29T10:05:40Z</time></trkpt><trkpt lat="45.13094394988979" lon="8.447722857570513"><ele>117.0</ele><time>2026-03-29T10:05:41Z</time></trkpt><trkpt lat="45.130870372288186" lon="8.447827274749237"><ele>117.0</ele><time>2026-03-29T10:05:42Z</time></trkpt><trkpt lat="45.13079924901226" lon="8.447931766124976"><ele>117.16666666666667</ele><time>2026-03-29T10:05:43Z</time></trkpt><trkpt lat="45.130731251059466" lon="8.448036382422403"><ele>117.33333333333334</ele><time>2026-03-29T10:05:44Z</time></trkpt><trkpt lat="45.130662974694744" lon="8.448136363122282"><ele>117.5</ele><time>2026-03-29T10:05:45Z</time></trkpt><trkpt lat="45.13060024026768" lon="8.448226177245262"><ele>117.66666666666667</ele><time>2026-03-29T10:05:46Z</time></trkpt><trkpt lat="45.13054668752951" lon="8.448304315650391"><ele>117.83333333333334</ele><time>2026-03-29T10:05:47Z</time></trkpt><trkpt lat="45.13049813359004" lon="8.448372889970356"><ele>118.0</ele><time>2026-03-29T10:05:48Z</time></trkpt><trkpt lat="45.13041446128729" lon="8.448462897751389"><ele>118.16666666666667</ele><time>2026-03-29T10:05:50Z</time></trkpt><trkpt lat="45.13034410975838" lon="8.448519021764806"><ele>118.33333333333334</ele><time>2026-03-29T10:05:52Z</time></trkpt><trkpt lat="45.13027189647606" lon="8.448588063403262"><ele>118.5</ele><time>2026-03-29T10:05:54Z</time></trkpt><trkpt lat="45.13023104665524" lon="8.448659950929386"><ele>118.66666666666666</ele><time>2026-03-29T10:05:55Z</time></trkpt><trkpt lat="45.130195543240696" lon="8.44874785726559"><ele>118.83333333333333</ele><time>2026-03-29T10:05:56Z</time></trkpt><trkpt lat="45.13015734217819" lon="8.448854160688326"><ele>119.0</ele><time>2026-03-29T10:05:57Z</time></trkpt><trkpt lat="45.13010388980288" lon="8.448947326368584"><ele>119.0</ele><time>2026-03-29T10:05:58Z</time></trkpt><trkpt lat="45.13004574438996" lon="8.449042370505078"><ele>119.0</ele><time>2026-03-29T10:05:59Z</time></trkpt><trkpt lat="45.12998550988224" lon="8.44913004422722"><ele>119.0</ele><time>2026-03-29T10:06:00Z</time></trkpt><trkpt lat="45.12991310078718" lon="8.449236600902937"><ele>119.0</ele><time>2026-03-29T10:06:01Z</time></trkpt><trkpt lat="45.12984259673993" lon="8.449345466869639"><ele>119.0</ele><time>2026-03-29T10:06:02Z</time></trkpt><trkpt lat="45.129772399357634" lon="8.449446693641056"><ele>119.0</ele><time>2026-03-29T10:06:03Z</time></trkpt><trkpt lat="45.129702869732995" lon="8.449553671876718"><ele>119.0</ele><time>2026-03-29T10:06:04Z</time></trkpt><trkpt lat="45.12962855029354" lon="8.449664472128484"><ele>119.0</ele><time>2026-03-29T10:06:05Z</time></trkpt><trkpt lat="45.129545961236616" lon="8.449782471947044"><ele>119.0</ele><time>2026-03-29T10:06:06Z</time></trkpt><trkpt lat="45.12946960135599" lon="8.449893775584604"><ele>119.0</ele><time>2026-03-29T10:06:07Z</time></trkpt><trkpt lat="45.12939825726045" lon="8.45000127771496"><ele>118.83333333333333</ele><time>2026-03-29T10:06:08Z</time></trkpt><trkpt lat="45.129329449694694" lon="8.450102994173914"><ele>118.66666666666666</ele><time>2026-03-29T10:06:09Z</time></trkpt><trkpt lat="45.12927034529438" lon="8.450201898179467"><ele>118.5</ele><time>2026-03-29T10:06:10Z</time></trkpt><trkpt lat="45.129215905670115" lon="8.450290417046505"><ele>118.33333333333334</ele><time>2026-03-29T10:06:11Z</time></trkpt><trkpt lat="45.12916714232683" lon="8.45037284204303"><ele>118.16666666666667</ele><time>2026-03-29T10:06:12Z</time></trkpt><trkpt lat="45.12912762791069" lon="8.45044559918508"><ele>118.0</ele><time>2026-03-29T10:06:13Z</time></trkpt><trkpt lat="45.12908100947327" lon="8.450519058456386"><ele>117.80000000000001</ele><time>2026-03-29T10:06:14Z</time></trkpt><trkpt lat="45.12902565762463" lon="8.450590916015637"><ele>117.60000000000001</ele><time>2026-03-29T10:06:15Z</time></trkpt><trkpt lat="45.12896269833595" lon="8.450642288197797"><ele>117.39999999999999</ele><time>2026-03-29T10:06:16Z</time></trkpt><trkpt lat="45.12884556388224" lon="8.45068934166636"><ele>117.19999999999999</ele><time>2026-03-29T10:06:18Z</time></trkpt><trkpt lat="45.12871724558348" lon="8.450702042578259"><ele>117.0</ele><time>2026-03-29T10:06:20Z</time></trkpt><trkpt lat="45.128643161331624" lon="8.450710298150826"><ele>117.0</ele><time>2026-03-29T10:06:21Z</time></trkpt><trkpt lat="45.128550776014436" lon="8.450719053475767"><ele>116.99999999999999</ele><time>2026-03-29T10:06:21.999Z</time></trkpt><trkpt lat="45.128452792582415" lon="8.450732403265246"><ele>116.99999999999999</ele><time>2026-03-29T10:06:22.999Z</time></trkpt><trkpt lat="45.128344909951046" lon="8.450741959421402"><ele>117.0</ele><time>2026-03-29T10:06:23.999Z</time></trkpt><trkpt lat="45.128225473102034" lon="8.450751765115356"><ele>117.0</ele><time>2026-03-29T10:06:24.999Z</time></trkpt><trkpt lat="45.1280931961306" lon="8.450761963602167"><ele>117.0</ele><time>2026-03-29T10:06:25.999Z</time></trkpt><trkpt lat="45.12796850575395" lon="8.450771517531553"><ele>117.0</ele><time>2026-03-29T10:06:26.999Z</time></trkpt><trkpt lat="45.127847299601484" lon="8.450777297458155"><ele>117.0</ele><time>2026-03-29T10:06:27.999Z</time></trkpt><trkpt lat="45.12772592620787" lon="8.45078414170941"><ele>117.0</ele><time>2026-03-29T10:06:28.999Z</time></trkpt><trkpt lat="45.127604900601966" lon="8.450788257278917"><ele>117.0</ele><time>2026-03-29T10:06:29.999Z</time></trkpt><trkpt lat="45.12748628568261" lon="8.450796872935566"><ele>116.99999999999999</ele><time>2026-03-29T10:06:30.999Z</time></trkpt><trkpt lat="45.12737667438163" lon="8.450805219934685"><ele>116.99999999999999</ele><time>2026-03-29T10:06:31.999Z</time></trkpt><trkpt lat="45.12726979335994" lon="8.45081249508897"><ele>117.0</ele><time>2026-03-29T10:06:32.999Z</time></trkpt><trkpt lat="45.1271647901865" lon="8.45082081106974"><ele>117.0</ele><time>2026-03-29T10:06:33.999Z</time></trkpt><trkpt lat="45.127058238615845" lon="8.450825544855777"><ele>117.19999999999999</ele><time>2026-03-29T10:06:34.999Z</time></trkpt><trkpt lat="45.12695879936393" lon="8.450829826532079"><ele>117.39999999999999</ele><time>2026-03-29T10:06:35.999Z</time></trkpt><trkpt lat="45.12685365988406" lon="8.450839129322425"><ele>117.60000000000001</ele><time>2026-03-29T10:06:36.999Z</time></trkpt><trkpt lat="45.12674803386151" lon="8.450845992833882"><ele>117.80000000000001</ele><time>2026-03-29T10:06:37.999Z</time></trkpt><trkpt lat="45.12664065301536" lon="8.450852883013638"><ele>118.0</ele><time>2026-03-29T10:06:38.999Z</time></trkpt><trkpt lat="45.12653315097717" lon="8.450856003553747"><ele>118.0</ele><time>2026-03-29T10:06:39.999Z</time></trkpt><trkpt lat="45.12642484143921" lon="8.4508614559224"><ele>118.00000000000001</ele><time>2026-03-29T10:06:40.999Z</time></trkpt><trkpt lat="45.12632381795074" lon="8.45086948844889"><ele>118.00000000000001</ele><time>2026-03-29T10:06:41.999Z</time></trkpt><trkpt lat="45.126221715827484" lon="8.450875441043564"><ele>118.0</ele><time>2026-03-29T10:06:42.999Z</time></trkpt><trkpt lat="45.126116287102754" lon="8.450880879494129"><ele>118.0</ele><time>2026-03-29T10:06:43.999Z</time></trkpt><trkpt lat="45.12600696598926" lon="8.450884034280051"><ele>118.0</ele><time>2026-03-29T10:06:44.999Z</time></trkpt><trkpt lat="45.125900851370666" lon="8.450886638889722"><ele>118.00000000000001</ele><time>2026-03-29T10:06:45.999Z</time></trkpt><trkpt lat="45.125791706847885" lon="8.45089118233812"><ele>118.00000000000001</ele><time>2026-03-29T10:06:46.999Z</time></trkpt><trkpt lat="45.12568117715195" lon="8.450899185126302"><ele>118.0</ele><time>2026-03-29T10:06:47.999Z</time></trkpt><trkpt lat="45.12557569317525" lon="8.450907495675613"><ele>118.0</ele><time>2026-03-29T10:06:48.999Z</time></trkpt><trkpt lat="45.12547840220185" lon="8.450911763372966"><ele>117.60000000000001</ele><time>2026-03-29T10:06:49.999Z</time></trkpt><trkpt lat="45.12538473907388" lon="8.450916167361145"><ele>117.20000000000002</ele><time>2026-03-29T10:06:50.999Z</time></trkpt><trkpt lat="45.125291068583394" lon="8.450916930836263"><ele>116.8</ele><time>2026-03-29T10:06:51.999Z</time></trkpt><trkpt lat="45.12519519809057" lon="8.450917461038586"><ele>116.4</ele><time>2026-03-29T10:06:52.999Z</time></trkpt><trkpt lat="45.125100825739935" lon="8.450920029956821"><ele>116.0</ele><time>2026-03-29T10:06:53.999Z</time></trkpt><trkpt lat="45.12501025599432" lon="8.450926601465405"><ele>115.99999999999999</ele><time>2026-03-29T10:06:54.999Z</time></trkpt><trkpt lat="45.124922881204625" lon="8.45093345884103"><ele>116.0</ele><time>2026-03-29T10:06:55.999Z</time></trkpt><trkpt lat="45.124845370636145" lon="8.450935059443394"><ele>116.0</ele><time>2026-03-29T10:06:56.999Z</time></trkpt><trkpt lat="45.12478176516144" lon="8.450921595241939"><ele>116.0</ele><time>2026-03-29T10:06:57.999Z</time></trkpt><trkpt lat="45.12468343585972" lon="8.450894614426074"><ele>115.99999999999999</ele><time>2026-03-29T10:06:59.999Z</time></trkpt><trkpt lat="45.12459547066477" lon="8.450909586247331"><ele>116.0</ele><time>2026-03-29T10:07:27.999Z</time></trkpt><trkpt lat="45.12450425093201" lon="8.450926241496507"><ele>116.0</ele><time>2026-03-29T10:07:29.999Z</time></trkpt><trkpt lat="45.124402514851724" lon="8.450949545658382"><ele>116.0</ele><time>2026-03-29T10:07:31.999Z</time></trkpt><trkpt lat="45.12427213649371" lon="8.450932928821173"><ele>116.0</ele><time>2026-03-29T10:07:34Z</time></trkpt><trkpt lat="45.124185609063105" lon="8.450959773179408"><ele>116.0</ele><time>2026-03-29T10:07:35Z</time></trkpt><trkpt lat="45.12409436281893" lon="8.450965729522368"><ele>116.0</ele><time>2026-03-29T10:07:36Z</time></trkpt><trkpt lat="45.12400023913405" lon="8.450975964486496"><ele>116.5</ele><time>2026-03-29T10:07:37Z</time></trkpt><trkpt lat="45.12390814544295" lon="8.450982564304828"><ele>117.0</ele><time>2026-03-29T10:07:38Z</time></trkpt><trkpt lat="45.12381290167711" lon="8.45098618756497"><ele>117.5</ele><time>2026-03-29T10:07:39Z</time></trkpt><trkpt lat="45.12369216575964" lon="8.450990853984623"><ele>118.0</ele><time>2026-03-29T10:07:40Z</time></trkpt><trkpt lat="45.123546343686094" lon="8.450999102618683"><ele>118.0</ele><time>2026-03-29T10:07:41Z</time></trkpt><trkpt lat="45.12342506928252" lon="8.451006277831405"><ele>118.0</ele><time>2026-03-29T10:07:42Z</time></trkpt><trkpt lat="45.12330095195463" lon="8.451013208498782"><ele>118.0</ele><time>2026-03-29T10:07:43Z</time></trkpt><trkpt lat="45.12318550972959" lon="8.451018883366103"><ele>118.0</ele><time>2026-03-29T10:07:44Z</time></trkpt><trkpt lat="45.12307698138665" lon="8.451024736802182"><ele>118.2</ele><time>2026-03-29T10:07:45Z</time></trkpt><trkpt lat="45.12297000866201" lon="8.451033433360493"><ele>118.4</ele><time>2026-03-29T10:07:46Z</time></trkpt><trkpt lat="45.12286271291458" lon="8.451039446614413"><ele>118.60000000000001</ele><time>2026-03-29T10:07:47Z</time></trkpt><trkpt lat="45.122759634391755" lon="8.451047982664242"><ele>118.80000000000001</ele><time>2026-03-29T10:07:48Z</time></trkpt><trkpt lat="45.122658472730706" lon="8.451055489433951"><ele>119.0</ele><time>2026-03-29T10:07:49Z</time></trkpt><trkpt lat="45.12255847976688" lon="8.451060281322757"><ele>119.0</ele><time>2026-03-29T10:07:50Z</time></trkpt><trkpt lat="45.12245771017443" lon="8.451064423549663"><ele>119.0</ele><time>2026-03-29T10:07:51Z</time></trkpt><trkpt lat="45.12235933062008" lon="8.451066657929319"><ele>119.0</ele><time>2026-03-29T10:07:52Z</time></trkpt><trkpt lat="45.12226103530499" lon="8.451071464290775"><ele>119.0</ele><time>2026-03-29T10:07:53Z</time></trkpt><trkpt lat="45.1221689441596" lon="8.451075053485535"><ele>119.0</ele><time>2026-03-29T10:07:54Z</time></trkpt><trkpt lat="45.12207776108482" lon="8.451080153068787"><ele>119.16666666666666</ele><time>2026-03-29T10:07:55Z</time></trkpt><trkpt lat="45.121993272845444" lon="8.45108274426817"><ele>119.33333333333333</ele><time>2026-03-29T10:07:56Z</time></trkpt><trkpt lat="45.121915534577845" lon="8.451077022410816"><ele>119.5</ele><time>2026-03-29T10:07:57Z</time></trkpt><trkpt lat="45.121845271588334" lon="8.451063490058482"><ele>119.66666666666666</ele><time>2026-03-29T10:07:58Z</time></trkpt><trkpt lat="45.12177709197544" lon="8.451040080969"><ele>119.83333333333333</ele><time>2026-03-29T10:07:59Z</time></trkpt><trkpt lat="45.121716851387085" lon="8.45100111681594"><ele>120.0</ele><time>2026-03-29T10:08:00Z</time></trkpt><trkpt lat="45.12159734673652" lon="8.450945901515357"><ele>119.83333333333333</ele><time>2026-03-29T10:08:02Z</time></trkpt><trkpt lat="45.12153269176093" lon="8.450953854845242"><ele>119.66666666666666</ele><time>2026-03-29T10:08:03Z</time></trkpt><trkpt lat="45.12146481790883" lon="8.450998470346917"><ele>119.5</ele><time>2026-03-29T10:08:04Z</time></trkpt><trkpt lat="45.12138651265416" lon="8.451051058288153"><ele>119.33333333333333</ele><time>2026-03-29T10:08:05Z</time></trkpt><trkpt lat="45.121296963021905" lon="8.451094431722698"><ele>119.16666666666666</ele><time>2026-03-29T10:08:06Z</time></trkpt><trkpt lat="45.12118892623729" lon="8.4511135198789"><ele>119.0</ele><time>2026-03-29T10:08:07Z</time></trkpt><trkpt lat="45.12106705665116" lon="8.451127846337533"><ele>119.0</ele><time>2026-03-29T10:08:08Z</time></trkpt><trkpt lat="45.12095984878463" lon="8.451139851654869"><ele>119.0</ele><time>2026-03-29T10:08:09Z</time></trkpt><trkpt lat="45.120855326743886" lon="8.451146850809682"><ele>119.0</ele><time>2026-03-29T10:08:10Z</time></trkpt><trkpt lat="45.12075854489438" lon="8.451126587843065"><ele>119.0</ele><time>2026-03-29T10:08:11Z</time></trkpt><trkpt lat="45.120668881522825" lon="8.451147270388393"><ele>119.0</ele><time>2026-03-29T10:08:12Z</time></trkpt><trkpt lat="45.120594486899755" lon="8.45113591012018"><ele>119.2</ele><time>2026-03-29T10:08:13Z</time></trkpt><trkpt lat="45.120529890265495" lon="8.451120005448145"><ele>119.4</ele><time>2026-03-29T10:08:14Z</time></trkpt><trkpt lat="45.120467454600785" lon="8.45110013271119"><ele>119.6</ele><time>2026-03-29T10:08:15Z</time></trkpt><trkpt lat="45.12035165926649" lon="8.451046819034023"><ele>119.8</ele><time>2026-03-29T10:08:17Z</time></trkpt><trkpt lat="45.120228855246744" lon="8.451060506451245"><ele>120.0</ele><time>2026-03-29T10:08:19Z</time></trkpt><trkpt lat="45.12015889372747" lon="8.451120826636396"><ele>120.0</ele><time>2026-03-29T10:08:20Z</time></trkpt><trkpt lat="45.120089333892366" lon="8.451192109582806"><ele>120.0</ele><time>2026-03-29T10:08:21Z</time></trkpt><trkpt lat="45.119989662355145" lon="8.45123443426038"><ele>120.0</ele><time>2026-03-29T10:08:22Z</time></trkpt><trkpt lat="45.11986798339836" lon="8.45123331568939"><ele>120.0</ele><time>2026-03-29T10:08:23Z</time></trkpt><trkpt lat="45.11974924046574" lon="8.451229769282719"><ele>120.0</ele><time>2026-03-29T10:08:24Z</time></trkpt><trkpt lat="45.119630196939355" lon="8.451230156080182"><ele>119.75</ele><time>2026-03-29T10:08:25Z</time></trkpt><trkpt lat="45.11950611303032" lon="8.45123790661797"><ele>119.5</ele><time>2026-03-29T10:08:26Z</time></trkpt><trkpt lat="45.11938081097761" lon="8.451222042772615"><ele>119.25</ele><time>2026-03-29T10:08:27Z</time></trkpt><trkpt lat="45.119255890813214" lon="8.451251499103678"><ele>119.0</ele><time>2026-03-29T10:08:28Z</time></trkpt><trkpt lat="45.11913178607757" lon="8.451257665746159"><ele>119.25</ele><time>2026-03-29T10:08:29Z</time></trkpt><trkpt lat="45.118999426133605" lon="8.451260771467018"><ele>119.5</ele><time>2026-03-29T10:08:30Z</time></trkpt><trkpt lat="45.118863687354896" lon="8.451269067238783"><ele>119.75</ele><time>2026-03-29T10:08:31Z</time></trkpt><trkpt lat="45.118714885996056" lon="8.45127907615571"><ele>120.0</ele><time>2026-03-29T10:08:31.999Z</time></trkpt><trkpt lat="45.1185704316433" lon="8.45128587423888"><ele>119.75</ele><time>2026-03-29T10:08:32.999Z</time></trkpt><trkpt lat="45.11842884685608" lon="8.451294434384662"><ele>119.5</ele><time>2026-03-29T10:08:33.999Z</time></trkpt><trkpt lat="45.11831272214389" lon="8.451301024344382"><ele>119.25</ele><time>2026-03-29T10:08:34.999Z</time></trkpt><trkpt lat="45.118200835293614" lon="8.451306212796405"><ele>119.0</ele><time>2026-03-29T10:08:35.999Z</time></trkpt><trkpt lat="45.11809307166057" lon="8.451309130895709"><ele>118.6</ele><time>2026-03-29T10:08:36.999Z</time></trkpt><trkpt lat="45.11799240096096" lon="8.451306549948775"><ele>118.2</ele><time>2026-03-29T10:08:37.999Z</time></trkpt><trkpt lat="45.11788264291101" lon="8.451307405346697"><ele>117.79999999999998</ele><time>2026-03-29T10:08:38.999Z</time></trkpt><trkpt lat="45.11777429249264" lon="8.45130674502745"><ele>117.39999999999999</ele><time>2026-03-29T10:08:40.073Z</time></trkpt><trkpt lat="45.11766719955165" lon="8.451338849482894"><ele>117.0</ele><time>2026-03-29T10:08:41.067Z</time></trkpt><trkpt lat="45.11699105988409" lon="8.45134422724658"><ele>117.0</ele><time>2026-03-29T10:08:43.999Z</time></trkpt><trkpt lat="45.11684256288513" lon="8.45136000913752"><ele>117.0</ele><time>2026-03-29T10:08:44.999Z</time></trkpt><trkpt lat="45.1167042939496" lon="8.451374322929645"><ele>117.0</ele><time>2026-03-29T10:08:45.999Z</time></trkpt><trkpt lat="45.11658251406618" lon="8.451389727007152"><ele>117.0</ele><time>2026-03-29T10:08:46.999Z</time></trkpt><trkpt lat="45.11646297311803" lon="8.451400489198722"><ele>117.0</ele><time>2026-03-29T10:08:47.999Z</time></trkpt><trkpt lat="45.11634915443331" lon="8.45138760973675"><ele>116.99999999999999</ele><time>2026-03-29T10:08:48.999Z</time></trkpt><trkpt lat="45.116246501316624" lon="8.451415472420756"><ele>116.99999999999999</ele><time>2026-03-29T10:08:49.999Z</time></trkpt><trkpt lat="45.11615379552298" lon="8.451404971782836"><ele>117.0</ele><time>2026-03-29T10:08:50.999Z</time></trkpt><trkpt lat="45.1160631410758" lon="8.45137433021438"><ele>117.0</ele><time>2026-03-29T10:08:51.999Z</time></trkpt><trkpt lat="45.11596946833831" lon="8.45131156802647"><ele>117.19999999999999</ele><time>2026-03-29T10:08:52.999Z</time></trkpt><trkpt lat="45.115878000463155" lon="8.451223852861892"><ele>117.39999999999999</ele><time>2026-03-29T10:08:53.999Z</time></trkpt><trkpt lat="45.11579827894438" lon="8.45112090189783"><ele>117.60000000000001</ele><time>2026-03-29T10:08:54.999Z</time></trkpt><trkpt lat="45.11573164095501" lon="8.451004771829073"><ele>117.80000000000001</ele><time>2026-03-29T10:08:55.999Z</time></trkpt><trkpt lat="45.11567550966632" lon="8.450890517796697"><ele>118.0</ele><time>2026-03-29T10:08:56.999Z</time></trkpt><trkpt lat="45.11561040072896" lon="8.450783983199038"><ele>118.0</ele><time>2026-03-29T10:08:57.999Z</time></trkpt><trkpt lat="45.11552688791566" lon="8.450692516366654"><ele>118.00000000000001</ele><time>2026-03-29T10:08:58.999Z</time></trkpt><trkpt lat="45.11543656972584" lon="8.450635618035129"><ele>118.00000000000001</ele><time>2026-03-29T10:08:59.999Z</time></trkpt><trkpt lat="45.11534333589865" lon="8.450619149160024"><ele>118.0</ele><time>2026-03-29T10:09:00.999Z</time></trkpt><trkpt lat="45.11524858253571" lon="8.45064518531072"><ele>118.0</ele><time>2026-03-29T10:09:01.999Z</time></trkpt><trkpt lat="45.1151486390027" lon="8.450712706944069"><ele>118.0</ele><time>2026-03-29T10:09:02.999Z</time></trkpt><trkpt lat="45.115047083974716" lon="8.450815331601039"><ele>118.0</ele><time>2026-03-29T10:09:03.999Z</time></trkpt><trkpt lat="45.114942069881096" lon="8.450933988583778"><ele>118.0</ele><time>2026-03-29T10:09:04.999Z</time></trkpt><trkpt lat="45.11483126614422" lon="8.451057971299184"><ele>118.0</ele><time>2026-03-29T10:09:05.999Z</time></trkpt><trkpt lat="45.114711318572034" lon="8.45118806052254"><ele>117.75</ele><time>2026-03-29T10:09:06.999Z</time></trkpt><trkpt lat="45.114595949383734" lon="8.451297051569245"><ele>117.5</ele><time>2026-03-29T10:09:07.999Z</time></trkpt><trkpt lat="45.11447152949531" lon="8.451391104720011"><ele>117.25</ele><time>2026-03-29T10:09:08.999Z</time></trkpt><trkpt lat="45.11433126871803" lon="8.451462047052946"><ele>117.0</ele><time>2026-03-29T10:09:09.999Z</time></trkpt><trkpt lat="45.11418015856218" lon="8.45150651256015"><ele>118.0</ele><time>2026-03-29T10:09:10.999Z</time></trkpt><trkpt lat="45.1140204129512" lon="8.451523742029584"><ele>119.0</ele><time>2026-03-29T10:09:11.999Z</time></trkpt><trkpt lat="45.113846905922905" lon="8.451532158163541"><ele>120.0</ele><time>2026-03-29T10:09:12.999Z</time></trkpt><trkpt lat="45.113672605151855" lon="8.451544307030872"><ele>120.0</ele><time>2026-03-29T10:09:13.999Z</time></trkpt><trkpt lat="45.113482221575346" lon="8.451553639083572"><ele>120.0</ele><time>2026-03-29T10:09:14.999Z</time></trkpt><trkpt lat="45.11330327984046" lon="8.45156244881054"><ele>120.0</ele><time>2026-03-29T10:09:15.999Z</time></trkpt><trkpt lat="45.113124494905314" lon="8.451571172108574"><ele>119.33333333333334</ele><time>2026-03-29T10:09:16.999Z</time></trkpt><trkpt lat="45.11294881492759" lon="8.451578540157207"><ele>118.66666666666667</ele><time>2026-03-29T10:09:17.999Z</time></trkpt><trkpt lat="45.11277378046994" lon="8.451587095171664"><ele>118.0</ele><time>2026-03-29T10:09:18.999Z</time></trkpt><trkpt lat="45.11260445229144" lon="8.451598636440835"><ele>118.0</ele><time>2026-03-29T10:09:19.999Z</time></trkpt><trkpt lat="45.11243977432995" lon="8.451610059541165"><ele>118.0</ele><time>2026-03-29T10:09:20.999Z</time></trkpt><trkpt lat="45.11228032329602" lon="8.451620489648171"><ele>118.0</ele><time>2026-03-29T10:09:21.999Z</time></trkpt><trkpt lat="45.112129171907505" lon="8.45163044335768"><ele>118.66666666666667</ele><time>2026-03-29T10:09:22.999Z</time></trkpt><trkpt lat="45.111979515587976" lon="8.451637450700085"><ele>119.33333333333334</ele><time>2026-03-29T10:09:23.999Z</time></trkpt><trkpt lat="45.11182649660301" lon="8.451641897503675"><ele>120.0</ele><time>2026-03-29T10:09:24.999Z</time></trkpt><trkpt lat="45.11167030168799" lon="8.45165142726923"><ele>119.5</ele><time>2026-03-29T10:09:25.999Z</time></trkpt><trkpt lat="45.11152184715952" lon="8.451664395410372"><ele>119.0</ele><time>2026-03-29T10:09:26.999Z</time></trkpt><trkpt lat="45.111372524082995" lon="8.451673824894227"><ele>118.5</ele><time>2026-03-29T10:09:27.999Z</time></trkpt><trkpt lat="45.111226661172196" lon="8.451676337828827"><ele>118.0</ele><time>2026-03-29T10:09:28.999Z</time></trkpt><trkpt lat="45.11107939134765" lon="8.45167785991828"><ele>118.0</ele><time>2026-03-29T10:09:29.999Z</time></trkpt><trkpt lat="45.11092292705161" lon="8.45168242887328"><ele>118.0</ele><time>2026-03-29T10:09:30.999Z</time></trkpt><trkpt lat="45.11076380459218" lon="8.451686743380453"><ele>118.0</ele><time>2026-03-29T10:09:31.999Z</time></trkpt><trkpt lat="45.110679776314" lon="8.451711347705904"><ele>118.0</ele><time>2026-03-29T10:09:32.999Z</time></trkpt><trkpt lat="45.110536351319745" lon="8.45172497979513"><ele>117.75</ele><time>2026-03-29T10:09:33.999Z</time></trkpt><trkpt lat="45.11039887537617" lon="8.451726877092797"><ele>117.5</ele><time>2026-03-29T10:09:34.999Z</time></trkpt><trkpt lat="45.11026306415107" lon="8.451736680991804"><ele>117.25</ele><time>2026-03-29T10:09:35.999Z</time></trkpt><trkpt lat="45.11012611092061" lon="8.451738903458807"><ele>117.0</ele><time>2026-03-29T10:09:36.999Z</time></trkpt><trkpt lat="45.10998439715962" lon="8.451741689330724"><ele>117.25</ele><time>2026-03-29T10:09:37.999Z</time></trkpt><trkpt lat="45.10984151445686" lon="8.451752000018578"><ele>117.5</ele><time>2026-03-29T10:09:38.999Z</time></trkpt><trkpt lat="45.109702487474415" lon="8.45176481171675"><ele>117.75</ele><time>2026-03-29T10:09:40Z</time></trkpt><trkpt lat="45.10956416959961" lon="8.451772888369742"><ele>118.0</ele><time>2026-03-29T10:09:41Z</time></trkpt><trkpt lat="45.10942941753704" lon="8.451777959929686"><ele>118.0</ele><time>2026-03-29T10:09:42Z</time></trkpt><trkpt lat="45.10928483321319" lon="8.45178352548301"><ele>118.0</ele><time>2026-03-29T10:09:43Z</time></trkpt><trkpt lat="45.10910603020775" lon="8.451802533337904"><ele>118.0</ele><time>2026-03-29T10:09:44Z</time></trkpt><trkpt lat="45.10890436359186" lon="8.451792595030385"><ele>118.33333333333334</ele><time>2026-03-29T10:09:45Z</time></trkpt><trkpt lat="45.10870691819063" lon="8.451821979176076"><ele>118.66666666666666</ele><time>2026-03-29T10:09:46Z</time></trkpt><trkpt lat="45.10852783101456" lon="8.451820139679121"><ele>119.0</ele><time>2026-03-29T10:09:47Z</time></trkpt><trkpt lat="45.10835893106022" lon="8.451831695537452"><ele>119.0</ele><time>2026-03-29T10:09:48Z</time></trkpt><trkpt lat="45.10818652577004" lon="8.45184843937065"><ele>119.0</ele><time>2026-03-29T10:09:49Z</time></trkpt><trkpt lat="45.107989132783196" lon="8.451852274469086"><ele>119.0</ele><time>2026-03-29T10:09:50Z</time></trkpt><trkpt lat="45.10777282199126" lon="8.451858829142978"><ele>119.0</ele><time>2026-03-29T10:09:51Z</time></trkpt><trkpt lat="45.107568536198144" lon="8.451873722407855"><ele>119.0</ele><time>2026-03-29T10:09:52Z</time></trkpt><trkpt lat="45.10736731560034" lon="8.451886677005989"><ele>119.0</ele><time>2026-03-29T10:09:53Z</time></trkpt><trkpt lat="45.107164779949855" lon="8.45189582996317"><ele>118.33333333333333</ele><time>2026-03-29T10:09:54Z</time></trkpt><trkpt lat="45.10697951511615" lon="8.451901616014483"><ele>117.66666666666666</ele><time>2026-03-29T10:09:55Z</time></trkpt><trkpt lat="45.10679197901173" lon="8.451912731925765"><ele>117.0</ele><time>2026-03-29T10:09:56Z</time></trkpt><trkpt lat="45.10661131961929" lon="8.451920822553703"><ele>117.0</ele><time>2026-03-29T10:09:57Z</time></trkpt><trkpt lat="45.10643727733533" lon="8.451932855248714"><ele>117.0</ele><time>2026-03-29T10:09:58Z</time></trkpt><trkpt lat="45.10626930571683" lon="8.451949194905376"><ele>117.0</ele><time>2026-03-29T10:09:59Z</time></trkpt><trkpt lat="45.10610087777323" lon="8.451967655450243"><ele>117.0</ele><time>2026-03-29T10:10:00Z</time></trkpt><trkpt lat="45.10593599037731" lon="8.451990897796207"><ele>117.0</ele><time>2026-03-29T10:10:01Z</time></trkpt><trkpt lat="45.10577939156779" lon="8.45201697914177"><ele>117.0</ele><time>2026-03-29T10:10:02Z</time></trkpt><trkpt lat="45.10562905649617" lon="8.452038491701334"><ele>117.66666666666666</ele><time>2026-03-29T10:10:03Z</time></trkpt><trkpt lat="45.10547615098798" lon="8.452057388572017"><ele>118.33333333333333</ele><time>2026-03-29T10:10:04Z</time></trkpt><trkpt lat="45.10532179090952" lon="8.45207709854828"><ele>119.0</ele><time>2026-03-29T10:10:05Z</time></trkpt><trkpt lat="45.105165576581534" lon="8.45209667025602"><ele>119.0</ele><time>2026-03-29T10:10:06Z</time></trkpt><trkpt lat="45.10500857304683" lon="8.452118260294561"><ele>119.0</ele><time>2026-03-29T10:10:07Z</time></trkpt><trkpt lat="45.1048506352633" lon="8.452139743310731"><ele>119.0</ele><time>2026-03-29T10:10:08Z</time></trkpt><trkpt lat="45.10469595290994" lon="8.452156512344661"><ele>118.33333333333333</ele><time>2026-03-29T10:10:09Z</time></trkpt><trkpt lat="45.10454395097672" lon="8.452173971033579"><ele>117.66666666666666</ele><time>2026-03-29T10:10:10Z</time></trkpt><trkpt lat="45.104391024441696" lon="8.452195725921692"><ele>117.0</ele><time>2026-03-29T10:10:11Z</time></trkpt><trkpt lat="45.10424646603706" lon="8.452222230159144"><ele>117.0</ele><time>2026-03-29T10:10:12Z</time></trkpt><trkpt lat="45.10410403812839" lon="8.4522480438348"><ele>117.0</ele><time>2026-03-29T10:10:13Z</time></trkpt><trkpt lat="45.10395823351526" lon="8.452272652091837"><ele>117.0</ele><time>2026-03-29T10:10:14Z</time></trkpt><trkpt lat="45.10381502268976" lon="8.452297870103498"><ele>117.0</ele><time>2026-03-29T10:10:15Z</time></trkpt><trkpt lat="45.10367699187611" lon="8.452325814435737"><ele>117.25</ele><time>2026-03-29T10:10:16Z</time></trkpt><trkpt lat="45.103529356609336" lon="8.452356795427946"><ele>117.5</ele><time>2026-03-29T10:10:17Z</time></trkpt><trkpt lat="45.103383871417826" lon="8.452386797751872"><ele>117.75</ele><time>2026-03-29T10:10:18Z</time></trkpt><trkpt lat="45.103244783405" lon="8.45241492536658"><ele>118.0</ele><time>2026-03-29T10:10:19Z</time></trkpt><trkpt lat="45.103110645975384" lon="8.452442555498791"><ele>118.0</ele><time>2026-03-29T10:10:20Z</time></trkpt><trkpt lat="45.10285800392171" lon="8.452491153749751"><ele>118.0</ele><time>2026-03-29T10:10:22Z</time></trkpt><trkpt lat="45.102733603571515" lon="8.452513092745386"><ele>118.0</ele><time>2026-03-29T10:10:23Z</time></trkpt><trkpt lat="45.102610928986365" lon="8.452539727942046"><ele>118.0</ele><time>2026-03-29T10:10:24Z</time></trkpt><trkpt lat="45.10248487490954" lon="8.452564873548395"><ele>118.0</ele><time>2026-03-29T10:10:25Z</time></trkpt><trkpt lat="45.102359529265726" lon="8.452593746384148"><ele>118.0</ele><time>2026-03-29T10:10:26Z</time></trkpt><trkpt lat="45.10222968245436" lon="8.452619902644953"><ele>118.0</ele><time>2026-03-29T10:10:27Z</time></trkpt><trkpt lat="45.10210307474708" lon="8.452644861113729"><ele>117.75</ele><time>2026-03-29T10:10:28Z</time></trkpt><trkpt lat="45.101983320519075" lon="8.45267219410607"><ele>117.5</ele><time>2026-03-29T10:10:29Z</time></trkpt><trkpt lat="45.101863168866245" lon="8.452698985736053"><ele>117.25</ele><time>2026-03-29T10:10:30Z</time></trkpt><trkpt lat="45.10174503844447" lon="8.452724184076759"><ele>117.0</ele><time>2026-03-29T10:10:31Z</time></trkpt><trkpt lat="45.1016276189031" lon="8.452746344186606"><ele>117.5</ele><time>2026-03-29T10:10:32Z</time></trkpt><trkpt lat="45.10151052562831" lon="8.452775170212874"><ele>118.0</ele><time>2026-03-29T10:10:33Z</time></trkpt><trkpt lat="45.101395460782996" lon="8.45279528426056"><ele>118.5</ele><time>2026-03-29T10:10:34Z</time></trkpt><trkpt lat="45.10128275029203" lon="8.452815527345194"><ele>119.0</ele><time>2026-03-29T10:10:35Z</time></trkpt><trkpt lat="45.10117296910595" lon="8.452836235911192"><ele>119.0</ele><time>2026-03-29T10:10:36Z</time></trkpt><trkpt lat="45.10106428978193" lon="8.452857621292726"><ele>119.0</ele><time>2026-03-29T10:10:36.999Z</time></trkpt><trkpt lat="45.10096079251599" lon="8.45287914736378"><ele>119.0</ele><time>2026-03-29T10:10:37.999Z</time></trkpt><trkpt lat="45.100864559918136" lon="8.452901551970854"><ele>119.0</ele><time>2026-03-29T10:10:38.999Z</time></trkpt><trkpt lat="45.10078344429115" lon="8.452922874948406"><ele>119.0</ele><time>2026-03-29T10:10:39.999Z</time></trkpt><trkpt lat="45.1007097178969" lon="8.45292951849769"><ele>118.80000000000001</ele><time>2026-03-29T10:10:40.999Z</time></trkpt><trkpt lat="45.100601942209344" lon="8.452874850004347"><ele>118.60000000000001</ele><time>2026-03-29T10:10:42.999Z</time></trkpt><trkpt lat="45.10051151351961" lon="8.45279507888359"><ele>118.4</ele><time>2026-03-29T10:10:44.999Z</time></trkpt><trkpt lat="45.10043081385307" lon="8.452836341228597"><ele>118.2</ele><time>2026-03-29T10:10:46.999Z</time></trkpt><trkpt lat="45.10038203756402" lon="8.452945641205684"><ele>118.0</ele><time>2026-03-29T10:10:48.999Z</time></trkpt><trkpt lat="45.1003122986817" lon="8.45305338895821"><ele>118.0</ele><time>2026-03-29T10:10:50.999Z</time></trkpt><trkpt lat="45.10018872417251" lon="8.453153483427842"><ele>118.00000000000001</ele><time>2026-03-29T10:10:52.999Z</time></trkpt><trkpt lat="45.10012102478178" lon="8.453209179274067"><ele>118.00000000000001</ele><time>2026-03-29T10:10:53.999Z</time></trkpt><trkpt lat="45.10004970020204" lon="8.453278139248914"><ele>118.0</ele><time>2026-03-29T10:10:54.999Z</time></trkpt><trkpt lat="45.09998125565131" lon="8.45335700488357"><ele>118.0</ele><time>2026-03-29T10:10:55.999Z</time></trkpt><trkpt lat="45.09990826041722" lon="8.45345102133725"><ele>118.2</ele><time>2026-03-29T10:10:56.999Z</time></trkpt><trkpt lat="45.099838562429845" lon="8.453548774503094"><ele>118.4</ele><time>2026-03-29T10:10:57.999Z</time></trkpt><trkpt lat="45.09976835041219" lon="8.453642884067987"><ele>118.60000000000001</ele><time>2026-03-29T10:10:58.999Z</time></trkpt><trkpt lat="45.09969526299087" lon="8.453740026206777"><ele>118.80000000000001</ele><time>2026-03-29T10:10:59.999Z</time></trkpt><trkpt lat="45.09962162905781" lon="8.453842929313147"><ele>119.0</ele><time>2026-03-29T10:11:00.999Z</time></trkpt><trkpt lat="45.099538863907526" lon="8.453947783942521"><ele>119.0</ele><time>2026-03-29T10:11:01.999Z</time></trkpt><trkpt lat="45.09946110216162" lon="8.454047835959477"><ele>119.0</ele><time>2026-03-29T10:11:02.999Z</time></trkpt><trkpt lat="45.09938243607867" lon="8.454138305268263"><ele>119.0</ele><time>2026-03-29T10:11:03.999Z</time></trkpt><trkpt lat="45.09930361498962" lon="8.454235456058651"><ele>119.0</ele><time>2026-03-29T10:11:04.999Z</time></trkpt><trkpt lat="45.09922263717595" lon="8.454347692423369"><ele>119.0</ele><time>2026-03-29T10:11:05.999Z</time></trkpt><trkpt lat="45.099132162329255" lon="8.454469950135406"><ele>119.4</ele><time>2026-03-29T10:11:06.999Z</time></trkpt><trkpt lat="45.099046568552566" lon="8.45458194747679"><ele>119.80000000000001</ele><time>2026-03-29T10:11:07.999Z</time></trkpt><trkpt lat="45.098963866576106" lon="8.454686697115866"><ele>120.19999999999999</ele><time>2026-03-29T10:11:08.999Z</time></trkpt><trkpt lat="45.098882052350596" lon="8.454787855400715"><ele>120.6</ele><time>2026-03-29T10:11:09.999Z</time></trkpt><trkpt lat="45.098809944593896" lon="8.454888494218405"><ele>121.0</ele><time>2026-03-29T10:11:10.999Z</time></trkpt><trkpt lat="45.09873863911435" lon="8.454982723724788"><ele>121.00000000000001</ele><time>2026-03-29T10:11:11.999Z</time></trkpt><trkpt lat="45.09867238243024" lon="8.455073472149433"><ele>121.0</ele><time>2026-03-29T10:11:12.999Z</time></trkpt><trkpt lat="45.098606708386804" lon="8.455164169966897"><ele>121.0</ele><time>2026-03-29T10:11:13.999Z</time></trkpt><trkpt lat="45.09854974192263" lon="8.455242897929857"><ele>121.0</ele><time>2026-03-29T10:11:14.999Z</time></trkpt><trkpt lat="45.09850211634621" lon="8.455307406889865"><ele>121.00000000000001</ele><time>2026-03-29T10:11:15.999Z</time></trkpt><trkpt lat="45.0984521294866" lon="8.455376121277078"><ele>121.0</ele><time>2026-03-29T10:11:16.999Z</time></trkpt><trkpt lat="45.09838886446106" lon="8.45545871837954"><ele>120.25</ele><time>2026-03-29T10:11:17.999Z</time></trkpt><trkpt lat="45.09829544570901" lon="8.455550052802215"><ele>119.5</ele><time>2026-03-29T10:11:18.999Z</time></trkpt><trkpt lat="45.09819993375839" lon="8.455674235931586"><ele>118.75</ele><time>2026-03-29T10:11:19.999Z</time></trkpt><trkpt lat="45.09809106344132" lon="8.455815745362372"><ele>118.0</ele><time>2026-03-29T10:11:20.999Z</time></trkpt><trkpt lat="45.09797885279594" lon="8.455961594254925"><ele>118.33333333333334</ele><time>2026-03-29T10:11:21.999Z</time></trkpt><trkpt lat="45.097837576540954" lon="8.456145221963778"><ele>118.66666666666666</ele><time>2026-03-29T10:11:22.999Z</time></trkpt><trkpt lat="45.097714639016964" lon="8.456325574486161"><ele>119.0</ele><time>2026-03-29T10:11:23.999Z</time></trkpt><trkpt lat="45.097587080385026" lon="8.456479390941064"><ele>119.0</ele><time>2026-03-29T10:11:24.999Z</time></trkpt><trkpt lat="45.097466529398055" lon="8.456630995782291"><ele>119.0</ele><time>2026-03-29T10:11:25.999Z</time></trkpt><trkpt lat="45.09735177002978" lon="8.456781016234963"><ele>119.0</ele><time>2026-03-29T10:11:26.999Z</time></trkpt><trkpt lat="45.09723757282902" lon="8.456935034275544"><ele>119.0</ele><time>2026-03-29T10:11:27.999Z</time></trkpt><trkpt lat="45.097119525360945" lon="8.45708966926437"><ele>119.0</ele><time>2026-03-29T10:11:28.999Z</time></trkpt><trkpt lat="45.09700398531767" lon="8.45723536251433"><ele>119.0</ele><time>2026-03-29T10:11:29.999Z</time></trkpt><trkpt lat="45.09688373567203" lon="8.45738363600503"><ele>119.0</ele><time>2026-03-29T10:11:30.999Z</time></trkpt><trkpt lat="45.09676960548766" lon="8.457532637426956"><ele>119.0</ele><time>2026-03-29T10:11:31.999Z</time></trkpt><trkpt lat="45.09666257124512" lon="8.457678276966814"><ele>119.0</ele><time>2026-03-29T10:11:32.999Z</time></trkpt><trkpt lat="45.09655353806152" lon="8.457827486398477"><ele>120.66666666666666</ele><time>2026-03-29T10:11:33.999Z</time></trkpt><trkpt lat="45.09643705713422" lon="8.457974960401865"><ele>122.33333333333334</ele><time>2026-03-29T10:11:34.999Z</time></trkpt><trkpt lat="45.096312916036524" lon="8.458130094011295"><ele>124.0</ele><time>2026-03-29T10:11:35.999Z</time></trkpt><trkpt lat="45.096190208083776" lon="8.458282820790652"><ele>124.0</ele><time>2026-03-29T10:11:36.999Z</time></trkpt><trkpt lat="45.09607071113372" lon="8.458436877857531"><ele>124.0</ele><time>2026-03-29T10:11:37.999Z</time></trkpt><trkpt lat="45.09595801631518" lon="8.458587409724009"><ele>124.0</ele><time>2026-03-29T10:11:38.999Z</time></trkpt><trkpt lat="45.09584708803397" lon="8.458738410102175"><ele>122.0</ele><time>2026-03-29T10:11:39.999Z</time></trkpt><trkpt lat="45.09573083767743" lon="8.458894841644549"><ele>120.0</ele><time>2026-03-29T10:11:40.999Z</time></trkpt><trkpt lat="45.095609183296446" lon="8.459050654443505"><ele>118.0</ele><time>2026-03-29T10:11:41.999Z</time></trkpt><trkpt lat="45.09548703945003" lon="8.459204981129018"><ele>118.0</ele><time>2026-03-29T10:11:42.999Z</time></trkpt><trkpt lat="45.09535675971495" lon="8.459362086791804"><ele>118.0</ele><time>2026-03-29T10:11:43.999Z</time></trkpt><trkpt lat="45.095215152200666" lon="8.459519924730186"><ele>118.0</ele><time>2026-03-29T10:11:44.999Z</time></trkpt><trkpt lat="45.095065625464926" lon="8.459677197534335"><ele>117.33333333333334</ele><time>2026-03-29T10:11:46Z</time></trkpt><trkpt lat="45.09490379989791" lon="8.459833428599074"><ele>116.66666666666666</ele><time>2026-03-29T10:11:47Z</time></trkpt><trkpt lat="45.09474369661784" lon="8.459967166019533"><ele>116.0</ele><time>2026-03-29T10:11:48Z</time></trkpt><trkpt lat="45.09458957377899" lon="8.460090614091524"><ele>116.0</ele><time>2026-03-29T10:11:49Z</time></trkpt><trkpt lat="45.09444279644248" lon="8.460205178485863"><ele>116.0</ele><time>2026-03-29T10:11:50Z</time></trkpt><trkpt lat="45.094304810066845" lon="8.460310630551"><ele>116.0</ele><time>2026-03-29T10:11:51Z</time></trkpt><trkpt lat="45.09417216710562" lon="8.460421319228143"><ele>115.75</ele><time>2026-03-29T10:11:52Z</time></trkpt><trkpt lat="45.09404783807331" lon="8.460526737409513"><ele>115.5</ele><time>2026-03-29T10:11:53Z</time></trkpt><trkpt lat="45.093930604759244" lon="8.460619458214293"><ele>115.25</ele><time>2026-03-29T10:11:54Z</time></trkpt><trkpt lat="45.09382157271998" lon="8.460708749013795"><ele>115.0</ele><time>2026-03-29T10:11:55Z</time></trkpt><trkpt lat="45.093726061031624" lon="8.46079007448787"><ele>115.00000000000001</ele><time>2026-03-29T10:11:56Z</time></trkpt><trkpt lat="45.09365354735195" lon="8.460854237493644"><ele>115.0</ele><time>2026-03-29T10:11:57Z</time></trkpt><trkpt lat="45.093592153843375" lon="8.460909065068966"><ele>115.0</ele><time>2026-03-29T10:11:58Z</time></trkpt><trkpt lat="45.09350230174752" lon="8.46098126920771"><ele>115.0</ele><time>2026-03-29T10:12:00Z</time></trkpt><trkpt lat="45.09343106435692" lon="8.461033377777223"><ele>115.00000000000001</ele><time>2026-03-29T10:12:03Z</time></trkpt><trkpt lat="45.093355836242765" lon="8.461097524346595"><ele>115.0</ele><time>2026-03-29T10:12:05Z</time></trkpt><trkpt lat="45.09328932638189" lon="8.461147029558104"><ele>115.4</ele><time>2026-03-29T10:12:06Z</time></trkpt><trkpt lat="45.0932172417362" lon="8.461209590742042"><ele>115.8</ele><time>2026-03-29T10:12:07Z</time></trkpt><trkpt lat="45.09314038312225" lon="8.461279925021888"><ele>116.19999999999999</ele><time>2026-03-29T10:12:08Z</time></trkpt><trkpt lat="45.09304466502285" lon="8.461358530107942"><ele>116.6</ele><time>2026-03-29T10:12:09Z</time></trkpt><trkpt lat="45.09295846828892" lon="8.461430215690093"><ele>117.0</ele><time>2026-03-29T10:12:10Z</time></trkpt><trkpt lat="45.09285643706214" lon="8.46151153456247"><ele>116.0</ele><time>2026-03-29T10:12:11Z</time></trkpt><trkpt lat="45.09274801716291" lon="8.461600816112892"><ele>115.0</ele><time>2026-03-29T10:12:12Z</time></trkpt><trkpt lat="45.09262361502406" lon="8.461703332052164"><ele>114.0</ele><time>2026-03-29T10:12:13Z</time></trkpt><trkpt lat="45.09250793875077" lon="8.461798802701509"><ele>113.0</ele><time>2026-03-29T10:12:14Z</time></trkpt><trkpt lat="45.09239322369628" lon="8.461896660027504"><ele>112.25</ele><time>2026-03-29T10:12:15Z</time></trkpt><trkpt lat="45.092275571265546" lon="8.461993894874553"><ele>111.5</ele><time>2026-03-29T10:12:16Z</time></trkpt><trkpt lat="45.09215977266347" lon="8.462088134656385"><ele>110.75</ele><time>2026-03-29T10:12:17Z</time></trkpt><trkpt lat="45.09204477589156" lon="8.46218717072143"><ele>110.0</ele><time>2026-03-29T10:12:18Z</time></trkpt><trkpt lat="45.091932202477004" lon="8.46228335101604"><ele>110.0</ele><time>2026-03-29T10:12:19Z</time></trkpt><trkpt lat="45.0918247189723" lon="8.462371966334446"><ele>110.0</ele><time>2026-03-29T10:12:20Z</time></trkpt><trkpt lat="45.09171186522631" lon="8.462461744429602"><ele>110.0</ele><time>2026-03-29T10:12:21Z</time></trkpt><trkpt lat="45.09159996453335" lon="8.462555139913123"><ele>110.0</ele><time>2026-03-29T10:12:22Z</time></trkpt><trkpt lat="45.091484466684285" lon="8.462649570280895"><ele>110.25</ele><time>2026-03-29T10:12:23Z</time></trkpt><trkpt lat="45.09136664402232" lon="8.462746377050125"><ele>110.5</ele><time>2026-03-29T10:12:24Z</time></trkpt><trkpt lat="45.09124646025319" lon="8.462844736384204"><ele>110.75</ele><time>2026-03-29T10:12:25Z</time></trkpt><trkpt lat="45.09112361889697" lon="8.462947529581854"><ele>111.0</ele><time>2026-03-29T10:12:26Z</time></trkpt><trkpt lat="45.09099614613469" lon="8.463051459317462"><ele>110.66666666666666</ele><time>2026-03-29T10:12:27Z</time></trkpt><trkpt lat="45.090856517415645" lon="8.463159889837183"><ele>110.33333333333333</ele><time>2026-03-29T10:12:28Z</time></trkpt><trkpt lat="45.09070402798165" lon="8.463257141937293"><ele>110.0</ele><time>2026-03-29T10:12:29Z</time></trkpt><trkpt lat="45.09060902830092" lon="8.463383116034338"><ele>110.0</ele><time>2026-03-29T10:12:30Z</time></trkpt><trkpt lat="45.090473710999134" lon="8.46349261811057"><ele>110.0</ele><time>2026-03-29T10:12:31Z</time></trkpt><trkpt lat="45.09035165058789" lon="8.463593259667796"><ele>110.0</ele><time>2026-03-29T10:12:32Z</time></trkpt><trkpt lat="45.09023477096305" lon="8.463694668222653"><ele>110.0</ele><time>2026-03-29T10:12:33Z</time></trkpt><trkpt lat="45.090120279263346" lon="8.463796115611856"><ele>110.0</ele><time>2026-03-29T10:12:34Z</time></trkpt><trkpt lat="45.090012371795375" lon="8.463912493556315"><ele>110.0</ele><time>2026-03-29T10:12:35Z</time></trkpt><trkpt lat="45.089902698898186" lon="8.464049255615564"><ele>110.0</ele><time>2026-03-29T10:12:36Z</time></trkpt><trkpt lat="45.0897937522881" lon="8.464188140494764"><ele>110.0</ele><time>2026-03-29T10:12:37Z</time></trkpt><trkpt lat="45.08968261349828" lon="8.464329679547914"><ele>110.0</ele><time>2026-03-29T10:12:38Z</time></trkpt><trkpt lat="45.08956949672894" lon="8.464474860718552"><ele>110.0</ele><time>2026-03-29T10:12:39Z</time></trkpt><trkpt lat="45.089464904215376" lon="8.464627893910201"><ele>110.0</ele><time>2026-03-29T10:12:40Z</time></trkpt><trkpt lat="45.089359399830585" lon="8.464789009283157"><ele>110.0</ele><time>2026-03-29T10:12:41Z</time></trkpt><trkpt lat="45.08925753763759" lon="8.464950016800817"><ele>110.0</ele><time>2026-03-29T10:12:41.999Z</time></trkpt><trkpt lat="45.08914666839" lon="8.465110007328278"><ele>110.0</ele><time>2026-03-29T10:12:42.999Z</time></trkpt><trkpt lat="45.08903682502609" lon="8.465266616201465"><ele>110.33333333333333</ele><time>2026-03-29T10:12:43.999Z</time></trkpt><trkpt lat="45.08892618557577" lon="8.465430088170129"><ele>110.66666666666666</ele><time>2026-03-29T10:12:44.999Z</time></trkpt><trkpt lat="45.08881101432174" lon="8.465592314192941"><ele>111.0</ele><time>2026-03-29T10:12:45.999Z</time></trkpt><trkpt lat="45.08870580454695" lon="8.465743762292034"><ele>111.0</ele><time>2026-03-29T10:12:46.999Z</time></trkpt><trkpt lat="45.08859700842984" lon="8.465903056534383"><ele>111.0</ele><time>2026-03-29T10:12:47.999Z</time></trkpt><trkpt lat="45.088500793148" lon="8.466055827531575"><ele>111.0</ele><time>2026-03-29T10:12:48.999Z</time></trkpt><trkpt lat="45.08840064046128" lon="8.46620548398859"><ele>111.0</ele><time>2026-03-29T10:12:49.999Z</time></trkpt><trkpt lat="45.088301517244915" lon="8.46634852698951"><ele>112.0</ele><time>2026-03-29T10:12:50.999Z</time></trkpt><trkpt lat="45.08819593357325" lon="8.466491563689063"><ele>113.0</ele><time>2026-03-29T10:12:51.999Z</time></trkpt><trkpt lat="45.088085584497016" lon="8.46664450112414"><ele>114.0</ele><time>2026-03-29T10:12:52.999Z</time></trkpt><trkpt lat="45.0879820439421" lon="8.466799887139807"><ele>114.0</ele><time>2026-03-29T10:12:53.999Z</time></trkpt><trkpt lat="45.08788173162431" lon="8.466946344457694"><ele>114.0</ele><time>2026-03-29T10:12:54.999Z</time></trkpt><trkpt lat="45.08778347119715" lon="8.467092009443716"><ele>114.0</ele><time>2026-03-29T10:12:55.999Z</time></trkpt><trkpt lat="45.08769009582339" lon="8.467232827890296"><ele>114.0</ele><time>2026-03-29T10:12:56.999Z</time></trkpt><trkpt lat="45.087605349339995" lon="8.467356657505336"><ele>113.5</ele><time>2026-03-29T10:12:57.999Z</time></trkpt><trkpt lat="45.087510255705205" lon="8.467476609082592"><ele>113.0</ele><time>2026-03-29T10:12:58.999Z</time></trkpt><trkpt lat="45.087419437600296" lon="8.467623822031992"><ele>112.5</ele><time>2026-03-29T10:12:59.999Z</time></trkpt><trkpt lat="45.08732123551637" lon="8.467768520367843"><ele>112.0</ele><time>2026-03-29T10:13:00.999Z</time></trkpt><trkpt lat="45.08722413138334" lon="8.467910199962471"><ele>112.25</ele><time>2026-03-29T10:13:01.999Z</time></trkpt><trkpt lat="45.087134294695" lon="8.468046573060025"><ele>112.5</ele><time>2026-03-29T10:13:02.999Z</time></trkpt><trkpt lat="45.087048815502236" lon="8.468172237718413"><ele>112.75</ele><time>2026-03-29T10:13:03.999Z</time></trkpt><trkpt lat="45.08696840771095" lon="8.468295247938725"><ele>113.0</ele><time>2026-03-29T10:13:04.999Z</time></trkpt><trkpt lat="45.08689306918293" lon="8.468415663376915"><ele>112.99999999999999</ele><time>2026-03-29T10:13:05.999Z</time></trkpt><trkpt lat="45.086831366229795" lon="8.468526053582742"><ele>113.0</ele><time>2026-03-29T10:13:06.999Z</time></trkpt><trkpt lat="45.08677928672388" lon="8.468620658683053"><ele>113.0</ele><time>2026-03-29T10:13:07.999Z</time></trkpt><trkpt lat="45.08673218449582" lon="8.468704028297148"><ele>113.0</ele><time>2026-03-29T10:13:08.999Z</time></trkpt><trkpt lat="45.086682272903126" lon="8.468773824192166"><ele>112.99999999999999</ele><time>2026-03-29T10:13:09.999Z</time></trkpt><trkpt lat="45.08662339514771" lon="8.468823755308339"><ele>113.0</ele><time>2026-03-29T10:13:10.999Z</time></trkpt><trkpt lat="45.08655289860082" lon="8.468853183289493"><ele>113.0</ele><time>2026-03-29T10:13:11.999Z</time></trkpt><trkpt lat="45.08646858290881" lon="8.468889259543806"><ele>113.00000000000001</ele><time>2026-03-29T10:13:12.999Z</time></trkpt><trkpt lat="45.08637451827117" lon="8.46891880624025"><ele>113.00000000000001</ele><time>2026-03-29T10:13:13.999Z</time></trkpt><trkpt lat="45.0862744751431" lon="8.468951704220824"><ele>113.0</ele><time>2026-03-29T10:13:14.999Z</time></trkpt><trkpt lat="45.08617082802222" lon="8.46899185409199"><ele>113.0</ele><time>2026-03-29T10:13:15.999Z</time></trkpt><trkpt lat="45.08606679587049" lon="8.469042673964834"><ele>113.0</ele><time>2026-03-29T10:13:16.999Z</time></trkpt><trkpt lat="45.085958447106144" lon="8.469088559953734"><ele>113.0</ele><time>2026-03-29T10:13:17.999Z</time></trkpt><trkpt lat="45.08584634990569" lon="8.469122279713751"><ele>113.0</ele><time>2026-03-29T10:13:18.999Z</time></trkpt><trkpt lat="45.085721499380156" lon="8.469100638381187"><ele>113.0</ele><time>2026-03-29T10:13:19.999Z</time></trkpt><trkpt lat="45.08557303668875" lon="8.46910461536641"><ele>113.33333333333333</ele><time>2026-03-29T10:13:20.999Z</time></trkpt><trkpt lat="45.08539987005234" lon="8.469087132346168"><ele>113.66666666666666</ele><time>2026-03-29T10:13:21.999Z</time></trkpt><trkpt lat="45.08523149465447" lon="8.469067441244384"><ele>114.0</ele><time>2026-03-29T10:13:22.999Z</time></trkpt><trkpt lat="45.085077455723024" lon="8.46905297754992"><ele>113.5</ele><time>2026-03-29T10:13:23.999Z</time></trkpt><trkpt lat="45.08492805554145" lon="8.46904223686131"><ele>113.0</ele><time>2026-03-29T10:13:24.999Z</time></trkpt><trkpt lat="45.08478206193039" lon="8.469035716907047"><ele>112.5</ele><time>2026-03-29T10:13:25.999Z</time></trkpt><trkpt lat="45.08463059406956" lon="8.469025839470834"><ele>112.0</ele><time>2026-03-29T10:13:26.999Z</time></trkpt><trkpt lat="45.08447348837228" lon="8.469013083433197"><ele>112.0</ele><time>2026-03-29T10:13:27.999Z</time></trkpt><trkpt lat="45.08431283665005" lon="8.468999887371993"><ele>112.0</ele><time>2026-03-29T10:13:28.999Z</time></trkpt><trkpt lat="45.08415031464924" lon="8.468987648251508"><ele>112.0</ele><time>2026-03-29T10:13:29.999Z</time></trkpt><trkpt lat="45.083986078975116" lon="8.468976037070494"><ele>113.0</ele><time>2026-03-29T10:13:30.999Z</time></trkpt><trkpt lat="45.08381623392773" lon="8.468962815992157"><ele>114.0</ele><time>2026-03-29T10:13:31.999Z</time></trkpt><trkpt lat="45.083643355309306" lon="8.468952123478454"><ele>115.0</ele><time>2026-03-29T10:13:32.999Z</time></trkpt><trkpt lat="45.08346429000578" lon="8.46894129141645"><ele>115.0</ele><time>2026-03-29T10:13:33.999Z</time></trkpt><trkpt lat="45.08328592545131" lon="8.46892754836729"><ele>115.0</ele><time>2026-03-29T10:13:34.999Z</time></trkpt><trkpt lat="45.0831035497017" lon="8.468909517820107"><ele>115.0</ele><time>2026-03-29T10:13:35.999Z</time></trkpt><trkpt lat="45.082920848891774" lon="8.468894525675926"><ele>114.66666666666667</ele><time>2026-03-29T10:13:36.999Z</time></trkpt><trkpt lat="45.08273753734257" lon="8.468880074296766"><ele>114.33333333333334</ele><time>2026-03-29T10:13:37.999Z</time></trkpt><trkpt lat="45.08255517691207" lon="8.468864863252412"><ele>114.0</ele><time>2026-03-29T10:13:38.999Z</time></trkpt><trkpt lat="45.082384645375484" lon="8.468851408383674"><ele>113.33333333333334</ele><time>2026-03-29T10:13:39.999Z</time></trkpt><trkpt lat="45.08221129578526" lon="8.46883776450419"><ele>112.66666666666667</ele><time>2026-03-29T10:13:40.999Z</time></trkpt><trkpt lat="45.08203849981524" lon="8.468827077420624"><ele>112.0</ele><time>2026-03-29T10:13:41.999Z</time></trkpt><trkpt lat="45.08186087555835" lon="8.468815873221676"><ele>112.0</ele><time>2026-03-29T10:13:42.999Z</time></trkpt><trkpt lat="45.08168334932823" lon="8.468802974723685"><ele>112.0</ele><time>2026-03-29T10:13:43.999Z</time></trkpt><trkpt lat="45.08150496581203" lon="8.468787661548589"><ele>112.0</ele><time>2026-03-29T10:13:44.999Z</time></trkpt><trkpt lat="45.08134071650206" lon="8.468772723811675"><ele>112.5</ele><time>2026-03-29T10:13:45.999Z</time></trkpt><trkpt lat="45.081185063843684" lon="8.468758730574331"><ele>113.0</ele><time>2026-03-29T10:13:46.999Z</time></trkpt><trkpt lat="45.0810390333513" lon="8.468747348516079"><ele>113.5</ele><time>2026-03-29T10:13:47.999Z</time></trkpt><trkpt lat="45.08089848380194" lon="8.468735163873456"><ele>114.0</ele><time>2026-03-29T10:13:48.999Z</time></trkpt><trkpt lat="45.08076433853328" lon="8.468724458120453"><ele>114.0</ele><time>2026-03-29T10:13:49.999Z</time></trkpt><trkpt lat="45.08062907989706" lon="8.468713672704881"><ele>114.0</ele><time>2026-03-29T10:13:50.999Z</time></trkpt><trkpt lat="45.08049695678872" lon="8.468703042230365"><ele>114.0</ele><time>2026-03-29T10:13:52Z</time></trkpt><trkpt lat="45.08036579142894" lon="8.468696057948964"><ele>114.0</ele><time>2026-03-29T10:13:53Z</time></trkpt><trkpt lat="45.080237131624486" lon="8.468687113614248"><ele>114.0</ele><time>2026-03-29T10:13:54Z</time></trkpt><trkpt lat="45.08010697663722" lon="8.468675366593155"><ele>114.0</ele><time>2026-03-29T10:13:55Z</time></trkpt><trkpt lat="45.0799756831347" lon="8.468664125688399"><ele>114.0</ele><time>2026-03-29T10:13:56Z</time></trkpt><trkpt lat="45.07984421809183" lon="8.468652196874878"><ele>114.0</ele><time>2026-03-29T10:13:57Z</time></trkpt><trkpt lat="45.079707076061005" lon="8.468641538876785"><ele>114.0</ele><time>2026-03-29T10:13:58Z</time></trkpt><trkpt lat="45.07957100689568" lon="8.46863201669516"><ele>114.0</ele><time>2026-03-29T10:13:59Z</time></trkpt><trkpt lat="45.079437639106516" lon="8.46862344879443"><ele>114.0</ele><time>2026-03-29T10:14:00Z</time></trkpt><trkpt lat="45.079298951898906" lon="8.46861537169501"><ele>114.0</ele><time>2026-03-29T10:14:01Z</time></trkpt><trkpt lat="45.079166826988995" lon="8.468604551025663"><ele>114.0</ele><time>2026-03-29T10:14:02Z</time></trkpt><trkpt lat="45.079029725801135" lon="8.468591556462766"><ele>114.0</ele><time>2026-03-29T10:14:03Z</time></trkpt><trkpt lat="45.078900383169106" lon="8.468580017789144"><ele>114.0</ele><time>2026-03-29T10:14:04Z</time></trkpt><trkpt lat="45.078770133941795" lon="8.468569397450297"><ele>114.0</ele><time>2026-03-29T10:14:05Z</time></trkpt><trkpt lat="45.07864377027142" lon="8.468563044725146"><ele>114.0</ele><time>2026-03-29T10:14:06Z</time></trkpt><trkpt lat="45.07851591518644" lon="8.46855226658285"><ele>114.0</ele><time>2026-03-29T10:14:07Z</time></trkpt><trkpt lat="45.07838973849413" lon="8.468542887159986"><ele>114.0</ele><time>2026-03-29T10:14:08Z</time></trkpt><trkpt lat="45.078260810714596" lon="8.468531170188918"><ele>114.0</ele><time>2026-03-29T10:14:09Z</time></trkpt><trkpt lat="45.07813052867728" lon="8.468519351658198"><ele>113.75</ele><time>2026-03-29T10:14:10Z</time></trkpt><trkpt lat="45.07800263664279" lon="8.46850831146189"><ele>113.5</ele><time>2026-03-29T10:14:11Z</time></trkpt><trkpt lat="45.07787243398353" lon="8.468501898577015"><ele>113.25</ele><time>2026-03-29T10:14:12Z</time></trkpt><trkpt lat="45.077745178002985" lon="8.46849507878642"><ele>113.0</ele><time>2026-03-29T10:14:13Z</time></trkpt><trkpt lat="45.07762405061924" lon="8.468485364088622"><ele>113.0</ele><time>2026-03-29T10:14:14Z</time></trkpt><trkpt lat="45.07750850564727" lon="8.468475823869317"><ele>113.0</ele><time>2026-03-29T10:14:15Z</time></trkpt><trkpt lat="45.07739685770694" lon="8.468466356605235"><ele>113.0</ele><time>2026-03-29T10:14:16Z</time></trkpt><trkpt lat="45.07728458045459" lon="8.4684584523056"><ele>113.0</ele><time>2026-03-29T10:14:17Z</time></trkpt><trkpt lat="45.07717305434916" lon="8.468450845705636"><ele>113.25</ele><time>2026-03-29T10:14:18Z</time></trkpt><trkpt lat="45.07705756097405" lon="8.46844501875559"><ele>113.5</ele><time>2026-03-29T10:14:19Z</time></trkpt><trkpt lat="45.076940387487234" lon="8.468435098935736"><ele>113.75</ele><time>2026-03-29T10:14:20Z</time></trkpt><trkpt lat="45.07681340110599" lon="8.468422622132188"><ele>114.0</ele><time>2026-03-29T10:14:21Z</time></trkpt><trkpt lat="45.07668352688638" lon="8.4684071549344"><ele>114.0</ele><time>2026-03-29T10:14:22Z</time></trkpt><trkpt lat="45.07654739362434" lon="8.468396223990885"><ele>114.0</ele><time>2026-03-29T10:14:23Z</time></trkpt><trkpt lat="45.07641100419139" lon="8.46839203584901"><ele>114.0</ele><time>2026-03-29T10:14:24Z</time></trkpt><trkpt lat="45.076273908488304" lon="8.468386296725559"><ele>114.0</ele><time>2026-03-29T10:14:25Z</time></trkpt><trkpt lat="45.07613314621773" lon="8.468371209941866"><ele>114.0</ele><time>2026-03-29T10:14:26Z</time></trkpt><trkpt lat="45.07598377976902" lon="8.468350622483719"><ele>114.0</ele><time>2026-03-29T10:14:27Z</time></trkpt><trkpt lat="45.07583274203157" lon="8.4683353147484"><ele>114.0</ele><time>2026-03-29T10:14:28Z</time></trkpt><trkpt lat="45.07568914672585" lon="8.468324896748953"><ele>114.0</ele><time>2026-03-29T10:14:29Z</time></trkpt><trkpt lat="45.075542223145966" lon="8.468315244690707"><ele>114.0</ele><time>2026-03-29T10:14:30Z</time></trkpt><trkpt lat="45.07538951523336" lon="8.468303835911133"><ele>114.0</ele><time>2026-03-29T10:14:31Z</time></trkpt><trkpt lat="45.07523562257552" lon="8.468293181570814"><ele>114.0</ele><time>2026-03-29T10:14:32Z</time></trkpt><trkpt lat="45.07508030239935" lon="8.46828419130773"><ele>114.33333333333334</ele><time>2026-03-29T10:14:33Z</time></trkpt><trkpt lat="45.074914147818355" lon="8.468271055725516"><ele>114.66666666666667</ele><time>2026-03-29T10:14:34Z</time></trkpt><trkpt lat="45.07473323521498" lon="8.468253430611037"><ele>115.0</ele><time>2026-03-29T10:14:35Z</time></trkpt><trkpt lat="45.074562426205716" lon="8.468237180383662"><ele>115.0</ele><time>2026-03-29T10:14:36Z</time></trkpt><trkpt lat="45.0743994275718" lon="8.468227087253611"><ele>115.0</ele><time>2026-03-29T10:14:37Z</time></trkpt><trkpt lat="45.074236481304446" lon="8.468217542032718"><ele>115.0</ele><time>2026-03-29T10:14:38Z</time></trkpt><trkpt lat="45.0740701003291" lon="8.46820417204624"><ele>115.33333333333334</ele><time>2026-03-29T10:14:39Z</time></trkpt><trkpt lat="45.073909685754955" lon="8.468189281262653"><ele>115.66666666666666</ele><time>2026-03-29T10:14:40Z</time></trkpt><trkpt lat="45.073745062271385" lon="8.468174692521904"><ele>116.0</ele><time>2026-03-29T10:14:41Z</time></trkpt><trkpt lat="45.07357864504064" lon="8.468163216298015"><ele>116.0</ele><time>2026-03-29T10:14:42Z</time></trkpt><trkpt lat="45.073414585196915" lon="8.468153213805728"><ele>116.0</ele><time>2026-03-29T10:14:43Z</time></trkpt><trkpt lat="45.07325189241081" lon="8.468140353904403"><ele>116.0</ele><time>2026-03-29T10:14:44Z</time></trkpt><trkpt lat="45.073089115443445" lon="8.468127724023407"><ele>115.33333333333333</ele><time>2026-03-29T10:14:45Z</time></trkpt><trkpt lat="45.07292508688038" lon="8.46811430451847"><ele>114.66666666666666</ele><time>2026-03-29T10:14:46Z</time></trkpt><trkpt lat="45.07275856344994" lon="8.468099575263961"><ele>114.0</ele><time>2026-03-29T10:14:46.999Z</time></trkpt><trkpt lat="45.07259368816189" lon="8.46808681942907"><ele>114.0</ele><time>2026-03-29T10:14:47.999Z</time></trkpt><trkpt lat="45.07242833091535" lon="8.468075823604902"><ele>114.0</ele><time>2026-03-29T10:14:48.999Z</time></trkpt><trkpt lat="45.07226303978471" lon="8.468063945712048"><ele>114.0</ele><time>2026-03-29T10:14:49.999Z</time></trkpt><trkpt lat="45.072097471712006" lon="8.468052908274627"><ele>114.0</ele><time>2026-03-29T10:14:50.999Z</time></trkpt><trkpt lat="45.071932331086536" lon="8.46803994517053"><ele>114.0</ele><time>2026-03-29T10:14:51.999Z</time></trkpt><trkpt lat="45.07176565034714" lon="8.468025271434353"><ele>114.0</ele><time>2026-03-29T10:14:52.999Z</time></trkpt><trkpt lat="45.07160704020137" lon="8.4680122272165"><ele>114.5</ele><time>2026-03-29T10:14:53.999Z</time></trkpt><trkpt lat="45.07146103431182" lon="8.468003076535505"><ele>115.0</ele><time>2026-03-29T10:14:54.999Z</time></trkpt><trkpt lat="45.07133309457519" lon="8.467992425953433"><ele>115.5</ele><time>2026-03-29T10:14:55.999Z</time></trkpt><trkpt lat="45.07121290116955" lon="8.467979023224917"><ele>116.0</ele><time>2026-03-29T10:14:56.999Z</time></trkpt><trkpt lat="45.07109624334985" lon="8.467969613936432"><ele>116.0</ele><time>2026-03-29T10:14:57.999Z</time></trkpt><trkpt lat="45.07099477848889" lon="8.467964511136143"><ele>116.0</ele><time>2026-03-29T10:14:58.999Z</time></trkpt><trkpt lat="45.07091644115325" lon="8.46796381609403"><ele>116.0</ele><time>2026-03-29T10:14:59.999Z</time></trkpt><trkpt lat="45.07081803248203" lon="8.467939362691054"><ele>116.0</ele><time>2026-03-29T10:15:01.999Z</time></trkpt><trkpt lat="45.07077611681305" lon="8.46814460073627"><ele>116.0</ele><time>2026-03-29T10:15:04.999Z</time></trkpt><trkpt lat="45.07078528030964" lon="8.468238372850001"><ele>116.0</ele><time>2026-03-29T10:15:05.999Z</time></trkpt><trkpt lat="45.07079016215371" lon="8.468344781870595"><ele>116.0</ele><time>2026-03-29T10:15:06.999Z</time></trkpt><trkpt lat="45.07079664033377" lon="8.468466527405445"><ele>116.0</ele><time>2026-03-29T10:15:07.999Z</time></trkpt><trkpt lat="45.070805249297216" lon="8.468593519225893"><ele>116.0</ele><time>2026-03-29T10:15:08.999Z</time></trkpt><trkpt lat="45.07081523506666" lon="8.468733015241154"><ele>116.0</ele><time>2026-03-29T10:15:09.999Z</time></trkpt><trkpt lat="45.0708252412616" lon="8.468895741636455"><ele>116.0</ele><time>2026-03-29T10:15:10.999Z</time></trkpt><trkpt lat="45.07083036465391" lon="8.46904529834618"><ele>116.0</ele><time>2026-03-29T10:15:11.999Z</time></trkpt><trkpt lat="45.07083937307449" lon="8.469185718780153"><ele>116.0</ele><time>2026-03-29T10:15:12.999Z</time></trkpt><trkpt lat="45.070846670995984" lon="8.469320901890539"><ele>116.0</ele><time>2026-03-29T10:15:13.999Z</time></trkpt><trkpt lat="45.07085295035453" lon="8.46945127292165"><ele>116.0</ele><time>2026-03-29T10:15:14.999Z</time></trkpt><trkpt lat="45.070862233870514" lon="8.469580948453595"><ele>115.8</ele><time>2026-03-29T10:15:15.999Z</time></trkpt><trkpt lat="45.07087003907782" lon="8.469710691671404"><ele>115.6</ele><time>2026-03-29T10:15:16.999Z</time></trkpt><trkpt lat="45.07087478756835" lon="8.469842155191426"><ele>115.4</ele><time>2026-03-29T10:15:17.999Z</time></trkpt><trkpt lat="45.07087906515297" lon="8.469971944138653"><ele>115.2</ele><time>2026-03-29T10:15:18.999Z</time></trkpt><trkpt lat="45.07088447214666" lon="8.470104462047898"><ele>115.0</ele><time>2026-03-29T10:15:19.999Z</time></trkpt><trkpt lat="45.070889705019" lon="8.470233936077308"><ele>115.0</ele><time>2026-03-29T10:15:20.999Z</time></trkpt><trkpt lat="45.07089147511115" lon="8.470362970143666"><ele>115.0</ele><time>2026-03-29T10:15:21.999Z</time></trkpt><trkpt lat="45.07088945988308" lon="8.470492828732457"><ele>115.0</ele><time>2026-03-29T10:15:22.999Z</time></trkpt><trkpt lat="45.07086618268991" lon="8.470622560092613"><ele>115.0</ele><time>2026-03-29T10:15:23.999Z</time></trkpt><trkpt lat="45.07085843192573" lon="8.470756511760301"><ele>115.0</ele><time>2026-03-29T10:15:24.999Z</time></trkpt><trkpt lat="45.070859069940795" lon="8.470892940909096"><ele>115.0</ele><time>2026-03-29T10:15:25.999Z</time></trkpt><trkpt lat="45.07087980032493" lon="8.471031982429743"><ele>115.0</ele><time>2026-03-29T10:15:26.999Z</time></trkpt><trkpt lat="45.070891766525115" lon="8.471171402801803"><ele>115.0</ele><time>2026-03-29T10:15:27.999Z</time></trkpt><trkpt lat="45.070906453154116" lon="8.47130844857931"><ele>115.0</ele><time>2026-03-29T10:15:28.999Z</time></trkpt><trkpt lat="45.07092148934498" lon="8.47144377342659"><ele>115.0</ele><time>2026-03-29T10:15:29.999Z</time></trkpt><trkpt lat="45.070936255816875" lon="8.471575902415156"><ele>115.0</ele><time>2026-03-29T10:15:30.999Z</time></trkpt><trkpt lat="45.07095103886301" lon="8.47170509342566"><ele>115.0</ele><time>2026-03-29T10:15:31.999Z</time></trkpt><trkpt lat="45.0709656661302" lon="8.47183679493763"><ele>115.0</ele><time>2026-03-29T10:15:32.999Z</time></trkpt><trkpt lat="45.07095808556078" lon="8.471969872915954"><ele>115.0</ele><time>2026-03-29T10:15:33.999Z</time></trkpt><trkpt lat="45.07097970066711" lon="8.472100488598524"><ele>115.0</ele><time>2026-03-29T10:15:34.999Z</time></trkpt><trkpt lat="45.07098495663217" lon="8.472232945520341"><ele>115.00000000000001</ele><time>2026-03-29T10:15:35.999Z</time></trkpt><trkpt lat="45.070988749096664" lon="8.47236229347996"><ele>115.0</ele><time>2026-03-29T10:15:36.999Z</time></trkpt><trkpt lat="45.070989173252585" lon="8.47248223462921"><ele>115.0</ele><time>2026-03-29T10:15:37.999Z</time></trkpt><trkpt lat="45.07098782897944" lon="8.4726014559521"><ele>115.0</ele><time>2026-03-29T10:15:38.999Z</time></trkpt><trkpt lat="45.070987178831835" lon="8.47271096480665"><ele>115.00000000000001</ele><time>2026-03-29T10:15:39.999Z</time></trkpt><trkpt lat="45.070987084868165" lon="8.47280784430956"><ele>115.0</ele><time>2026-03-29T10:15:40.999Z</time></trkpt><trkpt lat="45.07098961452043" lon="8.472963170119536"><ele>114.8</ele><time>2026-03-29T10:15:42.999Z</time></trkpt><trkpt lat="45.07098924412074" lon="8.473071685204667"><ele>114.6</ele><time>2026-03-29T10:15:44.999Z</time></trkpt><trkpt lat="45.07099350131602" lon="8.47317160371583"><ele>114.4</ele><time>2026-03-29T10:18:20Z</time></trkpt><trkpt lat="45.07101286893278" lon="8.473295421619024"><ele>114.2</ele><time>2026-03-29T10:18:22Z</time></trkpt><trkpt lat="45.071041913686095" lon="8.473445991493135"><ele>114.0</ele><time>2026-03-29T10:18:24Z</time></trkpt><trkpt lat="45.07104668366873" lon="8.473595719735895"><ele>114.0</ele><time>2026-03-29T10:18:26Z</time></trkpt><trkpt lat="45.071050883038374" lon="8.473758077542012"><ele>114.0</ele><time>2026-03-29T10:18:28Z</time></trkpt><trkpt lat="45.07104971979274" lon="8.473853499456888"><ele>114.0</ele><time>2026-03-29T10:18:29Z</time></trkpt><trkpt lat="45.0710469266356" lon="8.473942980724415"><ele>114.0</ele><time>2026-03-29T10:18:30Z</time></trkpt><trkpt lat="45.07104285124882" lon="8.474034461075508"><ele>114.0</ele><time>2026-03-29T10:18:31Z</time></trkpt><trkpt lat="45.07104028344182" lon="8.474137727137022"><ele>114.0</ele><time>2026-03-29T10:18:32Z</time></trkpt><trkpt lat="45.07103796518504" lon="8.474243036288614"><ele>113.83333333333333</ele><time>2026-03-29T10:18:33Z</time></trkpt><trkpt lat="45.07103656735634" lon="8.474349802898125"><ele>113.66666666666666</ele><time>2026-03-29T10:18:34Z</time></trkpt><trkpt lat="45.07104300473457" lon="8.47445337467182"><ele>113.5</ele><time>2026-03-29T10:18:35Z</time></trkpt><trkpt lat="45.07105523533084" lon="8.474557480290224"><ele>113.33333333333333</ele><time>2026-03-29T10:18:36Z</time></trkpt><trkpt lat="45.07111551147874" lon="8.474606605283595"><ele>113.16666666666666</ele><time>2026-03-29T10:18:38Z</time></trkpt><trkpt lat="45.071217998208525" lon="8.474681354420065"><ele>113.0</ele><time>2026-03-29T10:18:40Z</time></trkpt><trkpt lat="45.071286654771754" lon="8.47470060412533"><ele>113.0</ele><time>2026-03-29T10:18:41Z</time></trkpt><trkpt lat="45.07137069760726" lon="8.4747140736706"><ele>113.00000000000001</ele><time>2026-03-29T10:18:42Z</time></trkpt><trkpt lat="45.071456502281556" lon="8.474724655856384"><ele>113.00000000000001</ele><time>2026-03-29T10:18:43Z</time></trkpt><trkpt lat="45.071542767879784" lon="8.474743264890629"><ele>113.0</ele><time>2026-03-29T10:18:44Z</time></trkpt><trkpt lat="45.07163539819994" lon="8.474769291823447"><ele>113.0</ele><time>2026-03-29T10:18:45Z</time></trkpt><trkpt lat="45.0717309417481" lon="8.474799846529388"><ele>112.80000000000001</ele><time>2026-03-29T10:18:46Z</time></trkpt><trkpt lat="45.0718058694785" lon="8.47484090348069"><ele>112.60000000000001</ele><time>2026-03-29T10:18:47Z</time></trkpt><trkpt lat="45.071881294642125" lon="8.4748761086739"><ele>112.39999999999999</ele><time>2026-03-29T10:18:49Z</time></trkpt><trkpt lat="45.071955232534876" lon="8.474893152799735"><ele>112.19999999999999</ele><time>2026-03-29T10:18:54Z</time></trkpt><trkpt lat="45.072117571425814" lon="8.474934214262188"><ele>112.0</ele><time>2026-03-29T10:18:55.999Z</time></trkpt><trkpt lat="45.07223218537501" lon="8.474925249367027"><ele>112.00000000000001</ele><time>2026-03-29T10:18:56.999Z</time></trkpt><trkpt lat="45.07232550433649" lon="8.474937338111845"><ele>112.0</ele><time>2026-03-29T10:18:57.999Z</time></trkpt><trkpt lat="45.072405769171915" lon="8.47496930777781"><ele>112.0</ele><time>2026-03-29T10:18:58.999Z</time></trkpt><trkpt lat="45.07248238498119" lon="8.474977356093362"><ele>112.0</ele><time>2026-03-29T10:18:59.999Z</time></trkpt><trkpt lat="45.07255447572552" lon="8.474983211179547"><ele>112.00000000000001</ele><time>2026-03-29T10:19:00.999Z</time></trkpt><trkpt lat="45.07262183031974" lon="8.47498509102901"><ele>112.0</ele><time>2026-03-29T10:19:01.999Z</time></trkpt><trkpt lat="45.07268304090107" lon="8.474961778874182"><ele>112.0</ele><time>2026-03-29T10:19:02.999Z</time></trkpt><trkpt lat="45.0728174971463" lon="8.474948829889914"><ele>111.99999999999999</ele><time>2026-03-29T10:19:04.999Z</time></trkpt><trkpt lat="45.072901168601504" lon="8.474940434314533"><ele>111.99999999999999</ele><time>2026-03-29T10:19:05.999Z</time></trkpt><trkpt lat="45.072990324864534" lon="8.47492284299741"><ele>112.0</ele><time>2026-03-29T10:19:06.999Z</time></trkpt><trkpt lat="45.07306486665567" lon="8.474906476408533"><ele>112.0</ele><time>2026-03-29T10:19:07.999Z</time></trkpt><trkpt lat="45.07313682092962" lon="8.47491886912623"><ele>112.0</ele><time>2026-03-29T10:19:08.999Z</time></trkpt><trkpt lat="45.07320923412827" lon="8.474910078023958"><ele>111.99999999999999</ele><time>2026-03-29T10:19:09.999Z</time></trkpt><trkpt lat="45.073281865998574" lon="8.47490184952495"><ele>111.99999999999999</ele><time>2026-03-29T10:19:10.999Z</time></trkpt><trkpt lat="45.07334693167002" lon="8.47487485964496"><ele>112.0</ele><time>2026-03-29T10:19:11.999Z</time></trkpt><trkpt lat="45.073467477250055" lon="8.474886085896937"><ele>112.0</ele><time>2026-03-29T10:19:13.999Z</time></trkpt><trkpt lat="45.07358176892123" lon="8.474855942965688"><ele>111.6</ele><time>2026-03-29T10:19:15.999Z</time></trkpt><trkpt lat="45.07364504821522" lon="8.474851068870814"><ele>111.19999999999999</ele><time>2026-03-29T10:19:16.999Z</time></trkpt><trkpt lat="45.07371054913969" lon="8.474842937232978"><ele>110.8</ele><time>2026-03-29T10:19:17.999Z</time></trkpt><trkpt lat="45.07383300109447" lon="8.474822893525443"><ele>110.4</ele><time>2026-03-29T10:19:19.999Z</time></trkpt><trkpt lat="45.07395046180143" lon="8.47480325465643"><ele>110.0</ele><time>2026-03-29T10:19:21.999Z</time></trkpt><trkpt lat="45.07407744023319" lon="8.474772660434068"><ele>110.2</ele><time>2026-03-29T10:19:23.999Z</time></trkpt><trkpt lat="45.07413887328469" lon="8.474752119584506"><ele>110.4</ele><time>2026-03-29T10:19:24.999Z</time></trkpt><trkpt lat="45.07425681907452" lon="8.474717401124995"><ele>110.6</ele><time>2026-03-29T10:19:26.999Z</time></trkpt><trkpt lat="45.074378462625624" lon="8.474685258974674"><ele>110.8</ele><time>2026-03-29T10:19:28.999Z</time></trkpt><trkpt lat="45.07449856429173" lon="8.474655581023901"><ele>111.0</ele><time>2026-03-29T10:19:30.999Z</time></trkpt><trkpt lat="45.074599363658635" lon="8.474629432700013"><ele>111.0</ele><time>2026-03-29T10:19:32.999Z</time></trkpt><trkpt lat="45.074692682181094" lon="8.47462185864478"><ele>111.0</ele><time>2026-03-29T10:19:34.999Z</time></trkpt><trkpt lat="45.07480328740431" lon="8.474612660824032"><ele>111.0</ele><time>2026-03-29T10:19:36.999Z</time></trkpt><trkpt lat="45.07490132803503" lon="8.474649170013516"><ele>111.0</ele><time>2026-03-29T10:19:38.999Z</time></trkpt><trkpt lat="45.07497103670663" lon="8.474752421981206"><ele>111.0</ele><time>2026-03-29T10:19:40.999Z</time></trkpt><trkpt lat="45.074997455930095" lon="8.474907603688544"><ele>111.0</ele><time>2026-03-29T10:19:42.999Z</time></trkpt><trkpt lat="45.074986598235085" lon="8.47508413232782"><ele>111.0</ele><time>2026-03-29T10:19:44.999Z</time></trkpt><trkpt lat="45.07498042452197" lon="8.475246448192618"><ele>111.0</ele><time>2026-03-29T10:19:46.999Z</time></trkpt><trkpt lat="45.074976231783815" lon="8.475337351852142"><ele>111.0</ele><time>2026-03-29T10:19:47.999Z</time></trkpt><trkpt lat="45.074973457213176" lon="8.475431536811742"><ele>111.0</ele><time>2026-03-29T10:19:48.999Z</time></trkpt><trkpt lat="45.07496774814534" lon="8.475522291679667"><ele>111.0</ele><time>2026-03-29T10:19:49.999Z</time></trkpt><trkpt lat="45.074965151728826" lon="8.475612728065176"><ele>111.0</ele><time>2026-03-29T10:19:50.999Z</time></trkpt><trkpt lat="45.07495953156868" lon="8.47571061770033"><ele>111.0</ele><time>2026-03-29T10:19:51.999Z</time></trkpt><trkpt lat="45.07494485521603" lon="8.475825429372057"><ele>111.0</ele><time>2026-03-29T10:19:52.999Z</time></trkpt><trkpt lat="45.07492904449508" lon="8.475929486781324"><ele>111.0</ele><time>2026-03-29T10:19:53.999Z</time></trkpt><trkpt lat="45.074911899075275" lon="8.476035467462408"><ele>111.0</ele><time>2026-03-29T10:19:54.999Z</time></trkpt><trkpt lat="45.07489388814248" lon="8.476135036629985"><ele>111.0</ele><time>2026-03-29T10:19:55.999Z</time></trkpt><trkpt lat="45.07487427484807" lon="8.476233774849263"><ele>111.0</ele><time>2026-03-29T10:19:56.999Z</time></trkpt><trkpt lat="45.074856108021436" lon="8.476331435056423"><ele>111.0</ele><time>2026-03-29T10:19:57.999Z</time></trkpt><trkpt lat="45.07483738690025" lon="8.476430346685294"><ele>111.0</ele><time>2026-03-29T10:19:58.999Z</time></trkpt><trkpt lat="45.07481876969268" lon="8.476526720224932"><ele>111.0</ele><time>2026-03-29T10:19:59.999Z</time></trkpt><trkpt lat="45.074799144098954" lon="8.476621104717774"><ele>111.0</ele><time>2026-03-29T10:20:00.999Z</time></trkpt><trkpt lat="45.07478337169226" lon="8.476711072848216"><ele>111.0</ele><time>2026-03-29T10:20:01.999Z</time></trkpt><trkpt lat="45.07476675694194" lon="8.476801063115886"><ele>111.0</ele><time>2026-03-29T10:20:02.999Z</time></trkpt><trkpt lat="45.074750151892495" lon="8.476897042137406"><ele>111.0</ele><time>2026-03-29T10:20:03.998Z</time></trkpt><trkpt lat="45.074730091522184" lon="8.47699391872256"><ele>111.0</ele><time>2026-03-29T10:20:04.998Z</time></trkpt><trkpt lat="45.07471189359065" lon="8.477086033910517"><ele>111.0</ele><time>2026-03-29T10:20:05.998Z</time></trkpt><trkpt lat="45.074691970821014" lon="8.47718346555608"><ele>111.0</ele><time>2026-03-29T10:20:06.998Z</time></trkpt><trkpt lat="45.07467576855237" lon="8.47727654053685"><ele>111.0</ele><time>2026-03-29T10:20:07.998Z</time></trkpt><trkpt lat="45.074660084791354" lon="8.477371210815646"><ele>111.0</ele><time>2026-03-29T10:20:09Z</time></trkpt><trkpt lat="45.07464047141168" lon="8.477466843746036"><ele>111.0</ele><time>2026-03-29T10:20:10Z</time></trkpt><trkpt lat="45.07462020815563" lon="8.47755961740095"><ele>111.0</ele><time>2026-03-29T10:20:11Z</time></trkpt><trkpt lat="45.07458599745353" lon="8.477731631378777"><ele>111.25</ele><time>2026-03-29T10:20:13Z</time></trkpt><trkpt lat="45.074564073346245" lon="8.47790402455249"><ele>111.5</ele><time>2026-03-29T10:20:15Z</time></trkpt><trkpt lat="45.07458666181041" lon="8.478069770500632"><ele>111.75</ele><time>2026-03-29T10:20:17Z</time></trkpt><trkpt lat="45.07467186254253" lon="8.478185537228388"><ele>112.0</ele><time>2026-03-29T10:20:19Z</time></trkpt><trkpt lat="45.074775078217094" lon="8.47826666517915"><ele>111.5</ele><time>2026-03-29T10:20:21Z</time></trkpt><trkpt lat="45.07480803369127" lon="8.478396067171726"><ele>111.0</ele><time>2026-03-29T10:20:23Z</time></trkpt><trkpt lat="45.074784680812535" lon="8.47857719634186"><ele>110.5</ele><time>2026-03-29T10:20:25Z</time></trkpt><trkpt lat="45.07475777308029" lon="8.478713615106532"><ele>110.0</ele><time>2026-03-29T10:20:26Z</time></trkpt><trkpt lat="45.07472335468049" lon="8.478914619010887"><ele>110.0</ele><time>2026-03-29T10:20:27Z</time></trkpt><trkpt lat="45.07470088206884" lon="8.47908547517333"><ele>110.0</ele><time>2026-03-29T10:20:28Z</time></trkpt><trkpt lat="45.07467496954385" lon="8.479247240762193"><ele>110.0</ele><time>2026-03-29T10:20:29Z</time></trkpt><trkpt lat="45.07465554266517" lon="8.479384337577468"><ele>110.0</ele><time>2026-03-29T10:20:30Z</time></trkpt><trkpt lat="45.07464080310933" lon="8.479512024060764"><ele>110.0</ele><time>2026-03-29T10:20:31Z</time></trkpt><trkpt lat="45.07462282354221" lon="8.479640147770601"><ele>109.99999999999999</ele><time>2026-03-29T10:20:32Z</time></trkpt><trkpt lat="45.0746089154934" lon="8.479759453828924"><ele>110.0</ele><time>2026-03-29T10:20:33Z</time></trkpt><trkpt lat="45.07459422205302" lon="8.479864179044638"><ele>110.0</ele><time>2026-03-29T10:20:34Z</time></trkpt><trkpt lat="45.07458304550921" lon="8.479957775578601"><ele>110.0</ele><time>2026-03-29T10:20:35Z</time></trkpt><trkpt lat="45.07457870716876" lon="8.480048086703425"><ele>110.0</ele><time>2026-03-29T10:20:36Z</time></trkpt><trkpt lat="45.074586427651596" lon="8.480142963188195"><ele>109.99999999999999</ele><time>2026-03-29T10:20:37Z</time></trkpt><trkpt lat="45.07460910106978" lon="8.480242734671124"><ele>110.0</ele><time>2026-03-29T10:20:38Z</time></trkpt><trkpt lat="45.07464326720278" lon="8.480331389035047"><ele>109.99999999999999</ele><time>2026-03-29T10:20:39Z</time></trkpt><trkpt lat="45.07467647599197" lon="8.480420296952243"><ele>110.0</ele><time>2026-03-29T10:20:40Z</time></trkpt><trkpt lat="45.07469490626914" lon="8.480518494378687"><ele>110.0</ele><time>2026-03-29T10:20:41Z</time></trkpt><trkpt lat="45.07469274029855" lon="8.480619709435995"><ele>110.0</ele><time>2026-03-29T10:20:42Z</time></trkpt><trkpt lat="45.0746797628674" lon="8.48072062545418"><ele>110.0</ele><time>2026-03-29T10:20:43Z</time></trkpt><trkpt lat="45.074670733971004" lon="8.480820006398838"><ele>109.99999999999999</ele><time>2026-03-29T10:20:44Z</time></trkpt><trkpt lat="45.07466495136259" lon="8.480936250294567"><ele>110.0</ele><time>2026-03-29T10:20:45Z</time></trkpt><trkpt lat="45.07464538144484" lon="8.48106017183019"><ele>110.49999999999999</ele><time>2026-03-29T10:20:46Z</time></trkpt><trkpt lat="45.074628306238225" lon="8.481197465424351"><ele>111.0</ele><time>2026-03-29T10:20:47Z</time></trkpt><trkpt lat="45.074617361441504" lon="8.481321264825015"><ele>111.5</ele><time>2026-03-29T10:20:48Z</time></trkpt><trkpt lat="45.074606496115656" lon="8.481431460254816"><ele>112.0</ele><time>2026-03-29T10:20:49Z</time></trkpt><trkpt lat="45.074600381103416" lon="8.481534743462255"><ele>112.49999999999999</ele><time>2026-03-29T10:20:50Z</time></trkpt><trkpt lat="45.07458948076093" lon="8.481634431096465"><ele>113.0</ele><time>2026-03-29T10:20:51Z</time></trkpt><trkpt lat="45.074577734826065" lon="8.481734942242886"><ele>113.0</ele><time>2026-03-29T10:20:52Z</time></trkpt><trkpt lat="45.074565956666234" lon="8.481833959327892"><ele>113.0</ele><time>2026-03-29T10:20:53Z</time></trkpt><trkpt lat="45.07455734248063" lon="8.481933638098262"><ele>113.0</ele><time>2026-03-29T10:20:54Z</time></trkpt><trkpt lat="45.07454766461296" lon="8.482033043855093"><ele>113.0</ele><time>2026-03-29T10:20:55Z</time></trkpt><trkpt lat="45.074534978078354" lon="8.482133615152325"><ele>113.0</ele><time>2026-03-29T10:20:56Z</time></trkpt><trkpt lat="45.074528628097084" lon="8.482230427492942"><ele>113.0</ele><time>2026-03-29T10:20:56.999Z</time></trkpt><trkpt lat="45.07452180815391" lon="8.482329767456143"><ele>113.0</ele><time>2026-03-29T10:20:57.999Z</time></trkpt><trkpt lat="45.07451759691357" lon="8.48242926180203"><ele>113.16666666666666</ele><time>2026-03-29T10:20:58.999Z</time></trkpt><trkpt lat="45.0744952689058" lon="8.482527961779544"><ele>113.33333333333333</ele><time>2026-03-29T10:20:59.999Z</time></trkpt><trkpt lat="45.07448819155001" lon="8.48263002688686"><ele>113.5</ele><time>2026-03-29T10:21:00.999Z</time></trkpt><trkpt lat="45.074497464825114" lon="8.482728280285867"><ele>113.66666666666666</ele><time>2026-03-29T10:21:01.999Z</time></trkpt><trkpt lat="45.074486448056895" lon="8.482830303635076"><ele>113.83333333333333</ele><time>2026-03-29T10:21:02.999Z</time></trkpt><trkpt lat="45.0744817136836" lon="8.48292519000374"><ele>114.0</ele><time>2026-03-29T10:21:03.999Z</time></trkpt><trkpt lat="45.07447394101456" lon="8.483082708975443"><ele>113.6</ele><time>2026-03-29T10:21:05.999Z</time></trkpt><trkpt lat="45.0744580519262" lon="8.48325952615777"><ele>113.2</ele><time>2026-03-29T10:21:07.999Z</time></trkpt><trkpt lat="45.07447586545175" lon="8.483350451593"><ele>112.79999999999998</ele><time>2026-03-29T10:21:08.999Z</time></trkpt><trkpt lat="45.07458474275799" lon="8.483463329738038"><ele>112.39999999999999</ele><time>2026-03-29T10:21:10.999Z</time></trkpt><trkpt lat="45.07466354108458" lon="8.483544751003388"><ele>112.0</ele><time>2026-03-29T10:21:11.999Z</time></trkpt><trkpt lat="45.07474038696716" lon="8.483632123156045"><ele>112.0</ele><time>2026-03-29T10:21:12.999Z</time></trkpt><trkpt lat="45.07480788331545" lon="8.483712406987564"><ele>111.99999999999999</ele><time>2026-03-29T10:21:13.999Z</time></trkpt><trkpt lat="45.07489112849973" lon="8.48379694277798"><ele>111.99999999999999</ele><time>2026-03-29T10:21:14.999Z</time></trkpt><trkpt lat="45.074969077359086" lon="8.483891367585658"><ele>112.0</ele><time>2026-03-29T10:21:15.999Z</time></trkpt><trkpt lat="45.07505592985284" lon="8.483998580793607"><ele>112.0</ele><time>2026-03-29T10:21:16.999Z</time></trkpt><trkpt lat="45.07514320531991" lon="8.484104628922381"><ele>112.16666666666667</ele><time>2026-03-29T10:21:17.999Z</time></trkpt><trkpt lat="45.07522341841863" lon="8.484212910740032"><ele>112.33333333333334</ele><time>2026-03-29T10:21:19.999Z</time></trkpt><trkpt lat="45.07527206655419" lon="8.484277123945951"><ele>112.5</ele><time>2026-03-29T10:21:20.999Z</time></trkpt><trkpt lat="45.07532586687885" lon="8.4843381552998"><ele>112.66666666666666</ele><time>2026-03-29T10:21:21.999Z</time></trkpt><trkpt lat="45.075373846215" lon="8.484396766204382"><ele>112.83333333333333</ele><time>2026-03-29T10:21:22.999Z</time></trkpt><trkpt lat="45.07545160362853" lon="8.484491512300075"><ele>113.0</ele><time>2026-03-29T10:21:24.999Z</time></trkpt><trkpt lat="45.07549398878356" lon="8.48456643336529"><ele>112.83333333333333</ele><time>2026-03-29T10:21:27.999Z</time></trkpt><trkpt lat="45.075593833771194" lon="8.484637802934053"><ele>112.66666666666666</ele><time>2026-03-29T10:21:29.999Z</time></trkpt><trkpt lat="45.07557535070478" lon="8.484770029030054"><ele>112.5</ele><time>2026-03-29T10:21:51.999Z</time></trkpt><trkpt lat="45.075507305502235" lon="8.484827431342048"><ele>112.33333333333334</ele><time>2026-03-29T10:21:53.999Z</time></trkpt><trkpt lat="45.07545810600732" lon="8.484900379528872"><ele>112.16666666666667</ele><time>2026-03-29T10:21:56.999Z</time></trkpt><trkpt lat="45.07540158887678" lon="8.484988599096932"><ele>112.0</ele><time>2026-03-29T10:22:08.998Z</time></trkpt><trkpt lat="45.075357226663186" lon="8.485057922787911"><ele>112.00000000000001</ele><time>2026-03-29T10:22:09.998Z</time></trkpt><trkpt lat="45.07530623733252" lon="8.485135331675151"><ele>112.0</ele><time>2026-03-29T10:22:10.998Z</time></trkpt><trkpt lat="45.0752521361527" lon="8.485221191086854"><ele>112.0</ele><time>2026-03-29T10:22:11.998Z</time></trkpt><trkpt lat="45.07519898469645" lon="8.48530331151036"><ele>112.0</ele><time>2026-03-29T10:22:12.998Z</time></trkpt><trkpt lat="45.07514503220562" lon="8.48538374831633"><ele>112.00000000000001</ele><time>2026-03-29T10:22:13.998Z</time></trkpt><trkpt lat="45.07508151478514" lon="8.485470731640142"><ele>112.0</ele><time>2026-03-29T10:22:15Z</time></trkpt><trkpt lat="45.075009179070285" lon="8.485571616729294"><ele>112.39999999999999</ele><time>2026-03-29T10:22:16Z</time></trkpt><trkpt lat="45.07492789201658" lon="8.485692399494184"><ele>112.79999999999998</ele><time>2026-03-29T10:22:17Z</time></trkpt><trkpt lat="45.07485390621477" lon="8.485801412752824"><ele>113.2</ele><time>2026-03-29T10:22:18Z</time></trkpt><trkpt lat="45.074779783658265" lon="8.48590583094149"><ele>113.6</ele><time>2026-03-29T10:22:19Z</time></trkpt><trkpt lat="45.0747010647007" lon="8.486013593868703"><ele>114.0</ele><time>2026-03-29T10:22:20Z</time></trkpt><trkpt lat="45.07462122735403" lon="8.48612989094987"><ele>114.0</ele><time>2026-03-29T10:22:21Z</time></trkpt><trkpt lat="45.07454228167238" lon="8.486245953134834"><ele>114.0</ele><time>2026-03-29T10:22:22Z</time></trkpt><trkpt lat="45.074468754744316" lon="8.486352928412357"><ele>114.0</ele><time>2026-03-29T10:22:23Z</time></trkpt><trkpt lat="45.074395870356184" lon="8.486460519519872"><ele>114.0</ele><time>2026-03-29T10:22:24Z</time></trkpt><trkpt lat="45.07432805972626" lon="8.486560670179731"><ele>114.0</ele><time>2026-03-29T10:22:25Z</time></trkpt><trkpt lat="45.07424988504571" lon="8.486668570098594"><ele>113.75</ele><time>2026-03-29T10:22:26Z</time></trkpt><trkpt lat="45.07416820490778" lon="8.486782366986668"><ele>113.5</ele><time>2026-03-29T10:22:27Z</time></trkpt><trkpt lat="45.07408207017193" lon="8.48690760354322"><ele>113.25</ele><time>2026-03-29T10:22:28Z</time></trkpt><trkpt lat="45.073991380036226" lon="8.487041742701866"><ele>113.0</ele><time>2026-03-29T10:22:29Z</time></trkpt><trkpt lat="45.07388680344712" lon="8.48719465607135"><ele>113.0</ele><time>2026-03-29T10:22:30Z</time></trkpt><trkpt lat="45.073777763551256" lon="8.487355021056809"><ele>113.0</ele><time>2026-03-29T10:22:31Z</time></trkpt><trkpt lat="45.073673364047664" lon="8.487504379826197"><ele>113.0</ele><time>2026-03-29T10:22:32Z</time></trkpt><trkpt lat="45.07357126894744" lon="8.487649102763633"><ele>113.0</ele><time>2026-03-29T10:22:33Z</time></trkpt><trkpt lat="45.07347194693266" lon="8.487794008755285"><ele>113.0</ele><time>2026-03-29T10:22:34Z</time></trkpt><trkpt lat="45.07337393221141" lon="8.48793900724055"><ele>113.0</ele><time>2026-03-29T10:22:35Z</time></trkpt><trkpt lat="45.07326756324349" lon="8.488094756263555"><ele>113.0</ele><time>2026-03-29T10:22:36Z</time></trkpt><trkpt lat="45.073159745998495" lon="8.488248208160842"><ele>113.66666666666666</ele><time>2026-03-29T10:22:37Z</time></trkpt><trkpt lat="45.07304913740311" lon="8.48840468353135"><ele>114.33333333333334</ele><time>2026-03-29T10:22:38Z</time></trkpt><trkpt lat="45.0729403687235" lon="8.488561716175655"><ele>115.0</ele><time>2026-03-29T10:22:39Z</time></trkpt><trkpt lat="45.07282759703569" lon="8.488722030979668"><ele>114.66666666666667</ele><time>2026-03-29T10:22:40Z</time></trkpt><trkpt lat="45.07272111977728" lon="8.488881650550965"><ele>114.33333333333334</ele><time>2026-03-29T10:22:41Z</time></trkpt><trkpt lat="45.072615352141476" lon="8.489040446554565"><ele>114.0</ele><time>2026-03-29T10:22:42Z</time></trkpt><trkpt lat="45.07251069421137" lon="8.48919684118849"><ele>114.0</ele><time>2026-03-29T10:22:43Z</time></trkpt><trkpt lat="45.07239848764132" lon="8.489353904096994"><ele>114.0</ele><time>2026-03-29T10:22:44Z</time></trkpt><trkpt lat="45.072284435167326" lon="8.489517416925445"><ele>114.0</ele><time>2026-03-29T10:22:45Z</time></trkpt><trkpt lat="45.07216494834881" lon="8.489685213091017"><ele>113.66666666666666</ele><time>2026-03-29T10:22:46Z</time></trkpt><trkpt lat="45.07204292803849" lon="8.489858477343759"><ele>113.33333333333333</ele><time>2026-03-29T10:22:47Z</time></trkpt><trkpt lat="45.0719246942445" lon="8.490025777284218"><ele>113.0</ele><time>2026-03-29T10:22:48Z</time></trkpt><trkpt lat="45.071809240240434" lon="8.490192467539234"><ele>113.0</ele><time>2026-03-29T10:22:49Z</time></trkpt><trkpt lat="45.07169102040681" lon="8.490367640976176"><ele>113.0</ele><time>2026-03-29T10:22:50Z</time></trkpt><trkpt lat="45.071567745094335" lon="8.49055186858109"><ele>113.0</ele><time>2026-03-29T10:22:51Z</time></trkpt><trkpt lat="45.07143446595803" lon="8.490743507924682"><ele>113.33333333333333</ele><time>2026-03-29T10:22:52Z</time></trkpt><trkpt lat="45.07129422983117" lon="8.490944273883079"><ele>113.66666666666666</ele><time>2026-03-29T10:22:53Z</time></trkpt><trkpt lat="45.07116413072422" lon="8.491128148866064"><ele>114.0</ele><time>2026-03-29T10:22:54Z</time></trkpt><trkpt lat="45.07103789123531" lon="8.491305574162581"><ele>113.66666666666666</ele><time>2026-03-29T10:22:55Z</time></trkpt><trkpt lat="45.070917841399165" lon="8.491478816371027"><ele>113.33333333333333</ele><time>2026-03-29T10:22:56Z</time></trkpt><trkpt lat="45.070804896047775" lon="8.491649621447516"><ele>113.0</ele><time>2026-03-29T10:22:57Z</time></trkpt><trkpt lat="45.0706909350623" lon="8.491818859693288"><ele>113.0</ele><time>2026-03-29T10:22:58Z</time></trkpt><trkpt lat="45.07057290461191" lon="8.491986614180286"><ele>113.0</ele><time>2026-03-29T10:22:59Z</time></trkpt><trkpt lat="45.07045271357897" lon="8.492158162634313"><ele>113.0</ele><time>2026-03-29T10:23:00Z</time></trkpt><trkpt lat="45.070331409674914" lon="8.49232784255634"><ele>112.66666666666666</ele><time>2026-03-29T10:23:01Z</time></trkpt><trkpt lat="45.070209321049695" lon="8.49249743902382"><ele>112.33333333333334</ele><time>2026-03-29T10:23:01.999Z</time></trkpt><trkpt lat="45.0700932198104" lon="8.492665485083693"><ele>112.0</ele><time>2026-03-29T10:23:02.999Z</time></trkpt><trkpt lat="45.06997902584283" lon="8.492831961601258"><ele>112.0</ele><time>2026-03-29T10:23:03.999Z</time></trkpt><trkpt lat="45.069868355310525" lon="8.492994468047947"><ele>112.0</ele><time>2026-03-29T10:23:04.999Z</time></trkpt><trkpt lat="45.0697633903156" lon="8.493148556727231"><ele>112.0</ele><time>2026-03-29T10:23:05.999Z</time></trkpt><trkpt lat="45.06966617708181" lon="8.493292269186782"><ele>112.0</ele><time>2026-03-29T10:23:06.999Z</time></trkpt><trkpt lat="45.06957274279478" lon="8.493428482189522"><ele>112.0</ele><time>2026-03-29T10:23:07.999Z</time></trkpt><trkpt lat="45.06948103580332" lon="8.49355892328502"><ele>112.0</ele><time>2026-03-29T10:23:08.999Z</time></trkpt><trkpt lat="45.06938867058094" lon="8.493690425560654"><ele>112.0</ele><time>2026-03-29T10:23:09.999Z</time></trkpt><trkpt lat="45.06929118612752" lon="8.493827453007215"><ele>112.0</ele><time>2026-03-29T10:23:10.999Z</time></trkpt><trkpt lat="45.06919067966532" lon="8.493970272844562"><ele>112.0</ele><time>2026-03-29T10:23:11.999Z</time></trkpt><trkpt lat="45.06909180225856" lon="8.494113219600573"><ele>112.0</ele><time>2026-03-29T10:23:12.999Z</time></trkpt><trkpt lat="45.068990863702126" lon="8.494263340339618"><ele>112.0</ele><time>2026-03-29T10:23:13.999Z</time></trkpt><trkpt lat="45.06889582124054" lon="8.49440280447721"><ele>112.0</ele><time>2026-03-29T10:23:14.999Z</time></trkpt><trkpt lat="45.06880365923798" lon="8.494531804070656"><ele>112.0</ele><time>2026-03-29T10:23:15.999Z</time></trkpt><trkpt lat="45.068712977542305" lon="8.494657113883092"><ele>112.0</ele><time>2026-03-29T10:23:16.999Z</time></trkpt><trkpt lat="45.06862500501655" lon="8.49478465790301"><ele>112.0</ele><time>2026-03-29T10:23:17.999Z</time></trkpt><trkpt lat="45.06853984148427" lon="8.494910708531743"><ele>112.0</ele><time>2026-03-29T10:23:18.999Z</time></trkpt><trkpt lat="45.068455265917805" lon="8.49503113071342"><ele>112.0</ele><time>2026-03-29T10:23:19.999Z</time></trkpt><trkpt lat="45.06837856089524" lon="8.495141356230496"><ele>112.0</ele><time>2026-03-29T10:23:20.999Z</time></trkpt><trkpt lat="45.06830482222222" lon="8.495254483533897"><ele>112.0</ele><time>2026-03-29T10:23:21.999Z</time></trkpt><trkpt lat="45.0682275725062" lon="8.495376665839075"><ele>111.75</ele><time>2026-03-29T10:23:22.999Z</time></trkpt><trkpt lat="45.06814966150846" lon="8.495496920072165"><ele>111.5</ele><time>2026-03-29T10:23:23.999Z</time></trkpt><trkpt lat="45.06806570492468" lon="8.495621261156856"><ele>111.25</ele><time>2026-03-29T10:23:24.999Z</time></trkpt><trkpt lat="45.06797675964036" lon="8.495751813667802"><ele>111.0</ele><time>2026-03-29T10:23:25.999Z</time></trkpt><trkpt lat="45.06788628134572" lon="8.495890135066208"><ele>111.0</ele><time>2026-03-29T10:23:26.999Z</time></trkpt><trkpt lat="45.067793467799106" lon="8.496044592668628"><ele>111.0</ele><time>2026-03-29T10:23:27.999Z</time></trkpt><trkpt lat="45.0676871973682" lon="8.496213499758234"><ele>111.0</ele><time>2026-03-29T10:23:28.999Z</time></trkpt><trkpt lat="45.06757574656254" lon="8.496389262428682"><ele>111.33333333333334</ele><time>2026-03-29T10:23:29.999Z</time></trkpt><trkpt lat="45.06747046487549" lon="8.496557121326063"><ele>111.66666666666667</ele><time>2026-03-29T10:23:30.999Z</time></trkpt><trkpt lat="45.06737214871969" lon="8.496723343978914"><ele>112.0</ele><time>2026-03-29T10:23:31.999Z</time></trkpt><trkpt lat="45.0672759862567" lon="8.496887975332884"><ele>112.33333333333334</ele><time>2026-03-29T10:23:32.999Z</time></trkpt><trkpt lat="45.06717447494738" lon="8.497056984529785"><ele>112.66666666666666</ele><time>2026-03-29T10:23:33.999Z</time></trkpt><trkpt lat="45.06706483339805" lon="8.497250071490116"><ele>113.0</ele><time>2026-03-29T10:23:34.999Z</time></trkpt><trkpt lat="45.066944405678754" lon="8.497456717058315"><ele>113.0</ele><time>2026-03-29T10:23:35.999Z</time></trkpt><trkpt lat="45.06682721817676" lon="8.497657327137148"><ele>113.0</ele><time>2026-03-29T10:23:36.999Z</time></trkpt><trkpt lat="45.066714745628424" lon="8.497857161465156"><ele>113.0</ele><time>2026-03-29T10:23:37.999Z</time></trkpt><trkpt lat="45.06660433139808" lon="8.498052401322067"><ele>112.33333333333333</ele><time>2026-03-29T10:23:38.999Z</time></trkpt><trkpt lat="45.06649253301998" lon="8.498235353588454"><ele>111.66666666666666</ele><time>2026-03-29T10:23:39.999Z</time></trkpt><trkpt lat="45.06638521039236" lon="8.49841713448539"><ele>111.0</ele><time>2026-03-29T10:23:40.999Z</time></trkpt><trkpt lat="45.06628106134741" lon="8.498598798207864"><ele>111.0</ele><time>2026-03-29T10:23:41.999Z</time></trkpt><trkpt lat="45.066177837571665" lon="8.498781736238316"><ele>111.0</ele><time>2026-03-29T10:23:42.999Z</time></trkpt><trkpt lat="45.066073377293485" lon="8.498964603691453"><ele>111.0</ele><time>2026-03-29T10:23:43.999Z</time></trkpt><trkpt lat="45.06596608006784" lon="8.499147136036315"><ele>111.0</ele><time>2026-03-29T10:23:44.999Z</time></trkpt><trkpt lat="45.06585848482132" lon="8.499330022038468"><ele>111.0</ele><time>2026-03-29T10:23:45.999Z</time></trkpt><trkpt lat="45.06575352764348" lon="8.499509337472903"><ele>111.0</ele><time>2026-03-29T10:23:46.999Z</time></trkpt><trkpt lat="45.065650841088626" lon="8.499688228387974"><ele>112.66666666666666</ele><time>2026-03-29T10:23:47.999Z</time></trkpt><trkpt lat="45.06555057951366" lon="8.4998633342929"><ele>114.33333333333333</ele><time>2026-03-29T10:23:48.999Z</time></trkpt><trkpt lat="45.06545147000719" lon="8.500039902592524"><ele>116.0</ele><time>2026-03-29T10:23:49.999Z</time></trkpt><trkpt lat="45.0653538035185" lon="8.500208764191768"><ele>116.0</ele><time>2026-03-29T10:23:50.999Z</time></trkpt><trkpt lat="45.06525463908018" lon="8.50037510707413"><ele>116.0</ele><time>2026-03-29T10:23:51.999Z</time></trkpt><trkpt lat="45.065158474816" lon="8.5005373443648"><ele>116.0</ele><time>2026-03-29T10:23:52.999Z</time></trkpt><trkpt lat="45.065059508372265" lon="8.500702799331888"><ele>115.66666666666666</ele><time>2026-03-29T10:23:53.999Z</time></trkpt><trkpt lat="45.064963990076514" lon="8.500865153505696"><ele>115.33333333333334</ele><time>2026-03-29T10:23:54.999Z</time></trkpt><trkpt lat="45.06486823669738" lon="8.501030391580654"><ele>115.0</ele><time>2026-03-29T10:23:55.999Z</time></trkpt><trkpt lat="45.06477012041889" lon="8.501198111568407"><ele>114.25</ele><time>2026-03-29T10:23:56.999Z</time></trkpt><trkpt lat="45.06467265902698" lon="8.50136129841981"><ele>113.5</ele><time>2026-03-29T10:23:57.999Z</time></trkpt><trkpt lat="45.06457729733071" lon="8.501521695110068"><ele>112.75</ele><time>2026-03-29T10:23:58.999Z</time></trkpt><trkpt lat="45.06448399125179" lon="8.50168101278014"><ele>112.0</ele><time>2026-03-29T10:23:59.999Z</time></trkpt><trkpt lat="45.06439042080554" lon="8.501841722385551"><ele>112.0</ele><time>2026-03-29T10:24:00.999Z</time></trkpt><trkpt lat="45.0642959959781" lon="8.502004318592565"><ele>112.0</ele><time>2026-03-29T10:24:01.999Z</time></trkpt><trkpt lat="45.06420083920097" lon="8.502168750834286"><ele>112.0</ele><time>2026-03-29T10:24:02.999Z</time></trkpt><trkpt lat="45.064105300243476" lon="8.502336382523994"><ele>112.66666666666667</ele><time>2026-03-29T10:24:03.999Z</time></trkpt><trkpt lat="45.06401051066741" lon="8.502503604263513"><ele>113.33333333333334</ele><time>2026-03-29T10:24:04.999Z</time></trkpt><trkpt lat="45.06391595376799" lon="8.50266901326846"><ele>114.0</ele><time>2026-03-29T10:24:05.999Z</time></trkpt><trkpt lat="45.06382134440847" lon="8.502836068108682"><ele>113.0</ele><time>2026-03-29T10:24:06.999Z</time></trkpt><trkpt lat="45.063725888960036" lon="8.50299946337458"><ele>112.0</ele><time>2026-03-29T10:24:07.999Z</time></trkpt><trkpt lat="45.063631006287224" lon="8.50315971964626"><ele>111.0</ele><time>2026-03-29T10:24:08.999Z</time></trkpt><trkpt lat="45.06353756188603" lon="8.503318775515492"><ele>110.0</ele><time>2026-03-29T10:24:09.999Z</time></trkpt><trkpt lat="45.063445682121845" lon="8.503478436159682"><ele>110.0</ele><time>2026-03-29T10:24:10.999Z</time></trkpt><trkpt lat="45.06335638293503" lon="8.503634034484449"><ele>110.0</ele><time>2026-03-29T10:24:11.998Z</time></trkpt><trkpt lat="45.06327003056134" lon="8.503784321964055"><ele>110.0</ele><time>2026-03-29T10:24:12.998Z</time></trkpt><trkpt lat="45.06319432717068" lon="8.503911639943642"><ele>110.0</ele><time>2026-03-29T10:24:13.998Z</time></trkpt><trkpt lat="45.063127324644874" lon="8.504024281155894"><ele>110.0</ele><time>2026-03-29T10:24:14.998Z</time></trkpt><trkpt lat="45.06306086304954" lon="8.504134185533571"><ele>110.0</ele><time>2026-03-29T10:24:15.998Z</time></trkpt><trkpt lat="45.06299420945972" lon="8.504250085441752"><ele>110.0</ele><time>2026-03-29T10:24:16.998Z</time></trkpt><trkpt lat="45.06292856781879" lon="8.504365475926043"><ele>110.0</ele><time>2026-03-29T10:24:17.998Z</time></trkpt><trkpt lat="45.06286446589828" lon="8.50447226073417"><ele>110.0</ele><time>2026-03-29T10:24:18.998Z</time></trkpt><trkpt lat="45.06279857232631" lon="8.50457604466539"><ele>110.16666666666666</ele><time>2026-03-29T10:24:19.998Z</time></trkpt><trkpt lat="45.06273442435793" lon="8.50466993940018"><ele>110.33333333333333</ele><time>2026-03-29T10:24:21Z</time></trkpt><trkpt lat="45.06265828447153" lon="8.504759893025449"><ele>110.5</ele><time>2026-03-29T10:24:22Z</time></trkpt><trkpt lat="45.06258153109257" lon="8.504824605443678"><ele>110.66666666666666</ele><time>2026-03-29T10:24:23Z</time></trkpt><trkpt lat="45.06251656408027" lon="8.504861890173057"><ele>110.83333333333333</ele><time>2026-03-29T10:24:24Z</time></trkpt><trkpt lat="45.0624522920722" lon="8.504874605848126"><ele>111.0</ele><time>2026-03-29T10:24:25Z</time></trkpt><trkpt lat="45.062387015027674" lon="8.5048857392236"><ele>111.5</ele><time>2026-03-29T10:24:26Z</time></trkpt><trkpt lat="45.062309275297196" lon="8.504909352663528"><ele>112.0</ele><time>2026-03-29T10:24:27Z</time></trkpt><trkpt lat="45.06222504475322" lon="8.504947329336378"><ele>112.5</ele><time>2026-03-29T10:24:28Z</time></trkpt><trkpt lat="45.06214268182388" lon="8.504991890078875"><ele>113.0</ele><time>2026-03-29T10:24:29Z</time></trkpt><trkpt lat="45.06205459583106" lon="8.50501739609058"><ele>113.5</ele><time>2026-03-29T10:24:30Z</time></trkpt><trkpt lat="45.061964202227145" lon="8.505012051995093"><ele>114.0</ele><time>2026-03-29T10:24:31Z</time></trkpt><trkpt lat="45.06187155829295" lon="8.504968791861712"><ele>114.0</ele><time>2026-03-29T10:24:32Z</time></trkpt><trkpt lat="45.06177500068441" lon="8.50490052128652"><ele>114.0</ele><time>2026-03-29T10:24:33Z</time></trkpt><trkpt lat="45.061676474845285" lon="8.504825654448258"><ele>114.0</ele><time>2026-03-29T10:24:34Z</time></trkpt><trkpt lat="45.06157620061082" lon="8.504749899452134"><ele>114.0</ele><time>2026-03-29T10:24:35Z</time></trkpt><trkpt lat="45.061472247240665" lon="8.504682040161748"><ele>114.0</ele><time>2026-03-29T10:24:36Z</time></trkpt><trkpt lat="45.06136455936932" lon="8.504617860178499"><ele>113.80000000000001</ele><time>2026-03-29T10:24:37Z</time></trkpt><trkpt lat="45.061256484913464" lon="8.504555532960598"><ele>113.60000000000001</ele><time>2026-03-29T10:24:38Z</time></trkpt><trkpt lat="45.06115658338589" lon="8.504495407962592"><ele>113.4</ele><time>2026-03-29T10:24:39Z</time></trkpt><trkpt lat="45.06106064348338" lon="8.504448839759174"><ele>113.2</ele><time>2026-03-29T10:24:40Z</time></trkpt><trkpt lat="45.06097423059928" lon="8.504403341705883"><ele>113.0</ele><time>2026-03-29T10:24:41Z</time></trkpt><trkpt lat="45.06089462571659" lon="8.504368868658986"><ele>112.99999999999999</ele><time>2026-03-29T10:24:42Z</time></trkpt><trkpt lat="45.0608232355191" lon="8.504343840044191"><ele>113.0</ele><time>2026-03-29T10:24:43Z</time></trkpt><trkpt lat="45.060714145183844" lon="8.504264455777314"><ele>113.0</ele><time>2026-03-29T10:24:45Z</time></trkpt><trkpt lat="45.06065793827922" lon="8.504203368282514"><ele>113.0</ele><time>2026-03-29T10:24:46Z</time></trkpt><trkpt lat="45.060594903326944" lon="8.504139130563264"><ele>112.99999999999999</ele><time>2026-03-29T10:24:47Z</time></trkpt><trkpt lat="45.06052176286326" lon="8.504080451446399"><ele>113.0</ele><time>2026-03-29T10:24:48Z</time></trkpt><trkpt lat="45.06044479376099" lon="8.504022840866865"><ele>113.2</ele><time>2026-03-29T10:24:49Z</time></trkpt><trkpt lat="45.06036095222981" lon="8.503969322595877"><ele>113.4</ele><time>2026-03-29T10:24:50Z</time></trkpt><trkpt lat="45.06027287641826" lon="8.503909044801901"><ele>113.60000000000001</ele><time>2026-03-29T10:24:51Z</time></trkpt><trkpt lat="45.060174290892284" lon="8.503839690680108"><ele>113.80000000000001</ele><time>2026-03-29T10:24:52Z</time></trkpt><trkpt lat="45.060068856262404" lon="8.503764758839434"><ele>114.0</ele><time>2026-03-29T10:24:53Z</time></trkpt><trkpt lat="45.05997461910564" lon="8.503696272352588"><ele>114.0</ele><time>2026-03-29T10:24:54Z</time></trkpt><trkpt lat="45.05988476430711" lon="8.503630000004241"><ele>114.0</ele><time>2026-03-29T10:24:55Z</time></trkpt><trkpt lat="45.05979507177231" lon="8.503562215431831"><ele>114.0</ele><time>2026-03-29T10:24:56Z</time></trkpt><trkpt lat="45.059703949828034" lon="8.503496778312297"><ele>114.0</ele><time>2026-03-29T10:24:57Z</time></trkpt><trkpt lat="45.05959879742417" lon="8.503430556439962"><ele>114.0</ele><time>2026-03-29T10:24:58Z</time></trkpt><trkpt lat="45.05949617319986" lon="8.503366716622644"><ele>114.0</ele><time>2026-03-29T10:24:59Z</time></trkpt><trkpt lat="45.059397102021286" lon="8.50330518250717"><ele>114.0</ele><time>2026-03-29T10:25:00Z</time></trkpt><trkpt lat="45.05930693507441" lon="8.503247803586417"><ele>114.0</ele><time>2026-03-29T10:25:01Z</time></trkpt><trkpt lat="45.05922042471286" lon="8.50318830185701"><ele>114.0</ele><time>2026-03-29T10:25:01.999Z</time></trkpt><trkpt lat="45.059135922175834" lon="8.503129725414896"><ele>114.0</ele><time>2026-03-29T10:25:02.999Z</time></trkpt><trkpt lat="45.0590580934359" lon="8.503074567157391"><ele>113.80000000000001</ele><time>2026-03-29T10:25:03.999Z</time></trkpt><trkpt lat="45.05898494341448" lon="8.503021305422765"><ele>113.60000000000001</ele><time>2026-03-29T10:25:04.999Z</time></trkpt><trkpt lat="45.058922102153915" lon="8.502970114567734"><ele>113.4</ele><time>2026-03-29T10:25:05.999Z</time></trkpt><trkpt lat="45.05882653241443" lon="8.502895623561985"><ele>113.2</ele><time>2026-03-29T10:25:07.999Z</time></trkpt><trkpt lat="45.05874295965883" lon="8.502920786756283"><ele>113.0</ele><time>2026-03-29T10:25:09.999Z</time></trkpt><trkpt lat="45.05868052124811" lon="8.503080267489846"><ele>112.99999999999999</ele><time>2026-03-29T10:25:11.999Z</time></trkpt><trkpt lat="45.05864178906332" lon="8.503162170999744"><ele>113.0</ele><time>2026-03-29T10:25:12.999Z</time></trkpt><trkpt lat="45.05861134877641" lon="8.503258783060705"><ele>113.0</ele><time>2026-03-29T10:25:13.999Z</time></trkpt><trkpt lat="45.058580348964306" lon="8.503357170177138"><ele>113.0</ele><time>2026-03-29T10:25:14.999Z</time></trkpt><trkpt lat="45.05856097215641" lon="8.503478123782745"><ele>112.99999999999999</ele><time>2026-03-29T10:25:15.999Z</time></trkpt><trkpt lat="45.05851224024234" lon="8.503579699428794"><ele>113.0</ele><time>2026-03-29T10:25:16.999Z</time></trkpt><trkpt lat="45.05848010857278" lon="8.503685619862356"><ele>113.0</ele><time>2026-03-29T10:25:17.999Z</time></trkpt><trkpt lat="45.058450590675655" lon="8.503782924068817"><ele>113.00000000000001</ele><time>2026-03-29T10:25:18.999Z</time></trkpt><trkpt lat="45.058425049075694" lon="8.503869376644792"><ele>113.00000000000001</ele><time>2026-03-29T10:25:19.999Z</time></trkpt><trkpt lat="45.058379285374336" lon="8.503995725219848"><ele>113.0</ele><time>2026-03-29T10:25:21.999Z</time></trkpt><trkpt lat="45.05823589071808" lon="8.50393555722739"><ele>113.0</ele><time>2026-03-29T10:25:24.999Z</time></trkpt><trkpt lat="45.05817331006883" lon="8.50385210213855"><ele>113.25</ele><time>2026-03-29T10:25:25.999Z</time></trkpt><trkpt lat="45.05809602408608" lon="8.503755017743684"><ele>113.5</ele><time>2026-03-29T10:25:26.999Z</time></trkpt><trkpt lat="45.0580040696797" lon="8.503635403476382"><ele>113.75</ele><time>2026-03-29T10:25:27.999Z</time></trkpt><trkpt lat="45.057910909876426" lon="8.503507361961882"><ele>114.0</ele><time>2026-03-29T10:25:28.999Z</time></trkpt><trkpt lat="45.05782921939992" lon="8.503384407022146"><ele>114.0</ele><time>2026-03-29T10:25:29.999Z</time></trkpt><trkpt lat="45.057755356296894" lon="8.503259985720403"><ele>114.0</ele><time>2026-03-29T10:25:30.999Z</time></trkpt><trkpt lat="45.05768535757465" lon="8.50313331014074"><ele>114.0</ele><time>2026-03-29T10:25:31.999Z</time></trkpt><trkpt lat="45.057618897450936" lon="8.503006556836567"><ele>114.0</ele><time>2026-03-29T10:25:32.999Z</time></trkpt><trkpt lat="45.057555549441545" lon="8.502880411374493"><ele>114.0</ele><time>2026-03-29T10:25:33.999Z</time></trkpt><trkpt lat="45.05749038907989" lon="8.502752719266756"><ele>113.5</ele><time>2026-03-29T10:25:34.999Z</time></trkpt><trkpt lat="45.05741738262355" lon="8.502620782462227"><ele>113.0</ele><time>2026-03-29T10:25:35.999Z</time></trkpt><trkpt lat="45.05734623252707" lon="8.50249318196053"><ele>112.5</ele><time>2026-03-29T10:25:36.999Z</time></trkpt><trkpt lat="45.05727885320221" lon="8.502373127382885"><ele>112.0</ele><time>2026-03-29T10:25:37.999Z</time></trkpt><trkpt lat="45.05721178928888" lon="8.502251548372461"><ele>112.0</ele><time>2026-03-29T10:25:38.999Z</time></trkpt><trkpt lat="45.057150135772275" lon="8.502134489632452"><ele>111.99999999999999</ele><time>2026-03-29T10:25:39.999Z</time></trkpt><trkpt lat="45.05709195008773" lon="8.502017409255648"><ele>111.99999999999999</ele><time>2026-03-29T10:25:40.999Z</time></trkpt><trkpt lat="45.05703093144375" lon="8.501906018293429"><ele>112.0</ele><time>2026-03-29T10:25:41.999Z</time></trkpt><trkpt lat="45.056964791962486" lon="8.501799803451052"><ele>112.0</ele><time>2026-03-29T10:25:42.999Z</time></trkpt><trkpt lat="45.0568864698396" lon="8.501694208912147"><ele>112.0</ele><time>2026-03-29T10:25:43.999Z</time></trkpt><trkpt lat="45.05680982409285" lon="8.501587253222356"><ele>111.99999999999999</ele><time>2026-03-29T10:25:44.999Z</time></trkpt><trkpt lat="45.056728215718266" lon="8.501469996290666"><ele>111.99999999999999</ele><time>2026-03-29T10:25:45.999Z</time></trkpt><trkpt lat="45.0566449978418" lon="8.50134708026403"><ele>112.0</ele><time>2026-03-29T10:25:46.999Z</time></trkpt><trkpt lat="45.05659722257064" lon="8.501278347396681"><ele>112.0</ele><time>2026-03-29T10:25:47.999Z</time></trkpt><trkpt lat="45.05652552751268" lon="8.50117495694675"><ele>112.19999999999999</ele><time>2026-03-29T10:25:48.999Z</time></trkpt><trkpt lat="45.05646501724389" lon="8.501056152728694"><ele>112.39999999999999</ele><time>2026-03-29T10:25:49.999Z</time></trkpt><trkpt lat="45.05639085529792" lon="8.500946015848955"><ele>112.60000000000001</ele><time>2026-03-29T10:25:50.999Z</time></trkpt><trkpt lat="45.056312690038816" lon="8.500830685819144"><ele>112.80000000000001</ele><time>2026-03-29T10:25:51.999Z</time></trkpt><trkpt lat="45.056234594796315" lon="8.500715458951168"><ele>113.0</ele><time>2026-03-29T10:25:52.999Z</time></trkpt><trkpt lat="45.056153615705725" lon="8.500595977104442"><ele>113.0</ele><time>2026-03-29T10:25:53.999Z</time></trkpt><trkpt lat="45.056074901697215" lon="8.5004798373668"><ele>113.00000000000001</ele><time>2026-03-29T10:25:54.999Z</time></trkpt><trkpt lat="45.0559890877886" lon="8.50037701559919"><ele>113.00000000000001</ele><time>2026-03-29T10:25:55.999Z</time></trkpt><trkpt lat="45.055913039403066" lon="8.500264756989825"><ele>113.0</ele><time>2026-03-29T10:25:56.999Z</time></trkpt><trkpt lat="45.055839353953544" lon="8.500162100976596"><ele>113.0</ele><time>2026-03-29T10:25:57.999Z</time></trkpt><trkpt lat="45.055764476855636" lon="8.500052748549725"><ele>113.4</ele><time>2026-03-29T10:25:58.999Z</time></trkpt><trkpt lat="45.05569292326294" lon="8.499943330157443"><ele>113.80000000000001</ele><time>2026-03-29T10:25:59.999Z</time></trkpt><trkpt lat="45.05562079344124" lon="8.499841791438593"><ele>114.2</ele><time>2026-03-29T10:26:00.999Z</time></trkpt><trkpt lat="45.05553123077712" lon="8.499746887592591"><ele>114.6</ele><time>2026-03-29T10:26:01.999Z</time></trkpt><trkpt lat="45.055430599639465" lon="8.499668873502209"><ele>115.0</ele><time>2026-03-29T10:26:02.999Z</time></trkpt><trkpt lat="45.05531699195824" lon="8.499616259604737"><ele>115.0</ele><time>2026-03-29T10:26:03.999Z</time></trkpt><trkpt lat="45.05518960489456" lon="8.49959348249151"><ele>115.0</ele><time>2026-03-29T10:26:04.999Z</time></trkpt><trkpt lat="45.055072344007556" lon="8.499596470962887"><ele>115.0</ele><time>2026-03-29T10:26:05.999Z</time></trkpt><trkpt lat="45.05495989835159" lon="8.499584480010034"><ele>115.0</ele><time>2026-03-29T10:26:06.999Z</time></trkpt><trkpt lat="45.05485518819224" lon="8.499572217107232"><ele>115.0</ele><time>2026-03-29T10:26:07.999Z</time></trkpt><trkpt lat="45.054746994336796" lon="8.499552038272428"><ele>115.0</ele><time>2026-03-29T10:26:08.999Z</time></trkpt><trkpt lat="45.05463574071844" lon="8.499517817312151"><ele>115.0</ele><time>2026-03-29T10:26:09.999Z</time></trkpt><trkpt lat="45.05452710527089" lon="8.499465216006005"><ele>115.0</ele><time>2026-03-29T10:26:10.999Z</time></trkpt><trkpt lat="45.054424719448676" lon="8.499418792290022"><ele>115.0</ele><time>2026-03-29T10:26:11.999Z</time></trkpt><trkpt lat="45.0543223789532" lon="8.499370892783903"><ele>115.0</ele><time>2026-03-29T10:26:12.998Z</time></trkpt><trkpt lat="45.054221321668805" lon="8.49932207130403"><ele>115.0</ele><time>2026-03-29T10:26:13.998Z</time></trkpt><trkpt lat="45.05412031247764" lon="8.499270789385198"><ele>115.0</ele><time>2026-03-29T10:26:14.998Z</time></trkpt><trkpt lat="45.05401870610263" lon="8.499220179812717"><ele>115.0</ele><time>2026-03-29T10:26:15.998Z</time></trkpt><trkpt lat="45.05391522290848" lon="8.499173615347411"><ele>115.0</ele><time>2026-03-29T10:26:16.998Z</time></trkpt><trkpt lat="45.05381257707875" lon="8.499125095007273"><ele>114.8</ele><time>2026-03-29T10:26:17.998Z</time></trkpt><trkpt lat="45.05371290048216" lon="8.499082885911008"><ele>114.6</ele><time>2026-03-29T10:26:18.998Z</time></trkpt><trkpt lat="45.053618287307735" lon="8.499044216079124"><ele>114.4</ele><time>2026-03-29T10:26:19.998Z</time></trkpt><trkpt lat="45.05352402858109" lon="8.49900158606744"><ele>114.2</ele><time>2026-03-29T10:26:20.998Z</time></trkpt><trkpt lat="45.0534292423981" lon="8.49895356997055"><ele>114.0</ele><time>2026-03-29T10:26:21.998Z</time></trkpt><trkpt lat="45.053322382036036" lon="8.498904350949703"><ele>113.75</ele><time>2026-03-29T10:26:22.998Z</time></trkpt><trkpt lat="45.05321459580224" lon="8.498852255749092"><ele>113.5</ele><time>2026-03-29T10:26:23.998Z</time></trkpt><trkpt lat="45.05310184379073" lon="8.49880814084559"><ele>113.25</ele><time>2026-03-29T10:26:24.998Z</time></trkpt><trkpt lat="45.05299139447618" lon="8.49876810717677"><ele>113.0</ele><time>2026-03-29T10:26:25.998Z</time></trkpt><trkpt lat="45.052884699886356" lon="8.498728639730977"><ele>113.25</ele><time>2026-03-29T10:26:27Z</time></trkpt><trkpt lat="45.0527756599746" lon="8.498691120934186"><ele>113.5</ele><time>2026-03-29T10:26:28Z</time></trkpt><trkpt lat="45.05266408383522" lon="8.498647671134512"><ele>113.75</ele><time>2026-03-29T10:26:29Z</time></trkpt><trkpt lat="45.05255008755865" lon="8.498604313294239"><ele>114.0</ele><time>2026-03-29T10:26:30Z</time></trkpt><trkpt lat="45.05244147291835" lon="8.498560396328424"><ele>114.0</ele><time>2026-03-29T10:26:31Z</time></trkpt><trkpt lat="45.05233924653667" lon="8.498516965474174"><ele>114.0</ele><time>2026-03-29T10:26:32Z</time></trkpt><trkpt lat="45.05224078131297" lon="8.498474278891054"><ele>114.0</ele><time>2026-03-29T10:26:33Z</time></trkpt><trkpt lat="45.05214142502924" lon="8.498430795400205"><ele>114.0</ele><time>2026-03-29T10:26:34Z</time></trkpt><trkpt lat="45.05203971642557" lon="8.49838360664126"><ele>114.0</ele><time>2026-03-29T10:26:35Z</time></trkpt><trkpt lat="45.051932458238355" lon="8.498332981539928"><ele>114.0</ele><time>2026-03-29T10:26:36Z</time></trkpt><trkpt lat="45.05182296305646" lon="8.498283925297018"><ele>114.0</ele><time>2026-03-29T10:26:37Z</time></trkpt><trkpt lat="45.05171855202058" lon="8.498212887831428"><ele>114.0</ele><time>2026-03-29T10:26:38Z</time></trkpt><trkpt lat="45.05160534109607" lon="8.498175851209231"><ele>114.0</ele><time>2026-03-29T10:26:39Z</time></trkpt><trkpt lat="45.0515083854437" lon="8.498127657879367"><ele>113.66666666666667</ele><time>2026-03-29T10:26:40Z</time></trkpt><trkpt lat="45.05141707551543" lon="8.49807616023514"><ele>113.33333333333334</ele><time>2026-03-29T10:26:41Z</time></trkpt><trkpt lat="45.05132983552698" lon="8.498033662254594"><ele>113.0</ele><time>2026-03-29T10:26:42Z</time></trkpt><trkpt lat="45.051263394955456" lon="8.498004086131296"><ele>112.66666666666667</ele><time>2026-03-29T10:26:43Z</time></trkpt><trkpt lat="45.05119309347908" lon="8.497971112302547"><ele>112.33333333333334</ele><time>2026-03-29T10:26:45Z</time></trkpt><trkpt lat="45.05112243425471" lon="8.497889976671468"><ele>112.0</ele><time>2026-03-29T10:27:04Z</time></trkpt><trkpt lat="45.05113698679817" lon="8.497748688361243"><ele>112.00000000000001</ele><time>2026-03-29T10:27:06Z</time></trkpt><trkpt lat="45.05114636719756" lon="8.497649790829236"><ele>112.0</ele><time>2026-03-29T10:27:07Z</time></trkpt><trkpt lat="45.05118237262747" lon="8.497529664388281"><ele>112.0</ele><time>2026-03-29T10:27:07.999Z</time></trkpt><trkpt lat="45.05122171738607" lon="8.497409590289307"><ele>112.0</ele><time>2026-03-29T10:27:08.999Z</time></trkpt><trkpt lat="45.05126074165283" lon="8.49729194485396"><ele>112.00000000000001</ele><time>2026-03-29T10:27:09.999Z</time></trkpt><trkpt lat="45.05130104242422" lon="8.497164849037665"><ele>112.0</ele><time>2026-03-29T10:27:10.999Z</time></trkpt><trkpt lat="45.051337840787234" lon="8.497041764459002"><ele>112.33333333333334</ele><time>2026-03-29T10:27:11.999Z</time></trkpt><trkpt lat="45.051371524560494" lon="8.496923803795099"><ele>112.66666666666667</ele><time>2026-03-29T10:27:12.999Z</time></trkpt><trkpt lat="45.05140410337692" lon="8.496813781307067"><ele>113.0</ele><time>2026-03-29T10:27:13.999Z</time></trkpt><trkpt lat="45.05142983666441" lon="8.496720565913881"><ele>113.33333333333334</ele><time>2026-03-29T10:27:14.999Z</time></trkpt><trkpt lat="45.051458551154056" lon="8.496634278046479"><ele>113.66666666666667</ele><time>2026-03-29T10:27:15.999Z</time></trkpt><trkpt lat="45.05149172670934" lon="8.496533218529747"><ele>114.0</ele><time>2026-03-29T10:27:16.999Z</time></trkpt><trkpt lat="45.051522269080536" lon="8.496440065972013"><ele>114.0</ele><time>2026-03-29T10:27:17.999Z</time></trkpt><trkpt lat="45.0515529223969" lon="8.496284307782663"><ele>114.0</ele><time>2026-03-29T10:27:19.999Z</time></trkpt><trkpt lat="45.05153218683514" lon="8.496142654803432"><ele>114.0</ele><time>2026-03-29T10:27:21.999Z</time></trkpt><trkpt lat="45.051445989714836" lon="8.495995205929965"><ele>114.0</ele><time>2026-03-29T10:27:23.999Z</time></trkpt><trkpt lat="45.051387796537874" lon="8.495905473269397"><ele>114.0</ele><time>2026-03-29T10:27:24.999Z</time></trkpt><trkpt lat="45.051323314319326" lon="8.49580985276543"><ele>114.25</ele><time>2026-03-29T10:27:25.999Z</time></trkpt><trkpt lat="45.051244162099785" lon="8.495699427027501"><ele>114.5</ele><time>2026-03-29T10:27:26.999Z</time></trkpt><trkpt lat="45.051156850566315" lon="8.495567118248099"><ele>114.75</ele><time>2026-03-29T10:27:27.999Z</time></trkpt><trkpt lat="45.051070030472495" lon="8.495419213228846"><ele>115.0</ele><time>2026-03-29T10:27:28.999Z</time></trkpt><trkpt lat="45.05099967155834" lon="8.495279687572102"><ele>115.25</ele><time>2026-03-29T10:27:29.999Z</time></trkpt><trkpt lat="45.050924394968085" lon="8.495133444959466"><ele>115.5</ele><time>2026-03-29T10:27:30.999Z</time></trkpt><trkpt lat="45.050855809021364" lon="8.494990284964352"><ele>115.75</ele><time>2026-03-29T10:27:31.999Z</time></trkpt><trkpt lat="45.0507924152454" lon="8.494858552476687"><ele>116.0</ele><time>2026-03-29T10:27:32.999Z</time></trkpt><trkpt lat="45.050733631476454" lon="8.494734605750745"><ele>116.25</ele><time>2026-03-29T10:27:33.999Z</time></trkpt><trkpt lat="45.05069515814018" lon="8.494596706936429"><ele>116.5</ele><time>2026-03-29T10:27:34.999Z</time></trkpt><trkpt lat="45.0506443440054" lon="8.49446176843605"><ele>116.75</ele><time>2026-03-29T10:27:35.999Z</time></trkpt><trkpt lat="45.05059066345889" lon="8.494306245165914"><ele>117.0</ele><time>2026-03-29T10:27:36.999Z</time></trkpt><trkpt lat="45.050522235281406" lon="8.494143128426055"><ele>116.5</ele><time>2026-03-29T10:27:37.999Z</time></trkpt><trkpt lat="45.05046847387613" lon="8.493959886823761"><ele>116.0</ele><time>2026-03-29T10:27:38.999Z</time></trkpt><trkpt lat="45.050411412231746" lon="8.49377524878923"><ele>115.5</ele><time>2026-03-29T10:27:39.999Z</time></trkpt><trkpt lat="45.05035698896641" lon="8.493594646977865"><ele>115.0</ele><time>2026-03-29T10:27:40.999Z</time></trkpt><trkpt lat="45.050307158486206" lon="8.493419167444102"><ele>115.0</ele><time>2026-03-29T10:27:41.999Z</time></trkpt><trkpt lat="45.050264735555885" lon="8.493259667943695"><ele>115.0</ele><time>2026-03-29T10:27:42.999Z</time></trkpt><trkpt lat="45.05023112426577" lon="8.493108679494254"><ele>115.0</ele><time>2026-03-29T10:27:43.999Z</time></trkpt><trkpt lat="45.0502041391166" lon="8.492960084872838"><ele>115.0</ele><time>2026-03-29T10:27:44.999Z</time></trkpt><trkpt lat="45.05018323825619" lon="8.492808431639192"><ele>115.0</ele><time>2026-03-29T10:27:45.999Z</time></trkpt><trkpt lat="45.05017995084134" lon="8.49264811184535"><ele>115.0</ele><time>2026-03-29T10:27:46.999Z</time></trkpt><trkpt lat="45.050148196157224" lon="8.492487362006148"><ele>115.0</ele><time>2026-03-29T10:27:47.999Z</time></trkpt><trkpt lat="45.05008732451745" lon="8.492335675757769"><ele>115.0</ele><time>2026-03-29T10:27:48.999Z</time></trkpt><trkpt lat="45.050032094983685" lon="8.492171863614685"><ele>115.0</ele><time>2026-03-29T10:27:49.999Z</time></trkpt><trkpt lat="45.04999002103523" lon="8.491993260066279"><ele>115.0</ele><time>2026-03-29T10:27:50.999Z</time></trkpt><trkpt lat="45.0499401401026" lon="8.491817692511871"><ele>115.0</ele><time>2026-03-29T10:27:51.999Z</time></trkpt><trkpt lat="45.049895761916524" lon="8.491640606954403"><ele>115.0</ele><time>2026-03-29T10:27:52.999Z</time></trkpt><trkpt lat="45.04983933981176" lon="8.491471113419971"><ele>115.25</ele><time>2026-03-29T10:27:53.999Z</time></trkpt><trkpt lat="45.04980090375003" lon="8.491295873475613"><ele>115.5</ele><time>2026-03-29T10:27:54.999Z</time></trkpt><trkpt lat="45.049758205715335" lon="8.491113228335978"><ele>115.75</ele><time>2026-03-29T10:27:55.999Z</time></trkpt><trkpt lat="45.049698133301" lon="8.49093746035905"><ele>116.0</ele><time>2026-03-29T10:27:56.999Z</time></trkpt><trkpt lat="45.0496332279483" lon="8.490763076783816"><ele>116.0</ele><time>2026-03-29T10:27:57.999Z</time></trkpt><trkpt lat="45.049564931325676" lon="8.490585791145497"><ele>116.0</ele><time>2026-03-29T10:27:58.999Z</time></trkpt><trkpt lat="45.04949471570766" lon="8.490419243365185"><ele>116.0</ele><time>2026-03-29T10:27:59.999Z</time></trkpt><trkpt lat="45.049426032476035" lon="8.490252676396445"><ele>116.0</ele><time>2026-03-29T10:28:00.999Z</time></trkpt><trkpt lat="45.04935460922854" lon="8.490069008940171"><ele>116.25</ele><time>2026-03-29T10:28:01.999Z</time></trkpt><trkpt lat="45.04929873762051" lon="8.489878340717134"><ele>116.5</ele><time>2026-03-29T10:28:02.999Z</time></trkpt><trkpt lat="45.049232355757965" lon="8.48970786247009"><ele>116.75</ele><time>2026-03-29T10:28:03.999Z</time></trkpt><trkpt lat="45.049167777293285" lon="8.489542015724748"><ele>117.0</ele><time>2026-03-29T10:28:04.999Z</time></trkpt><trkpt lat="45.04908634431016" lon="8.489380433368774"><ele>116.33333333333334</ele><time>2026-03-29T10:28:05.999Z</time></trkpt><trkpt lat="45.04901391679135" lon="8.489188947734815"><ele>115.66666666666667</ele><time>2026-03-29T10:28:06.999Z</time></trkpt><trkpt lat="45.048939500711256" lon="8.488996378530118"><ele>115.0</ele><time>2026-03-29T10:28:07.999Z</time></trkpt><trkpt lat="45.048864141301856" lon="8.488803724189854"><ele>114.66666666666667</ele><time>2026-03-29T10:28:08.999Z</time></trkpt><trkpt lat="45.0487764464054" lon="8.488583456447145"><ele>114.33333333333334</ele><time>2026-03-29T10:28:09.999Z</time></trkpt><trkpt lat="45.04870697630387" lon="8.488356737169017"><ele>114.0</ele><time>2026-03-29T10:28:10.999Z</time></trkpt><trkpt lat="45.04862770961669" lon="8.488152751155917"><ele>114.0</ele><time>2026-03-29T10:28:11.999Z</time></trkpt><trkpt lat="45.04855610591088" lon="8.48796848519884"><ele>114.0</ele><time>2026-03-29T10:28:12.999Z</time></trkpt><trkpt lat="45.04847562407288" lon="8.48780915802104"><ele>114.0</ele><time>2026-03-29T10:28:13.999Z</time></trkpt><trkpt lat="45.04842113197402" lon="8.487638879063207"><ele>114.0</ele><time>2026-03-29T10:28:14.999Z</time></trkpt><trkpt lat="45.04835038594844" lon="8.487491326833677"><ele>114.25</ele><time>2026-03-29T10:28:15.999Z</time></trkpt><trkpt lat="45.04825997894342" lon="8.487364967393608"><ele>114.5</ele><time>2026-03-29T10:28:16.999Z</time></trkpt><trkpt lat="45.04817292714646" lon="8.487227871365194"><ele>114.75</ele><time>2026-03-29T10:28:17.999Z</time></trkpt><trkpt lat="45.0480883546548" lon="8.487092881866998"><ele>115.0</ele><time>2026-03-29T10:28:18.999Z</time></trkpt><trkpt lat="45.048000817057265" lon="8.486963686597733"><ele>115.5</ele><time>2026-03-29T10:28:19.998Z</time></trkpt><trkpt lat="45.04791935864531" lon="8.486812701342885"><ele>116.0</ele><time>2026-03-29T10:28:20.998Z</time></trkpt><trkpt lat="45.047841631530446" lon="8.486640329736213"><ele>116.5</ele><time>2026-03-29T10:28:21.998Z</time></trkpt><trkpt lat="45.04777161881727" lon="8.486463860757132"><ele>117.0</ele><time>2026-03-29T10:28:22.998Z</time></trkpt><trkpt lat="45.04770465090229" lon="8.486279936416881"><ele>116.75</ele><time>2026-03-29T10:28:23.998Z</time></trkpt><trkpt lat="45.047638319928616" lon="8.486090697957177"><ele>116.5</ele><time>2026-03-29T10:28:24.998Z</time></trkpt><trkpt lat="45.04757268699049" lon="8.48590094689288"><ele>116.25</ele><time>2026-03-29T10:28:25.998Z</time></trkpt><trkpt lat="45.04750924082431" lon="8.48571781910046"><ele>116.0</ele><time>2026-03-29T10:28:26.998Z</time></trkpt><trkpt lat="45.047451235700755" lon="8.485543929389358"><ele>116.0</ele><time>2026-03-29T10:28:27.998Z</time></trkpt><trkpt lat="45.0473948160315" lon="8.485374997278038"><ele>116.0</ele><time>2026-03-29T10:28:28.998Z</time></trkpt><trkpt lat="45.047339229160166" lon="8.485213109742427"><ele>116.0</ele><time>2026-03-29T10:28:29.998Z</time></trkpt><trkpt lat="45.04728390773283" lon="8.485057001575457"><ele>116.0</ele><time>2026-03-29T10:28:30.998Z</time></trkpt><trkpt lat="45.04722830756857" lon="8.484899911446318"><ele>116.0</ele><time>2026-03-29T10:28:32Z</time></trkpt><trkpt lat="45.047169700646975" lon="8.484753290156833"><ele>116.0</ele><time>2026-03-29T10:28:33Z</time></trkpt><trkpt lat="45.047112151732605" lon="8.484612516529067"><ele>116.0</ele><time>2026-03-29T10:28:34Z</time></trkpt><trkpt lat="45.04705224095911" lon="8.484470643271786"><ele>116.0</ele><time>2026-03-29T10:28:35Z</time></trkpt><trkpt lat="45.04698424210867" lon="8.484328140210058"><ele>116.75</ele><time>2026-03-29T10:28:36Z</time></trkpt><trkpt lat="45.04691086031334" lon="8.48418498619149"><ele>117.5</ele><time>2026-03-29T10:28:37Z</time></trkpt><trkpt lat="45.04683522995901" lon="8.484039954304372"><ele>118.25</ele><time>2026-03-29T10:28:38Z</time></trkpt><trkpt lat="45.04675339765783" lon="8.483890624961038"><ele>119.0</ele><time>2026-03-29T10:28:39Z</time></trkpt><trkpt lat="45.04667098290886" lon="8.48373042655074"><ele>118.75</ele><time>2026-03-29T10:28:40Z</time></trkpt><trkpt lat="45.046594144587154" lon="8.483574653793548"><ele>118.5</ele><time>2026-03-29T10:28:41Z</time></trkpt><trkpt lat="45.04651987668521" lon="8.483431339667195"><ele>118.25</ele><time>2026-03-29T10:28:42Z</time></trkpt><trkpt lat="45.04644593033003" lon="8.483289362665658"><ele>118.0</ele><time>2026-03-29T10:28:43Z</time></trkpt><trkpt lat="45.046379937800474" lon="8.483144686063282"><ele>118.0</ele><time>2026-03-29T10:28:44Z</time></trkpt><trkpt lat="45.04632384402352" lon="8.482994818223808"><ele>118.0</ele><time>2026-03-29T10:28:45Z</time></trkpt><trkpt lat="45.04626966003747" lon="8.482841453812934"><ele>118.0</ele><time>2026-03-29T10:28:46Z</time></trkpt><trkpt lat="45.04622136869001" lon="8.482682999255358"><ele>118.0</ele><time>2026-03-29T10:28:47Z</time></trkpt><trkpt lat="45.046174437590764" lon="8.482522036099077"><ele>118.25</ele><time>2026-03-29T10:28:48Z</time></trkpt><trkpt lat="45.04611933484247" lon="8.482360321588642"><ele>118.5</ele><time>2026-03-29T10:28:49Z</time></trkpt><trkpt lat="45.046064280492025" lon="8.482204921363756"><ele>118.75</ele><time>2026-03-29T10:28:50Z</time></trkpt><trkpt lat="45.046009720242004" lon="8.482049441672675"><ele>119.0</ele><time>2026-03-29T10:28:51Z</time></trkpt><trkpt lat="45.045949806632386" lon="8.481893192769315"><ele>119.0</ele><time>2026-03-29T10:28:52Z</time></trkpt><trkpt lat="45.045885682132386" lon="8.481741391536882"><ele>119.0</ele><time>2026-03-29T10:28:53Z</time></trkpt><trkpt lat="45.04582027582131" lon="8.481598215312179"><ele>119.0</ele><time>2026-03-29T10:28:54Z</time></trkpt><trkpt lat="45.04575616121296" lon="8.481452566901478"><ele>119.0</ele><time>2026-03-29T10:28:55Z</time></trkpt><trkpt lat="45.04569666884751" lon="8.481308604917059"><ele>119.25</ele><time>2026-03-29T10:28:56Z</time></trkpt><trkpt lat="45.045643205558584" lon="8.481157899613574"><ele>119.5</ele><time>2026-03-29T10:28:57Z</time></trkpt><trkpt lat="45.04560028021904" lon="8.481002944057831"><ele>119.75</ele><time>2026-03-29T10:28:58Z</time></trkpt><trkpt lat="45.04556362012534" lon="8.480832057335803"><ele>120.0</ele><time>2026-03-29T10:28:59Z</time></trkpt><trkpt lat="45.04553961526695" lon="8.480658134953702"><ele>120.0</ele><time>2026-03-29T10:29:00Z</time></trkpt><trkpt lat="45.04552544444571" lon="8.480492305265965"><ele>120.0</ele><time>2026-03-29T10:29:01Z</time></trkpt><trkpt lat="45.04551396440944" lon="8.480329217846412"><ele>120.0</ele><time>2026-03-29T10:29:02Z</time></trkpt><trkpt lat="45.04550727518472" lon="8.480183754515837"><ele>120.0</ele><time>2026-03-29T10:29:03Z</time></trkpt><trkpt lat="45.04549509815892" lon="8.480048087740224"><ele>120.0</ele><time>2026-03-29T10:29:04Z</time></trkpt><trkpt lat="45.045481233421945" lon="8.479921102325143"><ele>120.0</ele><time>2026-03-29T10:29:05Z</time></trkpt><trkpt lat="45.045457045764906" lon="8.479793748857043"><ele>120.0</ele><time>2026-03-29T10:29:06Z</time></trkpt><trkpt lat="45.04541583948754" lon="8.479671045154344"><ele>120.0</ele><time>2026-03-29T10:29:07Z</time></trkpt><trkpt lat="45.04535880576316" lon="8.479556077540066"><ele>120.0</ele><time>2026-03-29T10:29:08Z</time></trkpt><trkpt lat="45.045285216673236" lon="8.479452697654322"><ele>120.0</ele><time>2026-03-29T10:29:09Z</time></trkpt><trkpt lat="45.04520572363978" lon="8.479366342028534"><ele>119.66666666666667</ele><time>2026-03-29T10:29:10Z</time></trkpt><trkpt lat="45.04513040053016" lon="8.47927757841597"><ele>119.33333333333334</ele><time>2026-03-29T10:29:11Z</time></trkpt><trkpt lat="45.04505769370684" lon="8.479196899440694"><ele>119.0</ele><time>2026-03-29T10:29:11.999Z</time></trkpt><trkpt lat="45.04498662877156" lon="8.479120132678343"><ele>118.66666666666667</ele><time>2026-03-29T10:29:12.999Z</time></trkpt><trkpt lat="45.044920895872586" lon="8.479049796433364"><ele>118.33333333333334</ele><time>2026-03-29T10:29:13.999Z</time></trkpt><trkpt lat="45.044860148684904" lon="8.478979992674523"><ele>118.0</ele><time>2026-03-29T10:29:14.999Z</time></trkpt><trkpt lat="45.044800868752276" lon="8.478911629910558"><ele>118.0</ele><time>2026-03-29T10:29:15.999Z</time></trkpt><trkpt lat="45.04473869658549" lon="8.47883722584818"><ele>118.00000000000001</ele><time>2026-03-29T10:29:16.999Z</time></trkpt><trkpt lat="45.04467432024332" lon="8.478748978799137"><ele>118.00000000000001</ele><time>2026-03-29T10:29:17.999Z</time></trkpt><trkpt lat="45.0446111843724" lon="8.478646295385387"><ele>118.0</ele><time>2026-03-29T10:29:18.999Z</time></trkpt><trkpt lat="45.044557551053764" lon="8.478539643112017"><ele>118.0</ele><time>2026-03-29T10:29:19.999Z</time></trkpt><trkpt lat="45.044516072589545" lon="8.478424105896707"><ele>119.25</ele><time>2026-03-29T10:29:20.999Z</time></trkpt><trkpt lat="45.04443605610113" lon="8.478237830148254"><ele>120.5</ele><time>2026-03-29T10:29:21.999Z</time></trkpt><trkpt lat="45.044387333350166" lon="8.478075562197192"><ele>121.75</ele><time>2026-03-29T10:29:22.999Z</time></trkpt><trkpt lat="45.044335581699606" lon="8.477909623298975"><ele>123.0</ele><time>2026-03-29T10:29:23.999Z</time></trkpt><trkpt lat="45.044283661947105" lon="8.477745730460267"><ele>122.75</ele><time>2026-03-29T10:29:24.999Z</time></trkpt><trkpt lat="45.04422537213192" lon="8.477588633224656"><ele>122.5</ele><time>2026-03-29T10:29:25.999Z</time></trkpt><trkpt lat="45.04417010001227" lon="8.477439183577417"><ele>122.25</ele><time>2026-03-29T10:29:26.999Z</time></trkpt><trkpt lat="45.04411984162495" lon="8.477290878720664"><ele>122.0</ele><time>2026-03-29T10:29:27.999Z</time></trkpt><trkpt lat="45.04406780717973" lon="8.477142979776993"><ele>122.25</ele><time>2026-03-29T10:29:28.999Z</time></trkpt><trkpt lat="45.0439996394504" lon="8.476999738331521"><ele>122.5</ele><time>2026-03-29T10:29:29.999Z</time></trkpt><trkpt lat="45.043916223740815" lon="8.47686913969438"><ele>122.75</ele><time>2026-03-29T10:29:30.999Z</time></trkpt><trkpt lat="45.04383798711786" lon="8.476740052530568"><ele>123.0</ele><time>2026-03-29T10:29:31.999Z</time></trkpt><trkpt lat="45.04376238408845" lon="8.476617307148816"><ele>123.0</ele><time>2026-03-29T10:29:32.999Z</time></trkpt><trkpt lat="45.04368658199333" lon="8.476499571787082"><ele>123.0</ele><time>2026-03-29T10:29:33.999Z</time></trkpt><trkpt lat="45.04361232833358" lon="8.476377801281958"><ele>123.0</ele><time>2026-03-29T10:29:34.999Z</time></trkpt><trkpt lat="45.043533391346145" lon="8.47625945529003"><ele>123.0</ele><time>2026-03-29T10:29:35.999Z</time></trkpt><trkpt lat="45.043455716428824" lon="8.476141182982769"><ele>123.5</ele><time>2026-03-29T10:29:36.999Z</time></trkpt><trkpt lat="45.04337243334705" lon="8.476016408115942"><ele>124.0</ele><time>2026-03-29T10:29:37.999Z</time></trkpt><trkpt lat="45.04328714134361" lon="8.475890290402912"><ele>124.5</ele><time>2026-03-29T10:29:38.999Z</time></trkpt><trkpt lat="45.04320383749097" lon="8.475766710756215"><ele>125.0</ele><time>2026-03-29T10:29:39.999Z</time></trkpt><trkpt lat="45.04312180248457" lon="8.475644423293051"><ele>125.0</ele><time>2026-03-29T10:29:40.999Z</time></trkpt><trkpt lat="45.04304334058984" lon="8.475504603353176"><ele>125.0</ele><time>2026-03-29T10:29:41.999Z</time></trkpt><trkpt lat="45.042972972049135" lon="8.475357957276293"><ele>125.0</ele><time>2026-03-29T10:29:42.999Z</time></trkpt><trkpt lat="45.042908397106146" lon="8.47521488421951"><ele>125.0</ele><time>2026-03-29T10:29:43.999Z</time></trkpt><trkpt lat="45.04281992774246" lon="8.475087403489066"><ele>126.33333333333333</ele><time>2026-03-29T10:29:44.999Z</time></trkpt><trkpt lat="45.04270087250955" lon="8.474973964997757"><ele>127.66666666666666</ele><time>2026-03-29T10:29:45.999Z</time></trkpt><trkpt lat="45.04256627392258" lon="8.474865594409646"><ele>129.0</ele><time>2026-03-29T10:29:46.999Z</time></trkpt><trkpt lat="45.042423502042915" lon="8.474758728411933"><ele>127.0</ele><time>2026-03-29T10:29:47.999Z</time></trkpt><trkpt lat="45.04228827335701" lon="8.474642955187749"><ele>125.0</ele><time>2026-03-29T10:29:48.999Z</time></trkpt><trkpt lat="45.04215484925005" lon="8.474531867754967"><ele>123.0</ele><time>2026-03-29T10:29:49.999Z</time></trkpt><trkpt lat="45.04201709033243" lon="8.47442488560397"><ele>123.0</ele><time>2026-03-29T10:29:50.999Z</time></trkpt><trkpt lat="45.04188687276422" lon="8.474302933636988"><ele>123.0</ele><time>2026-03-29T10:29:51.999Z</time></trkpt><trkpt lat="45.04175454932502" lon="8.474196581916129"><ele>123.0</ele><time>2026-03-29T10:29:52.999Z</time></trkpt><trkpt lat="45.041622255087084" lon="8.474085942629412"><ele>122.33333333333334</ele><time>2026-03-29T10:29:53.999Z</time></trkpt><trkpt lat="45.041495124845156" lon="8.473978570111843"><ele>121.66666666666667</ele><time>2026-03-29T10:29:54.999Z</time></trkpt><trkpt lat="45.04136515786294" lon="8.473863301154921"><ele>121.0</ele><time>2026-03-29T10:29:55.999Z</time></trkpt><trkpt lat="45.04122795906061" lon="8.473734185954878"><ele>122.66666666666667</ele><time>2026-03-29T10:29:56.999Z</time></trkpt><trkpt lat="45.04108770032752" lon="8.47358503033183"><ele>124.33333333333334</ele><time>2026-03-29T10:29:57.999Z</time></trkpt><trkpt lat="45.04095197809926" lon="8.47343281026703"><ele>126.0</ele><time>2026-03-29T10:29:58.999Z</time></trkpt><trkpt lat="45.04082814117785" lon="8.473291239345118"><ele>125.0</ele><time>2026-03-29T10:29:59.999Z</time></trkpt><trkpt lat="45.04070947657151" lon="8.47316065750848"><ele>124.0</ele><time>2026-03-29T10:30:00.999Z</time></trkpt><trkpt lat="45.040600341073784" lon="8.473042444027522"><ele>123.0</ele><time>2026-03-29T10:30:01.999Z</time></trkpt><trkpt lat="45.04050002500569" lon="8.472937703446815"><ele>122.0</ele><time>2026-03-29T10:30:02.999Z</time></trkpt><trkpt lat="45.04039892231052" lon="8.472854928352316"><ele>122.0</ele><time>2026-03-29T10:30:03.999Z</time></trkpt><trkpt lat="45.04029441915504" lon="8.472802456235632"><ele>122.0</ele><time>2026-03-29T10:30:04.999Z</time></trkpt><trkpt lat="45.0401897760183" lon="8.472785769337031"><ele>122.0</ele><time>2026-03-29T10:30:05.999Z</time></trkpt><trkpt lat="45.04006909358468" lon="8.47278156134331"><ele>122.0</ele><time>2026-03-29T10:30:06.999Z</time></trkpt><trkpt lat="45.03992470486694" lon="8.472779998406882"><ele>122.0</ele><time>2026-03-29T10:30:07.999Z</time></trkpt><trkpt lat="45.039770259045426" lon="8.472767835589464"><ele>122.0</ele><time>2026-03-29T10:30:08.999Z</time></trkpt><trkpt lat="45.03961897457455" lon="8.472748622634025"><ele>122.0</ele><time>2026-03-29T10:30:09.999Z</time></trkpt><trkpt lat="45.03947558497415" lon="8.47272979514647"><ele>122.0</ele><time>2026-03-29T10:30:10.999Z</time></trkpt><trkpt lat="45.039337801145386" lon="8.472714955395388"><ele>122.0</ele><time>2026-03-29T10:30:11.999Z</time></trkpt><trkpt lat="45.03920676196639" lon="8.472704136674915"><ele>122.0</ele><time>2026-03-29T10:30:12.999Z</time></trkpt><trkpt lat="45.03908156184886" lon="8.472691417208782"><ele>122.0</ele><time>2026-03-29T10:30:13.999Z</time></trkpt><trkpt lat="45.038965009829774" lon="8.472677036063164"><ele>122.0</ele><time>2026-03-29T10:30:14.999Z</time></trkpt><trkpt lat="45.0388559194316" lon="8.47266332920534"><ele>121.99999999999999</ele><time>2026-03-29T10:30:15.999Z</time></trkpt><trkpt lat="45.03874801728851" lon="8.472651180236173"><ele>121.99999999999999</ele><time>2026-03-29T10:30:16.999Z</time></trkpt><trkpt lat="45.038646731216026" lon="8.472637246596783"><ele>122.0</ele><time>2026-03-29T10:30:17.999Z</time></trkpt><trkpt lat="45.03855695154923" lon="8.472624969477463"><ele>122.0</ele><time>2026-03-29T10:30:18.999Z</time></trkpt><trkpt lat="45.03847711143489" lon="8.47261602992667"><ele>121.99999999999999</ele><time>2026-03-29T10:30:19.999Z</time></trkpt><trkpt lat="45.03841051698507" lon="8.472611929821367"><ele>122.0</ele><time>2026-03-29T10:30:20.999Z</time></trkpt><trkpt lat="45.03832873261471" lon="8.472580982737618"><ele>122.0</ele><time>2026-03-29T10:30:22.998Z</time></trkpt><trkpt lat="45.03823026019888" lon="8.472657287180533"><ele>122.0</ele><time>2026-03-29T10:30:24.998Z</time></trkpt><trkpt lat="45.038177926066226" lon="8.472709679791029"><ele>121.99999999999999</ele><time>2026-03-29T10:30:25.998Z</time></trkpt><trkpt lat="45.03812281357496" lon="8.4727671891724"><ele>122.0</ele><time>2026-03-29T10:30:26.998Z</time></trkpt><trkpt lat="45.03807000033274" lon="8.47282556924421"><ele>122.16666666666666</ele><time>2026-03-29T10:30:27.998Z</time></trkpt><trkpt lat="45.038014722656996" lon="8.472887711552978"><ele>122.33333333333333</ele><time>2026-03-29T10:30:28.998Z</time></trkpt><trkpt lat="45.03795935113405" lon="8.472950054264018"><ele>122.5</ele><time>2026-03-29T10:30:29.998Z</time></trkpt><trkpt lat="45.03790160166231" lon="8.473015074393606"><ele>122.66666666666666</ele><time>2026-03-29T10:30:30.998Z</time></trkpt><trkpt lat="45.037840787122555" lon="8.473083545480748"><ele>122.83333333333333</ele><time>2026-03-29T10:30:31.998Z</time></trkpt><trkpt lat="45.037780103170924" lon="8.473150145303338"><ele>123.0</ele><time>2026-03-29T10:30:32.998Z</time></trkpt><trkpt lat="45.037716239283405" lon="8.473218917471295"><ele>123.16666666666667</ele><time>2026-03-29T10:30:33.998Z</time></trkpt><trkpt lat="45.03765245979351" lon="8.473287598667051"><ele>123.33333333333334</ele><time>2026-03-29T10:30:34.998Z</time></trkpt><trkpt lat="45.037588330298576" lon="8.47335665690675"><ele>123.5</ele><time>2026-03-29T10:30:35.998Z</time></trkpt><trkpt lat="45.03752807568434" lon="8.473421542176863"><ele>123.66666666666667</ele><time>2026-03-29T10:30:37Z</time></trkpt><trkpt lat="45.037464145203764" lon="8.473490385979899"><ele>123.83333333333334</ele><time>2026-03-29T10:30:38Z</time></trkpt><trkpt lat="45.03739857104754" lon="8.473560999884628"><ele>124.0</ele><time>2026-03-29T10:30:39Z</time></trkpt><trkpt lat="45.0373257116867" lon="8.47363945863813"><ele>124.4</ele><time>2026-03-29T10:30:40Z</time></trkpt><trkpt lat="45.03724726715625" lon="8.473723933649886"><ele>124.80000000000001</ele><time>2026-03-29T10:30:41Z</time></trkpt><trkpt lat="45.037171200261604" lon="8.473805846571771"><ele>125.19999999999999</ele><time>2026-03-29T10:30:42Z</time></trkpt><trkpt lat="45.037094763998816" lon="8.473887518361067"><ele>125.6</ele><time>2026-03-29T10:30:43Z</time></trkpt><trkpt lat="45.037011381492796" lon="8.473976255701345"><ele>126.0</ele><time>2026-03-29T10:30:44Z</time></trkpt><trkpt lat="45.036927746246924" lon="8.47406526203353"><ele>126.19999999999999</ele><time>2026-03-29T10:30:45Z</time></trkpt><trkpt lat="45.03683804183021" lon="8.474160204638181"><ele>126.39999999999999</ele><time>2026-03-29T10:30:46Z</time></trkpt><trkpt lat="45.036751423381126" lon="8.47425187907521"><ele>126.6</ele><time>2026-03-29T10:30:47Z</time></trkpt><trkpt lat="45.03666115872607" lon="8.47434741252781"><ele>126.8</ele><time>2026-03-29T10:30:48Z</time></trkpt><trkpt lat="45.036575508632176" lon="8.474437012919966"><ele>127.0</ele><time>2026-03-29T10:30:49Z</time></trkpt><trkpt lat="45.036491231050064" lon="8.474524009129723"><ele>126.19999999999999</ele><time>2026-03-29T10:30:50Z</time></trkpt><trkpt lat="45.036404814083696" lon="8.474613426139417"><ele>125.39999999999999</ele><time>2026-03-29T10:30:51Z</time></trkpt><trkpt lat="45.036316146222816" lon="8.474701782022409"><ele>124.60000000000001</ele><time>2026-03-29T10:30:52Z</time></trkpt><trkpt lat="45.03623088944305" lon="8.474786739030051"><ele>123.80000000000001</ele><time>2026-03-29T10:30:53Z</time></trkpt><trkpt lat="45.036144712023294" lon="8.474870908987146"><ele>123.0</ele><time>2026-03-29T10:30:54Z</time></trkpt><trkpt lat="45.03606026409255" lon="8.474974880641275"><ele>123.0</ele><time>2026-03-29T10:30:55Z</time></trkpt><trkpt lat="45.0359578440616" lon="8.475057953853693"><ele>123.00000000000001</ele><time>2026-03-29T10:30:56Z</time></trkpt><trkpt lat="45.03585581377485" lon="8.475118005123338"><ele>123.00000000000001</ele><time>2026-03-29T10:30:57Z</time></trkpt><trkpt lat="45.03575963202632" lon="8.47518734535757"><ele>123.0</ele><time>2026-03-29T10:30:58Z</time></trkpt><trkpt lat="45.03566211052183" lon="8.475252372935445"><ele>123.0</ele><time>2026-03-29T10:30:59Z</time></trkpt><trkpt lat="45.035561929304244" lon="8.475319174013494"><ele>122.80000000000001</ele><time>2026-03-29T10:31:00Z</time></trkpt><trkpt lat="45.03546301732943" lon="8.47538337090119"><ele>122.60000000000001</ele><time>2026-03-29T10:31:01Z</time></trkpt><trkpt lat="45.03536713682083" lon="8.475444070758536"><ele>122.39999999999999</ele><time>2026-03-29T10:31:02Z</time></trkpt><trkpt lat="45.0352713875658" lon="8.47550005062756"><ele>122.19999999999999</ele><time>2026-03-29T10:31:03Z</time></trkpt><trkpt lat="45.0351790547252" lon="8.475548917006934"><ele>122.0</ele><time>2026-03-29T10:31:04Z</time></trkpt><trkpt lat="45.03508057186652" lon="8.475595445782238"><ele>122.0</ele><time>2026-03-29T10:31:05Z</time></trkpt><trkpt lat="45.03497724737992" lon="8.475641129510239"><ele>121.99999999999999</ele><time>2026-03-29T10:31:06Z</time></trkpt><trkpt lat="45.034869660157355" lon="8.475690678498053"><ele>121.99999999999999</ele><time>2026-03-29T10:31:07Z</time></trkpt><trkpt lat="45.03476821227726" lon="8.47574233928793"><ele>122.0</ele><time>2026-03-29T10:31:08Z</time></trkpt><trkpt lat="45.03467320454188" lon="8.475796098749415"><ele>122.0</ele><time>2026-03-29T10:31:09Z</time></trkpt><trkpt lat="45.03458467404641" lon="8.475854700841625"><ele>122.6</ele><time>2026-03-29T10:31:10Z</time></trkpt><trkpt lat="45.034496070007414" lon="8.47591413777236"><ele>123.19999999999999</ele><time>2026-03-29T10:31:11Z</time></trkpt><trkpt lat="45.03440914235258" lon="8.475974934039261"><ele>123.8</ele><time>2026-03-29T10:31:12Z</time></trkpt><trkpt lat="45.034327565914765" lon="8.476031987701315"><ele>124.4</ele><time>2026-03-29T10:31:13Z</time></trkpt><trkpt lat="45.034243751921224" lon="8.476090253313917"><ele>125.0</ele><time>2026-03-29T10:31:14Z</time></trkpt><trkpt lat="45.03415986548271" lon="8.476147854102177"><ele>125.0</ele><time>2026-03-29T10:31:15Z</time></trkpt><trkpt lat="45.03407296723328" lon="8.476204082202699"><ele>125.0</ele><time>2026-03-29T10:31:16Z</time></trkpt><trkpt lat="45.03397936626965" lon="8.47625777434216"><ele>125.0</ele><time>2026-03-29T10:31:16.999Z</time></trkpt><trkpt lat="45.03388434262397" lon="8.47630683177025"><ele>125.0</ele><time>2026-03-29T10:31:17.999Z</time></trkpt><trkpt lat="45.03378966267277" lon="8.476350654147621"><ele>125.0</ele><time>2026-03-29T10:31:18.999Z</time></trkpt><trkpt lat="45.033701512489145" lon="8.476385338480105"><ele>124.8</ele><time>2026-03-29T10:31:19.999Z</time></trkpt><trkpt lat="45.033606372829816" lon="8.476414016419163"><ele>124.6</ele><time>2026-03-29T10:31:20.999Z</time></trkpt><trkpt lat="45.03350903573265" lon="8.476433587074029"><ele>124.4</ele><time>2026-03-29T10:31:21.999Z</time></trkpt><trkpt lat="45.033415036085856" lon="8.476437722171193"><ele>124.2</ele><time>2026-03-29T10:31:22.999Z</time></trkpt><trkpt lat="45.033323073983915" lon="8.476423279466234"><ele>124.0</ele><time>2026-03-29T10:31:23.999Z</time></trkpt><trkpt lat="45.03322963703491" lon="8.476406573823535"><ele>123.6</ele><time>2026-03-29T10:31:24.999Z</time></trkpt><trkpt lat="45.033139173881324" lon="8.476388924655863"><ele>123.2</ele><time>2026-03-29T10:31:25.999Z</time></trkpt><trkpt lat="45.033047294494814" lon="8.476369657755324"><ele>122.79999999999998</ele><time>2026-03-29T10:31:26.999Z</time></trkpt><trkpt lat="45.03295220370398" lon="8.476354874844136"><ele>122.39999999999999</ele><time>2026-03-29T10:31:27.999Z</time></trkpt><trkpt lat="45.03285674083293" lon="8.476344147590696"><ele>122.0</ele><time>2026-03-29T10:31:28.999Z</time></trkpt><trkpt lat="45.03276326360484" lon="8.476333093205339"><ele>122.0</ele><time>2026-03-29T10:31:29.999Z</time></trkpt><trkpt lat="45.032671314887565" lon="8.476316781064652"><ele>121.99999999999999</ele><time>2026-03-29T10:31:30.999Z</time></trkpt><trkpt lat="45.032577251581785" lon="8.47629340100293"><ele>121.99999999999999</ele><time>2026-03-29T10:31:31.999Z</time></trkpt><trkpt lat="45.03247919948882" lon="8.476265568069232"><ele>122.0</ele><time>2026-03-29T10:31:32.999Z</time></trkpt><trkpt lat="45.03236743751677" lon="8.476233147776355"><ele>122.0</ele><time>2026-03-29T10:31:33.999Z</time></trkpt><trkpt lat="45.032258777755786" lon="8.47620041060151"><ele>122.0</ele><time>2026-03-29T10:31:34.999Z</time></trkpt><trkpt lat="45.03215228559848" lon="8.476166903440479"><ele>121.99999999999999</ele><time>2026-03-29T10:31:35.999Z</time></trkpt><trkpt lat="45.032042282113494" lon="8.476130627806088"><ele>121.99999999999999</ele><time>2026-03-29T10:31:36.999Z</time></trkpt><trkpt lat="45.03194600223605" lon="8.476095463433467"><ele>122.0</ele><time>2026-03-29T10:31:37.999Z</time></trkpt><trkpt lat="45.0318482827423" lon="8.476055196308076"><ele>122.0</ele><time>2026-03-29T10:31:38.999Z</time></trkpt><trkpt lat="45.03175405269273" lon="8.47601231528198"><ele>121.99999999999999</ele><time>2026-03-29T10:31:39.999Z</time></trkpt><trkpt lat="45.03166067591644" lon="8.475971605868025"><ele>122.0</ele><time>2026-03-29T10:31:40.999Z</time></trkpt><trkpt lat="45.03157602680625" lon="8.475937959255747"><ele>122.0</ele><time>2026-03-29T10:31:41.999Z</time></trkpt><trkpt lat="45.03149952673463" lon="8.475909558010684"><ele>122.0</ele><time>2026-03-29T10:31:42.999Z</time></trkpt><trkpt lat="45.03142435090388" lon="8.475884414241705"><ele>121.99999999999999</ele><time>2026-03-29T10:31:43.999Z</time></trkpt><trkpt lat="45.03134957538595" lon="8.475864064076113"><ele>122.0</ele><time>2026-03-29T10:31:44.999Z</time></trkpt><trkpt lat="45.03128323657441" lon="8.47584545924001"><ele>122.33333333333333</ele><time>2026-03-29T10:31:45.999Z</time></trkpt><trkpt lat="45.03116106290014" lon="8.475810936592799"><ele>122.66666666666666</ele><time>2026-03-29T10:31:47.999Z</time></trkpt><trkpt lat="45.03109494557937" lon="8.47579191354499"><ele>123.0</ele><time>2026-03-29T10:31:48.999Z</time></trkpt><trkpt lat="45.03101160826562" lon="8.475767936043805"><ele>123.33333333333334</ele><time>2026-03-29T10:31:49.999Z</time></trkpt><trkpt lat="45.030929328672535" lon="8.475744775152418"><ele>123.66666666666667</ele><time>2026-03-29T10:31:50.999Z</time></trkpt><trkpt lat="45.030848328799834" lon="8.475723151300343"><ele>124.0</ele><time>2026-03-29T10:31:51.999Z</time></trkpt><trkpt lat="45.030767750408906" lon="8.475702776391081"><ele>124.16666666666667</ele><time>2026-03-29T10:31:52.999Z</time></trkpt><trkpt lat="45.03068487949604" lon="8.47568309163165"><ele>124.33333333333334</ele><time>2026-03-29T10:31:53.999Z</time></trkpt><trkpt lat="45.03060340074938" lon="8.475666333841847"><ele>124.5</ele><time>2026-03-29T10:31:54.999Z</time></trkpt><trkpt lat="45.030518581603154" lon="8.475651820875793"><ele>124.66666666666666</ele><time>2026-03-29T10:31:55.999Z</time></trkpt><trkpt lat="45.03043422312684" lon="8.475649796334777"><ele>124.83333333333333</ele><time>2026-03-29T10:31:56.999Z</time></trkpt><trkpt lat="45.03034963505527" lon="8.47567512108287"><ele>125.0</ele><time>2026-03-29T10:31:57.999Z</time></trkpt><trkpt lat="45.030271343919786" lon="8.47571249126796"><ele>125.0</ele><time>2026-03-29T10:31:58.999Z</time></trkpt><trkpt lat="45.03018762996907" lon="8.47575073411621"><ele>125.0</ele><time>2026-03-29T10:31:59.999Z</time></trkpt><trkpt lat="45.030099042994784" lon="8.475792853185277"><ele>125.0</ele><time>2026-03-29T10:32:00.999Z</time></trkpt><trkpt lat="45.03001743457587" lon="8.475824068528155"><ele>125.0</ele><time>2026-03-29T10:32:01.999Z</time></trkpt><trkpt lat="45.02993083961069" lon="8.475851542840521"><ele>125.0</ele><time>2026-03-29T10:32:02.999Z</time></trkpt><trkpt lat="45.02983787744667" lon="8.475879642556697"><ele>124.99999999999999</ele><time>2026-03-29T10:32:03.999Z</time></trkpt><trkpt lat="45.02975141718506" lon="8.475903394167153"><ele>125.0</ele><time>2026-03-29T10:32:04.999Z</time></trkpt><trkpt lat="45.029667189468945" lon="8.47592406576863"><ele>125.0</ele><time>2026-03-29T10:32:05.999Z</time></trkpt><trkpt lat="45.029576126644656" lon="8.475943309661128"><ele>125.0</ele><time>2026-03-29T10:32:06.999Z</time></trkpt><trkpt lat="45.02948766575781" lon="8.475961703105991"><ele>124.99999999999999</ele><time>2026-03-29T10:32:07.999Z</time></trkpt><trkpt lat="45.02940164889933" lon="8.475979460249714"><ele>125.0</ele><time>2026-03-29T10:32:08.999Z</time></trkpt><trkpt lat="45.02931545807412" lon="8.475997253311968"><ele>124.99999999999999</ele><time>2026-03-29T10:32:09.999Z</time></trkpt><trkpt lat="45.02922791711265" lon="8.476015325095313"><ele>125.0</ele><time>2026-03-29T10:32:10.999Z</time></trkpt><trkpt lat="45.02915063174284" lon="8.476031279750725"><ele>125.0</ele><time>2026-03-29T10:32:11.999Z</time></trkpt><trkpt lat="45.02907405886368" lon="8.476047087299804"><ele>125.0</ele><time>2026-03-29T10:32:12.999Z</time></trkpt><trkpt lat="45.02899654286968" lon="8.476063089555273"><ele>124.99999999999999</ele><time>2026-03-29T10:32:13.999Z</time></trkpt><trkpt lat="45.028914982539284" lon="8.476079449898679"><ele>125.0</ele><time>2026-03-29T10:32:14.999Z</time></trkpt><trkpt lat="45.028830940674354" lon="8.476095595553051"><ele>125.16666666666666</ele><time>2026-03-29T10:32:15.999Z</time></trkpt><trkpt lat="45.0287440852719" lon="8.476112281725252"><ele>125.33333333333333</ele><time>2026-03-29T10:32:16.999Z</time></trkpt><trkpt lat="45.02865609672826" lon="8.476128471761673"><ele>125.5</ele><time>2026-03-29T10:32:17.999Z</time></trkpt><trkpt lat="45.02857100529706" lon="8.476142989762662"><ele>125.66666666666666</ele><time>2026-03-29T10:32:18.999Z</time></trkpt><trkpt lat="45.02848262060975" lon="8.476156472909832"><ele>125.83333333333333</ele><time>2026-03-29T10:32:19.999Z</time></trkpt><trkpt lat="45.02838692052274" lon="8.476171072010253"><ele>126.0</ele><time>2026-03-29T10:32:20.999Z</time></trkpt><trkpt lat="45.028294901189525" lon="8.47618395987338"><ele>126.0</ele><time>2026-03-29T10:32:21.999Z</time></trkpt><trkpt lat="45.028201358175394" lon="8.47619681092842"><ele>126.0</ele><time>2026-03-29T10:32:22.999Z</time></trkpt><trkpt lat="45.0281049863348" lon="8.476210052483895"><ele>126.0</ele><time>2026-03-29T10:32:23.999Z</time></trkpt><trkpt lat="45.02801449475437" lon="8.476223661197363"><ele>126.0</ele><time>2026-03-29T10:32:24.999Z</time></trkpt><trkpt lat="45.02792010361316" lon="8.47623782685389"><ele>126.0</ele><time>2026-03-29T10:32:25.999Z</time></trkpt><trkpt lat="45.027830664742254" lon="8.47625363330625"><ele>125.6</ele><time>2026-03-29T10:32:26.999Z</time></trkpt><trkpt lat="45.02775016244613" lon="8.476281207239552"><ele>125.19999999999999</ele><time>2026-03-29T10:32:27.999Z</time></trkpt><trkpt lat="45.027646659164226" lon="8.476303538015337"><ele>124.80000000000001</ele><time>2026-03-29T10:32:28.998Z</time></trkpt><trkpt lat="45.02754825249443" lon="8.476312707132967"><ele>124.4</ele><time>2026-03-29T10:32:29.998Z</time></trkpt><trkpt lat="45.02744834238718" lon="8.476322090747788"><ele>124.0</ele><time>2026-03-29T10:32:30.998Z</time></trkpt><trkpt lat="45.02734057522409" lon="8.476330707785444"><ele>124.0</ele><time>2026-03-29T10:32:31.998Z</time></trkpt><trkpt lat="45.027235936851525" lon="8.476338756990769"><ele>124.0</ele><time>2026-03-29T10:32:32.998Z</time></trkpt><trkpt lat="45.02713231097941" lon="8.476347872131875"><ele>124.0</ele><time>2026-03-29T10:32:33.998Z</time></trkpt><trkpt lat="45.02702303528153" lon="8.47633425073444"><ele>124.0</ele><time>2026-03-29T10:32:34.998Z</time></trkpt><trkpt lat="45.0269152315293" lon="8.47634057350608"><ele>124.0</ele><time>2026-03-29T10:32:35.998Z</time></trkpt><trkpt lat="45.02670530310276" lon="8.476333961331024"><ele>124.2</ele><time>2026-03-29T10:32:37.998Z</time></trkpt><trkpt lat="45.02660539654898" lon="8.476320094615774"><ele>124.4</ele><time>2026-03-29T10:32:38.998Z</time></trkpt><trkpt lat="45.02650324917617" lon="8.476302888788727"><ele>124.6</ele><time>2026-03-29T10:32:39.998Z</time></trkpt><trkpt lat="45.02640265055337" lon="8.476279465132707"><ele>124.8</ele><time>2026-03-29T10:32:40.998Z</time></trkpt><trkpt lat="45.026306104728896" lon="8.476258660239793"><ele>125.0</ele><time>2026-03-29T10:32:42Z</time></trkpt><trkpt lat="45.0262200995531" lon="8.476235762257158"><ele>124.99999999999999</ele><time>2026-03-29T10:32:43Z</time></trkpt><trkpt lat="45.02614852720888" lon="8.476204534332812"><ele>125.0</ele><time>2026-03-29T10:32:44Z</time></trkpt><trkpt lat="45.02607297742081" lon="8.476163099016386"><ele>125.0</ele><time>2026-03-29T10:32:45Z</time></trkpt><trkpt lat="45.02600101130853" lon="8.47610667281862"><ele>125.0</ele><time>2026-03-29T10:32:46Z</time></trkpt><trkpt lat="45.025924475353776" lon="8.476038722535192"><ele>124.99999999999999</ele><time>2026-03-29T10:32:47Z</time></trkpt><trkpt lat="45.02584304437557" lon="8.475959281231377"><ele>125.0</ele><time>2026-03-29T10:32:48Z</time></trkpt><trkpt lat="45.02575912099842" lon="8.475876776084116"><ele>125.0</ele><time>2026-03-29T10:32:49Z</time></trkpt><trkpt lat="45.02567589189233" lon="8.475792068728836"><ele>125.0</ele><time>2026-03-29T10:32:50Z</time></trkpt><trkpt lat="45.02558889185205" lon="8.475703446793919"><ele>125.0</ele><time>2026-03-29T10:32:51Z</time></trkpt><trkpt lat="45.0255012364159" lon="8.475624962570034"><ele>125.0</ele><time>2026-03-29T10:32:52Z</time></trkpt><trkpt lat="45.02541250303642" lon="8.47555190913378"><ele>125.0</ele><time>2026-03-29T10:32:53Z</time></trkpt><trkpt lat="45.02531521401819" lon="8.475475780087416"><ele>125.25</ele><time>2026-03-29T10:32:54Z</time></trkpt><trkpt lat="45.025213693361835" lon="8.475400627499702"><ele>125.5</ele><time>2026-03-29T10:32:55Z</time></trkpt><trkpt lat="45.02510894294314" lon="8.4753270623862"><ele>125.75</ele><time>2026-03-29T10:32:56Z</time></trkpt><trkpt lat="45.02499283718823" lon="8.47524964642959"><ele>126.0</ele><time>2026-03-29T10:32:57Z</time></trkpt><trkpt lat="45.02487624185682" lon="8.475172862638946"><ele>126.25</ele><time>2026-03-29T10:32:58Z</time></trkpt><trkpt lat="45.02476441043299" lon="8.475102705557799"><ele>126.5</ele><time>2026-03-29T10:32:59Z</time></trkpt><trkpt lat="45.02465384984822" lon="8.47504045858219"><ele>126.75</ele><time>2026-03-29T10:33:00Z</time></trkpt><trkpt lat="45.02454185942565" lon="8.474986141145134"><ele>127.0</ele><time>2026-03-29T10:33:01Z</time></trkpt><trkpt lat="45.02442361434032" lon="8.474936220493907"><ele>127.0</ele><time>2026-03-29T10:33:02Z</time></trkpt><trkpt lat="45.02430803581074" lon="8.474896068835825"><ele>127.0</ele><time>2026-03-29T10:33:03Z</time></trkpt><trkpt lat="45.02419906658083" lon="8.474864265875365"><ele>127.0</ele><time>2026-03-29T10:33:04Z</time></trkpt><trkpt lat="45.02409362480058" lon="8.474834114219004"><ele>127.0</ele><time>2026-03-29T10:33:05Z</time></trkpt><trkpt lat="45.02397493786123" lon="8.474799475080609"><ele>126.5</ele><time>2026-03-29T10:33:06Z</time></trkpt><trkpt lat="45.02386761177411" lon="8.474758032942294"><ele>126.0</ele><time>2026-03-29T10:33:07Z</time></trkpt><trkpt lat="45.02376661255755" lon="8.474701855937688"><ele>125.5</ele><time>2026-03-29T10:33:08Z</time></trkpt><trkpt lat="45.023668274839274" lon="8.474621602415757"><ele>125.0</ele><time>2026-03-29T10:33:09Z</time></trkpt><trkpt lat="45.023567242791586" lon="8.474525001105178"><ele>125.0</ele><time>2026-03-29T10:33:10Z</time></trkpt><trkpt lat="45.02346436177104" lon="8.474426398480729"><ele>125.0</ele><time>2026-03-29T10:33:11Z</time></trkpt><trkpt lat="45.0233544480151" lon="8.474344555131832"><ele>125.0</ele><time>2026-03-29T10:33:12Z</time></trkpt><trkpt lat="45.023242837957746" lon="8.474280886982694"><ele>125.0</ele><time>2026-03-29T10:33:13Z</time></trkpt><trkpt lat="45.023129471927376" lon="8.474218025215297"><ele>125.0</ele><time>2026-03-29T10:33:14Z</time></trkpt><trkpt lat="45.023024450299005" lon="8.474166468343041"><ele>125.0</ele><time>2026-03-29T10:33:15Z</time></trkpt><trkpt lat="45.02292456692376" lon="8.474117817482641"><ele>125.0</ele><time>2026-03-29T10:33:16Z</time></trkpt><trkpt lat="45.02282462475766" lon="8.474069410382155"><ele>125.0</ele><time>2026-03-29T10:33:17Z</time></trkpt><trkpt lat="45.022719840695906" lon="8.474018658114547"><ele>125.0</ele><time>2026-03-29T10:33:18Z</time></trkpt><trkpt lat="45.02261606320588" lon="8.47396839336937"><ele>125.0</ele><time>2026-03-29T10:33:19Z</time></trkpt><trkpt lat="45.022519654634735" lon="8.473920905080485"><ele>125.0</ele><time>2026-03-29T10:33:20Z</time></trkpt><trkpt lat="45.02242780677342" lon="8.473873741527246"><ele>125.0</ele><time>2026-03-29T10:33:21Z</time></trkpt><trkpt lat="45.022331862703446" lon="8.473822274149574"><ele>125.0</ele><time>2026-03-29T10:33:22Z</time></trkpt><trkpt lat="45.02223659431284" lon="8.473759454273218"><ele>125.0</ele><time>2026-03-29T10:33:22.999Z</time></trkpt><trkpt lat="45.02213903874245" lon="8.473686770703907"><ele>125.4</ele><time>2026-03-29T10:33:23.999Z</time></trkpt><trkpt lat="45.02204066265153" lon="8.473609648345342"><ele>125.8</ele><time>2026-03-29T10:33:24.999Z</time></trkpt><trkpt lat="45.021950387522324" lon="8.473537894128256"><ele>126.19999999999999</ele><time>2026-03-29T10:33:25.999Z</time></trkpt><trkpt lat="45.0218624357422" lon="8.473465894036066"><ele>126.6</ele><time>2026-03-29T10:33:26.999Z</time></trkpt><trkpt lat="45.02176771644173" lon="8.473394947403493"><ele>127.0</ele><time>2026-03-29T10:33:27.999Z</time></trkpt><trkpt lat="45.02166696438814" lon="8.473347894027675"><ele>126.6</ele><time>2026-03-29T10:33:28.999Z</time></trkpt><trkpt lat="45.02157895543319" lon="8.473260922194044"><ele>126.19999999999999</ele><time>2026-03-29T10:33:29.999Z</time></trkpt><trkpt lat="45.02148191454843" lon="8.473192695263108"><ele>125.8</ele><time>2026-03-29T10:33:30.999Z</time></trkpt><trkpt lat="45.02138363587708" lon="8.473124793665525"><ele>125.4</ele><time>2026-03-29T10:33:31.999Z</time></trkpt><trkpt lat="45.021286823219015" lon="8.473056178619007"><ele>125.0</ele><time>2026-03-29T10:33:32.999Z</time></trkpt><trkpt lat="45.02119301076076" lon="8.472981883884247"><ele>125.2</ele><time>2026-03-29T10:33:33.999Z</time></trkpt><trkpt lat="45.02110011331731" lon="8.472898082953492"><ele>125.4</ele><time>2026-03-29T10:33:34.999Z</time></trkpt><trkpt lat="45.021011705691" lon="8.472808204451914"><ele>125.6</ele><time>2026-03-29T10:33:35.999Z</time></trkpt><trkpt lat="45.020929671579644" lon="8.4727125316237"><ele>125.8</ele><time>2026-03-29T10:33:36.999Z</time></trkpt><trkpt lat="45.02085387510647" lon="8.472604449986644"><ele>126.0</ele><time>2026-03-29T10:33:37.999Z</time></trkpt><trkpt lat="45.02078403924342" lon="8.472485483018291"><ele>126.0</ele><time>2026-03-29T10:33:38.999Z</time></trkpt><trkpt lat="45.02071629849893" lon="8.472366574086772"><ele>126.0</ele><time>2026-03-29T10:33:39.999Z</time></trkpt><trkpt lat="45.020655228168984" lon="8.472259374117352"><ele>126.0</ele><time>2026-03-29T10:33:40.999Z</time></trkpt><trkpt lat="45.02059951775568" lon="8.472161582674252"><ele>126.0</ele><time>2026-03-29T10:33:41.999Z</time></trkpt><trkpt lat="45.02054215185899" lon="8.472065642796961"><ele>126.0</ele><time>2026-03-29T10:33:42.999Z</time></trkpt><trkpt lat="45.02048290829865" lon="8.471976494290802"><ele>126.4</ele><time>2026-03-29T10:33:43.999Z</time></trkpt><trkpt lat="45.02041767187327" lon="8.471888003437163"><ele>126.8</ele><time>2026-03-29T10:33:44.999Z</time></trkpt><trkpt lat="45.02035103648583" lon="8.47180449309593"><ele>127.20000000000002</ele><time>2026-03-29T10:33:45.999Z</time></trkpt><trkpt lat="45.02028463628002" lon="8.471723544651619"><ele>127.60000000000001</ele><time>2026-03-29T10:33:46.999Z</time></trkpt><trkpt lat="45.02020790667975" lon="8.471633026768012"><ele>128.0</ele><time>2026-03-29T10:33:47.999Z</time></trkpt><trkpt lat="45.0201087541634" lon="8.471526090635331"><ele>128.0</ele><time>2026-03-29T10:33:48.999Z</time></trkpt><trkpt lat="45.02001398567368" lon="8.471432000595547"><ele>128.0</ele><time>2026-03-29T10:33:49.999Z</time></trkpt><trkpt lat="45.01992257552908" lon="8.471350316218542"><ele>128.0</ele><time>2026-03-29T10:33:50.999Z</time></trkpt><trkpt lat="45.019822746042955" lon="8.471271912408223"><ele>128.0</ele><time>2026-03-29T10:33:51.999Z</time></trkpt><trkpt lat="45.01972288836743" lon="8.471199381894776"><ele>128.0</ele><time>2026-03-29T10:33:52.999Z</time></trkpt><trkpt lat="45.01962651641073" lon="8.471131257687144"><ele>128.0</ele><time>2026-03-29T10:33:53.999Z</time></trkpt><trkpt lat="45.01953363234511" lon="8.471065599024046"><ele>128.0</ele><time>2026-03-29T10:33:54.999Z</time></trkpt><trkpt lat="45.01944370973585" lon="8.471003664038212"><ele>128.0</ele><time>2026-03-29T10:33:55.999Z</time></trkpt><trkpt lat="45.01935408881373" lon="8.470941969101458"><ele>128.0</ele><time>2026-03-29T10:33:56.999Z</time></trkpt><trkpt lat="45.01926437058272" lon="8.470882110895484"><ele>128.0</ele><time>2026-03-29T10:33:57.999Z</time></trkpt><trkpt lat="45.019174105239735" lon="8.470823355301713"><ele>128.0</ele><time>2026-03-29T10:33:58.999Z</time></trkpt><trkpt lat="45.019090812195756" lon="8.470770835634706"><ele>128.0</ele><time>2026-03-29T10:33:59.999Z</time></trkpt><trkpt lat="45.01900564476717" lon="8.47071713412234"><ele>128.0</ele><time>2026-03-29T10:34:00.999Z</time></trkpt><trkpt lat="45.01891987881784" lon="8.470663055198806"><ele>128.0</ele><time>2026-03-29T10:34:01.999Z</time></trkpt><trkpt lat="45.01883481119512" lon="8.470609416604498"><ele>127.83333333333333</ele><time>2026-03-29T10:34:02.999Z</time></trkpt><trkpt lat="45.018752408678495" lon="8.470555511889456"><ele>127.66666666666666</ele><time>2026-03-29T10:34:03.999Z</time></trkpt><trkpt lat="45.01867190194246" lon="8.470498924205657"><ele>127.5</ele><time>2026-03-29T10:34:04.999Z</time></trkpt><trkpt lat="45.01859944020618" lon="8.470431096469063"><ele>127.33333333333334</ele><time>2026-03-29T10:34:05.999Z</time></trkpt><trkpt lat="45.01853098809771" lon="8.470355136030765"><ele>127.16666666666667</ele><time>2026-03-29T10:34:06.999Z</time></trkpt><trkpt lat="45.01846788480709" lon="8.470273550574706"><ele>127.0</ele><time>2026-03-29T10:34:07.999Z</time></trkpt><trkpt lat="45.01840711617744" lon="8.470181797736242"><ele>127.0</ele><time>2026-03-29T10:34:08.999Z</time></trkpt><trkpt lat="45.01834625219238" lon="8.470078864044723"><ele>126.99999999999999</ele><time>2026-03-29T10:34:09.999Z</time></trkpt><trkpt lat="45.018281935490606" lon="8.469963001043483"><ele>126.99999999999999</ele><time>2026-03-29T10:34:10.999Z</time></trkpt><trkpt lat="45.018219303138096" lon="8.469835162997201"><ele>127.0</ele><time>2026-03-29T10:34:11.999Z</time></trkpt><trkpt lat="45.0181597763367" lon="8.469692429360308"><ele>127.0</ele><time>2026-03-29T10:34:12.999Z</time></trkpt><trkpt lat="45.018098618319534" lon="8.46952954911778"><ele>127.0</ele><time>2026-03-29T10:34:13.999Z</time></trkpt><trkpt lat="45.018028721994774" lon="8.469334868155535"><ele>127.0</ele><time>2026-03-29T10:34:14.999Z</time></trkpt><trkpt lat="45.017957170734135" lon="8.469145575247307"><ele>127.0</ele><time>2026-03-29T10:34:15.999Z</time></trkpt><trkpt lat="45.01789027470182" lon="8.468957586848529"><ele>127.0</ele><time>2026-03-29T10:34:16.999Z</time></trkpt><trkpt lat="45.01783266736111" lon="8.468778728204319"><ele>126.99999999999999</ele><time>2026-03-29T10:34:17.999Z</time></trkpt><trkpt lat="45.01778804621579" lon="8.468629078905344"><ele>126.99999999999999</ele><time>2026-03-29T10:34:18.999Z</time></trkpt><trkpt lat="45.017753510207115" lon="8.468500131758383"><ele>127.0</ele><time>2026-03-29T10:34:19.999Z</time></trkpt><trkpt lat="45.01772645003859" lon="8.468399294297479"><ele>127.0</ele><time>2026-03-29T10:34:20.999Z</time></trkpt><trkpt lat="45.01769353196435" lon="8.46827662787363"><ele>127.6</ele><time>2026-03-29T10:34:22.999Z</time></trkpt><trkpt lat="45.01764934209599" lon="8.468115317053723"><ele>128.2</ele><time>2026-03-29T10:34:24.999Z</time></trkpt><trkpt lat="45.017622513890295" lon="8.468019281348676"><ele>128.8</ele><time>2026-03-29T10:34:25.999Z</time></trkpt><trkpt lat="45.017591225864784" lon="8.467918192731979"><ele>129.4</ele><time>2026-03-29T10:34:26.999Z</time></trkpt><trkpt lat="45.017550953819736" lon="8.467805922475055"><ele>130.0</ele><time>2026-03-29T10:34:27.999Z</time></trkpt><trkpt lat="45.01750807323144" lon="8.467694225500441"><ele>129.2</ele><time>2026-03-29T10:34:28.999Z</time></trkpt><trkpt lat="45.01746311747101" lon="8.46758119494849"><ele>128.4</ele><time>2026-03-29T10:34:29.999Z</time></trkpt><trkpt lat="45.01741770449054" lon="8.467469459425807"><ele>127.6</ele><time>2026-03-29T10:34:30.999Z</time></trkpt><trkpt lat="45.01737146184169" lon="8.467356513789639"><ele>126.8</ele><time>2026-03-29T10:34:31.999Z</time></trkpt><trkpt lat="45.017324028634384" lon="8.467241877516864"><ele>126.0</ele><time>2026-03-29T10:34:32.999Z</time></trkpt><trkpt lat="45.01727536809517" lon="8.467131669589058"><ele>126.6</ele><time>2026-03-29T10:34:33.999Z</time></trkpt><trkpt lat="45.01722641650999" lon="8.467020677419104"><ele>127.19999999999999</ele><time>2026-03-29T10:34:34.998Z</time></trkpt><trkpt lat="45.017175937856955" lon="8.46690622286226"><ele>127.80000000000001</ele><time>2026-03-29T10:34:35.998Z</time></trkpt><trkpt lat="45.01712401716212" lon="8.46679271591387"><ele>128.4</ele><time>2026-03-29T10:34:36.998Z</time></trkpt><trkpt lat="45.01707226718393" lon="8.466684072711274"><ele>129.0</ele><time>2026-03-29T10:34:37.998Z</time></trkpt><trkpt lat="45.01701614285264" lon="8.4665749485881"><ele>129.0</ele><time>2026-03-29T10:34:38.998Z</time></trkpt><trkpt lat="45.01695696233851" lon="8.466470132895665"><ele>129.0</ele><time>2026-03-29T10:34:39.998Z</time></trkpt><trkpt lat="45.01689859870073" lon="8.466373040635697"><ele>129.0</ele><time>2026-03-29T10:34:40.998Z</time></trkpt><trkpt lat="45.01683316389376" lon="8.466276507929132"><ele>129.0</ele><time>2026-03-29T10:34:41.998Z</time></trkpt><trkpt lat="45.01676132657921" lon="8.466190912413406"><ele>129.0</ele><time>2026-03-29T10:34:42.998Z</time></trkpt><trkpt lat="45.01665717385397" lon="8.466105251508568"><ele>129.0</ele><time>2026-03-29T10:34:43.998Z</time></trkpt><trkpt lat="45.01655094515503" lon="8.466019349275141"><ele>129.0</ele><time>2026-03-29T10:34:44.998Z</time></trkpt><trkpt lat="45.01642878820161" lon="8.465922892750976"><ele>129.0</ele><time>2026-03-29T10:34:45.998Z</time></trkpt><trkpt lat="45.016319917309254" lon="8.465821520440674"><ele>129.0</ele><time>2026-03-29T10:34:46.998Z</time></trkpt><trkpt lat="45.01622771184851" lon="8.465721759638614"><ele>129.0</ele><time>2026-03-29T10:34:48Z</time></trkpt><trkpt lat="45.016134584268904" lon="8.465626496620672"><ele>129.0</ele><time>2026-03-29T10:34:49Z</time></trkpt><trkpt lat="45.016051479563465" lon="8.465522372104884"><ele>129.0</ele><time>2026-03-29T10:34:50Z</time></trkpt><trkpt lat="45.01596606000351" lon="8.465419741648613"><ele>129.0</ele><time>2026-03-29T10:34:51Z</time></trkpt><trkpt lat="45.015879667289816" lon="8.465311046226565"><ele>129.5</ele><time>2026-03-29T10:34:52Z</time></trkpt><trkpt lat="45.01580047728573" lon="8.46520913201988"><ele>130.0</ele><time>2026-03-29T10:34:53Z</time></trkpt><trkpt lat="45.01572759763544" lon="8.465106657317099"><ele>130.5</ele><time>2026-03-29T10:34:54Z</time></trkpt><trkpt lat="45.015658840239" lon="8.464998192254365"><ele>131.0</ele><time>2026-03-29T10:34:55Z</time></trkpt><trkpt lat="45.01553562378167" lon="8.464756663990094"><ele>131.0</ele><time>2026-03-29T10:34:57Z</time></trkpt><trkpt lat="45.01548126520115" lon="8.46463877149786"><ele>131.0</ele><time>2026-03-29T10:34:58Z</time></trkpt><trkpt lat="45.01543660230603" lon="8.464525056521731"><ele>131.0</ele><time>2026-03-29T10:34:59Z</time></trkpt><trkpt lat="45.01539168812081" lon="8.464397693887829"><ele>131.0</ele><time>2026-03-29T10:35:00Z</time></trkpt><trkpt lat="45.01534407181835" lon="8.464253534681841"><ele>131.0</ele><time>2026-03-29T10:35:01Z</time></trkpt><trkpt lat="45.0153000724327" lon="8.464121928541486"><ele>131.33333333333331</ele><time>2026-03-29T10:35:02Z</time></trkpt><trkpt lat="45.015259266931785" lon="8.464010882874184"><ele>131.66666666666666</ele><time>2026-03-29T10:35:03Z</time></trkpt><trkpt lat="45.015206742790234" lon="8.463912314787528"><ele>132.0</ele><time>2026-03-29T10:35:04Z</time></trkpt><trkpt lat="45.01516117663231" lon="8.46382181637236"><ele>132.33333333333334</ele><time>2026-03-29T10:35:05Z</time></trkpt><trkpt lat="45.01513100424149" lon="8.463727995960399"><ele>132.66666666666669</ele><time>2026-03-29T10:35:06Z</time></trkpt><trkpt lat="45.01505837658604" lon="8.46359112629539"><ele>133.0</ele><time>2026-03-29T10:35:08Z</time></trkpt><trkpt lat="45.015004344214724" lon="8.463504133921326"><ele>132.4</ele><time>2026-03-29T10:35:10Z</time></trkpt><trkpt lat="45.014960253445224" lon="8.463433587794462"><ele>131.8</ele><time>2026-03-29T10:35:13Z</time></trkpt><trkpt lat="45.0149295109454" lon="8.463335083416379"><ele>131.2</ele><time>2026-03-29T10:35:28.999Z</time></trkpt><trkpt lat="45.014897421557485" lon="8.463243676550645"><ele>130.6</ele><time>2026-03-29T10:35:30.999Z</time></trkpt><trkpt lat="45.014849222088095" lon="8.463106379994008"><ele>130.0</ele><time>2026-03-29T10:35:32.999Z</time></trkpt><trkpt lat="45.01468853597803" lon="8.463031118756643"><ele>130.4</ele><time>2026-03-29T10:35:34.999Z</time></trkpt><trkpt lat="45.01461409318373" lon="8.462906489151262"><ele>130.8</ele><time>2026-03-29T10:35:36.999Z</time></trkpt><trkpt lat="45.01454450228508" lon="8.462784827340887"><ele>131.2</ele><time>2026-03-29T10:35:38.999Z</time></trkpt><trkpt lat="45.01447866014815" lon="8.462660413915788"><ele>131.6</ele><time>2026-03-29T10:35:40.999Z</time></trkpt><trkpt lat="45.01440716642264" lon="8.462536859851772"><ele>132.0</ele><time>2026-03-29T10:35:42.999Z</time></trkpt><trkpt lat="45.01434709937141" lon="8.462417934457088"><ele>132.0</ele><time>2026-03-29T10:35:44.999Z</time></trkpt><trkpt lat="45.014282466641525" lon="8.462299348072042"><ele>132.0</ele><time>2026-03-29T10:35:46.999Z</time></trkpt><trkpt lat="45.01422740637194" lon="8.462195805556338"><ele>132.0</ele><time>2026-03-29T10:35:48.999Z</time></trkpt><trkpt lat="45.014190085756425" lon="8.462122445605036"><ele>132.0</ele><time>2026-03-29T10:35:50.999Z</time></trkpt><trkpt lat="45.01413375160548" lon="8.462006193967067"><ele>132.0</ele><time>2026-03-29T10:35:52.999Z</time></trkpt><trkpt lat="45.01407806579008" lon="8.461871090669925"><ele>132.0</ele><time>2026-03-29T10:35:54.999Z</time></trkpt><trkpt lat="45.0140203658995" lon="8.461731857104471"><ele>132.0</ele><time>2026-03-29T10:35:56.999Z</time></trkpt><trkpt lat="45.01396326318327" lon="8.461592972525237"><ele>132.0</ele><time>2026-03-29T10:35:58.999Z</time></trkpt><trkpt lat="45.01390736151632" lon="8.461438481708617"><ele>132.0</ele><time>2026-03-29T10:36:00.999Z</time></trkpt><trkpt lat="45.013877907845895" lon="8.461357539317383"><ele>132.0</ele><time>2026-03-29T10:36:01.999Z</time></trkpt><trkpt lat="45.01384756406736" lon="8.461272830746612"><ele>132.0</ele><time>2026-03-29T10:36:02.999Z</time></trkpt><trkpt lat="45.01381505845048" lon="8.461181698146294"><ele>132.0</ele><time>2026-03-29T10:36:03.999Z</time></trkpt><trkpt lat="45.013780477528876" lon="8.46108021253409"><ele>132.0</ele><time>2026-03-29T10:36:04.999Z</time></trkpt><trkpt lat="45.01374234411458" lon="8.46098221545295"><ele>132.0</ele><time>2026-03-29T10:36:05.999Z</time></trkpt><trkpt lat="45.013710395158675" lon="8.460892206854435"><ele>132.0</ele><time>2026-03-29T10:36:06.999Z</time></trkpt><trkpt lat="45.01366482854864" lon="8.460802161164205"><ele>132.0</ele><time>2026-03-29T10:36:08.999Z</time></trkpt><trkpt lat="45.01358650541765" lon="8.460714911807464"><ele>132.0</ele><time>2026-03-29T10:36:10.999Z</time></trkpt><trkpt lat="45.01352462750792" lon="8.460689417477743"><ele>132.0</ele><time>2026-03-29T10:36:11.999Z</time></trkpt><trkpt lat="45.01344258038249" lon="8.460706786023485"><ele>132.0</ele><time>2026-03-29T10:36:13.999Z</time></trkpt><trkpt lat="45.01337070410568" lon="8.46074149192439"><ele>132.0</ele><time>2026-03-29T10:36:14.999Z</time></trkpt><trkpt lat="45.01327741358579" lon="8.46079035794514"><ele>132.0</ele><time>2026-03-29T10:36:15.999Z</time></trkpt><trkpt lat="45.01321014529076" lon="8.460817641929209"><ele>132.0</ele><time>2026-03-29T10:36:16.999Z</time></trkpt><trkpt lat="45.01310408158057" lon="8.460784403222032"><ele>132.0</ele><time>2026-03-29T10:36:18.999Z</time></trkpt><trkpt lat="45.01302944570161" lon="8.460691095680499"><ele>132.0</ele><time>2026-03-29T10:36:20.999Z</time></trkpt><trkpt lat="45.01297736665784" lon="8.460580580897963"><ele>132.0</ele><time>2026-03-29T10:36:22.999Z</time></trkpt><trkpt lat="45.0129104963361" lon="8.460457108050088"><ele>132.0</ele><time>2026-03-29T10:36:24.999Z</time></trkpt><trkpt lat="45.012839517153495" lon="8.460335005680294"><ele>132.0</ele><time>2026-03-29T10:36:26.999Z</time></trkpt><trkpt lat="45.01278242243918" lon="8.460215885448271"><ele>132.0</ele><time>2026-03-29T10:36:28.999Z</time></trkpt><trkpt lat="45.01273823085499" lon="8.46010771856241"><ele>132.0</ele><time>2026-03-29T10:36:30.999Z</time></trkpt><trkpt lat="45.01269649459398" lon="8.460005620785267"><ele>132.0</ele><time>2026-03-29T10:36:32.999Z</time></trkpt><trkpt lat="45.012665394421" lon="8.459917900508223"><ele>132.0</ele><time>2026-03-29T10:36:34.999Z</time></trkpt><trkpt lat="45.012635866288186" lon="8.459831042382568"><ele>132.0</ele><time>2026-03-29T10:36:36.999Z</time></trkpt><trkpt lat="45.012598964403736" lon="8.45973283074057"><ele>132.0</ele><time>2026-03-29T10:36:57Z</time></trkpt><trkpt lat="45.012558706392774" lon="8.459620060927193"><ele>132.0</ele><time>2026-03-29T10:37:00Z</time></trkpt><trkpt lat="45.012523202754544" lon="8.459526064310918"><ele>132.0</ele><time>2026-03-29T10:37:02Z</time></trkpt><trkpt lat="45.012489409647365" lon="8.459414621855004"><ele>132.0</ele><time>2026-03-29T10:37:15Z</time></trkpt><trkpt lat="45.01244561396942" lon="8.459275085390614"><ele>132.0</ele><time>2026-03-29T10:37:17Z</time></trkpt><trkpt lat="45.0124021552132" lon="8.459127357558161"><ele>132.0</ele><time>2026-03-29T10:37:19Z</time></trkpt><trkpt lat="45.01235899147023" lon="8.458988167981392"><ele>131.6</ele><time>2026-03-29T10:37:21Z</time></trkpt><trkpt lat="45.01232854029054" lon="8.458846227656604"><ele>131.2</ele><time>2026-03-29T10:37:23Z</time></trkpt><trkpt lat="45.0122936647324" lon="8.458700567180115"><ele>130.8</ele><time>2026-03-29T10:37:25Z</time></trkpt><trkpt lat="45.01225744541663" lon="8.4585481503086"><ele>130.4</ele><time>2026-03-29T10:37:27Z</time></trkpt><trkpt lat="45.01223466276068" lon="8.458401464569189"><ele>130.0</ele><time>2026-03-29T10:37:29Z</time></trkpt><trkpt lat="45.01221906845559" lon="8.4582505523298"><ele>130.0</ele><time>2026-03-29T10:37:31Z</time></trkpt><trkpt lat="45.01221727437232" lon="8.45810261636691"><ele>130.0</ele><time>2026-03-29T10:37:33Z</time></trkpt><trkpt lat="45.01223763401739" lon="8.457960987652376"><ele>130.0</ele><time>2026-03-29T10:37:34.999Z</time></trkpt><trkpt lat="45.01228285987104" lon="8.45783773693726"><ele>130.0</ele><time>2026-03-29T10:37:36.999Z</time></trkpt><trkpt lat="45.012341946456104" lon="8.45772725943748"><ele>130.0</ele><time>2026-03-29T10:37:38.999Z</time></trkpt><trkpt lat="45.0123813923636" lon="8.457599819924193"><ele>130.16666666666669</ele><time>2026-03-29T10:37:40.999Z</time></trkpt><trkpt lat="45.01237477492647" lon="8.457445900066295"><ele>130.33333333333334</ele><time>2026-03-29T10:37:42.999Z</time></trkpt><trkpt lat="45.0123525493525" lon="8.457361843696285"><ele>130.5</ele><time>2026-03-29T10:37:43.999Z</time></trkpt><trkpt lat="45.01231635460943" lon="8.457278345606104"><ele>130.66666666666666</ele><time>2026-03-29T10:37:44.999Z</time></trkpt><trkpt lat="45.01227522472772" lon="8.45720092902872"><ele>130.83333333333331</ele><time>2026-03-29T10:37:45.999Z</time></trkpt><trkpt lat="45.012234547609" lon="8.457120901137666"><ele>131.0</ele><time>2026-03-29T10:37:46.999Z</time></trkpt><trkpt lat="45.01218667034569" lon="8.4570298350523"><ele>130.66666666666666</ele><time>2026-03-29T10:37:47.999Z</time></trkpt><trkpt lat="45.01213674355269" lon="8.456940710193068"><ele>130.33333333333331</ele><time>2026-03-29T10:37:48.999Z</time></trkpt><trkpt lat="45.01208905441438" lon="8.456856861383569"><ele>130.0</ele><time>2026-03-29T10:37:49.999Z</time></trkpt><trkpt lat="45.0120442345726" lon="8.456777781408555"><ele>129.66666666666666</ele><time>2026-03-29T10:37:50.999Z</time></trkpt><trkpt lat="45.011998307090124" lon="8.456690660621215"><ele>129.33333333333334</ele><time>2026-03-29T10:37:51.999Z</time></trkpt><trkpt lat="45.01195529984423" lon="8.456609214327395"><ele>129.0</ele><time>2026-03-29T10:37:52.999Z</time></trkpt><trkpt lat="45.011881701190426" lon="8.456463305717996"><ele>129.0</ele><time>2026-03-29T10:37:54.999Z</time></trkpt><trkpt lat="45.01184520259032" lon="8.45638784412954"><ele>129.0</ele><time>2026-03-29T10:37:55.999Z</time></trkpt><trkpt lat="45.01177702572079" lon="8.456252589014712"><ele>129.0</ele><time>2026-03-29T10:37:57.999Z</time></trkpt><trkpt lat="45.011708823518696" lon="8.45613003618542"><ele>129.0</ele><time>2026-03-29T10:37:59.999Z</time></trkpt><trkpt lat="45.01165401488563" lon="8.45601369211709"><ele>129.0</ele><time>2026-03-29T10:38:01.999Z</time></trkpt><trkpt lat="45.01160709866356" lon="8.455903236224351"><ele>129.0</ele><time>2026-03-29T10:38:03.999Z</time></trkpt><trkpt lat="45.0115565196032" lon="8.455795176285186"><ele>129.0</ele><time>2026-03-29T10:38:05.999Z</time></trkpt><trkpt lat="45.011529974292486" lon="8.45567975734178"><ele>129.0</ele><time>2026-03-29T10:38:07.999Z</time></trkpt><trkpt lat="45.01149979092602" lon="8.455566228357313"><ele>129.0</ele><time>2026-03-29T10:38:09.999Z</time></trkpt><trkpt lat="45.01145831874138" lon="8.455452355893552"><ele>129.0</ele><time>2026-03-29T10:38:11.999Z</time></trkpt><trkpt lat="45.011397849565725" lon="8.455341766314953"><ele>129.4</ele><time>2026-03-29T10:38:13.999Z</time></trkpt><trkpt lat="45.01134504504817" lon="8.455222052880652"><ele>129.8</ele><time>2026-03-29T10:38:15.999Z</time></trkpt><trkpt lat="45.01129258256884" lon="8.45510029235999"><ele>130.2</ele><time>2026-03-29T10:38:17.999Z</time></trkpt><trkpt lat="45.01123100757407" lon="8.454969667500967"><ele>130.6</ele><time>2026-03-29T10:38:19.999Z</time></trkpt><trkpt lat="45.01117669409037" lon="8.454848877561798"><ele>131.0</ele><time>2026-03-29T10:38:21.999Z</time></trkpt><trkpt lat="45.01113611799567" lon="8.454775510448188"><ele>131.0</ele><time>2026-03-29T10:38:23.999Z</time></trkpt><trkpt lat="45.011103661192074" lon="8.454694008171375"><ele>131.0</ele><time>2026-03-29T10:38:25.999Z</time></trkpt><trkpt lat="45.01108169358204" lon="8.454609457686075"><ele>131.0</ele><time>2026-03-29T10:38:27.999Z</time></trkpt><trkpt lat="45.01107842280924" lon="8.454505623866702"><ele>131.0</ele><time>2026-03-29T10:38:29.999Z</time></trkpt><trkpt lat="45.0110508320882" lon="8.454419666046219"><ele>131.0</ele><time>2026-03-29T10:38:31.999Z</time></trkpt><trkpt lat="45.01102399872151" lon="8.454332468404997"><ele>131.0</ele><time>2026-03-29T10:38:37.999Z</time></trkpt><trkpt lat="45.010968112708085" lon="8.454188392429874"><ele>131.0</ele><time>2026-03-29T10:38:39.999Z</time></trkpt><trkpt lat="45.010926181210756" lon="8.454112156836143"><ele>131.0</ele><time>2026-03-29T10:38:40.999Z</time></trkpt><trkpt lat="45.01088440986394" lon="8.45403685134026"><ele>131.0</ele><time>2026-03-29T10:38:41.999Z</time></trkpt><trkpt lat="45.01084309620962" lon="8.453960972040354"><ele>131.0</ele><time>2026-03-29T10:38:42.999Z</time></trkpt><trkpt lat="45.010802543204775" lon="8.453885775858245"><ele>131.0</ele><time>2026-03-29T10:38:43.999Z</time></trkpt><trkpt lat="45.010761910342865" lon="8.453809743667707"><ele>131.0</ele><time>2026-03-29T10:38:44.998Z</time></trkpt><trkpt lat="45.0107228631216" lon="8.453733804381166"><ele>131.0</ele><time>2026-03-29T10:38:45.998Z</time></trkpt><trkpt lat="45.01068241085095" lon="8.453656634493987"><ele>131.16666666666666</ele><time>2026-03-29T10:38:46.998Z</time></trkpt><trkpt lat="45.010643026931476" lon="8.453578656373931"><ele>131.33333333333331</ele><time>2026-03-29T10:38:47.998Z</time></trkpt><trkpt lat="45.010605126113326" lon="8.453503904650438"><ele>131.5</ele><time>2026-03-29T10:38:48.998Z</time></trkpt><trkpt lat="45.01053238124185" lon="8.45335673322897"><ele>131.66666666666666</ele><time>2026-03-29T10:38:50.998Z</time></trkpt><trkpt lat="45.01049658881777" lon="8.453282569958521"><ele>131.83333333333334</ele><time>2026-03-29T10:38:51.998Z</time></trkpt><trkpt lat="45.01043388701134" lon="8.453148158677704"><ele>132.0</ele><time>2026-03-29T10:38:53.998Z</time></trkpt><trkpt lat="45.01037204740599" lon="8.453010940067415"><ele>132.2</ele><time>2026-03-29T10:38:55.998Z</time></trkpt><trkpt lat="45.010310705684944" lon="8.452869648785354"><ele>132.39999999999998</ele><time>2026-03-29T10:38:57.998Z</time></trkpt><trkpt lat="45.01024363880573" lon="8.452722903200627"><ele>132.60000000000002</ele><time>2026-03-29T10:39:00Z</time></trkpt><trkpt lat="45.010149346687164" lon="8.452610998126312"><ele>132.8</ele><time>2026-03-29T10:39:02Z</time></trkpt><trkpt lat="45.01009397386942" lon="8.452563850949934"><ele>133.0</ele><time>2026-03-29T10:39:03Z</time></trkpt><trkpt lat="45.00998834341757" lon="8.452472370175345"><ele>132.85714285714286</ele><time>2026-03-29T10:39:05Z</time></trkpt><trkpt lat="45.00993102301099" lon="8.452419236457835"><ele>132.71428571428572</ele><time>2026-03-29T10:39:06Z</time></trkpt><trkpt lat="45.009871722605155" lon="8.452364298486463"><ele>132.57142857142856</ele><time>2026-03-29T10:39:07Z</time></trkpt><trkpt lat="45.00981320243683" lon="8.452310311570605"><ele>132.42857142857144</ele><time>2026-03-29T10:39:08Z</time></trkpt><trkpt lat="45.00975013512642" lon="8.452253993913383"><ele>132.28571428571428</ele><time>2026-03-29T10:39:09Z</time></trkpt><trkpt lat="45.00968088583511" lon="8.452192063878888"><ele>132.14285714285714</ele><time>2026-03-29T10:39:10Z</time></trkpt><trkpt lat="45.00962442033022" lon="8.452139102506724"><ele>132.0</ele><time>2026-03-29T10:39:11Z</time></trkpt><trkpt lat="45.00952212408277" lon="8.452045144450015"><ele>132.0</ele><time>2026-03-29T10:39:13Z</time></trkpt><trkpt lat="45.00944030508678" lon="8.451957613151786"><ele>132.0</ele><time>2026-03-29T10:39:15Z</time></trkpt><trkpt lat="45.00938110646605" lon="8.451853348838574"><ele>132.0</ele><time>2026-03-29T10:39:17Z</time></trkpt><trkpt lat="45.00935836714599" lon="8.451744582764725"><ele>132.0</ele><time>2026-03-29T10:39:19Z</time></trkpt><trkpt lat="45.00933922601496" lon="8.451651602554074"><ele>132.0</ele><time>2026-03-29T10:39:21Z</time></trkpt><trkpt lat="45.00933702291667" lon="8.45152379148357"><ele>132.0</ele><time>2026-03-29T10:39:23Z</time></trkpt><trkpt lat="45.00932682608406" lon="8.451383464546202"><ele>132.0</ele><time>2026-03-29T10:39:25Z</time></trkpt><trkpt lat="45.00929893501447" lon="8.45124726037506"><ele>132.0</ele><time>2026-03-29T10:39:27Z</time></trkpt><trkpt lat="45.00924774399317" lon="8.45111765974922"><ele>132.0</ele><time>2026-03-29T10:39:29Z</time></trkpt><trkpt lat="45.00919911848236" lon="8.451019457046845"><ele>132.0</ele><time>2026-03-29T10:39:31Z</time></trkpt><trkpt lat="45.00914046158387" lon="8.450903371088751"><ele>132.0</ele><time>2026-03-29T10:39:33Z</time></trkpt><trkpt lat="45.0090727675839" lon="8.45079083981045"><ele>132.0</ele><time>2026-03-29T10:39:35Z</time></trkpt><trkpt lat="45.00900463358228" lon="8.450680071296443"><ele>132.0</ele><time>2026-03-29T10:39:37Z</time></trkpt><trkpt lat="45.00893146078378" lon="8.450570882955137"><ele>132.0</ele><time>2026-03-29T10:39:39Z</time></trkpt><trkpt lat="45.00885001721972" lon="8.450458420704477"><ele>132.0</ele><time>2026-03-29T10:39:40.999Z</time></trkpt><trkpt lat="45.0087617393554" lon="8.450349765542617"><ele>132.0</ele><time>2026-03-29T10:39:42.999Z</time></trkpt><trkpt lat="45.00871376427512" lon="8.450291564302722"><ele>132.0</ele><time>2026-03-29T10:39:43.999Z</time></trkpt><trkpt lat="45.008654415791234" lon="8.450222509415937"><ele>132.0</ele><time>2026-03-29T10:39:44.999Z</time></trkpt><trkpt lat="45.008596665529694" lon="8.45015164558892"><ele>132.0</ele><time>2026-03-29T10:39:45.999Z</time></trkpt><trkpt lat="45.00854288037491" lon="8.450091349566952"><ele>132.0</ele><time>2026-03-29T10:39:46.999Z</time></trkpt><trkpt lat="45.008457383212495" lon="8.449997383354841"><ele>132.0</ele><time>2026-03-29T10:39:48.999Z</time></trkpt><trkpt lat="45.008377931350466" lon="8.449901763503327"><ele>132.0</ele><time>2026-03-29T10:39:50.999Z</time></trkpt><trkpt lat="45.00829968686214" lon="8.44979625881319"><ele>132.2</ele><time>2026-03-29T10:39:52.999Z</time></trkpt><trkpt lat="45.008232285649164" lon="8.449681519982981"><ele>132.39999999999998</ele><time>2026-03-29T10:39:54.999Z</time></trkpt><trkpt lat="45.00819712894852" lon="8.44955742883602"><ele>132.60000000000002</ele><time>2026-03-29T10:39:56.999Z</time></trkpt><trkpt lat="45.0082116442392" lon="8.449424978851967"><ele>132.8</ele><time>2026-03-29T10:39:58.999Z</time></trkpt><trkpt lat="45.00826078768549" lon="8.44929564869299"><ele>133.0</ele><time>2026-03-29T10:40:00.999Z</time></trkpt><trkpt lat="45.00830969298359" lon="8.449196213400073"><ele>133.33333333333334</ele><time>2026-03-29T10:40:02.999Z</time></trkpt><trkpt lat="45.00837689808337" lon="8.44906299621007"><ele>133.66666666666669</ele><time>2026-03-29T10:40:49.998Z</time></trkpt><trkpt lat="45.00841640841336" lon="8.448978943011287"><ele>134.0</ele><time>2026-03-29T10:40:50.998Z</time></trkpt><trkpt lat="45.00845709518512" lon="8.448893977668389"><ele>134.33333333333334</ele><time>2026-03-29T10:40:51.998Z</time></trkpt><trkpt lat="45.008499514695416" lon="8.448808773123776"><ele>134.66666666666666</ele><time>2026-03-29T10:40:52.998Z</time></trkpt><trkpt lat="45.00853651472924" lon="8.44873618071821"><ele>135.0</ele><time>2026-03-29T10:40:53.998Z</time></trkpt><trkpt lat="45.008609175057124" lon="8.44859513997819"><ele>135.4</ele><time>2026-03-29T10:40:55.998Z</time></trkpt><trkpt lat="45.00867794802422" lon="8.448459278841401"><ele>135.8</ele><time>2026-03-29T10:40:57.998Z</time></trkpt><trkpt lat="45.00875196117331" lon="8.44833288675517"><ele>136.2</ele><time>2026-03-29T10:40:59.998Z</time></trkpt><trkpt lat="45.00884273979325" lon="8.448213040622592"><ele>136.6</ele><time>2026-03-29T10:41:01.998Z</time></trkpt><trkpt lat="45.00889279115305" lon="8.448143826766783"><ele>137.0</ele><time>2026-03-29T10:41:02.998Z</time></trkpt><trkpt lat="45.008973182448095" lon="8.44802668352888"><ele>138.0</ele><time>2026-03-29T10:41:05Z</time></trkpt><trkpt lat="45.00902495366392" lon="8.447938426978531"><ele>139.0</ele><time>2026-03-29T10:41:07Z</time></trkpt><trkpt lat="45.009051869045294" lon="8.447843643853462"><ele>140.0</ele><time>2026-03-29T10:41:09Z</time></trkpt><trkpt lat="45.00900044639324" lon="8.44774493509959"><ele>141.0</ele><time>2026-03-29T10:41:12Z</time></trkpt><trkpt lat="45.00893267049476" lon="8.447719054255378"><ele>142.0</ele><time>2026-03-29T10:41:14Z</time></trkpt><trkpt lat="45.00883445182347" lon="8.447669822501288"><ele>143.0</ele><time>2026-03-29T10:41:16Z</time></trkpt><trkpt lat="45.00877375586479" lon="8.44763613153345"><ele>142.99999999999997</ele><time>2026-03-29T10:41:17Z</time></trkpt><trkpt lat="45.00870375964881" lon="8.447590920474548"><ele>143.0</ele><time>2026-03-29T10:41:18Z</time></trkpt><trkpt lat="45.00863906686481" lon="8.447551515922509"><ele>143.0</ele><time>2026-03-29T10:41:19Z</time></trkpt><trkpt lat="45.00857155091982" lon="8.44751265188736"><ele>143.0</ele><time>2026-03-29T10:41:20Z</time></trkpt><trkpt lat="45.00851025667052" lon="8.447479128494"><ele>143.0</ele><time>2026-03-29T10:41:21Z</time></trkpt><trkpt lat="45.00842377128252" lon="8.4474277457578"><ele>142.99999999999997</ele><time>2026-03-29T10:41:23Z</time></trkpt><trkpt lat="45.00836460549" lon="8.447390543886161"><ele>143.0</ele><time>2026-03-29T10:41:30Z</time></trkpt><trkpt lat="45.00827978410305" lon="8.44734860021555"><ele>142.5</ele><time>2026-03-29T10:41:31Z</time></trkpt><trkpt lat="45.00818415525012" lon="8.447306452269075"><ele>142.0</ele><time>2026-03-29T10:41:32Z</time></trkpt><trkpt lat="45.008096094497276" lon="8.447258761022576"><ele>141.5</ele><time>2026-03-29T10:41:33Z</time></trkpt><trkpt lat="45.00801240171374" lon="8.44719761038436"><ele>141.0</ele><time>2026-03-29T10:41:34Z</time></trkpt><trkpt lat="45.00793319816921" lon="8.447160182779815"><ele>140.5</ele><time>2026-03-29T10:41:35Z</time></trkpt><trkpt lat="45.00786662020611" lon="8.44715375134915"><ele>140.0</ele><time>2026-03-29T10:41:36Z</time></trkpt><trkpt lat="45.00775060818273" lon="8.447107400533023"><ele>140.4</ele><time>2026-03-29T10:41:38Z</time></trkpt><trkpt lat="45.00764245851415" lon="8.447074306224343"><ele>140.8</ele><time>2026-03-29T10:41:39.999Z</time></trkpt><trkpt lat="45.007534443935114" lon="8.447069923171082"><ele>141.2</ele><time>2026-03-29T10:41:41.999Z</time></trkpt><trkpt lat="45.007416456662924" lon="8.447041689860335"><ele>141.6</ele><time>2026-03-29T10:41:43.999Z</time></trkpt><trkpt lat="45.00734845788907" lon="8.447044727731985"><ele>142.0</ele><time>2026-03-29T10:41:44.999Z</time></trkpt><trkpt lat="45.00723164791032" lon="8.44708728291489"><ele>142.0</ele><time>2026-03-29T10:41:46.999Z</time></trkpt><trkpt lat="45.00711944832481" lon="8.447108962521654"><ele>142.0</ele><time>2026-03-29T10:41:48.999Z</time></trkpt><trkpt lat="45.00704442864007" lon="8.447229468776412"><ele>142.0</ele><time>2026-03-29T10:41:50.999Z</time></trkpt><trkpt lat="45.00697045792974" lon="8.447340402768205"><ele>142.0</ele><time>2026-03-29T10:41:52.999Z</time></trkpt><trkpt lat="45.00688861632254" lon="8.447453449002344"><ele>142.0</ele><time>2026-03-29T10:41:54.999Z</time></trkpt><trkpt lat="45.00678184624457" lon="8.447486833606458"><ele>141.14285714285714</ele><time>2026-03-29T10:41:56.999Z</time></trkpt><trkpt lat="45.00671315127401" lon="8.447466809744675"><ele>140.28571428571428</ele><time>2026-03-29T10:41:57.999Z</time></trkpt><trkpt lat="45.00665203076574" lon="8.447442387798988"><ele>139.42857142857142</ele><time>2026-03-29T10:41:58.999Z</time></trkpt><trkpt lat="45.00659017851852" lon="8.447410156587164"><ele>138.57142857142856</ele><time>2026-03-29T10:41:59.999Z</time></trkpt><trkpt lat="45.00653061990089" lon="8.447379835414399"><ele>137.71428571428572</ele><time>2026-03-29T10:42:00.999Z</time></trkpt><trkpt lat="45.00647544319056" lon="8.447333580248557"><ele>136.85714285714283</ele><time>2026-03-29T10:42:01.999Z</time></trkpt><trkpt lat="45.00637167339171" lon="8.447265298579397"><ele>136.0</ele><time>2026-03-29T10:42:03.999Z</time></trkpt><trkpt lat="45.0063138024118" lon="8.447221706543026"><ele>136.0</ele><time>2026-03-29T10:42:04.999Z</time></trkpt><trkpt lat="45.00625631107895" lon="8.447162682357458"><ele>136.0</ele><time>2026-03-29T10:42:05.999Z</time></trkpt><trkpt lat="45.006154191970225" lon="8.447085447249059"><ele>136.0</ele><time>2026-03-29T10:42:07.999Z</time></trkpt><trkpt lat="45.00609207575685" lon="8.447036842228075"><ele>136.0</ele><time>2026-03-29T10:42:08.999Z</time></trkpt><trkpt lat="45.00603139561524" lon="8.446988328714214"><ele>136.0</ele><time>2026-03-29T10:42:09.999Z</time></trkpt><trkpt lat="45.005920044578275" lon="8.446897987268207"><ele>136.14285714285714</ele><time>2026-03-29T10:42:11.999Z</time></trkpt><trkpt lat="45.00581890047714" lon="8.446818031568762"><ele>136.28571428571428</ele><time>2026-03-29T10:42:13.999Z</time></trkpt><trkpt lat="45.00575984621743" lon="8.446774949654685"><ele>136.42857142857144</ele><time>2026-03-29T10:42:14.999Z</time></trkpt><trkpt lat="45.00570289597143" lon="8.446735574380535"><ele>136.57142857142856</ele><time>2026-03-29T10:42:15.999Z</time></trkpt><trkpt lat="45.00564381168777" lon="8.446699682140936"><ele>136.71428571428572</ele><time>2026-03-29T10:42:16.999Z</time></trkpt><trkpt lat="45.005583580117396" lon="8.446666902158094"><ele>136.85714285714286</ele><time>2026-03-29T10:42:17.999Z</time></trkpt><trkpt lat="45.005520223759866" lon="8.446635711530828"><ele>137.0</ele><time>2026-03-29T10:42:18.999Z</time></trkpt><trkpt lat="45.005457338551125" lon="8.446607973157196"><ele>137.0</ele><time>2026-03-29T10:42:19.999Z</time></trkpt><trkpt lat="45.00539387206729" lon="8.44658330627002"><ele>137.0</ele><time>2026-03-29T10:42:20.999Z</time></trkpt><trkpt lat="45.00533143569309" lon="8.446562047396215"><ele>137.0</ele><time>2026-03-29T10:42:21.999Z</time></trkpt><trkpt lat="45.0052208336281" lon="8.44654543152124"><ele>137.0</ele><time>2026-03-29T10:42:23.999Z</time></trkpt><trkpt lat="45.00510870129279" lon="8.446539683581527"><ele>137.0</ele><time>2026-03-29T10:42:25.999Z</time></trkpt><trkpt lat="45.00504577192567" lon="8.446546665207055"><ele>137.0</ele><time>2026-03-29T10:42:26.999Z</time></trkpt><trkpt lat="45.004930645440254" lon="8.446549390452313"><ele>136.79999999999998</ele><time>2026-03-29T10:42:28.999Z</time></trkpt><trkpt lat="45.00481494613358" lon="8.446576619802084"><ele>136.6</ele><time>2026-03-29T10:42:30.999Z</time></trkpt><trkpt lat="45.004749270646386" lon="8.44657605144932"><ele>136.39999999999998</ele><time>2026-03-29T10:42:31.999Z</time></trkpt><trkpt lat="45.00468639136547" lon="8.446568783253896"><ele>136.2</ele><time>2026-03-29T10:42:32.999Z</time></trkpt><trkpt lat="45.004565133464226" lon="8.446564976914047"><ele>136.0</ele><time>2026-03-29T10:42:34.999Z</time></trkpt><trkpt lat="45.00445374953388" lon="8.446552956098351"><ele>136.0</ele><time>2026-03-29T10:42:36.999Z</time></trkpt><trkpt lat="45.004333506482006" lon="8.446544471620827"><ele>136.0</ele><time>2026-03-29T10:42:38.999Z</time></trkpt><trkpt lat="45.00426805192987" lon="8.446544947965338"><ele>136.0</ele><time>2026-03-29T10:42:39.999Z</time></trkpt><trkpt lat="45.00420192574756" lon="8.44653991845016"><ele>136.0</ele><time>2026-03-29T10:42:40.999Z</time></trkpt><trkpt lat="45.004130614371086" lon="8.446538938513156"><ele>136.0</ele><time>2026-03-29T10:42:41.999Z</time></trkpt><trkpt lat="45.00406066060356" lon="8.446535448949717"><ele>136.0</ele><time>2026-03-29T10:42:42.999Z</time></trkpt><trkpt lat="45.00399528804803" lon="8.446529621323029"><ele>136.0</ele><time>2026-03-29T10:42:43.999Z</time></trkpt><trkpt lat="45.003925791337124" lon="8.446522811136939"><ele>136.0</ele><time>2026-03-29T10:42:44.999Z</time></trkpt><trkpt lat="45.003854446516314" lon="8.446516840853388"><ele>136.0</ele><time>2026-03-29T10:42:45.999Z</time></trkpt><trkpt lat="45.00377658442792" lon="8.44651262781758"><ele>136.0</ele><time>2026-03-29T10:42:46.999Z</time></trkpt><trkpt lat="45.003693129785354" lon="8.446511078811085"><ele>136.0</ele><time>2026-03-29T10:42:47.999Z</time></trkpt><trkpt lat="45.00361670582573" lon="8.446499978834469"><ele>136.0</ele><time>2026-03-29T10:42:48.999Z</time></trkpt><trkpt lat="45.003542243290525" lon="8.446495775976405"><ele>136.0</ele><time>2026-03-29T10:42:49.999Z</time></trkpt><trkpt lat="45.003468788720355" lon="8.446483647381672"><ele>136.0</ele><time>2026-03-29T10:42:50.999Z</time></trkpt><trkpt lat="45.003393128670524" lon="8.446479247119962"><ele>136.0</ele><time>2026-03-29T10:42:51.998Z</time></trkpt><trkpt lat="45.00331788408814" lon="8.446480381824658"><ele>136.0</ele><time>2026-03-29T10:42:52.998Z</time></trkpt><trkpt lat="45.0032381930789" lon="8.446478526515884"><ele>136.0</ele><time>2026-03-29T10:42:53.998Z</time></trkpt><trkpt lat="45.00315567464987" lon="8.446479193140012"><ele>136.0</ele><time>2026-03-29T10:42:54.998Z</time></trkpt><trkpt lat="45.00307728481642" lon="8.44647847337034"><ele>135.33333333333334</ele><time>2026-03-29T10:42:55.998Z</time></trkpt><trkpt lat="45.00300337350913" lon="8.44647366498787"><ele>134.66666666666669</ele><time>2026-03-29T10:42:56.998Z</time></trkpt><trkpt lat="45.00293009953646" lon="8.446467122947778"><ele>134.0</ele><time>2026-03-29T10:42:57.998Z</time></trkpt><trkpt lat="45.0028419939743" lon="8.446462962359233"><ele>133.33333333333334</ele><time>2026-03-29T10:42:58.998Z</time></trkpt><trkpt lat="45.00275218167925" lon="8.446463351119478"><ele>132.66666666666666</ele><time>2026-03-29T10:42:59.998Z</time></trkpt><trkpt lat="45.00267354217735" lon="8.446453656450734"><ele>132.0</ele><time>2026-03-29T10:43:00.998Z</time></trkpt><trkpt lat="45.00261032010338" lon="8.446443194637991"><ele>132.0</ele><time>2026-03-29T10:43:01.998Z</time></trkpt><trkpt lat="45.00250975232745" lon="8.446381558565067"><ele>132.0</ele><time>2026-03-29T10:43:03.998Z</time></trkpt><trkpt lat="45.00242821468448" lon="8.446298096790896"><ele>132.0</ele><time>2026-03-29T10:43:05.998Z</time></trkpt><trkpt lat="45.00237163872899" lon="8.44617549603179"><ele>132.0</ele><time>2026-03-29T10:43:07.998Z</time></trkpt><trkpt lat="45.00233691303468" lon="8.446097611829794"><ele>132.0</ele><time>2026-03-29T10:43:08.998Z</time></trkpt><trkpt lat="45.00230277592014" lon="8.446020914336216"><ele>132.0</ele><time>2026-03-29T10:43:10Z</time></trkpt><trkpt lat="45.00226742896981" lon="8.445940271097045"><ele>132.33333333333334</ele><time>2026-03-29T10:43:11Z</time></trkpt><trkpt lat="45.00223115437845" lon="8.445857511464714"><ele>132.66666666666666</ele><time>2026-03-29T10:43:12Z</time></trkpt><trkpt lat="45.0021819194031" lon="8.445788145057888"><ele>133.0</ele><time>2026-03-29T10:43:13Z</time></trkpt><trkpt lat="45.002120717966704" lon="8.44563329809554"><ele>133.33333333333331</ele><time>2026-03-29T10:43:15Z</time></trkpt><trkpt lat="45.002085265612116" lon="8.4455550791387"><ele>133.66666666666666</ele><time>2026-03-29T10:43:16Z</time></trkpt><trkpt lat="45.00204516110523" lon="8.445478542629099"><ele>134.0</ele><time>2026-03-29T10:43:17Z</time></trkpt><trkpt lat="45.0019863637352" lon="8.44534115069078"><ele>134.0</ele><time>2026-03-29T10:43:19Z</time></trkpt><trkpt lat="45.00191992116083" lon="8.445194346340177"><ele>134.0</ele><time>2026-03-29T10:43:21Z</time></trkpt><trkpt lat="45.00186517642134" lon="8.445074659780726"><ele>134.0</ele><time>2026-03-29T10:43:23Z</time></trkpt><trkpt lat="45.001807695531866" lon="8.44497836072251"><ele>134.0</ele><time>2026-03-29T10:43:25Z</time></trkpt><trkpt lat="45.001735229058525" lon="8.444848231515827"><ele>134.0</ele><time>2026-03-29T10:43:27Z</time></trkpt><trkpt lat="45.001663315246056" lon="8.444737227298903"><ele>134.0</ele><time>2026-03-29T10:43:29Z</time></trkpt><trkpt lat="45.001583882657044" lon="8.444619808346795"><ele>134.0</ele><time>2026-03-29T10:43:31Z</time></trkpt><trkpt lat="45.001514127455906" lon="8.444499067574888"><ele>134.0</ele><time>2026-03-29T10:43:33Z</time></trkpt><trkpt lat="45.00145302741223" lon="8.444401286579698"><ele>134.0</ele><time>2026-03-29T10:43:50.999Z</time></trkpt><trkpt lat="45.001396057673" lon="8.444333289427881"><ele>134.0</ele><time>2026-03-29T10:43:51.999Z</time></trkpt><trkpt lat="45.00134375217535" lon="8.444252858553885"><ele>134.0</ele><time>2026-03-29T10:43:52.999Z</time></trkpt><trkpt lat="45.00128472505559" lon="8.444156304050999"><ele>134.0</ele><time>2026-03-29T10:43:53.999Z</time></trkpt><trkpt lat="45.001215388533645" lon="8.444048322847063"><ele>134.0</ele><time>2026-03-29T10:43:54.999Z</time></trkpt><trkpt lat="45.00114232714327" lon="8.443929786396273"><ele>134.0</ele><time>2026-03-29T10:43:55.999Z</time></trkpt><trkpt lat="45.00105985623632" lon="8.443822970687881"><ele>134.0</ele><time>2026-03-29T10:43:56.999Z</time></trkpt><trkpt lat="45.00098391896776" lon="8.443760317857693"><ele>134.2</ele><time>2026-03-29T10:43:57.999Z</time></trkpt><trkpt lat="45.00090946178265" lon="8.443665092518698"><ele>134.4</ele><time>2026-03-29T10:43:58.999Z</time></trkpt><trkpt lat="45.00082024310437" lon="8.443586972720999"><ele>134.6</ele><time>2026-03-29T10:43:59.999Z</time></trkpt><trkpt lat="45.00073814270798" lon="8.443488001818759"><ele>134.8</ele><time>2026-03-29T10:44:00.999Z</time></trkpt><trkpt lat="45.00065440467454" lon="8.443450324427378"><ele>135.0</ele><time>2026-03-29T10:44:01.999Z</time></trkpt><trkpt lat="45.0005954322728" lon="8.443409413710258"><ele>135.0</ele><time>2026-03-29T10:44:02.999Z</time></trkpt><trkpt lat="45.000492328533944" lon="8.44331427194646"><ele>135.0</ele><time>2026-03-29T10:44:04.999Z</time></trkpt><trkpt lat="45.00042614342492" lon="8.44326972644223"><ele>135.0</ele><time>2026-03-29T10:44:05.999Z</time></trkpt><trkpt lat="45.000367077303146" lon="8.44322744051723"><ele>135.0</ele><time>2026-03-29T10:44:06.999Z</time></trkpt><trkpt lat="45.00027065390079" lon="8.44315499999428"><ele>135.0</ele><time>2026-03-29T10:44:08.999Z</time></trkpt><trkpt lat="45.00020517831896" lon="8.443026370404024"><ele>135.16666666666666</ele><time>2026-03-29T10:44:10.999Z</time></trkpt><trkpt lat="45.000193116016305" lon="8.442830109531577"><ele>135.33333333333334</ele><time>2026-03-29T10:44:12.999Z</time></trkpt><trkpt lat="45.000197427962036" lon="8.44271360083684"><ele>135.5</ele><time>2026-03-29T10:44:13.999Z</time></trkpt><trkpt lat="45.00019910203247" lon="8.442599693422535"><ele>135.66666666666669</ele><time>2026-03-29T10:44:14.999Z</time></trkpt><trkpt lat="45.000202593559834" lon="8.44249945856895"><ele>135.83333333333334</ele><time>2026-03-29T10:44:15.999Z</time></trkpt><trkpt lat="45.00020669954596" lon="8.442405633880407"><ele>136.0</ele><time>2026-03-29T10:44:16.999Z</time></trkpt><trkpt lat="45.000208625164504" lon="8.442316459836617"><ele>136.0</ele><time>2026-03-29T10:44:17.999Z</time></trkpt><trkpt lat="45.0002114263632" lon="8.442170511142946"><ele>136.0</ele><time>2026-03-29T10:44:19.999Z</time></trkpt><trkpt lat="45.00021637405525" lon="8.442059874171072"><ele>136.0</ele><time>2026-03-29T10:44:21.999Z</time></trkpt><trkpt lat="45.00021603812055" lon="8.441931635714225"><ele>136.0</ele><time>2026-03-29T10:44:24.999Z</time></trkpt><trkpt lat="45.0002263286387" lon="8.441805716052361"><ele>136.0</ele><time>2026-03-29T10:44:26.999Z</time></trkpt><trkpt lat="45.00023853963546" lon="8.44165824221117"><ele>136.6</ele><time>2026-03-29T10:44:28.999Z</time></trkpt><trkpt lat="45.000258917532" lon="8.44151602803708"><ele>137.2</ele><time>2026-03-29T10:44:30.999Z</time></trkpt><trkpt lat="45.00027913279279" lon="8.441392246145309"><ele>137.8</ele><time>2026-03-29T10:44:32.999Z</time></trkpt><trkpt lat="45.00030953837899" lon="8.441227986067718"><ele>138.4</ele><time>2026-03-29T10:44:34.999Z</time></trkpt><trkpt lat="45.000333160851" lon="8.441115551312437"><ele>139.0</ele><time>2026-03-29T10:44:35.999Z</time></trkpt><trkpt lat="45.000356654852006" lon="8.4410262145177"><ele>139.4</ele><time>2026-03-29T10:44:36.999Z</time></trkpt><trkpt lat="45.00039171942237" lon="8.44089745665448"><ele>139.8</ele><time>2026-03-29T10:44:38.999Z</time></trkpt><trkpt lat="45.000393195234196" lon="8.440805179050724"><ele>140.2</ele><time>2026-03-29T10:44:54.999Z</time></trkpt><trkpt lat="45.0002452827525" lon="8.44082372422614"><ele>140.6</ele><time>2026-03-29T10:44:58.998Z</time></trkpt><trkpt lat="45.0001546131027" lon="8.440899789805854"><ele>141.0</ele><time>2026-03-29T10:45:00.998Z</time></trkpt><trkpt lat="45.000068963546234" lon="8.44094081128396"><ele>141.0</ele><time>2026-03-29T10:45:02.998Z</time></trkpt><trkpt lat="45.00000079262632" lon="8.440971663610107"><ele>141.0</ele><time>2026-03-29T10:45:04.998Z</time></trkpt><trkpt lat="44.999908593102084" lon="8.441022997848188"><ele>141.0</ele><time>2026-03-29T10:45:06.998Z</time></trkpt><trkpt lat="44.99984614543628" lon="8.441054638650265"><ele>141.0</ele><time>2026-03-29T10:45:07.998Z</time></trkpt><trkpt lat="44.999771848731804" lon="8.441090234876972"><ele>141.0</ele><time>2026-03-29T10:45:08.998Z</time></trkpt><trkpt lat="44.99970012296391" lon="8.441120627206868"><ele>141.0</ele><time>2026-03-29T10:45:09.998Z</time></trkpt><trkpt lat="44.999627743454575" lon="8.441149583318523"><ele>141.0</ele><time>2026-03-29T10:45:10.998Z</time></trkpt><trkpt lat="44.99955191115605" lon="8.441180481600657"><ele>141.0</ele><time>2026-03-29T10:45:11.998Z</time></trkpt><trkpt lat="44.999469377629225" lon="8.441220384427666"><ele>141.0</ele><time>2026-03-29T10:45:12.998Z</time></trkpt><trkpt lat="44.99938144734583" lon="8.441265093100213"><ele>141.0</ele><time>2026-03-29T10:45:13.998Z</time></trkpt><trkpt lat="44.99928724209806" lon="8.4413058976199"><ele>141.0</ele><time>2026-03-29T10:45:15Z</time></trkpt><trkpt lat="44.99918736638898" lon="8.44134613186289"><ele>140.5</ele><time>2026-03-29T10:45:16Z</time></trkpt><trkpt lat="44.99907799447514" lon="8.441392932427513"><ele>140.0</ele><time>2026-03-29T10:45:17Z</time></trkpt><trkpt lat="44.99898099659871" lon="8.441433474845113"><ele>139.5</ele><time>2026-03-29T10:45:18Z</time></trkpt><trkpt lat="44.99885064683995" lon="8.441491963356905"><ele>139.0</ele><time>2026-03-29T10:45:19Z</time></trkpt><trkpt lat="44.99875094906442" lon="8.441538565421155"><ele>139.0</ele><time>2026-03-29T10:45:20Z</time></trkpt><trkpt lat="44.998656614148004" lon="8.441587627263235"><ele>139.0</ele><time>2026-03-29T10:45:21Z</time></trkpt><trkpt lat="44.99856232472466" lon="8.441633889087413"><ele>139.0</ele><time>2026-03-29T10:45:22Z</time></trkpt><trkpt lat="44.998473980323716" lon="8.441673050727175"><ele>139.0</ele><time>2026-03-29T10:45:23Z</time></trkpt><trkpt lat="44.99839458184059" lon="8.441706723599802"><ele>139.0</ele><time>2026-03-29T10:45:24Z</time></trkpt><trkpt lat="44.99831952360726" lon="8.441738688967662"><ele>138.8</ele><time>2026-03-29T10:45:25Z</time></trkpt><trkpt lat="44.99825202917814" lon="8.441769666775473"><ele>138.60000000000002</ele><time>2026-03-29T10:45:26Z</time></trkpt><trkpt lat="44.99813364836247" lon="8.441826264734162"><ele>138.4</ele><time>2026-03-29T10:45:28Z</time></trkpt><trkpt lat="44.99803574994471" lon="8.441844025951648"><ele>138.20000000000002</ele><time>2026-03-29T10:45:30Z</time></trkpt><trkpt lat="44.997945324246" lon="8.441755074287098"><ele>138.0</ele><time>2026-03-29T10:45:32Z</time></trkpt><trkpt lat="44.99789591207799" lon="8.441667418125048"><ele>138.0</ele><time>2026-03-29T10:45:33Z</time></trkpt><trkpt lat="44.997837509270184" lon="8.441566020716959"><ele>138.0</ele><time>2026-03-29T10:45:34Z</time></trkpt><trkpt lat="44.99773843911135" lon="8.441460317844408"><ele>138.0</ele><time>2026-03-29T10:45:35Z</time></trkpt><trkpt lat="44.99763572225707" lon="8.44135581998631"><ele>138.0</ele><time>2026-03-29T10:45:36Z</time></trkpt><trkpt lat="44.99751111505231" lon="8.441245621129271"><ele>140.0</ele><time>2026-03-29T10:45:37Z</time></trkpt><trkpt lat="44.997372892192686" lon="8.441130328280359"><ele>142.0</ele><time>2026-03-29T10:45:38Z</time></trkpt><trkpt lat="44.99725922439768" lon="8.441027218753753"><ele>144.0</ele><time>2026-03-29T10:45:39Z</time></trkpt><trkpt lat="44.99715482274967" lon="8.44093731759471"><ele>146.0</ele><time>2026-03-29T10:45:40Z</time></trkpt><trkpt lat="44.99705756410365" lon="8.440853128790772"><ele>146.0</ele><time>2026-03-29T10:45:41Z</time></trkpt><trkpt lat="44.996963229188474" lon="8.440772503549319"><ele>146.0</ele><time>2026-03-29T10:45:42Z</time></trkpt><trkpt lat="44.99687339565234" lon="8.440689169140347"><ele>146.0</ele><time>2026-03-29T10:45:42.999Z</time></trkpt><trkpt lat="44.996792722874346" lon="8.440603834530693"><ele>146.0</ele><time>2026-03-29T10:45:44Z</time></trkpt><trkpt lat="44.996721441437735" lon="8.440506004114452"><ele>146.0</ele><time>2026-03-29T10:45:44.999Z</time></trkpt><trkpt lat="44.99666051461788" lon="8.440393853433442"><ele>147.6</ele><time>2026-03-29T10:45:45.999Z</time></trkpt><trkpt lat="44.996604333681084" lon="8.44025421694146"><ele>149.2</ele><time>2026-03-29T10:45:46.999Z</time></trkpt><trkpt lat="44.99654572748371" lon="8.440117345278273"><ele>150.8</ele><time>2026-03-29T10:45:47.999Z</time></trkpt><trkpt lat="44.99647607943622" lon="8.439998412174038"><ele>152.4</ele><time>2026-03-29T10:45:48.999Z</time></trkpt><trkpt lat="44.99638440514231" lon="8.439906203504835"><ele>154.0</ele><time>2026-03-29T10:45:49.999Z</time></trkpt><trkpt lat="44.99627989816908" lon="8.439834409138305"><ele>154.0</ele><time>2026-03-29T10:45:50.999Z</time></trkpt><trkpt lat="44.996169780304854" lon="8.439773132394002"><ele>154.0</ele><time>2026-03-29T10:45:51.999Z</time></trkpt><trkpt lat="44.99607489330784" lon="8.439729824532941"><ele>154.0</ele><time>2026-03-29T10:45:52.999Z</time></trkpt><trkpt lat="44.99599733727776" lon="8.439688697935944"><ele>154.0</ele><time>2026-03-29T10:45:53.999Z</time></trkpt><trkpt lat="44.99593334205327" lon="8.439635926547675"><ele>154.0</ele><time>2026-03-29T10:45:54.999Z</time></trkpt><trkpt lat="44.9958652150451" lon="8.439572543522331"><ele>154.5</ele><time>2026-03-29T10:45:55.999Z</time></trkpt><trkpt lat="44.99580750507077" lon="8.439504564825459"><ele>155.0</ele><time>2026-03-29T10:45:56.999Z</time></trkpt><trkpt lat="44.995760028557804" lon="8.439433506135975"><ele>155.5</ele><time>2026-03-29T10:45:57.999Z</time></trkpt><trkpt lat="44.99574395024029" lon="8.439343913222862"><ele>156.0</ele><time>2026-03-29T10:45:58.999Z</time></trkpt><trkpt lat="44.99574498045926" lon="8.439236985352643"><ele>156.5</ele><time>2026-03-29T10:45:59.999Z</time></trkpt><trkpt lat="44.99576882179776" lon="8.439119475913746"><ele>157.0</ele><time>2026-03-29T10:46:00.999Z</time></trkpt><trkpt lat="44.99582184528123" lon="8.439022787871805"><ele>158.5</ele><time>2026-03-29T10:46:01.999Z</time></trkpt><trkpt lat="44.99587335901467" lon="8.438919304368559"><ele>160.0</ele><time>2026-03-29T10:46:02.999Z</time></trkpt><trkpt lat="44.99592598081326" lon="8.438779755572153"><ele>161.5</ele><time>2026-03-29T10:46:03.999Z</time></trkpt><trkpt lat="44.99600087516657" lon="8.438636172310206"><ele>163.0</ele><time>2026-03-29T10:46:04.999Z</time></trkpt><trkpt lat="44.99608117382952" lon="8.438470020596135"><ele>165.0</ele><time>2026-03-29T10:46:05.999Z</time></trkpt><trkpt lat="44.99615494081685" lon="8.438314932030774"><ele>167.0</ele><time>2026-03-29T10:46:06.999Z</time></trkpt><trkpt lat="44.996223297062976" lon="8.438176758508039"><ele>169.0</ele><time>2026-03-29T10:46:07.999Z</time></trkpt><trkpt lat="44.99628643004684" lon="8.438049947859245"><ele>171.0</ele><time>2026-03-29T10:46:08.999Z</time></trkpt><trkpt lat="44.99634641909706" lon="8.437924489884873"><ele>172.0</ele><time>2026-03-29T10:46:09.999Z</time></trkpt><trkpt lat="44.99640844460703" lon="8.437788414808807"><ele>173.0</ele><time>2026-03-29T10:46:10.999Z</time></trkpt><trkpt lat="44.996477134822825" lon="8.437640380321975"><ele>174.0</ele><time>2026-03-29T10:46:11.999Z</time></trkpt><trkpt lat="44.99654918445896" lon="8.437493048345136"><ele>175.0</ele><time>2026-03-29T10:46:12.999Z</time></trkpt><trkpt lat="44.99662007318828" lon="8.43735047340428"><ele>178.0</ele><time>2026-03-29T10:46:13.999Z</time></trkpt><trkpt lat="44.996689064975" lon="8.437205937492505"><ele>181.0</ele><time>2026-03-29T10:46:14.999Z</time></trkpt><trkpt lat="44.99675688910327" lon="8.437064033246644"><ele>184.0</ele><time>2026-03-29T10:46:15.999Z</time></trkpt><trkpt lat="44.99682303920892" lon="8.436924620209096"><ele>187.0</ele><time>2026-03-29T10:46:16.999Z</time></trkpt><trkpt lat="44.996887509299405" lon="8.436786073364251"><ele>188.25</ele><time>2026-03-29T10:46:17.999Z</time></trkpt><trkpt lat="44.99695381076522" lon="8.436642700542766"><ele>189.5</ele><time>2026-03-29T10:46:18.999Z</time></trkpt><trkpt lat="44.99702167547923" lon="8.436497601980234"><ele>190.75</ele><time>2026-03-29T10:46:19.999Z</time></trkpt><trkpt lat="44.997090606643994" lon="8.436356525040923"><ele>192.0</ele><time>2026-03-29T10:46:20.999Z</time></trkpt><trkpt lat="44.997160376321304" lon="8.436216223963061"><ele>192.0</ele><time>2026-03-29T10:46:21.999Z</time></trkpt><trkpt lat="44.99722848270867" lon="8.436068558913073"><ele>192.0</ele><time>2026-03-29T10:46:22.999Z</time></trkpt><trkpt lat="44.997294543587095" lon="8.435925019007724"><ele>192.0</ele><time>2026-03-29T10:46:23.999Z</time></trkpt><trkpt lat="44.99735963072614" lon="8.435782891084235"><ele>192.0</ele><time>2026-03-29T10:46:24.999Z</time></trkpt><trkpt lat="44.99742636643982" lon="8.435648848819502"><ele>192.0</ele><time>2026-03-29T10:46:25.999Z</time></trkpt><trkpt lat="44.99749075069891" lon="8.435509089634973"><ele>192.0</ele><time>2026-03-29T10:46:26.999Z</time></trkpt><trkpt lat="44.99755077338433" lon="8.43535302416548"><ele>192.0</ele><time>2026-03-29T10:46:27.999Z</time></trkpt><trkpt lat="44.997604171158244" lon="8.435192545064046"><ele>192.0</ele><time>2026-03-29T10:46:28.999Z</time></trkpt><trkpt lat="44.99765881327617" lon="8.435028088692304"><ele>195.25</ele><time>2026-03-29T10:46:29.999Z</time></trkpt><trkpt lat="44.997720615962436" lon="8.434860082863644"><ele>198.5</ele><time>2026-03-29T10:46:30.999Z</time></trkpt><trkpt lat="44.99778249767669" lon="8.434688480100638"><ele>201.75</ele><time>2026-03-29T10:46:31.999Z</time></trkpt><trkpt lat="44.99783899430633" lon="8.434512400035194"><ele>205.0</ele><time>2026-03-29T10:46:32.999Z</time></trkpt><trkpt lat="44.99789652004722" lon="8.434338741718737"><ele>206.25</ele><time>2026-03-29T10:46:33.999Z</time></trkpt><trkpt lat="44.99795395928737" lon="8.434179539442693"><ele>207.5</ele><time>2026-03-29T10:46:34.999Z</time></trkpt><trkpt lat="44.99800605136357" lon="8.434024877373524"><ele>208.75</ele><time>2026-03-29T10:46:35.999Z</time></trkpt><trkpt lat="44.99804953279479" lon="8.433876510631958"><ele>210.0</ele><time>2026-03-29T10:46:36.999Z</time></trkpt><trkpt lat="44.99808931469937" lon="8.43371725072533"><ele>211.0</ele><time>2026-03-29T10:46:37.999Z</time></trkpt><trkpt lat="44.9981043955978" lon="8.433546818311026"><ele>212.0</ele><time>2026-03-29T10:46:38.999Z</time></trkpt><trkpt lat="44.99810138238152" lon="8.43335866251337"><ele>213.0</ele><time>2026-03-29T10:46:39.999Z</time></trkpt><trkpt lat="44.99807928610836" lon="8.433161743549045"><ele>214.0</ele><time>2026-03-29T10:46:40.999Z</time></trkpt><trkpt lat="44.998042083842414" lon="8.432946277016397"><ele>215.0</ele><time>2026-03-29T10:46:41.999Z</time></trkpt><trkpt lat="44.99800733027568" lon="8.43272796131282"><ele>216.0</ele><time>2026-03-29T10:46:42.999Z</time></trkpt><trkpt lat="44.997974622585005" lon="8.43250272734131"><ele>217.0</ele><time>2026-03-29T10:46:43.999Z</time></trkpt><trkpt lat="44.99794747592697" lon="8.432307624146274"><ele>217.6</ele><time>2026-03-29T10:46:44.999Z</time></trkpt><trkpt lat="44.99792545053089" lon="8.432135780030933"><ele>218.2</ele><time>2026-03-29T10:46:45.999Z</time></trkpt><trkpt lat="44.99790715696712" lon="8.431990043478782"><ele>218.8</ele><time>2026-03-29T10:46:46.999Z</time></trkpt><trkpt lat="44.997886196075946" lon="8.431859415515094"><ele>219.4</ele><time>2026-03-29T10:46:47.999Z</time></trkpt><trkpt lat="44.997866378886044" lon="8.43173971821489"><ele>220.0</ele><time>2026-03-29T10:46:48.999Z</time></trkpt><trkpt lat="44.99785655251289" lon="8.431624815876155"><ele>219.99999999999997</ele><time>2026-03-29T10:46:49.999Z</time></trkpt><trkpt lat="44.997849273381405" lon="8.431528932036262"><ele>220.0</ele><time>2026-03-29T10:46:50.999Z</time></trkpt><trkpt lat="44.99784306439719" lon="8.43136043744136"><ele>220.0</ele><time>2026-03-29T10:46:52.999Z</time></trkpt><trkpt lat="44.99784732359471" lon="8.431254514148591"><ele>220.0</ele><time>2026-03-29T10:46:53.999Z</time></trkpt><trkpt lat="44.99786360795253" lon="8.431133175651103"><ele>219.99999999999997</ele><time>2026-03-29T10:46:54.999Z</time></trkpt><trkpt lat="44.997894461015086" lon="8.431010999367214"><ele>220.0</ele><time>2026-03-29T10:46:55.999Z</time></trkpt><trkpt lat="44.997939194139455" lon="8.43090334883073"><ele>220.6</ele><time>2026-03-29T10:46:56.999Z</time></trkpt><trkpt lat="44.99799298518026" lon="8.430794288178992"><ele>221.2</ele><time>2026-03-29T10:46:57.999Z</time></trkpt><trkpt lat="44.99805414770692" lon="8.430689687121504"><ele>221.8</ele><time>2026-03-29T10:46:58.999Z</time></trkpt><trkpt lat="44.99812010433386" lon="8.4305794427851"><ele>222.4</ele><time>2026-03-29T10:46:59.998Z</time></trkpt><trkpt lat="44.998176876813005" lon="8.430471628476061"><ele>223.0</ele><time>2026-03-29T10:47:00.998Z</time></trkpt><trkpt lat="44.998227744387165" lon="8.43037930658393"><ele>222.0</ele><time>2026-03-29T10:47:01.998Z</time></trkpt><trkpt lat="44.99827894859448" lon="8.430281845064867"><ele>221.0</ele><time>2026-03-29T10:47:02.998Z</time></trkpt><trkpt lat="44.99833094681932" lon="8.430178827789973"><ele>220.0</ele><time>2026-03-29T10:47:03.998Z</time></trkpt><trkpt lat="44.99839785107057" lon="8.430061812019215"><ele>219.0</ele><time>2026-03-29T10:47:04.998Z</time></trkpt><trkpt lat="44.99847881843481" lon="8.429917763625136"><ele>218.0</ele><time>2026-03-29T10:47:05.998Z</time></trkpt><trkpt lat="44.9985549654613" lon="8.429767023979021"><ele>218.0</ele><time>2026-03-29T10:47:06.998Z</time></trkpt><trkpt lat="44.99862317947451" lon="8.429624692039484"><ele>218.0</ele><time>2026-03-29T10:47:07.998Z</time></trkpt><trkpt lat="44.99868543592233" lon="8.42949252083746"><ele>218.0</ele><time>2026-03-29T10:47:08.998Z</time></trkpt><trkpt lat="44.99874686071315" lon="8.42936995810153"><ele>218.0</ele><time>2026-03-29T10:47:09.998Z</time></trkpt><trkpt lat="44.998809117958835" lon="8.429250817585356"><ele>218.0</ele><time>2026-03-29T10:47:10.998Z</time></trkpt><trkpt lat="44.998872616028954" lon="8.429138990420187"><ele>218.0</ele><time>2026-03-29T10:47:11.998Z</time></trkpt><trkpt lat="44.998934087436425" lon="8.429033239882592"><ele>218.0</ele><time>2026-03-29T10:47:12.998Z</time></trkpt><trkpt lat="44.99899116784814" lon="8.42892084708028"><ele>218.0</ele><time>2026-03-29T10:47:13.998Z</time></trkpt><trkpt lat="44.999040782517596" lon="8.428804531578477"><ele>218.0</ele><time>2026-03-29T10:47:14.998Z</time></trkpt><trkpt lat="44.99909482752478" lon="8.428691588396218"><ele>218.0</ele><time>2026-03-29T10:47:15.998Z</time></trkpt><trkpt lat="44.999159207235266" lon="8.428570864130561"><ele>217.75</ele><time>2026-03-29T10:47:16.998Z</time></trkpt><trkpt lat="44.999230717611674" lon="8.428445978841744"><ele>217.5</ele><time>2026-03-29T10:47:17.998Z</time></trkpt><trkpt lat="44.999301392085265" lon="8.428320152038381"><ele>217.25</ele><time>2026-03-29T10:47:18.998Z</time></trkpt><trkpt lat="44.9993716410568" lon="8.428190045202232"><ele>217.0</ele><time>2026-03-29T10:47:19.998Z</time></trkpt><trkpt lat="44.99944327319159" lon="8.428051478923933"><ele>218.25</ele><time>2026-03-29T10:47:20.999Z</time></trkpt><trkpt lat="44.9995096582508" lon="8.427917050317255"><ele>219.5</ele><time>2026-03-29T10:47:21.999Z</time></trkpt><trkpt lat="44.99957057033263" lon="8.427792777680654"><ele>220.75</ele><time>2026-03-29T10:47:22.999Z</time></trkpt><trkpt lat="44.99963896387952" lon="8.427667522893962"><ele>222.0</ele><time>2026-03-29T10:47:23.999Z</time></trkpt><trkpt lat="44.99969419748906" lon="8.427514222930604"><ele>222.0</ele><time>2026-03-29T10:47:24.999Z</time></trkpt><trkpt lat="44.99974793264582" lon="8.427353742663088"><ele>222.0</ele><time>2026-03-29T10:47:25.999Z</time></trkpt><trkpt lat="44.99980095781211" lon="8.42717426909946"><ele>222.0</ele><time>2026-03-29T10:47:26.999Z</time></trkpt><trkpt lat="44.99985425006555" lon="8.426996273407587"><ele>222.0</ele><time>2026-03-29T10:47:28Z</time></trkpt><trkpt lat="44.99990956010477" lon="8.426819673612927"><ele>221.75</ele><time>2026-03-29T10:47:28.999Z</time></trkpt><trkpt lat="44.999965376526994" lon="8.426636748179703"><ele>221.5</ele><time>2026-03-29T10:47:29.999Z</time></trkpt><trkpt lat="45.000040503271734" lon="8.426451149138147"><ele>221.25</ele><time>2026-03-29T10:47:30.999Z</time></trkpt><trkpt lat="45.00009660485271" lon="8.426246183522895"><ele>221.0</ele><time>2026-03-29T10:47:31.999Z</time></trkpt><trkpt lat="45.00016144014979" lon="8.426032560555493"><ele>219.5</ele><time>2026-03-29T10:47:32.999Z</time></trkpt><trkpt lat="45.000224135746016" lon="8.425833383475617"><ele>218.0</ele><time>2026-03-29T10:47:33.999Z</time></trkpt><trkpt lat="45.00028421731793" lon="8.425641604818026"><ele>216.5</ele><time>2026-03-29T10:47:34.999Z</time></trkpt><trkpt lat="45.000344199347566" lon="8.425458073531495"><ele>215.0</ele><time>2026-03-29T10:47:35.999Z</time></trkpt><trkpt lat="45.00040215867204" lon="8.425282694064931"><ele>215.0</ele><time>2026-03-29T10:47:36.999Z</time></trkpt><trkpt lat="45.000455154848815" lon="8.425112556704498"><ele>215.0</ele><time>2026-03-29T10:47:37.999Z</time></trkpt><trkpt lat="45.00050736533778" lon="8.424944978391975"><ele>215.0</ele><time>2026-03-29T10:47:38.999Z</time></trkpt><trkpt lat="45.000559102116945" lon="8.424790323925516"><ele>215.0</ele><time>2026-03-29T10:47:39.999Z</time></trkpt><trkpt lat="45.00060816823391" lon="8.424635650121632"><ele>215.0</ele><time>2026-03-29T10:47:40.999Z</time></trkpt><trkpt lat="45.00065769514688" lon="8.424474477044338"><ele>215.0</ele><time>2026-03-29T10:47:41.999Z</time></trkpt><trkpt lat="45.00070438615966" lon="8.424312063962143"><ele>215.0</ele><time>2026-03-29T10:47:42.999Z</time></trkpt><trkpt lat="45.00074314128938" lon="8.424147743000384"><ele>215.0</ele><time>2026-03-29T10:47:43.999Z</time></trkpt><trkpt lat="45.00077569106203" lon="8.423979217425613"><ele>218.0</ele><time>2026-03-29T10:47:44.999Z</time></trkpt><trkpt lat="45.0007999385132" lon="8.423805532375997"><ele>221.0</ele><time>2026-03-29T10:47:45.999Z</time></trkpt><trkpt lat="45.00081868580511" lon="8.423417633696305"><ele>224.0</ele><time>2026-03-29T10:47:47.999Z</time></trkpt><trkpt lat="45.00081458544375" lon="8.423220665033895"><ele>224.0</ele><time>2026-03-29T10:47:48.999Z</time></trkpt><trkpt lat="45.00080588980772" lon="8.42302237078494"><ele>224.0</ele><time>2026-03-29T10:47:49.999Z</time></trkpt><trkpt lat="45.0008010587507" lon="8.422828425080922"><ele>224.0</ele><time>2026-03-29T10:47:50.999Z</time></trkpt><trkpt lat="45.000799807033054" lon="8.422638312653419"><ele>224.0</ele><time>2026-03-29T10:47:51.999Z</time></trkpt><trkpt lat="45.00079088603842" lon="8.422452448200598"><ele>225.2</ele><time>2026-03-29T10:47:52.999Z</time></trkpt><trkpt lat="45.00078301972033" lon="8.422275443155879"><ele>226.39999999999998</ele><time>2026-03-29T10:47:53.999Z</time></trkpt><trkpt lat="45.00077378446415" lon="8.422100121891338"><ele>227.6</ele><time>2026-03-29T10:47:54.999Z</time></trkpt><trkpt lat="45.000767899883556" lon="8.421949440547232"><ele>228.8</ele><time>2026-03-29T10:47:55.999Z</time></trkpt><trkpt lat="45.00075961103365" lon="8.421849401716559"><ele>230.0</ele><time>2026-03-29T10:47:56.999Z</time></trkpt><trkpt lat="45.00074557069368" lon="8.42169972718987"><ele>231.6</ele><time>2026-03-29T10:47:58.999Z</time></trkpt><trkpt lat="45.00070129876868" lon="8.421523601578308"><ele>233.2</ele><time>2026-03-29T10:48:00.999Z</time></trkpt><trkpt lat="45.00066862195332" lon="8.421413161709642"><ele>234.8</ele><time>2026-03-29T10:48:01.999Z</time></trkpt><trkpt lat="45.00062916058756" lon="8.42129070783344"><ele>236.4</ele><time>2026-03-29T10:48:02.999Z</time></trkpt><trkpt lat="45.00059459084345" lon="8.42117355516822"><ele>238.0</ele><time>2026-03-29T10:48:03.999Z</time></trkpt><trkpt lat="45.000559669746764" lon="8.42104973166557"><ele>238.83333333333331</ele><time>2026-03-29T10:48:04.999Z</time></trkpt><trkpt lat="45.00052377852635" lon="8.420923363996865"><ele>239.66666666666666</ele><time>2026-03-29T10:48:05.999Z</time></trkpt><trkpt lat="45.00049033796767" lon="8.420804336165231"><ele>240.5</ele><time>2026-03-29T10:48:06.999Z</time></trkpt><trkpt lat="45.00046309728765" lon="8.420693573813468"><ele>241.33333333333331</ele><time>2026-03-29T10:48:07.999Z</time></trkpt><trkpt lat="45.000444454135426" lon="8.420583590242426"><ele>242.16666666666666</ele><time>2026-03-29T10:48:08.999Z</time></trkpt><trkpt lat="45.00043409118983" lon="8.420473231669467"><ele>243.0</ele><time>2026-03-29T10:48:09.999Z</time></trkpt><trkpt lat="45.00043188348575" lon="8.420356930303482"><ele>243.16666666666666</ele><time>2026-03-29T10:48:10.999Z</time></trkpt><trkpt lat="45.0004419385477" lon="8.420242164216441"><ele>243.33333333333331</ele><time>2026-03-29T10:48:11.999Z</time></trkpt><trkpt lat="45.00045592633794" lon="8.420129349491763"><ele>243.5</ele><time>2026-03-29T10:48:12.999Z</time></trkpt><trkpt lat="45.000481582794386" lon="8.420014711191168"><ele>243.66666666666666</ele><time>2026-03-29T10:48:13.999Z</time></trkpt><trkpt lat="45.0005276899207" lon="8.419903416141306"><ele>243.83333333333331</ele><time>2026-03-29T10:48:14.999Z</time></trkpt><trkpt lat="45.000571092916836" lon="8.419783924963385"><ele>244.0</ele><time>2026-03-29T10:48:15.999Z</time></trkpt><trkpt lat="45.00060392718232" lon="8.419656724295754"><ele>245.0</ele><time>2026-03-29T10:48:16.999Z</time></trkpt><trkpt lat="45.0006583685786" lon="8.4195529309967"><ele>245.99999999999997</ele><time>2026-03-29T10:48:17.999Z</time></trkpt><trkpt lat="45.00070765161159" lon="8.419434750329417"><ele>246.99999999999997</ele><time>2026-03-29T10:48:18.999Z</time></trkpt><trkpt lat="45.000758061042404" lon="8.419310664920124"><ele>248.0</ele><time>2026-03-29T10:48:19.999Z</time></trkpt><trkpt lat="45.0008138746267" lon="8.419189880108293"><ele>249.0</ele><time>2026-03-29T10:48:20.999Z</time></trkpt><trkpt lat="45.00087477183533" lon="8.419063518831189"><ele>247.39999999999998</ele><time>2026-03-29T10:48:21.999Z</time></trkpt><trkpt lat="45.00093636141703" lon="8.418928630928171"><ele>245.79999999999998</ele><time>2026-03-29T10:48:22.999Z</time></trkpt><trkpt lat="45.00098297154941" lon="8.418821471946115"><ele>244.20000000000002</ele><time>2026-03-29T10:48:23.999Z</time></trkpt><trkpt lat="45.00103814478675" lon="8.418698173930213"><ele>242.60000000000002</ele><time>2026-03-29T10:48:24.999Z</time></trkpt><trkpt lat="45.0010930645136" lon="8.418574787056613"><ele>241.0</ele><time>2026-03-29T10:48:25.999Z</time></trkpt><trkpt lat="45.00114651840727" lon="8.41845336020008"><ele>240.99999999999997</ele><time>2026-03-29T10:48:26.999Z</time></trkpt><trkpt lat="45.00119774769159" lon="8.418335625898033"><ele>241.0</ele><time>2026-03-29T10:48:27.999Z</time></trkpt><trkpt lat="45.001250943529755" lon="8.418228145125301"><ele>241.0</ele><time>2026-03-29T10:48:28.999Z</time></trkpt><trkpt lat="45.001300021986175" lon="8.418137129874951"><ele>241.0</ele><time>2026-03-29T10:48:29.999Z</time></trkpt><trkpt lat="45.00134343883529" lon="8.418043716833989"><ele>240.99999999999997</ele><time>2026-03-29T10:48:30.999Z</time></trkpt><trkpt lat="45.00139145546808" lon="8.417956796491033"><ele>241.0</ele><time>2026-03-29T10:48:31.999Z</time></trkpt><trkpt lat="45.00143947207768" lon="8.417869785013167"><ele>240.60000000000002</ele><time>2026-03-29T10:48:32.999Z</time></trkpt><trkpt lat="45.00149205889386" lon="8.417779425175137"><ele>240.20000000000002</ele><time>2026-03-29T10:48:33.999Z</time></trkpt><trkpt lat="45.00154943898784" lon="8.417691501443604"><ele>239.79999999999998</ele><time>2026-03-29T10:48:34.999Z</time></trkpt><trkpt lat="45.00162268856234" lon="8.417594927940454"><ele>239.39999999999998</ele><time>2026-03-29T10:48:35.999Z</time></trkpt><trkpt lat="45.001712160270166" lon="8.417496817995538"><ele>239.0</ele><time>2026-03-29T10:48:36.999Z</time></trkpt><trkpt lat="45.00180390396334" lon="8.4174114901909"><ele>239.0</ele><time>2026-03-29T10:48:37.999Z</time></trkpt><trkpt lat="45.00190199370587" lon="8.417337394703102"><ele>238.99999999999997</ele><time>2026-03-29T10:48:38.999Z</time></trkpt><trkpt lat="45.00199783400738" lon="8.417263524785128"><ele>238.99999999999997</ele><time>2026-03-29T10:48:39.999Z</time></trkpt><trkpt lat="45.00209529954376" lon="8.417194402746665"><ele>239.0</ele><time>2026-03-29T10:48:40.999Z</time></trkpt><trkpt lat="45.0022004699359" lon="8.417127875442075"><ele>239.0</ele><time>2026-03-29T10:48:41.999Z</time></trkpt><trkpt lat="45.00230562942052" lon="8.417063194268518"><ele>239.39999999999998</ele><time>2026-03-29T10:48:42.999Z</time></trkpt><trkpt lat="45.002408518421184" lon="8.416988044458522"><ele>239.79999999999998</ele><time>2026-03-29T10:48:43.999Z</time></trkpt><trkpt lat="45.00250638702526" lon="8.416913105980848"><ele>240.20000000000002</ele><time>2026-03-29T10:48:44.999Z</time></trkpt><trkpt lat="45.00259800110211" lon="8.416845114140939"><ele>240.60000000000002</ele><time>2026-03-29T10:48:45.999Z</time></trkpt><trkpt lat="45.00268789434843" lon="8.416763797211638"><ele>241.0</ele><time>2026-03-29T10:48:46.999Z</time></trkpt><trkpt lat="45.002773825123555" lon="8.416669605769393"><ele>241.0</ele><time>2026-03-29T10:48:47.999Z</time></trkpt><trkpt lat="45.00284918206116" lon="8.416568365496028"><ele>241.00000000000003</ele><time>2026-03-29T10:48:48.999Z</time></trkpt><trkpt lat="45.00291653886104" lon="8.416447954940068"><ele>241.00000000000003</ele><time>2026-03-29T10:48:49.999Z</time></trkpt><trkpt lat="45.00297643868628" lon="8.416310280469306"><ele>241.0</ele><time>2026-03-29T10:48:50.999Z</time></trkpt><trkpt lat="45.00304672340634" lon="8.41617366632933"><ele>241.0</ele><time>2026-03-29T10:48:51.999Z</time></trkpt><trkpt lat="45.00310059194073" lon="8.416021449154464"><ele>238.5</ele><time>2026-03-29T10:48:52.999Z</time></trkpt><trkpt lat="45.00314776891559" lon="8.415873830809298"><ele>236.0</ele><time>2026-03-29T10:48:53.999Z</time></trkpt><trkpt lat="45.00319356297964" lon="8.415727426704365"><ele>233.5</ele><time>2026-03-29T10:48:54.999Z</time></trkpt><trkpt lat="45.00322444841508" lon="8.415573391892364"><ele>231.0</ele><time>2026-03-29T10:48:55.999Z</time></trkpt><trkpt lat="45.003271799679496" lon="8.41543029143753"><ele>229.8</ele><time>2026-03-29T10:48:56.999Z</time></trkpt><trkpt lat="45.0033204869735" lon="8.415281971192309"><ele>228.60000000000002</ele><time>2026-03-29T10:48:57.999Z</time></trkpt><trkpt lat="45.0033667235397" lon="8.41512411526194"><ele>227.4</ele><time>2026-03-29T10:48:58.999Z</time></trkpt><trkpt lat="45.003412872801945" lon="8.41498543636993"><ele>226.2</ele><time>2026-03-29T10:48:59.999Z</time></trkpt><trkpt lat="45.00345278452372" lon="8.414860485302533"><ele>225.0</ele><time>2026-03-29T10:49:00.999Z</time></trkpt><trkpt lat="45.00349647768261" lon="8.414719039389226"><ele>227.75</ele><time>2026-03-29T10:49:01.999Z</time></trkpt><trkpt lat="45.00353697941195" lon="8.414568990849743"><ele>230.5</ele><time>2026-03-29T10:49:02.999Z</time></trkpt><trkpt lat="45.00357802131443" lon="8.414415591534505"><ele>233.25</ele><time>2026-03-29T10:49:03.999Z</time></trkpt><trkpt lat="45.003621551577055" lon="8.414250588079737"><ele>236.0</ele><time>2026-03-29T10:49:04.998Z</time></trkpt><trkpt lat="45.00365800909768" lon="8.414073642894106"><ele>236.0</ele><time>2026-03-29T10:49:05.998Z</time></trkpt><trkpt lat="45.00368079207201" lon="8.413891339678994"><ele>236.0</ele><time>2026-03-29T10:49:06.998Z</time></trkpt><trkpt lat="45.00368585049037" lon="8.413702690145067"><ele>236.0</ele><time>2026-03-29T10:49:07.998Z</time></trkpt><trkpt lat="45.003687198078396" lon="8.413505608586792"><ele>236.0</ele><time>2026-03-29T10:49:08.998Z</time></trkpt><trkpt lat="45.00368660346923" lon="8.413289574659572"><ele>235.75</ele><time>2026-03-29T10:49:09.998Z</time></trkpt><trkpt lat="45.003681621046866" lon="8.413107166991546"><ele>235.5</ele><time>2026-03-29T10:49:10.998Z</time></trkpt><trkpt lat="45.00367878187293" lon="8.412942800918684"><ele>235.25</ele><time>2026-03-29T10:49:11.998Z</time></trkpt><trkpt lat="45.00367982511728" lon="8.412788719757412"><ele>235.0</ele><time>2026-03-29T10:49:12.998Z</time></trkpt><trkpt lat="45.00369074131596" lon="8.41263559453561"><ele>235.0</ele><time>2026-03-29T10:49:13.998Z</time></trkpt><trkpt lat="45.00371988529761" lon="8.412477949826446"><ele>235.0</ele><time>2026-03-29T10:49:14.998Z</time></trkpt><trkpt lat="45.003765172069706" lon="8.412336556966448"><ele>235.0</ele><time>2026-03-29T10:49:15.998Z</time></trkpt><trkpt lat="45.003829092501434" lon="8.41220316074374"><ele>235.0</ele><time>2026-03-29T10:49:16.998Z</time></trkpt><trkpt lat="45.003925552272264" lon="8.412108965046004"><ele>235.0</ele><time>2026-03-29T10:49:17.998Z</time></trkpt><trkpt lat="45.00402441023409" lon="8.411983252285012"><ele>235.0</ele><time>2026-03-29T10:49:18.998Z</time></trkpt><trkpt lat="45.004138850778965" lon="8.411880549756022"><ele>235.0</ele><time>2026-03-29T10:49:19.998Z</time></trkpt><trkpt lat="45.00423910059535" lon="8.411774353293438"><ele>235.0</ele><time>2026-03-29T10:49:20.998Z</time></trkpt><trkpt lat="45.00433606501471" lon="8.41167815212709"><ele>236.5</ele><time>2026-03-29T10:49:21.998Z</time></trkpt><trkpt lat="45.00443402437676" lon="8.411590993171034"><ele>238.0</ele><time>2026-03-29T10:49:22.998Z</time></trkpt><trkpt lat="45.0045250105913" lon="8.411506424794814"><ele>239.5</ele><time>2026-03-29T10:49:23.998Z</time></trkpt><trkpt lat="45.004619668124" lon="8.411406409268528"><ele>241.0</ele><time>2026-03-29T10:49:24.998Z</time></trkpt><trkpt lat="45.004713338111486" lon="8.411311019406732"><ele>241.0</ele><time>2026-03-29T10:49:25.998Z</time></trkpt><trkpt lat="45.00481142399476" lon="8.411216900816514"><ele>241.0</ele><time>2026-03-29T10:49:26.999Z</time></trkpt><trkpt lat="45.00492225114152" lon="8.411106484873082"><ele>241.0</ele><time>2026-03-29T10:49:27.999Z</time></trkpt><trkpt lat="45.00503487228533" lon="8.41099280943058"><ele>241.0</ele><time>2026-03-29T10:49:28.999Z</time></trkpt><trkpt lat="45.00514920699119" lon="8.41088102499809"><ele>243.0</ele><time>2026-03-29T10:49:29.999Z</time></trkpt><trkpt lat="45.00525556662076" lon="8.410775352468908"><ele>245.0</ele><time>2026-03-29T10:49:31Z</time></trkpt><trkpt lat="45.005360683454185" lon="8.410669410764065"><ele>247.0</ele><time>2026-03-29T10:49:31.999Z</time></trkpt><trkpt lat="45.00546360654857" lon="8.41056479863714"><ele>249.0</ele><time>2026-03-29T10:49:32.999Z</time></trkpt><trkpt lat="45.00556830862992" lon="8.410456234477234"><ele>249.0</ele><time>2026-03-29T10:49:34Z</time></trkpt><trkpt lat="45.00567577846437" lon="8.410355423187362"><ele>249.0</ele><time>2026-03-29T10:49:35Z</time></trkpt><trkpt lat="45.00578790370033" lon="8.410247073862914"><ele>249.0</ele><time>2026-03-29T10:49:36Z</time></trkpt><trkpt lat="45.005901697608635" lon="8.410130314499504"><ele>249.0</ele><time>2026-03-29T10:49:37Z</time></trkpt><trkpt lat="45.00601928765056" lon="8.410009132505177"><ele>248.0</ele><time>2026-03-29T10:49:38Z</time></trkpt><trkpt lat="45.006142569796715" lon="8.409882680016521"><ele>247.0</ele><time>2026-03-29T10:49:39Z</time></trkpt><trkpt lat="45.00628997134102" lon="8.409738324597573"><ele>246.0</ele><time>2026-03-29T10:49:40Z</time></trkpt><trkpt lat="45.00643508841652" lon="8.409598089100653"><ele>246.0</ele><time>2026-03-29T10:49:41Z</time></trkpt><trkpt lat="45.00652208267369" lon="8.409503764754099"><ele>246.0</ele><time>2026-03-29T10:49:42Z</time></trkpt><trkpt lat="45.006620635262905" lon="8.409403465565203"><ele>246.0</ele><time>2026-03-29T10:49:43Z</time></trkpt><trkpt lat="45.00671341797618" lon="8.409310154356252"><ele>246.0</ele><time>2026-03-29T10:49:44Z</time></trkpt><trkpt lat="45.006802275709795" lon="8.409221091951707"><ele>250.8</ele><time>2026-03-29T10:49:45Z</time></trkpt><trkpt lat="45.00689752004093" lon="8.409136453011026"><ele>255.60000000000002</ele><time>2026-03-29T10:49:46Z</time></trkpt><trkpt lat="45.00698246887559" lon="8.409055600929948"><ele>260.4</ele><time>2026-03-29T10:49:46.999Z</time></trkpt><trkpt lat="45.00705604934805" lon="8.408985112578158"><ele>265.2</ele><time>2026-03-29T10:49:47.999Z</time></trkpt><trkpt lat="45.007126236320104" lon="8.408911193483782"><ele>270.0</ele><time>2026-03-29T10:49:48.999Z</time></trkpt><trkpt lat="45.00719808847899" lon="8.408832934460728"><ele>271.6</ele><time>2026-03-29T10:49:49.999Z</time></trkpt><trkpt lat="45.00727029218456" lon="8.40873894271049"><ele>273.2</ele><time>2026-03-29T10:49:50.999Z</time></trkpt><trkpt lat="45.00733956522024" lon="8.40864126554036"><ele>274.8</ele><time>2026-03-29T10:49:51.999Z</time></trkpt><trkpt lat="45.00740052339854" lon="8.40852169689001"><ele>276.4</ele><time>2026-03-29T10:49:52.999Z</time></trkpt><trkpt lat="45.00746319168864" lon="8.408396225806904"><ele>278.0</ele><time>2026-03-29T10:49:53.999Z</time></trkpt><trkpt lat="45.007533869342346" lon="8.40825865699077"><ele>278.0</ele><time>2026-03-29T10:49:54.999Z</time></trkpt><trkpt lat="45.007597282689034" lon="8.408116914012297"><ele>278.0</ele><time>2026-03-29T10:49:55.999Z</time></trkpt><trkpt lat="45.00766900028613" lon="8.407937788875767"><ele>278.0</ele><time>2026-03-29T10:49:56.999Z</time></trkpt><trkpt lat="45.00772702195361" lon="8.407787791789788"><ele>278.0</ele><time>2026-03-29T10:49:57.999Z</time></trkpt><trkpt lat="45.00777803707185" lon="8.407660829319315"><ele>276.33333333333337</ele><time>2026-03-29T10:49:58.999Z</time></trkpt><trkpt lat="45.00782483038599" lon="8.407555253842009"><ele>274.6666666666667</ele><time>2026-03-29T10:49:59.999Z</time></trkpt><trkpt lat="45.007875332397184" lon="8.407462895373618"><ele>273.0</ele><time>2026-03-29T10:50:00.999Z</time></trkpt><trkpt lat="45.00791612880723" lon="8.407361285997444"><ele>271.3333333333333</ele><time>2026-03-29T10:50:01.999Z</time></trkpt><trkpt lat="45.00796531709499" lon="8.407257425883623"><ele>269.66666666666663</ele><time>2026-03-29T10:50:02.999Z</time></trkpt><trkpt lat="45.00803804936644" lon="8.407153764528127"><ele>268.0</ele><time>2026-03-29T10:50:03.999Z</time></trkpt><trkpt lat="45.00812000745126" lon="8.407039895389492"><ele>265.5</ele><time>2026-03-29T10:50:04.999Z</time></trkpt><trkpt lat="45.008204637520954" lon="8.406930223906473"><ele>263.0</ele><time>2026-03-29T10:50:05.999Z</time></trkpt><trkpt lat="45.00828618163617" lon="8.406818490144689"><ele>260.5</ele><time>2026-03-29T10:50:06.999Z</time></trkpt><trkpt lat="45.0083711933867" lon="8.406706979126794"><ele>258.0</ele><time>2026-03-29T10:50:07.999Z</time></trkpt><trkpt lat="45.00846723622092" lon="8.406593164482032"><ele>260.25</ele><time>2026-03-29T10:50:08.999Z</time></trkpt><trkpt lat="45.008559521501105" lon="8.406479682828067"><ele>262.5</ele><time>2026-03-29T10:50:09.999Z</time></trkpt><trkpt lat="45.00865143814366" lon="8.4063609298287"><ele>264.75</ele><time>2026-03-29T10:50:10.999Z</time></trkpt><trkpt lat="45.0087451545169" lon="8.406237566903272"><ele>267.0</ele><time>2026-03-29T10:50:11.999Z</time></trkpt><trkpt lat="45.008839069138894" lon="8.40611713532905"><ele>267.0</ele><time>2026-03-29T10:50:12.999Z</time></trkpt><trkpt lat="45.00893194575888" lon="8.406001708776332"><ele>267.0</ele><time>2026-03-29T10:50:13.999Z</time></trkpt><trkpt lat="45.00902692897442" lon="8.405880229868002"><ele>267.0</ele><time>2026-03-29T10:50:14.999Z</time></trkpt><trkpt lat="45.009121592599776" lon="8.405763399446684"><ele>267.0</ele><time>2026-03-29T10:50:15.999Z</time></trkpt><trkpt lat="45.00920749924716" lon="8.405638394590417"><ele>269.0</ele><time>2026-03-29T10:50:16.999Z</time></trkpt><trkpt lat="45.009270853404026" lon="8.405503930775467"><ele>271.0</ele><time>2026-03-29T10:50:17.999Z</time></trkpt><trkpt lat="45.00931106018376" lon="8.40537527492504"><ele>273.0</ele><time>2026-03-29T10:50:18.999Z</time></trkpt><trkpt lat="45.00933958888676" lon="8.40524711936375"><ele>275.0</ele><time>2026-03-29T10:50:19.999Z</time></trkpt><trkpt lat="45.009365536166634" lon="8.405113210891495"><ele>277.0</ele><time>2026-03-29T10:50:20.999Z</time></trkpt><trkpt lat="45.00939459758544" lon="8.404975142298005"><ele>278.5</ele><time>2026-03-29T10:50:21.999Z</time></trkpt><trkpt lat="45.00942902061129" lon="8.404828951325324"><ele>280.0</ele><time>2026-03-29T10:50:22.999Z</time></trkpt><trkpt lat="45.00946779329766" lon="8.404675196323653"><ele>281.5</ele><time>2026-03-29T10:50:23.999Z</time></trkpt><trkpt lat="45.009509710084465" lon="8.404512721837275"><ele>283.0</ele><time>2026-03-29T10:50:24.999Z</time></trkpt><trkpt lat="45.00956153804746" lon="8.404344064135788"><ele>284.25</ele><time>2026-03-29T10:50:25.999Z</time></trkpt><trkpt lat="45.009623792094345" lon="8.404189861198374"><ele>285.5</ele><time>2026-03-29T10:50:26.999Z</time></trkpt><trkpt lat="45.00972726443023" lon="8.404071432610323"><ele>286.75</ele><time>2026-03-29T10:50:27.999Z</time></trkpt><trkpt lat="45.00981268269315" lon="8.4039235863805"><ele>288.0</ele><time>2026-03-29T10:50:28.999Z</time></trkpt><trkpt lat="45.009910759453284" lon="8.4037869471755"><ele>288.6</ele><time>2026-03-29T10:50:29.999Z</time></trkpt><trkpt lat="45.009989541037044" lon="8.403656561143094"><ele>289.20000000000005</ele><time>2026-03-29T10:50:30.999Z</time></trkpt><trkpt lat="45.01004843877718" lon="8.403538427754581"><ele>289.8</ele><time>2026-03-29T10:50:31.999Z</time></trkpt><trkpt lat="45.01008904014381" lon="8.403438121230867"><ele>290.40000000000003</ele><time>2026-03-29T10:50:32.999Z</time></trkpt><trkpt lat="45.01010561091263" lon="8.403276008911568"><ele>291.0</ele><time>2026-03-29T10:50:34.999Z</time></trkpt><trkpt lat="45.010085658042435" lon="8.403114159502604"><ele>291.0</ele><time>2026-03-29T10:50:36.999Z</time></trkpt><trkpt lat="45.01006290368979" lon="8.403021549144423"><ele>291.0</ele><time>2026-03-29T10:50:37.999Z</time></trkpt><trkpt lat="45.01003235993931" lon="8.40291456116033"><ele>291.0</ele><time>2026-03-29T10:50:38.999Z</time></trkpt><trkpt lat="45.009997918400835" lon="8.402811074647259"><ele>291.0</ele><time>2026-03-29T10:50:39.999Z</time></trkpt><trkpt lat="45.009959455043635" lon="8.402711982585348"><ele>291.0</ele><time>2026-03-29T10:50:40.999Z</time></trkpt><trkpt lat="45.00991873185659" lon="8.402611572657365"><ele>291.0</ele><time>2026-03-29T10:50:41.999Z</time></trkpt><trkpt lat="45.00988095556577" lon="8.40250832569155"><ele>290.6666666666667</ele><time>2026-03-29T10:50:42.999Z</time></trkpt><trkpt lat="45.009845139944844" lon="8.402401168778553"><ele>290.3333333333333</ele><time>2026-03-29T10:50:43.999Z</time></trkpt><trkpt lat="45.00980784809023" lon="8.402294299830027"><ele>290.0</ele><time>2026-03-29T10:50:44.999Z</time></trkpt><trkpt lat="45.009771216372435" lon="8.40219161716307"><ele>289.66666666666663</ele><time>2026-03-29T10:50:45.999Z</time></trkpt><trkpt lat="45.00974020786416" lon="8.402094506540177"><ele>289.3333333333333</ele><time>2026-03-29T10:50:46.999Z</time></trkpt><trkpt lat="45.00972182423075" lon="8.401992985929633"><ele>289.0</ele><time>2026-03-29T10:50:47.999Z</time></trkpt><trkpt lat="45.00971317409719" lon="8.40188589569292"><ele>289.0</ele><time>2026-03-29T10:50:48.999Z</time></trkpt><trkpt lat="45.0097046021906" lon="8.401775726304068"><ele>289.0</ele><time>2026-03-29T10:50:49.999Z</time></trkpt><trkpt lat="45.00970426017043" lon="8.40166892091697"><ele>289.0</ele><time>2026-03-29T10:50:50.999Z</time></trkpt><trkpt lat="45.00971137731935" lon="8.40156507772664"><ele>289.0</ele><time>2026-03-29T10:50:51.999Z</time></trkpt><trkpt lat="45.0097238390047" lon="8.401459455832027"><ele>289.0</ele><time>2026-03-29T10:50:52.999Z</time></trkpt><trkpt lat="45.00973790596857" lon="8.401352336982713"><ele>289.0</ele><time>2026-03-29T10:50:53.999Z</time></trkpt><trkpt lat="45.009751983236534" lon="8.401241762854154"><ele>287.5</ele><time>2026-03-29T10:50:54.999Z</time></trkpt><trkpt lat="45.00976686985517" lon="8.40113212129716"><ele>286.0</ele><time>2026-03-29T10:50:55.999Z</time></trkpt><trkpt lat="45.00978151266972" lon="8.40102427788552"><ele>284.5</ele><time>2026-03-29T10:50:56.999Z</time></trkpt><trkpt lat="45.00979680880387" lon="8.400918067063428"><ele>283.0</ele><time>2026-03-29T10:50:57.999Z</time></trkpt><trkpt lat="45.00981091802654" lon="8.400814775995839"><ele>281.5</ele><time>2026-03-29T10:50:58.999Z</time></trkpt><trkpt lat="45.009822271331664" lon="8.400652668497504"><ele>280.0</ele><time>2026-03-29T10:51:00.999Z</time></trkpt><trkpt lat="45.0098256757676" lon="8.400546319676192"><ele>277.4</ele><time>2026-03-29T10:51:02.999Z</time></trkpt><trkpt lat="45.009823286818765" lon="8.400430735596311"><ele>274.8</ele><time>2026-03-29T10:51:06.999Z</time></trkpt><trkpt lat="45.00982275390186" lon="8.400324251014348"><ele>272.2</ele><time>2026-03-29T10:51:08.999Z</time></trkpt><trkpt lat="45.00981559337044" lon="8.400202438880322"><ele>269.6</ele><time>2026-03-29T10:51:10.999Z</time></trkpt><trkpt lat="45.00982178620836" lon="8.400063810738386"><ele>267.0</ele><time>2026-03-29T10:51:12.999Z</time></trkpt><trkpt lat="45.00983649928918" lon="8.399884550806293"><ele>267.0</ele><time>2026-03-29T10:51:14.999Z</time></trkpt><trkpt lat="45.009859748533174" lon="8.399800594502642"><ele>267.0</ele><time>2026-03-29T10:51:15.998Z</time></trkpt><trkpt lat="45.009885895154994" lon="8.399716419573734"><ele>267.0</ele><time>2026-03-29T10:51:16.998Z</time></trkpt><trkpt lat="45.009898960436445" lon="8.39957734200767"><ele>267.0</ele><time>2026-03-29T10:51:18.998Z</time></trkpt><trkpt lat="45.009932855003946" lon="8.39942165400196"><ele>267.0</ele><time>2026-03-29T10:51:20.998Z</time></trkpt><trkpt lat="45.00996334745907" lon="8.399268552184525"><ele>266.42857142857144</ele><time>2026-03-29T10:51:22.998Z</time></trkpt><trkpt lat="45.00998182296735" lon="8.399156896509359"><ele>265.8571428571429</ele><time>2026-03-29T10:51:24.998Z</time></trkpt><trkpt lat="45.01002704632873" lon="8.399070666656883"><ele>265.2857142857143</ele><time>2026-03-29T10:51:27.998Z</time></trkpt><trkpt lat="45.010056192946244" lon="8.398987811774738"><ele>264.7142857142857</ele><time>2026-03-29T10:51:29.998Z</time></trkpt><trkpt lat="45.010122940352915" lon="8.398999711210573"><ele>264.1428571428571</ele><time>2026-03-29T10:51:30.998Z</time></trkpt><trkpt lat="45.01014890520457" lon="8.398882865275414"><ele>263.57142857142856</ele><time>2026-03-29T10:54:08Z</time></trkpt><trkpt lat="45.01013150491568" lon="8.398790384784833"><ele>263.0</ele><time>2026-03-29T10:54:15.999Z</time></trkpt><trkpt lat="45.01010820967043" lon="8.39869707801791"><ele>266.0</ele><time>2026-03-29T10:54:35.999Z</time></trkpt><trkpt lat="45.01011240097976" lon="8.398805785474787"><ele>269.0</ele><time>2026-03-29T11:14:23.999Z</time></trkpt><trkpt lat="45.01011626000211" lon="8.398898594190241"><ele>272.0</ele><time>2026-03-29T11:14:29.999Z</time></trkpt><trkpt lat="45.01004508295983" lon="8.398914467025554"><ele>275.0</ele><time>2026-03-29T11:17:42.999Z</time></trkpt><trkpt lat="45.01003431630063" lon="8.39903415842323"><ele>278.0</ele><time>2026-03-29T11:17:45.999Z</time></trkpt><trkpt lat="45.010088351954685" lon="8.399081388616223"><ele>281.0</ele><time>2026-03-29T11:17:47.999Z</time></trkpt><trkpt lat="45.0101217785084" lon="8.39899449043012"><ele>284.0</ele><time>2026-03-29T11:17:50.999Z</time></trkpt><trkpt lat="45.01007182637676" lon="8.398938300929009"><ele>284.0</ele><time>2026-03-29T11:18:05.999Z</time></trkpt><trkpt lat="45.00999916009438" lon="8.398902503962914"><ele>284.0</ele><time>2026-03-29T11:18:08.999Z</time></trkpt><trkpt lat="45.0099197344757" lon="8.398812762179444"><ele>284.0</ele><time>2026-03-29T11:18:11.999Z</time></trkpt><trkpt lat="45.00988105854141" lon="8.398697692541639"><ele>284.0</ele><time>2026-03-29T11:18:13.999Z</time></trkpt><trkpt lat="45.00982898922159" lon="8.398583449369404"><ele>284.0</ele><time>2026-03-29T11:18:15.999Z</time></trkpt><trkpt lat="45.009760031051776" lon="8.39845996307721"><ele>281.1666666666667</ele><time>2026-03-29T11:18:17.999Z</time></trkpt><trkpt lat="45.009686217190364" lon="8.398312767285999"><ele>278.33333333333337</ele><time>2026-03-29T11:18:19.999Z</time></trkpt><trkpt lat="45.00964514754183" lon="8.398232827143875"><ele>275.5</ele><time>2026-03-29T11:18:20.999Z</time></trkpt><trkpt lat="45.009605397828835" lon="8.39814800294411"><ele>272.6666666666667</ele><time>2026-03-29T11:18:21.999Z</time></trkpt><trkpt lat="45.00956698500368" lon="8.398064767961069"><ele>269.8333333333333</ele><time>2026-03-29T11:18:22.999Z</time></trkpt><trkpt lat="45.00953126184478" lon="8.397980402625095"><ele>267.0</ele><time>2026-03-29T11:18:23.999Z</time></trkpt><trkpt lat="45.009497711262064" lon="8.397887926472126"><ele>266.8333333333333</ele><time>2026-03-29T11:18:24.999Z</time></trkpt><trkpt lat="45.00947007197848" lon="8.397786511136507"><ele>266.6666666666667</ele><time>2026-03-29T11:18:25.998Z</time></trkpt><trkpt lat="45.00945536817117" lon="8.397676946683038"><ele>266.5</ele><time>2026-03-29T11:18:26.998Z</time></trkpt><trkpt lat="45.009451929796654" lon="8.397563505743623"><ele>266.33333333333337</ele><time>2026-03-29T11:18:27.998Z</time></trkpt><trkpt lat="45.00946121877869" lon="8.397463661942496"><ele>266.1666666666667</ele><time>2026-03-29T11:18:28.998Z</time></trkpt><trkpt lat="45.0094838303219" lon="8.397365408164209"><ele>266.0</ele><time>2026-03-29T11:18:29.998Z</time></trkpt><trkpt lat="45.00951900917533" lon="8.397277800661428"><ele>266.0</ele><time>2026-03-29T11:18:30.998Z</time></trkpt><trkpt lat="45.00955498699544" lon="8.397187835779173"><ele>266.0</ele><time>2026-03-29T11:18:31.998Z</time></trkpt><trkpt lat="45.00958801102387" lon="8.397100070632682"><ele>266.0</ele><time>2026-03-29T11:18:32.998Z</time></trkpt><trkpt lat="45.00961638373177" lon="8.396999808535885"><ele>266.0</ele><time>2026-03-29T11:18:33.998Z</time></trkpt><trkpt lat="45.00962986861055" lon="8.396890371055227"><ele>266.0</ele><time>2026-03-29T11:18:34.998Z</time></trkpt><trkpt lat="45.00962324363867" lon="8.396780511066387"><ele>266.0</ele><time>2026-03-29T11:18:35.998Z</time></trkpt><trkpt lat="45.00959037403505" lon="8.396674902290066"><ele>265.40000000000003</ele><time>2026-03-29T11:18:36.998Z</time></trkpt><trkpt lat="45.009536456166835" lon="8.396573131461093"><ele>264.8</ele><time>2026-03-29T11:18:37.998Z</time></trkpt><trkpt lat="45.00946831696351" lon="8.396477818643804"><ele>264.20000000000005</ele><time>2026-03-29T11:18:38.998Z</time></trkpt><trkpt lat="45.00939320699991" lon="8.396387324303971"><ele>263.6</ele><time>2026-03-29T11:18:39.998Z</time></trkpt><trkpt lat="45.009317094137195" lon="8.396299438115165"><ele>263.0</ele><time>2026-03-29T11:18:40.998Z</time></trkpt><trkpt lat="45.00924000643959" lon="8.396214124826065"><ele>265.2</ele><time>2026-03-29T11:18:41.998Z</time></trkpt><trkpt lat="45.0091636312875" lon="8.396131799295453"><ele>267.4</ele><time>2026-03-29T11:18:42.998Z</time></trkpt><trkpt lat="45.00908687804724" lon="8.39604789074669"><ele>269.59999999999997</ele><time>2026-03-29T11:18:43.998Z</time></trkpt><trkpt lat="45.00901631987071" lon="8.39596284479436"><ele>271.8</ele><time>2026-03-29T11:18:44.998Z</time></trkpt><trkpt lat="45.008949032468415" lon="8.395876599195953"><ele>274.0</ele><time>2026-03-29T11:18:45.998Z</time></trkpt><trkpt lat="45.008882657498276" lon="8.395790576686357"><ele>271.66666666666663</ele><time>2026-03-29T11:18:46.998Z</time></trkpt><trkpt lat="45.008815207814344" lon="8.395707717258595"><ele>269.3333333333333</ele><time>2026-03-29T11:18:47.999Z</time></trkpt><trkpt lat="45.00874475664159" lon="8.395629016478454"><ele>267.0</ele><time>2026-03-29T11:18:48.999Z</time></trkpt><trkpt lat="45.00867230024991" lon="8.395554837843195"><ele>264.6666666666667</ele><time>2026-03-29T11:18:49.999Z</time></trkpt><trkpt lat="45.008601255337894" lon="8.395478983360741"><ele>262.33333333333337</ele><time>2026-03-29T11:18:50.999Z</time></trkpt><trkpt lat="45.008530806651166" lon="8.395400543112146"><ele>260.0</ele><time>2026-03-29T11:18:51.999Z</time></trkpt><trkpt lat="45.00846338224265" lon="8.395325372935885"><ele>260.0</ele><time>2026-03-29T11:18:52.999Z</time></trkpt><trkpt lat="45.00840419979497" lon="8.395234660411777"><ele>260.0</ele><time>2026-03-29T11:18:53.999Z</time></trkpt><trkpt lat="45.008359265359715" lon="8.395132554644547"><ele>260.0</ele><time>2026-03-29T11:18:54.999Z</time></trkpt><trkpt lat="45.008330651512175" lon="8.395022716684023"><ele>260.0</ele><time>2026-03-29T11:18:55.999Z</time></trkpt><trkpt lat="45.008320924187906" lon="8.394900671838883"><ele>260.0</ele><time>2026-03-29T11:18:56.999Z</time></trkpt><trkpt lat="45.0083295579029" lon="8.394770714989916"><ele>260.0</ele><time>2026-03-29T11:18:57.999Z</time></trkpt><trkpt lat="45.008343233795166" lon="8.394638443744261"><ele>258.4</ele><time>2026-03-29T11:18:58.999Z</time></trkpt><trkpt lat="45.008371068577766" lon="8.394513196608493"><ele>256.8</ele><time>2026-03-29T11:18:59.999Z</time></trkpt><trkpt lat="45.008422278998275" lon="8.394409642952219"><ele>255.2</ele><time>2026-03-29T11:19:00.999Z</time></trkpt><trkpt lat="45.00848538478348" lon="8.394327905086644"><ele>253.6</ele><time>2026-03-29T11:19:01.999Z</time></trkpt><trkpt lat="45.00856165998929" lon="8.39425437102671"><ele>252.0</ele><time>2026-03-29T11:19:02.999Z</time></trkpt><trkpt lat="45.00864264011434" lon="8.394184559845373"><ele>252.0</ele><time>2026-03-29T11:19:03.999Z</time></trkpt><trkpt lat="45.00873257182123" lon="8.394126444523023"><ele>252.0</ele><time>2026-03-29T11:19:04.999Z</time></trkpt><trkpt lat="45.0088244706579" lon="8.394073049409073"><ele>252.0</ele><time>2026-03-29T11:19:05.999Z</time></trkpt><trkpt lat="45.00891683426724" lon="8.394017775151495"><ele>252.0</ele><time>2026-03-29T11:19:06.999Z</time></trkpt><trkpt lat="45.00901376279591" lon="8.393968760321494"><ele>252.0</ele><time>2026-03-29T11:19:07.999Z</time></trkpt><trkpt lat="45.009114179826874" lon="8.393916640408095"><ele>254.0</ele><time>2026-03-29T11:19:08.999Z</time></trkpt><trkpt lat="45.00921475502772" lon="8.393866004254837"><ele>256.0</ele><time>2026-03-29T11:19:09.999Z</time></trkpt><trkpt lat="45.009315759248636" lon="8.393812359354719"><ele>258.0</ele><time>2026-03-29T11:19:10.999Z</time></trkpt><trkpt lat="45.009415763619735" lon="8.393759987249885"><ele>260.0</ele><time>2026-03-29T11:19:11.999Z</time></trkpt><trkpt lat="45.00951569797754" lon="8.39370360711835"><ele>262.0</ele><time>2026-03-29T11:19:12.999Z</time></trkpt><trkpt lat="45.00961513689836" lon="8.393647122801054"><ele>258.2</ele><time>2026-03-29T11:19:13.999Z</time></trkpt><trkpt lat="45.009713088275824" lon="8.393590568672673"><ele>254.39999999999998</ele><time>2026-03-29T11:19:14.999Z</time></trkpt><trkpt lat="45.009804433791906" lon="8.393541660962203"><ele>250.60000000000002</ele><time>2026-03-29T11:19:15.999Z</time></trkpt><trkpt lat="45.00988754273067" lon="8.393509169242337"><ele>246.8</ele><time>2026-03-29T11:19:16.999Z</time></trkpt><trkpt lat="45.0099723007231" lon="8.393500476401313"><ele>243.0</ele><time>2026-03-29T11:19:17.999Z</time></trkpt><trkpt lat="45.01005903775498" lon="8.393525897702558"><ele>243.0</ele><time>2026-03-29T11:19:18.999Z</time></trkpt><trkpt lat="45.01015262189508" lon="8.39356518185109"><ele>243.0</ele><time>2026-03-29T11:19:19.999Z</time></trkpt><trkpt lat="45.01024742895423" lon="8.393591772735011"><ele>243.0</ele><time>2026-03-29T11:19:20.999Z</time></trkpt><trkpt lat="45.01034025995276" lon="8.393617726850161"><ele>243.0</ele><time>2026-03-29T11:19:21.999Z</time></trkpt><trkpt lat="45.01043118224612" lon="8.393618382733521"><ele>243.0</ele><time>2026-03-29T11:19:22.999Z</time></trkpt><trkpt lat="45.010516542729064" lon="8.39357605452559"><ele>243.0</ele><time>2026-03-29T11:19:23.999Z</time></trkpt><trkpt lat="45.010593104350114" lon="8.393491898918981"><ele>243.0</ele><time>2026-03-29T11:19:24.999Z</time></trkpt><trkpt lat="45.01065695450262" lon="8.39337479313231"><ele>243.0</ele><time>2026-03-29T11:19:25.999Z</time></trkpt><trkpt lat="45.01071481707577" lon="8.393263729351556"><ele>243.0</ele><time>2026-03-29T11:19:26.999Z</time></trkpt><trkpt lat="45.010748456194776" lon="8.393131296034618"><ele>243.0</ele><time>2026-03-29T11:19:27.999Z</time></trkpt><trkpt lat="45.01070952435671" lon="8.392970333782472"><ele>240.8</ele><time>2026-03-29T11:19:28.999Z</time></trkpt><trkpt lat="45.01068736845181" lon="8.392820759715654"><ele>238.60000000000002</ele><time>2026-03-29T11:19:29.999Z</time></trkpt><trkpt lat="45.010668960724786" lon="8.392664806960761"><ele>236.39999999999998</ele><time>2026-03-29T11:19:30.999Z</time></trkpt><trkpt lat="45.01062385926185" lon="8.392524432589235"><ele>234.2</ele><time>2026-03-29T11:19:31.999Z</time></trkpt><trkpt lat="45.01059299090341" lon="8.392377506551355"><ele>232.0</ele><time>2026-03-29T11:19:32.999Z</time></trkpt><trkpt lat="45.01054369700061" lon="8.392241847330023"><ele>232.0</ele><time>2026-03-29T11:19:33.999Z</time></trkpt><trkpt lat="45.01047509496738" lon="8.392114742897451"><ele>232.0</ele><time>2026-03-29T11:19:34.999Z</time></trkpt><trkpt lat="45.01037994445992" lon="8.392000505935858"><ele>232.0</ele><time>2026-03-29T11:19:35.999Z</time></trkpt><trkpt lat="45.01027588424497" lon="8.39190088131558"><ele>232.0</ele><time>2026-03-29T11:19:36.999Z</time></trkpt><trkpt lat="45.010172877964635" lon="8.391819944939892"><ele>232.0</ele><time>2026-03-29T11:19:37.999Z</time></trkpt><trkpt lat="45.010073004067664" lon="8.391737555373668"><ele>232.0</ele><time>2026-03-29T11:19:38.999Z</time></trkpt><trkpt lat="45.00997988161786" lon="8.391648801542122"><ele>232.0</ele><time>2026-03-29T11:19:39.999Z</time></trkpt><trkpt lat="45.00989869732971" lon="8.39154932210155"><ele>232.0</ele><time>2026-03-29T11:19:40.999Z</time></trkpt><trkpt lat="45.009826402532" lon="8.391441551622094"><ele>232.0</ele><time>2026-03-29T11:19:41.999Z</time></trkpt><trkpt lat="45.009761448850405" lon="8.391330545451064"><ele>232.0</ele><time>2026-03-29T11:19:42.999Z</time></trkpt><trkpt lat="45.00970954115371" lon="8.391212620031123"><ele>232.0</ele><time>2026-03-29T11:19:43.999Z</time></trkpt><trkpt lat="45.009674936411436" lon="8.3910781589222"><ele>232.0</ele><time>2026-03-29T11:19:44.999Z</time></trkpt><trkpt lat="45.00965486522597" lon="8.390933205879863"><ele>232.0</ele><time>2026-03-29T11:19:45.999Z</time></trkpt><trkpt lat="45.00963916707048" lon="8.3907789400958"><ele>232.0</ele><time>2026-03-29T11:19:46.999Z</time></trkpt><trkpt lat="45.00962032828459" lon="8.390622671854343"><ele>231.0</ele><time>2026-03-29T11:19:47.999Z</time></trkpt><trkpt lat="45.00959939841692" lon="8.39047132844627"><ele>230.0</ele><time>2026-03-29T11:19:48.999Z</time></trkpt><trkpt lat="45.00956860900782" lon="8.390325405792654"><ele>229.0</ele><time>2026-03-29T11:19:49.999Z</time></trkpt><trkpt lat="45.00952432003048" lon="8.390186172546194"><ele>228.0</ele><time>2026-03-29T11:19:50.999Z</time></trkpt><trkpt lat="45.00946783773095" lon="8.390055410697341"><ele>227.0</ele><time>2026-03-29T11:19:51.999Z</time></trkpt><trkpt lat="45.00939795834474" lon="8.389934138114159"><ele>227.0</ele><time>2026-03-29T11:19:52.999Z</time></trkpt><trkpt lat="45.009316216368276" lon="8.389819304118035"><ele>227.0</ele><time>2026-03-29T11:19:53.999Z</time></trkpt><trkpt lat="45.00923668588491" lon="8.389709494841654"><ele>227.0</ele><time>2026-03-29T11:19:54.998Z</time></trkpt><trkpt lat="45.00915952120814" lon="8.389602053567147"><ele>227.0</ele><time>2026-03-29T11:19:55.998Z</time></trkpt><trkpt lat="45.00908519633996" lon="8.389493346709255"><ele>227.0</ele><time>2026-03-29T11:19:56.998Z</time></trkpt><trkpt lat="45.00901477705464" lon="8.389383662828262"><ele>225.6</ele><time>2026-03-29T11:19:57.998Z</time></trkpt><trkpt lat="45.008949938007966" lon="8.389268997450408"><ele>224.2</ele><time>2026-03-29T11:19:58.998Z</time></trkpt><trkpt lat="45.00889648608886" lon="8.389147731095376"><ele>222.8</ele><time>2026-03-29T11:19:59.998Z</time></trkpt><trkpt lat="45.008856877430745" lon="8.3890190185498"><ele>221.4</ele><time>2026-03-29T11:20:00.998Z</time></trkpt><trkpt lat="45.008838158597015" lon="8.388884710185806"><ele>220.0</ele><time>2026-03-29T11:20:01.998Z</time></trkpt><trkpt lat="45.00884089213851" lon="8.388745607443784"><ele>219.2</ele><time>2026-03-29T11:20:02.998Z</time></trkpt><trkpt lat="45.00885559812075" lon="8.388600539717968"><ele>218.4</ele><time>2026-03-29T11:20:03.998Z</time></trkpt><trkpt lat="45.008887033963624" lon="8.388454557890475"><ele>217.60000000000002</ele><time>2026-03-29T11:20:04.998Z</time></trkpt><trkpt lat="45.00893678223047" lon="8.388311669158968"><ele>216.8</ele><time>2026-03-29T11:20:05.998Z</time></trkpt><trkpt lat="45.008999268905875" lon="8.388173332568181"><ele>216.0</ele><time>2026-03-29T11:20:06.998Z</time></trkpt><trkpt lat="45.00906134324405" lon="8.38803370750254"><ele>215.25</ele><time>2026-03-29T11:20:07.998Z</time></trkpt><trkpt lat="45.00912861487271" lon="8.387894380883385"><ele>214.5</ele><time>2026-03-29T11:20:08.998Z</time></trkpt><trkpt lat="45.00919508845052" lon="8.387758292302655"><ele>213.75</ele><time>2026-03-29T11:20:09.998Z</time></trkpt><trkpt lat="45.00925681150819" lon="8.38762401491346"><ele>213.0</ele><time>2026-03-29T11:20:10.998Z</time></trkpt><trkpt lat="45.0093175042092" lon="8.387493637569372"><ele>213.0</ele><time>2026-03-29T11:20:11.998Z</time></trkpt><trkpt lat="45.00937482276136" lon="8.38737224577634"><ele>213.0</ele><time>2026-03-29T11:20:12.998Z</time></trkpt><trkpt lat="45.009430387266775" lon="8.387255112930863"><ele>213.0</ele><time>2026-03-29T11:20:13.998Z</time></trkpt><trkpt lat="45.009479100230415" lon="8.3871544894881"><ele>213.0</ele><time>2026-03-29T11:20:14.998Z</time></trkpt><trkpt lat="45.009520557805985" lon="8.387071893904468"><ele>213.0</ele><time>2026-03-29T11:20:15.998Z</time></trkpt><trkpt lat="45.00960066452092" lon="8.386962022173195"><ele>212.2</ele><time>2026-03-29T11:20:17.998Z</time></trkpt><trkpt lat="45.00969961717296" lon="8.386881655801293"><ele>211.4</ele><time>2026-03-29T11:20:19.998Z</time></trkpt><trkpt lat="45.009749006304475" lon="8.386736749340379"><ele>210.6</ele><time>2026-03-29T11:20:21.998Z</time></trkpt><trkpt lat="45.00969799497701" lon="8.386610602266803"><ele>209.79999999999998</ele><time>2026-03-29T11:20:23.998Z</time></trkpt><trkpt lat="45.00959270203062" lon="8.386581964659802"><ele>209.0</ele><time>2026-03-29T11:20:25.998Z</time></trkpt><trkpt lat="45.00952956175081" lon="8.386598001569942"><ele>209.0</ele><time>2026-03-29T11:20:26.998Z</time></trkpt><trkpt lat="45.00945540047979" lon="8.386594685450746"><ele>209.0</ele><time>2026-03-29T11:20:27.998Z</time></trkpt><trkpt lat="45.00937307343633" lon="8.386560689960831"><ele>209.0</ele><time>2026-03-29T11:20:28.998Z</time></trkpt><trkpt lat="45.00928813988156" lon="8.386523503352938"><ele>209.0</ele><time>2026-03-29T11:20:29.998Z</time></trkpt><trkpt lat="45.009193060997916" lon="8.386494403837744"><ele>209.0</ele><time>2026-03-29T11:20:30.998Z</time></trkpt><trkpt lat="45.00907862234395" lon="8.386488253050967"><ele>207.25</ele><time>2026-03-29T11:20:31.998Z</time></trkpt><trkpt lat="45.00894618875791" lon="8.386512155666647"><ele>205.5</ele><time>2026-03-29T11:20:32.998Z</time></trkpt><trkpt lat="45.00882649658303" lon="8.386555995187448"><ele>203.75</ele><time>2026-03-29T11:20:33.998Z</time></trkpt><trkpt lat="45.00870927838384" lon="8.386608591703878"><ele>202.0</ele><time>2026-03-29T11:20:34.998Z</time></trkpt><trkpt lat="45.00859463222678" lon="8.386662005165098"><ele>202.0</ele><time>2026-03-29T11:20:35.998Z</time></trkpt><trkpt lat="45.00848019390017" lon="8.386720545179905"><ele>202.0</ele><time>2026-03-29T11:20:36.998Z</time></trkpt><trkpt lat="45.00836426348539" lon="8.386779681173167"><ele>202.0</ele><time>2026-03-29T11:20:37.998Z</time></trkpt><trkpt lat="45.008241105761414" lon="8.386835984712922"><ele>202.0</ele><time>2026-03-29T11:20:38.998Z</time></trkpt><trkpt lat="45.00811375730353" lon="8.386894303436582"><ele>201.0</ele><time>2026-03-29T11:20:39.998Z</time></trkpt><trkpt lat="45.00798305103374" lon="8.386963330585433"><ele>200.0</ele><time>2026-03-29T11:20:40.998Z</time></trkpt><trkpt lat="45.0078486725258" lon="8.387031472718594"><ele>199.0</ele><time>2026-03-29T11:20:41.998Z</time></trkpt><trkpt lat="45.00771369262651" lon="8.387094044574784"><ele>198.0</ele><time>2026-03-29T11:20:42.998Z</time></trkpt><trkpt lat="45.00757552144124" lon="8.387155140414112"><ele>197.0</ele><time>2026-03-29T11:20:43.998Z</time></trkpt><trkpt lat="45.00744084932892" lon="8.387218539180697"><ele>196.0</ele><time>2026-03-29T11:20:44.998Z</time></trkpt><trkpt lat="45.00726685080155" lon="8.387307392417673"><ele>195.0</ele><time>2026-03-29T11:20:45.998Z</time></trkpt><trkpt lat="45.00711832735714" lon="8.387381841197373"><ele>195.0</ele><time>2026-03-29T11:20:46.998Z</time></trkpt><trkpt lat="45.006966243344415" lon="8.387455734954552"><ele>195.0</ele><time>2026-03-29T11:20:47.998Z</time></trkpt><trkpt lat="45.006811954252655" lon="8.387531544808537"><ele>195.0</ele><time>2026-03-29T11:20:48.998Z</time></trkpt><trkpt lat="45.00665402937965" lon="8.387608945996487"><ele>192.66666666666666</ele><time>2026-03-29T11:20:49.998Z</time></trkpt><trkpt lat="45.00649287370026" lon="8.387685109980852"><ele>190.33333333333331</ele><time>2026-03-29T11:20:50.998Z</time></trkpt><trkpt lat="45.00633333945854" lon="8.387759616718096"><ele>188.0</ele><time>2026-03-29T11:20:51.998Z</time></trkpt><trkpt lat="45.00617502183939" lon="8.38783783543214"><ele>188.0</ele><time>2026-03-29T11:20:52.998Z</time></trkpt><trkpt lat="45.00601543579386" lon="8.387917715622235"><ele>188.0</ele><time>2026-03-29T11:20:53.998Z</time></trkpt><trkpt lat="45.00585624701943" lon="8.38799885237754"><ele>188.0</ele><time>2026-03-29T11:20:54.998Z</time></trkpt><trkpt lat="45.00569596113273" lon="8.388079251717109"><ele>187.0</ele><time>2026-03-29T11:20:55.998Z</time></trkpt><trkpt lat="45.00553492623296" lon="8.388155081885554"><ele>186.0</ele><time>2026-03-29T11:20:56.998Z</time></trkpt><trkpt lat="45.005373873010726" lon="8.388230560401773"><ele>185.0</ele><time>2026-03-29T11:20:57.998Z</time></trkpt><trkpt lat="45.00521052721583" lon="8.388308164744975"><ele>185.0</ele><time>2026-03-29T11:20:58.998Z</time></trkpt><trkpt lat="45.00503705684162" lon="8.388396479908085"><ele>185.0</ele><time>2026-03-29T11:20:59.998Z</time></trkpt><trkpt lat="45.00487498602514" lon="8.388480384813606"><ele>185.0</ele><time>2026-03-29T11:21:00.998Z</time></trkpt><trkpt lat="45.004698429409515" lon="8.38856172267116"><ele>182.33333333333331</ele><time>2026-03-29T11:21:01.998Z</time></trkpt><trkpt lat="45.00451634602524" lon="8.388644706644147"><ele>179.66666666666666</ele><time>2026-03-29T11:21:02.999Z</time></trkpt><trkpt lat="45.004321524930354" lon="8.38869332812387"><ele>177.0</ele><time>2026-03-29T11:21:03.999Z</time></trkpt><trkpt lat="45.004116565941054" lon="8.388770078918958"><ele>175.33333333333334</ele><time>2026-03-29T11:21:04.999Z</time></trkpt><trkpt lat="45.003908925077006" lon="8.388818297540855"><ele>173.66666666666669</ele><time>2026-03-29T11:21:05.999Z</time></trkpt><trkpt lat="45.00370625084267" lon="8.388856839950833"><ele>172.0</ele><time>2026-03-29T11:21:06.999Z</time></trkpt><trkpt lat="45.00350546348317" lon="8.388885721412572"><ele>170.0</ele><time>2026-03-29T11:21:07.999Z</time></trkpt><trkpt lat="45.00330750982039" lon="8.388901715743248"><ele>168.0</ele><time>2026-03-29T11:21:08.999Z</time></trkpt><trkpt lat="45.003107356323625" lon="8.388911096064952"><ele>166.0</ele><time>2026-03-29T11:21:09.999Z</time></trkpt><trkpt lat="45.00291162584536" lon="8.388930024494215"><ele>166.0</ele><time>2026-03-29T11:21:10.999Z</time></trkpt><trkpt lat="45.00271911902233" lon="8.388953844309912"><ele>166.0</ele><time>2026-03-29T11:21:11.999Z</time></trkpt><trkpt lat="45.00252582202406" lon="8.388971968621572"><ele>166.0</ele><time>2026-03-29T11:21:12.999Z</time></trkpt><trkpt lat="45.00233438216281" lon="8.388988683723726"><ele>165.66666666666669</ele><time>2026-03-29T11:21:13.999Z</time></trkpt><trkpt lat="45.00214620454414" lon="8.38900980112629"><ele>165.33333333333334</ele><time>2026-03-29T11:21:14.999Z</time></trkpt><trkpt lat="45.00196705793162" lon="8.389026695060723"><ele>165.0</ele><time>2026-03-29T11:21:15.999Z</time></trkpt><trkpt lat="45.00179016503698" lon="8.389037808433837"><ele>164.33333333333334</ele><time>2026-03-29T11:21:16.999Z</time></trkpt><trkpt lat="45.00161709809752" lon="8.38905366477564"><ele>163.66666666666669</ele><time>2026-03-29T11:21:17.999Z</time></trkpt><trkpt lat="45.001444679231994" lon="8.389072552569813"><ele>163.0</ele><time>2026-03-29T11:21:18.999Z</time></trkpt><trkpt lat="45.00127425429684" lon="8.389089120221756"><ele>163.0</ele><time>2026-03-29T11:21:19.999Z</time></trkpt><trkpt lat="45.00109534182495" lon="8.389107835694691"><ele>163.0</ele><time>2026-03-29T11:21:20.999Z</time></trkpt><trkpt lat="45.00091730384933" lon="8.389119557198098"><ele>163.0</ele><time>2026-03-29T11:21:21.999Z</time></trkpt><trkpt lat="45.00073514267623" lon="8.389134769282334"><ele>161.66666666666669</ele><time>2026-03-29T11:21:22.999Z</time></trkpt><trkpt lat="45.00054583865826" lon="8.389146667022038"><ele>160.33333333333334</ele><time>2026-03-29T11:21:23.999Z</time></trkpt><trkpt lat="45.00036056786906" lon="8.389163027818062"><ele>159.0</ele><time>2026-03-29T11:21:24.999Z</time></trkpt><trkpt lat="45.0001832814588" lon="8.389183072760522"><ele>159.0</ele><time>2026-03-29T11:21:25.999Z</time></trkpt><trkpt lat="45.00000927789063" lon="8.389205486587189"><ele>159.0</ele><time>2026-03-29T11:21:26.999Z</time></trkpt><trkpt lat="44.999839117384944" lon="8.389232655074496"><ele>159.0</ele><time>2026-03-29T11:21:27.999Z</time></trkpt><trkpt lat="44.99966131405193" lon="8.38927402453779"><ele>159.0</ele><time>2026-03-29T11:21:28.999Z</time></trkpt><trkpt lat="44.999474871383" lon="8.389339661183055"><ele>159.0</ele><time>2026-03-29T11:21:29.999Z</time></trkpt><trkpt lat="44.99928255429392" lon="8.389424926855563"><ele>159.0</ele><time>2026-03-29T11:21:30.999Z</time></trkpt><trkpt lat="44.99908984948028" lon="8.389527133792924"><ele>158.33333333333334</ele><time>2026-03-29T11:21:31.999Z</time></trkpt><trkpt lat="44.99890371299122" lon="8.389638282273353"><ele>157.66666666666669</ele><time>2026-03-29T11:21:32.999Z</time></trkpt><trkpt lat="44.9987200981994" lon="8.389752136568887"><ele>157.0</ele><time>2026-03-29T11:21:33.999Z</time></trkpt><trkpt lat="44.99853179852683" lon="8.389860425673414"><ele>157.0</ele><time>2026-03-29T11:21:34.999Z</time></trkpt><trkpt lat="44.99833865591405" lon="8.38996822969376"><ele>157.0</ele><time>2026-03-29T11:21:35.999Z</time></trkpt><trkpt lat="44.998148056181876" lon="8.390078224762357"><ele>157.0</ele><time>2026-03-29T11:21:36.999Z</time></trkpt><trkpt lat="44.997960882871254" lon="8.390185278364955"><ele>156.33333333333334</ele><time>2026-03-29T11:21:37.999Z</time></trkpt><trkpt lat="44.99778003030613" lon="8.39028678148607"><ele>155.66666666666666</ele><time>2026-03-29T11:21:38.999Z</time></trkpt><trkpt lat="44.997603745248426" lon="8.390389044792261"><ele>155.0</ele><time>2026-03-29T11:21:39.999Z</time></trkpt><trkpt lat="44.99742848672028" lon="8.390485622085757"><ele>155.33333333333331</ele><time>2026-03-29T11:21:40.999Z</time></trkpt><trkpt lat="44.99725443380221" lon="8.39057875202348"><ele>155.66666666666666</ele><time>2026-03-29T11:21:41.999Z</time></trkpt><trkpt lat="44.99708809681333" lon="8.390670231389334"><ele>156.0</ele><time>2026-03-29T11:21:42.999Z</time></trkpt><trkpt lat="44.99692665517596" lon="8.390761599330991"><ele>156.0</ele><time>2026-03-29T11:21:43.999Z</time></trkpt><trkpt lat="44.9967594481052" lon="8.390857888670613"><ele>156.0</ele><time>2026-03-29T11:21:44.999Z</time></trkpt><trkpt lat="44.996597238168455" lon="8.390951110632866"><ele>156.0</ele><time>2026-03-29T11:21:45.999Z</time></trkpt><trkpt lat="44.996437455928834" lon="8.391041427572935"><ele>155.66666666666666</ele><time>2026-03-29T11:21:46.999Z</time></trkpt><trkpt lat="44.99628430902671" lon="8.391127331653609"><ele>155.33333333333331</ele><time>2026-03-29T11:21:47.999Z</time></trkpt><trkpt lat="44.99613366535063" lon="8.391211636813793"><ele>155.0</ele><time>2026-03-29T11:21:48.999Z</time></trkpt><trkpt lat="44.99598059632538" lon="8.391298107636286"><ele>155.0</ele><time>2026-03-29T11:21:49.999Z</time></trkpt><trkpt lat="44.995833849944" lon="8.391381885573782"><ele>155.0</ele><time>2026-03-29T11:21:50.999Z</time></trkpt><trkpt lat="44.995692936466895" lon="8.391460308437592"><ele>155.0</ele><time>2026-03-29T11:21:51.999Z</time></trkpt><trkpt lat="44.99556810322627" lon="8.39152842486909"><ele>155.0</ele><time>2026-03-29T11:21:52.998Z</time></trkpt><trkpt lat="44.995452173506074" lon="8.391579370795752"><ele>155.0</ele><time>2026-03-29T11:21:53.998Z</time></trkpt><trkpt lat="44.99534349924936" lon="8.391612852627157"><ele>155.0</ele><time>2026-03-29T11:21:54.998Z</time></trkpt><trkpt lat="44.99524009438271" lon="8.391628958912394"><ele>155.0</ele><time>2026-03-29T11:21:55.998Z</time></trkpt><trkpt lat="44.99513866818073" lon="8.39162972405621"><ele>155.0</ele><time>2026-03-29T11:21:56.998Z</time></trkpt><trkpt lat="44.99504335666189" lon="8.391608106496987"><ele>155.0</ele><time>2026-03-29T11:21:57.998Z</time></trkpt><trkpt lat="44.994951591419834" lon="8.39156460569565"><ele>154.83333333333331</ele><time>2026-03-29T11:21:58.998Z</time></trkpt><trkpt lat="44.99486736573396" lon="8.391499583657323"><ele>154.66666666666666</ele><time>2026-03-29T11:21:59.998Z</time></trkpt><trkpt lat="44.99479611913975" lon="8.391417332231615"><ele>154.5</ele><time>2026-03-29T11:22:00.998Z</time></trkpt><trkpt lat="44.99472519020428" lon="8.391341162651694"><ele>154.33333333333334</ele><time>2026-03-29T11:22:01.998Z</time></trkpt><trkpt lat="44.99465238045213" lon="8.391299902868155"><ele>154.16666666666669</ele><time>2026-03-29T11:22:02.998Z</time></trkpt><trkpt lat="44.994587488744735" lon="8.39131009620788"><ele>154.0</ele><time>2026-03-29T11:22:03.998Z</time></trkpt><trkpt lat="44.99452737662607" lon="8.391355088082385"><ele>154.0</ele><time>2026-03-29T11:22:04.998Z</time></trkpt><trkpt lat="44.99447845842732" lon="8.391424829945969"><ele>154.0</ele><time>2026-03-29T11:22:05.998Z</time></trkpt><trkpt lat="44.99443717088413" lon="8.391509667963168"><ele>154.0</ele><time>2026-03-29T11:22:06.998Z</time></trkpt><trkpt lat="44.99440656776297" lon="8.391611129140259"><ele>154.0</ele><time>2026-03-29T11:22:07.998Z</time></trkpt><trkpt lat="44.99437727333925" lon="8.39172883785214"><ele>154.0</ele><time>2026-03-29T11:22:08.998Z</time></trkpt><trkpt lat="44.99434130679882" lon="8.391856337916812"><ele>154.0</ele><time>2026-03-29T11:22:09.998Z</time></trkpt><trkpt lat="44.99428399660245" lon="8.39198313470312"><ele>154.0</ele><time>2026-03-29T11:22:10.998Z</time></trkpt><trkpt lat="44.994208293536516" lon="8.392110923344932"><ele>154.0</ele><time>2026-03-29T11:22:11.998Z</time></trkpt><trkpt lat="44.99412553483851" lon="8.39224936426305"><ele>154.0</ele><time>2026-03-29T11:22:12.998Z</time></trkpt><trkpt lat="44.99405762965738" lon="8.392393481656168"><ele>154.0</ele><time>2026-03-29T11:22:13.998Z</time></trkpt><trkpt lat="44.99400126413814" lon="8.392549772774794"><ele>153.25</ele><time>2026-03-29T11:22:14.998Z</time></trkpt><trkpt lat="44.9939550627118" lon="8.392728391465191"><ele>152.5</ele><time>2026-03-29T11:22:15.998Z</time></trkpt><trkpt lat="44.99391333975644" lon="8.392917385442916"><ele>151.75</ele><time>2026-03-29T11:22:16.998Z</time></trkpt><trkpt lat="44.99386814269454" lon="8.393121121882531"><ele>151.0</ele><time>2026-03-29T11:22:17.998Z</time></trkpt><trkpt lat="44.993817631231906" lon="8.393330459973683"><ele>150.66666666666669</ele><time>2026-03-29T11:22:18.998Z</time></trkpt><trkpt lat="44.993765875479525" lon="8.39355529790635"><ele>150.33333333333334</ele><time>2026-03-29T11:22:19.998Z</time></trkpt><trkpt lat="44.993703685870244" lon="8.393815265781553"><ele>150.0</ele><time>2026-03-29T11:22:20.998Z</time></trkpt><trkpt lat="44.993641794433195" lon="8.394073642446799"><ele>150.0</ele><time>2026-03-29T11:22:21.998Z</time></trkpt><trkpt lat="44.993581386597015" lon="8.394317865344231"><ele>150.0</ele><time>2026-03-29T11:22:22.998Z</time></trkpt><trkpt lat="44.99352157728355" lon="8.394556864650287"><ele>150.0</ele><time>2026-03-29T11:22:23.998Z</time></trkpt><trkpt lat="44.99346240674515" lon="8.39479889009674"><ele>150.0</ele><time>2026-03-29T11:22:24.998Z</time></trkpt><trkpt lat="44.99340596078675" lon="8.395034903784984"><ele>150.0</ele><time>2026-03-29T11:22:25.998Z</time></trkpt><trkpt lat="44.99335251581894" lon="8.395264585431072"><ele>150.0</ele><time>2026-03-29T11:22:26.998Z</time></trkpt><trkpt lat="44.99329694431769" lon="8.395497519799314"><ele>150.0</ele><time>2026-03-29T11:22:27.998Z</time></trkpt><trkpt lat="44.993238914496985" lon="8.395726575778017"><ele>150.0</ele><time>2026-03-29T11:22:28.998Z</time></trkpt><trkpt lat="44.99318280963358" lon="8.395958392068428"><ele>150.0</ele><time>2026-03-29T11:22:29.998Z</time></trkpt><trkpt lat="44.99312995650772" lon="8.396182554169567"><ele>150.0</ele><time>2026-03-29T11:22:30.998Z</time></trkpt><trkpt lat="44.99307310546915" lon="8.396407559896065"><ele>150.0</ele><time>2026-03-29T11:22:31.998Z</time></trkpt><trkpt lat="44.993015592440315" lon="8.396631857310668"><ele>150.0</ele><time>2026-03-29T11:22:32.998Z</time></trkpt><trkpt lat="44.99295957634705" lon="8.396861596423982"><ele>150.0</ele><time>2026-03-29T11:22:33.998Z</time></trkpt><trkpt lat="44.9929044658158" lon="8.39709342793112"><ele>150.0</ele><time>2026-03-29T11:22:34.998Z</time></trkpt><trkpt lat="44.992848138019994" lon="8.397326428583495"><ele>150.0</ele><time>2026-03-29T11:22:35.998Z</time></trkpt><trkpt lat="44.992790782252" lon="8.397554122195212"><ele>149.66666666666666</ele><time>2026-03-29T11:22:36.998Z</time></trkpt><trkpt lat="44.99273421910449" lon="8.397783344742562"><ele>149.33333333333331</ele><time>2026-03-29T11:22:37.998Z</time></trkpt><trkpt lat="44.99267855323743" lon="8.398022272817077"><ele>149.0</ele><time>2026-03-29T11:22:38.998Z</time></trkpt><trkpt lat="44.99262094379986" lon="8.398270542085912"><ele>149.0</ele><time>2026-03-29T11:22:39.998Z</time></trkpt><trkpt lat="44.99256086280814" lon="8.398525580354613"><ele>149.0</ele><time>2026-03-29T11:22:40.998Z</time></trkpt><trkpt lat="44.99249484673419" lon="8.398790734283708"><ele>149.0</ele><time>2026-03-29T11:22:41.998Z</time></trkpt><trkpt lat="44.99242201923338" lon="8.399071660037153"><ele>149.0</ele><time>2026-03-29T11:22:42.998Z</time></trkpt><trkpt lat="44.99234969415405" lon="8.399362391051877"><ele>149.0</ele><time>2026-03-29T11:22:43.998Z</time></trkpt><trkpt lat="44.99228124627618" lon="8.399650003703137"><ele>149.0</ele><time>2026-03-29T11:22:44.998Z</time></trkpt><trkpt lat="44.9922122606837" lon="8.399931463735747"><ele>148.66666666666666</ele><time>2026-03-29T11:22:45.998Z</time></trkpt><trkpt lat="44.99214380043116" lon="8.40020102328724"><ele>148.33333333333334</ele><time>2026-03-29T11:22:46.998Z</time></trkpt><trkpt lat="44.992079514251685" lon="8.400461738432421"><ele>148.0</ele><time>2026-03-29T11:22:47.998Z</time></trkpt><trkpt lat="44.9920166779204" lon="8.400720588143802"><ele>147.66666666666669</ele><time>2026-03-29T11:22:48.998Z</time></trkpt><trkpt lat="44.99195506742908" lon="8.400973730998134"><ele>147.33333333333334</ele><time>2026-03-29T11:22:49.998Z</time></trkpt><trkpt lat="44.991896375937905" lon="8.401215023172993"><ele>147.0</ele><time>2026-03-29T11:22:50.998Z</time></trkpt><trkpt lat="44.99183920083355" lon="8.401444647423224"><ele>146.66666666666666</ele><time>2026-03-29T11:22:51.998Z</time></trkpt><trkpt lat="44.991781789416024" lon="8.401670899311167"><ele>146.33333333333331</ele><time>2026-03-29T11:22:52.998Z</time></trkpt><trkpt lat="44.99172598642341" lon="8.401889100184354"><ele>146.0</ele><time>2026-03-29T11:22:53.998Z</time></trkpt><trkpt lat="44.99166272437295" lon="8.402101526709966"><ele>146.0</ele><time>2026-03-29T11:22:54.998Z</time></trkpt><trkpt lat="44.991586212781336" lon="8.402313391544235"><ele>146.0</ele><time>2026-03-29T11:22:55.998Z</time></trkpt><trkpt lat="44.99149500172236" lon="8.402519912430925"><ele>146.0</ele><time>2026-03-29T11:22:56.998Z</time></trkpt><trkpt lat="44.99139612357592" lon="8.402699210802483"><ele>146.0</ele><time>2026-03-29T11:22:57.998Z</time></trkpt><trkpt lat="44.991288845222996" lon="8.402859690130047"><ele>146.0</ele><time>2026-03-29T11:22:58.998Z</time></trkpt><trkpt lat="44.99116871155016" lon="8.403008590390757"><ele>146.0</ele><time>2026-03-29T11:22:59.999Z</time></trkpt><trkpt lat="44.99104238436461" lon="8.403130444222368"><ele>146.0</ele><time>2026-03-29T11:23:00.999Z</time></trkpt><trkpt lat="44.99091046020294" lon="8.403233965574922"><ele>146.0</ele><time>2026-03-29T11:23:01.999Z</time></trkpt><trkpt lat="44.990777929245226" lon="8.403329775330883"><ele>146.0</ele><time>2026-03-29T11:23:02.999Z</time></trkpt><trkpt lat="44.990641689547815" lon="8.403419525292684"><ele>146.66666666666666</ele><time>2026-03-29T11:23:03.999Z</time></trkpt><trkpt lat="44.99050114211582" lon="8.403494689934282"><ele>147.33333333333334</ele><time>2026-03-29T11:23:04.999Z</time></trkpt><trkpt lat="44.990354911040875" lon="8.403555757223751"><ele>148.0</ele><time>2026-03-29T11:23:05.999Z</time></trkpt><trkpt lat="44.99020700675401" lon="8.403623872086573"><ele>148.0</ele><time>2026-03-29T11:23:06.999Z</time></trkpt><trkpt lat="44.990055180357096" lon="8.40369865759941"><ele>148.0</ele><time>2026-03-29T11:23:07.999Z</time></trkpt><trkpt lat="44.98990126609091" lon="8.403778961393913"><ele>148.0</ele><time>2026-03-29T11:23:08.999Z</time></trkpt><trkpt lat="44.9897430966086" lon="8.403862801959706"><ele>148.0</ele><time>2026-03-29T11:23:09.999Z</time></trkpt><trkpt lat="44.989583090767816" lon="8.403946645776657"><ele>148.0</ele><time>2026-03-29T11:23:10.999Z</time></trkpt><trkpt lat="44.98942038647655" lon="8.404033288742996"><ele>148.0</ele><time>2026-03-29T11:23:11.999Z</time></trkpt><trkpt lat="44.989253172427766" lon="8.404124842196024"><ele>149.33333333333334</ele><time>2026-03-29T11:23:12.999Z</time></trkpt><trkpt lat="44.9890747025606" lon="8.404213602095554"><ele>150.66666666666666</ele><time>2026-03-29T11:23:13.999Z</time></trkpt><trkpt lat="44.98888884332542" lon="8.404305110531212"><ele>152.0</ele><time>2026-03-29T11:23:14.999Z</time></trkpt><trkpt lat="44.988698536262305" lon="8.404402389112745"><ele>152.0</ele><time>2026-03-29T11:23:15.999Z</time></trkpt><trkpt lat="44.98849442313907" lon="8.404506657693547"><ele>152.0</ele><time>2026-03-29T11:23:16.999Z</time></trkpt><trkpt lat="44.98827340265035" lon="8.404615107764887"><ele>150.0</ele><time>2026-03-29T11:23:17.999Z</time></trkpt><trkpt lat="44.988042598935515" lon="8.404717996635213"><ele>148.0</ele><time>2026-03-29T11:23:18.999Z</time></trkpt><trkpt lat="44.98780463133724" lon="8.404809223453912"><ele>148.0</ele><time>2026-03-29T11:23:19.999Z</time></trkpt><trkpt lat="44.98758678521609" lon="8.404874424318146"><ele>148.0</ele><time>2026-03-29T11:23:20.999Z</time></trkpt><trkpt lat="44.98738815948834" lon="8.404918930890068"><ele>148.0</ele><time>2026-03-29T11:23:21.999Z</time></trkpt><trkpt lat="44.987203429168765" lon="8.404943046138433"><ele>149.66666666666669</ele><time>2026-03-29T11:23:22.999Z</time></trkpt><trkpt lat="44.98702183664741" lon="8.404958475257658"><ele>151.33333333333334</ele><time>2026-03-29T11:23:23.999Z</time></trkpt><trkpt lat="44.986857370213166" lon="8.404972054666082"><ele>153.0</ele><time>2026-03-29T11:23:24.999Z</time></trkpt><trkpt lat="44.98669613614139" lon="8.404985621224894"><ele>154.33333333333334</ele><time>2026-03-29T11:23:25.999Z</time></trkpt><trkpt lat="44.98654344903329" lon="8.404997362205796"><ele>155.66666666666669</ele><time>2026-03-29T11:23:26.999Z</time></trkpt><trkpt lat="44.98639549707588" lon="8.405012603325277"><ele>157.0</ele><time>2026-03-29T11:23:27.999Z</time></trkpt><trkpt lat="44.98624682967152" lon="8.405027484325144"><ele>157.0</ele><time>2026-03-29T11:23:28.999Z</time></trkpt><trkpt lat="44.986096893485474" lon="8.405041720785194"><ele>157.0</ele><time>2026-03-29T11:23:29.999Z</time></trkpt><trkpt lat="44.98595313666212" lon="8.405050247551511"><ele>157.0</ele><time>2026-03-29T11:23:30.999Z</time></trkpt><trkpt lat="44.98581596805008" lon="8.405057330997758"><ele>157.0</ele><time>2026-03-29T11:23:31.999Z</time></trkpt><trkpt lat="44.98567775454572" lon="8.405067181249128"><ele>158.0</ele><time>2026-03-29T11:23:32.999Z</time></trkpt><trkpt lat="44.985540140758566" lon="8.405081448309582"><ele>159.0</ele><time>2026-03-29T11:23:33.999Z</time></trkpt><trkpt lat="44.985402315808" lon="8.40509524859059"><ele>160.0</ele><time>2026-03-29T11:23:34.999Z</time></trkpt><trkpt lat="44.985264734334926" lon="8.40511284580582"><ele>161.0</ele><time>2026-03-29T11:23:35.999Z</time></trkpt><trkpt lat="44.98512589907861" lon="8.405144833362321"><ele>160.75</ele><time>2026-03-29T11:23:36.999Z</time></trkpt><trkpt lat="44.984991042264" lon="8.40519808572436"><ele>160.5</ele><time>2026-03-29T11:23:37.999Z</time></trkpt><trkpt lat="44.984864950088756" lon="8.40528233332446"><ele>160.25</ele><time>2026-03-29T11:23:38.999Z</time></trkpt><trkpt lat="44.984749056686915" lon="8.40540397379378"><ele>160.0</ele><time>2026-03-29T11:23:39.999Z</time></trkpt><trkpt lat="44.9846439346605" lon="8.405551717189548"><ele>160.0</ele><time>2026-03-29T11:23:40.999Z</time></trkpt><trkpt lat="44.9845471906445" lon="8.405703085660843"><ele>160.0</ele><time>2026-03-29T11:23:41.999Z</time></trkpt><trkpt lat="44.98446688335555" lon="8.405873505653291"><ele>160.0</ele><time>2026-03-29T11:23:42.999Z</time></trkpt><trkpt lat="44.984425122470974" lon="8.40607663030619"><ele>160.0</ele><time>2026-03-29T11:23:43.999Z</time></trkpt><trkpt lat="44.984363294726" lon="8.406270985639985"><ele>159.5</ele><time>2026-03-29T11:23:44.999Z</time></trkpt><trkpt lat="44.98430262157274" lon="8.406442806944918"><ele>159.0</ele><time>2026-03-29T11:23:45.999Z</time></trkpt><trkpt lat="44.98424335371572" lon="8.406595212715084"><ele>158.5</ele><time>2026-03-29T11:23:46.999Z</time></trkpt><trkpt lat="44.984193237465206" lon="8.406731932201515"><ele>158.0</ele><time>2026-03-29T11:23:47.999Z</time></trkpt><trkpt lat="44.98414455241116" lon="8.406855902468005"><ele>160.0</ele><time>2026-03-29T11:23:48.999Z</time></trkpt><trkpt lat="44.98409848621237" lon="8.406972762432343"><ele>162.0</ele><time>2026-03-29T11:23:49.999Z</time></trkpt><trkpt lat="44.98405461699579" lon="8.407081845922407"><ele>164.0</ele><time>2026-03-29T11:23:50.999Z</time></trkpt><trkpt lat="44.984013530946164" lon="8.407185078388945"><ele>166.0</ele><time>2026-03-29T11:23:51.999Z</time></trkpt><trkpt lat="44.98397377983795" lon="8.407283597852844"><ele>168.0</ele><time>2026-03-29T11:23:52.999Z</time></trkpt><trkpt lat="44.983929818014154" lon="8.4073884398286"><ele>170.0</ele><time>2026-03-29T11:23:53.999Z</time></trkpt><trkpt lat="44.98388279120968" lon="8.407485629064334"><ele>170.42857142857144</ele><time>2026-03-29T11:23:54.999Z</time></trkpt><trkpt lat="44.98383421092113" lon="8.407574734761122"><ele>170.85714285714283</ele><time>2026-03-29T11:23:55.999Z</time></trkpt><trkpt lat="44.98378113097212" lon="8.407656434140119"><ele>171.28571428571428</ele><time>2026-03-29T11:23:56.999Z</time></trkpt><trkpt lat="44.98372691048147" lon="8.40772297883101"><ele>171.71428571428572</ele><time>2026-03-29T11:23:57.999Z</time></trkpt><trkpt lat="44.983673227652076" lon="8.40777698421431"><ele>172.14285714285717</ele><time>2026-03-29T11:23:58.999Z</time></trkpt><trkpt lat="44.98361778214355" lon="8.407825201460122"><ele>172.57142857142856</ele><time>2026-03-29T11:23:59.999Z</time></trkpt><trkpt lat="44.98355918202125" lon="8.407873279302859"><ele>173.0</ele><time>2026-03-29T11:24:00.999Z</time></trkpt><trkpt lat="44.98350029795439" lon="8.407918439374006"><ele>173.0</ele><time>2026-03-29T11:24:01.999Z</time></trkpt><trkpt lat="44.98339240766389" lon="8.407990414805344"><ele>173.0</ele><time>2026-03-29T11:24:03.999Z</time></trkpt><trkpt lat="44.9833162999873" lon="8.40803537132241"><ele>173.0</ele><time>2026-03-29T11:24:06.999Z</time></trkpt><trkpt lat="44.98325084770847" lon="8.408057413101428"><ele>173.0</ele><time>2026-03-29T11:24:35.998Z</time></trkpt><trkpt lat="44.983271732282056" lon="8.408142662255269"><ele>173.0</ele><time>2026-03-29T11:27:43.999Z</time></trkpt><trkpt lat="44.98324123752495" lon="8.408058846609585"><ele>173.0</ele><time>2026-03-29T11:30:09Z</time></trkpt><trkpt lat="44.98319768780777" lon="8.407992755383328"><ele>173.4</ele><time>2026-03-29T11:30:38.999Z</time></trkpt><trkpt lat="44.98326175423506" lon="8.408015235074481"><ele>173.8</ele><time>2026-03-29T11:30:56.999Z</time></trkpt><trkpt lat="44.98326609720294" lon="8.408158843403436"><ele>174.2</ele><time>2026-03-29T11:31:10.999Z</time></trkpt><trkpt lat="44.98329949661117" lon="8.408298711892614"><ele>174.6</ele><time>2026-03-29T11:31:13.999Z</time></trkpt><trkpt lat="44.98327323581339" lon="8.408187358667606"><ele>175.0</ele><time>2026-03-29T11:51:04Z</time></trkpt><trkpt lat="44.98301795804761" lon="8.407833725871452"><ele>175.0</ele><time>2026-03-29T11:51:13Z</time></trkpt></trkseg><trkseg><trkpt lat="44.98361363034922" lon="8.407998497721275"><ele>181.0</ele><time>2026-03-29T12:55:11.998Z</time></trkpt><trkpt lat="44.98354601221938" lon="8.408058389227667"><ele>181.0</ele><time>2026-03-29T12:55:20.999Z</time></trkpt><trkpt lat="44.98340589117682" lon="8.408153841207444"><ele>181.0</ele><time>2026-03-29T12:55:22.999Z</time></trkpt><trkpt lat="44.98334738546891" lon="8.408192117220429"><ele>181.0</ele><time>2026-03-29T12:55:29.999Z</time></trkpt><trkpt lat="44.98327785377872" lon="8.408243530066619"><ele>181.0</ele><time>2026-03-29T12:55:31.999Z</time></trkpt><trkpt lat="44.98319503510736" lon="8.408301902990083"><ele>180.25</ele><time>2026-03-29T12:55:39.999Z</time></trkpt><trkpt lat="44.98312525437904" lon="8.408349714888466"><ele>179.5</ele><time>2026-03-29T12:56:03.999Z</time></trkpt><trkpt lat="44.98303897398023" lon="8.408413564564407"><ele>178.75</ele><time>2026-03-29T12:56:09.999Z</time></trkpt><trkpt lat="44.983254728999384" lon="8.408254971140483"><ele>178.0</ele><time>2026-03-29T12:56:24.999Z</time></trkpt><trkpt lat="44.983167541802814" lon="8.408333423709557"><ele>178.0</ele><time>2026-03-29T12:56:41.999Z</time></trkpt><trkpt lat="44.98308326468126" lon="8.408385127547291"><ele>178.0</ele><time>2026-03-29T12:56:44.999Z</time></trkpt><trkpt lat="44.98313807513666" lon="8.408333249111456"><ele>178.0</ele><time>2026-03-29T12:56:51.998Z</time></trkpt><trkpt lat="44.98321204741934" lon="8.408269929827881"><ele>178.0</ele><time>2026-03-29T12:56:54.998Z</time></trkpt></trkseg><trkseg><trkpt lat="44.98322897546724" lon="8.408135854697688"><ele>177.99999999999997</ele><time>2026-03-29T13:16:47.999Z</time></trkpt><trkpt lat="44.9831496169143" lon="8.408111647869141"><ele>178.0</ele><time>2026-03-29T13:16:49.999Z</time></trkpt><trkpt lat="44.983087728133135" lon="8.408129531788589"><ele>178.0</ele><time>2026-03-29T13:16:50.999Z</time></trkpt><trkpt lat="44.98302145414976" lon="8.408162786275543"><ele>178.0</ele><time>2026-03-29T13:16:51.999Z</time></trkpt><trkpt lat="44.982947411383975" lon="8.408213223055608"><ele>178.0</ele><time>2026-03-29T13:16:52.999Z</time></trkpt><trkpt lat="44.98287398428729" lon="8.408247675260167"><ele>177.99999999999997</ele><time>2026-03-29T13:16:53.999Z</time></trkpt><trkpt lat="44.982811316701856" lon="8.408282749521062"><ele>178.0</ele><time>2026-03-29T13:16:54.999Z</time></trkpt><trkpt lat="44.98274995176229" lon="8.40830957451389"><ele>178.0</ele><time>2026-03-29T13:16:55.999Z</time></trkpt><trkpt lat="44.9826877652639" lon="8.408337736402641"><ele>178.0</ele><time>2026-03-29T13:16:56.999Z</time></trkpt><trkpt lat="44.98262415049481" lon="8.408366280090402"><ele>178.0</ele><time>2026-03-29T13:16:57.999Z</time></trkpt><trkpt lat="44.98251426617565" lon="8.408423369825362"><ele>178.0</ele><time>2026-03-29T13:16:59.999Z</time></trkpt><trkpt lat="44.98241194196068" lon="8.408467080930505"><ele>178.0</ele><time>2026-03-29T13:17:01.999Z</time></trkpt><trkpt lat="44.98234003664758" lon="8.408474157653517"><ele>178.0</ele><time>2026-03-29T13:17:03.999Z</time></trkpt><trkpt lat="44.982270562757066" lon="8.408482893946557"><ele>177.8</ele><time>2026-03-29T13:17:07.999Z</time></trkpt><trkpt lat="44.9821987990696" lon="8.408576729352996"><ele>177.60000000000002</ele><time>2026-03-29T13:19:00.999Z</time></trkpt><trkpt lat="44.982077099082126" lon="8.408645938315784"><ele>177.39999999999998</ele><time>2026-03-29T13:19:02.999Z</time></trkpt><trkpt lat="44.982013824483516" lon="8.408687639060354"><ele>177.2</ele><time>2026-03-29T13:19:03.999Z</time></trkpt><trkpt lat="44.98194495753396" lon="8.40873303068672"><ele>177.0</ele><time>2026-03-29T13:19:04.999Z</time></trkpt><trkpt lat="44.98185954601415" lon="8.408761552517813"><ele>177.0</ele><time>2026-03-29T13:19:05.999Z</time></trkpt><trkpt lat="44.98175431537977" lon="8.408813815407132"><ele>177.0</ele><time>2026-03-29T13:19:06.999Z</time></trkpt><trkpt lat="44.98162801272187" lon="8.408876543707748"><ele>177.0</ele><time>2026-03-29T13:19:07.999Z</time></trkpt><trkpt lat="44.981515551048865" lon="8.408932397907702"><ele>177.0</ele><time>2026-03-29T13:19:08.999Z</time></trkpt><trkpt lat="44.98141354955019" lon="8.40899738166522"><ele>176.6</ele><time>2026-03-29T13:19:09.999Z</time></trkpt><trkpt lat="44.98130962612995" lon="8.409041135525754"><ele>176.2</ele><time>2026-03-29T13:19:10.999Z</time></trkpt><trkpt lat="44.98120285335081" lon="8.409090358975044"><ele>175.8</ele><time>2026-03-29T13:19:11.999Z</time></trkpt><trkpt lat="44.98109630532466" lon="8.409142247759224"><ele>175.4</ele><time>2026-03-29T13:19:12.999Z</time></trkpt><trkpt lat="44.98099606142885" lon="8.409193238556794"><ele>175.0</ele><time>2026-03-29T13:19:13.999Z</time></trkpt><trkpt lat="44.980903790749075" lon="8.409238357841302"><ele>174.6</ele><time>2026-03-29T13:19:14.999Z</time></trkpt><trkpt lat="44.980810632863474" lon="8.409282129947146"><ele>174.2</ele><time>2026-03-29T13:19:15.999Z</time></trkpt><trkpt lat="44.9807152327567" lon="8.409330350293823"><ele>173.8</ele><time>2026-03-29T13:19:16.999Z</time></trkpt><trkpt lat="44.98061504526087" lon="8.409378185589459"><ele>173.4</ele><time>2026-03-29T13:19:17.999Z</time></trkpt><trkpt lat="44.98051872869818" lon="8.40943048109669"><ele>173.0</ele><time>2026-03-29T13:19:18.999Z</time></trkpt><trkpt lat="44.9804207793755" lon="8.409484996911514"><ele>173.0</ele><time>2026-03-29T13:19:19.999Z</time></trkpt><trkpt lat="44.98032756525457" lon="8.409538699020985"><ele>173.0</ele><time>2026-03-29T13:19:20.999Z</time></trkpt><trkpt lat="44.98023218312574" lon="8.409599513953081"><ele>173.0</ele><time>2026-03-29T13:19:21.999Z</time></trkpt><trkpt lat="44.98013896539984" lon="8.40966652709091"><ele>173.0</ele><time>2026-03-29T13:19:22.999Z</time></trkpt><trkpt lat="44.98004884716206" lon="8.409740887397042"><ele>173.0</ele><time>2026-03-29T13:19:23.999Z</time></trkpt><trkpt lat="44.97996364561553" lon="8.409830059652553"><ele>172.4</ele><time>2026-03-29T13:19:24.999Z</time></trkpt><trkpt lat="44.97988443150871" lon="8.409931392954755"><ele>171.8</ele><time>2026-03-29T13:19:25.999Z</time></trkpt><trkpt lat="44.97980668379523" lon="8.410041679658347"><ele>171.2</ele><time>2026-03-29T13:19:26.999Z</time></trkpt><trkpt lat="44.97973147852845" lon="8.41015363448564"><ele>170.6</ele><time>2026-03-29T13:19:27.999Z</time></trkpt><trkpt lat="44.97966013555719" lon="8.41026572618752"><ele>170.0</ele><time>2026-03-29T13:19:28.999Z</time></trkpt><trkpt lat="44.97959094789276" lon="8.410376731199069"><ele>170.0</ele><time>2026-03-29T13:19:29.999Z</time></trkpt><trkpt lat="44.979522332439224" lon="8.41048663960762"><ele>170.0</ele><time>2026-03-29T13:19:30.999Z</time></trkpt><trkpt lat="44.97939332317926" lon="8.410688709507363"><ele>170.0</ele><time>2026-03-29T13:19:32.999Z</time></trkpt><trkpt lat="44.979336925768486" lon="8.410779497718494"><ele>170.0</ele><time>2026-03-29T13:19:33.999Z</time></trkpt><trkpt lat="44.97928584707918" lon="8.410863603225968"><ele>170.2</ele><time>2026-03-29T13:19:34.999Z</time></trkpt><trkpt lat="44.979217493441176" lon="8.410979371830402"><ele>170.4</ele><time>2026-03-29T13:19:36.999Z</time></trkpt><trkpt lat="44.97917150436497" lon="8.411053080041668"><ele>170.60000000000002</ele><time>2026-03-29T13:19:38.999Z</time></trkpt><trkpt lat="44.9792059534892" lon="8.411209313534837"><ele>170.8</ele><time>2026-03-29T13:19:42.999Z</time></trkpt><trkpt lat="44.97920197702396" lon="8.411027693916019"><ele>171.0</ele><time>2026-03-29T13:19:43.999Z</time></trkpt><trkpt lat="44.97919388834349" lon="8.411162583597598"><ele>171.0</ele><time>2026-03-29T13:19:46.999Z</time></trkpt><trkpt lat="44.97925329820771" lon="8.410930459811897"><ele>171.0</ele><time>2026-03-29T13:19:51.999Z</time></trkpt><trkpt lat="44.979379561195294" lon="8.410786464763895"><ele>171.0</ele><time>2026-03-29T13:19:55.999Z</time></trkpt><trkpt lat="44.979421885983726" lon="8.410704378561329"><ele>171.0</ele><time>2026-03-29T13:19:56.999Z</time></trkpt><trkpt lat="44.979468642746035" lon="8.410617297966045"><ele>171.0</ele><time>2026-03-29T13:19:57.999Z</time></trkpt><trkpt lat="44.97952685529715" lon="8.410521351395094"><ele>171.0</ele><time>2026-03-29T13:19:58.999Z</time></trkpt><trkpt lat="44.979594681522705" lon="8.41042102555584"><ele>171.0</ele><time>2026-03-29T13:19:59.999Z</time></trkpt><trkpt lat="44.979674426784314" lon="8.41030782331451"><ele>171.0</ele><time>2026-03-29T13:20:00.999Z</time></trkpt><trkpt lat="44.97975315719254" lon="8.41018849030608"><ele>171.0</ele><time>2026-03-29T13:20:01.999Z</time></trkpt><trkpt lat="44.97982402629872" lon="8.410075309581435"><ele>170.8</ele><time>2026-03-29T13:20:02.999Z</time></trkpt><trkpt lat="44.97989531172832" lon="8.409970841367974"><ele>170.60000000000002</ele><time>2026-03-29T13:20:03.999Z</time></trkpt><trkpt lat="44.979971279989975" lon="8.409872122496578"><ele>170.4</ele><time>2026-03-29T13:20:04.999Z</time></trkpt><trkpt lat="44.980059627003314" lon="8.409780558725657"><ele>170.2</ele><time>2026-03-29T13:20:05.999Z</time></trkpt><trkpt lat="44.980156232839384" lon="8.409700685774657"><ele>170.0</ele><time>2026-03-29T13:20:06.999Z</time></trkpt><trkpt lat="44.98025576662444" lon="8.409627541530785"><ele>170.75</ele><time>2026-03-29T13:20:07.999Z</time></trkpt><trkpt lat="44.98035866859441" lon="8.40956129324087"><ele>171.5</ele><time>2026-03-29T13:20:08.999Z</time></trkpt><trkpt lat="44.980465126785695" lon="8.409502459642892"><ele>172.25</ele><time>2026-03-29T13:20:09.999Z</time></trkpt><trkpt lat="44.98057420648775" lon="8.409447309862006"><ele>173.0</ele><time>2026-03-29T13:20:10.999Z</time></trkpt><trkpt lat="44.98068665395599" lon="8.40939363231771"><ele>173.0</ele><time>2026-03-29T13:20:11.999Z</time></trkpt><trkpt lat="44.98081188485274" lon="8.409332947543776"><ele>173.0</ele><time>2026-03-29T13:20:12.999Z</time></trkpt><trkpt lat="44.980938851540465" lon="8.409266988343449"><ele>173.0</ele><time>2026-03-29T13:20:13.999Z</time></trkpt><trkpt lat="44.98107359599348" lon="8.40919602754237"><ele>173.0</ele><time>2026-03-29T13:20:14.999Z</time></trkpt><trkpt lat="44.981211883195165" lon="8.409123946459177"><ele>173.5</ele><time>2026-03-29T13:20:15.999Z</time></trkpt><trkpt lat="44.98135557481553" lon="8.40905230344365"><ele>174.0</ele><time>2026-03-29T13:20:16.999Z</time></trkpt><trkpt lat="44.981493067437555" lon="8.408983856048582"><ele>174.5</ele><time>2026-03-29T13:20:17.999Z</time></trkpt><trkpt lat="44.981622516999074" lon="8.408917089162788"><ele>175.0</ele><time>2026-03-29T13:20:18.999Z</time></trkpt><trkpt lat="44.98175155479924" lon="8.408848682325758"><ele>175.5</ele><time>2026-03-29T13:20:19.999Z</time></trkpt><trkpt lat="44.98187781842988" lon="8.408785169983899"><ele>176.0</ele><time>2026-03-29T13:20:20.999Z</time></trkpt><trkpt lat="44.98200207177178" lon="8.40872549471515"><ele>176.5</ele><time>2026-03-29T13:20:21.999Z</time></trkpt><trkpt lat="44.98212217290984" lon="8.408664169608523"><ele>177.0</ele><time>2026-03-29T13:20:22.999Z</time></trkpt><trkpt lat="44.982239112500196" lon="8.408604967584129"><ele>177.0</ele><time>2026-03-29T13:20:23.999Z</time></trkpt><trkpt lat="44.982353401801504" lon="8.408545711676618"><ele>177.0</ele><time>2026-03-29T13:20:24.999Z</time></trkpt><trkpt lat="44.9824707085097" lon="8.408485691472928"><ele>177.0</ele><time>2026-03-29T13:20:25.999Z</time></trkpt><trkpt lat="44.98258280256671" lon="8.408430512135267"><ele>177.0</ele><time>2026-03-29T13:20:26.999Z</time></trkpt><trkpt lat="44.98269734336478" lon="8.408374664001085"><ele>177.25</ele><time>2026-03-29T13:20:27.999Z</time></trkpt><trkpt lat="44.982808922465765" lon="8.408315503325158"><ele>177.5</ele><time>2026-03-29T13:20:28.999Z</time></trkpt><trkpt lat="44.98291673202719" lon="8.408254956474075"><ele>177.75</ele><time>2026-03-29T13:20:29.999Z</time></trkpt><trkpt lat="44.98303242642402" lon="8.408218482890504"><ele>178.0</ele><time>2026-03-29T13:20:30.999Z</time></trkpt><trkpt lat="44.98314164894002" lon="8.408163082750553"><ele>178.0</ele><time>2026-03-29T13:20:31.999Z</time></trkpt><trkpt lat="44.98324434468792" lon="8.408088494536281"><ele>178.0</ele><time>2026-03-29T13:20:32.999Z</time></trkpt><trkpt lat="44.98335388609381" lon="8.408030139198194"><ele>178.0</ele><time>2026-03-29T13:20:33.999Z</time></trkpt><trkpt lat="44.983470599112046" lon="8.40798493805179"><ele>178.0</ele><time>2026-03-29T13:20:34.999Z</time></trkpt><trkpt lat="44.98358219198819" lon="8.40790519705539"><ele>176.75</ele><time>2026-03-29T13:20:35.999Z</time></trkpt><trkpt lat="44.98368876967739" lon="8.407807542549806"><ele>175.5</ele><time>2026-03-29T13:20:36.999Z</time></trkpt><trkpt lat="44.98378169764108" lon="8.407698384852951"><ele>174.25</ele><time>2026-03-29T13:20:37.999Z</time></trkpt><trkpt lat="44.98386655069581" lon="8.40757787933122"><ele>173.0</ele><time>2026-03-29T13:20:38.999Z</time></trkpt><trkpt lat="44.9839313444534" lon="8.407430889014913"><ele>173.0</ele><time>2026-03-29T13:20:39.999Z</time></trkpt><trkpt lat="44.98400568643429" lon="8.40728660973803"><ele>173.0</ele><time>2026-03-29T13:20:40.998Z</time></trkpt><trkpt lat="44.98407276062248" lon="8.407129354162976"><ele>173.0</ele><time>2026-03-29T13:20:41.998Z</time></trkpt><trkpt lat="44.98412982263555" lon="8.40696804792391"><ele>173.0</ele><time>2026-03-29T13:20:42.998Z</time></trkpt><trkpt lat="44.98418538240119" lon="8.406806475280016"><ele>169.75</ele><time>2026-03-29T13:20:43.998Z</time></trkpt><trkpt lat="44.9842453392495" lon="8.406652866241187"><ele>166.5</ele><time>2026-03-29T13:20:44.998Z</time></trkpt><trkpt lat="44.98430950878533" lon="8.406502541344848"><ele>163.25</ele><time>2026-03-29T13:20:45.998Z</time></trkpt><trkpt lat="44.98436842270939" lon="8.40635775379727"><ele>160.0</ele><time>2026-03-29T13:20:46.998Z</time></trkpt><trkpt lat="44.98441944989823" lon="8.40622028357478"><ele>160.0</ele><time>2026-03-29T13:20:47.998Z</time></trkpt><trkpt lat="44.98446446737948" lon="8.406085362133513"><ele>160.0</ele><time>2026-03-29T13:20:48.998Z</time></trkpt><trkpt lat="44.9845075638338" lon="8.405956360633752"><ele>160.0</ele><time>2026-03-29T13:20:49.998Z</time></trkpt><trkpt lat="44.9845503008185" lon="8.405835433407399"><ele>160.0</ele><time>2026-03-29T13:20:50.998Z</time></trkpt><trkpt lat="44.98459521523362" lon="8.405719033503363"><ele>160.0</ele><time>2026-03-29T13:20:51.998Z</time></trkpt><trkpt lat="44.984645500838475" lon="8.405602775344672"><ele>160.2</ele><time>2026-03-29T13:20:52.998Z</time></trkpt><trkpt lat="44.98471414453889" lon="8.4054935354776"><ele>160.4</ele><time>2026-03-29T13:20:53.998Z</time></trkpt><trkpt lat="44.984799917022976" lon="8.405394490691448"><ele>160.60000000000002</ele><time>2026-03-29T13:20:54.998Z</time></trkpt><trkpt lat="44.98489828194689" lon="8.405305240421079"><ele>160.8</ele><time>2026-03-29T13:20:55.998Z</time></trkpt><trkpt lat="44.98500086834554" lon="8.405236065131108"><ele>161.0</ele><time>2026-03-29T13:20:56.998Z</time></trkpt><trkpt lat="44.985110505427116" lon="8.405186946628271"><ele>161.0</ele><time>2026-03-29T13:20:57.998Z</time></trkpt><trkpt lat="44.98521424692156" lon="8.405166592307602"><ele>161.0</ele><time>2026-03-29T13:20:58.998Z</time></trkpt><trkpt lat="44.985321844117806" lon="8.405160647553556"><ele>161.0</ele><time>2026-03-29T13:20:59.999Z</time></trkpt><trkpt lat="44.98541706842568" lon="8.405166837360397"><ele>161.0</ele><time>2026-03-29T13:21:00.999Z</time></trkpt><trkpt lat="44.985583131063265" lon="8.405113814578156"><ele>161.0</ele><time>2026-03-29T13:21:01.999Z</time></trkpt><trkpt lat="44.98570128134405" lon="8.405108996258727"><ele>161.0</ele><time>2026-03-29T13:21:02.999Z</time></trkpt><trkpt lat="44.98581985420528" lon="8.40510158235331"><ele>161.0</ele><time>2026-03-29T13:21:03.999Z</time></trkpt><trkpt lat="44.98594450907517" lon="8.40509105731194"><ele>161.0</ele><time>2026-03-29T13:21:04.999Z</time></trkpt><trkpt lat="44.98606543379298" lon="8.4050813025204"><ele>160.0</ele><time>2026-03-29T13:21:05.999Z</time></trkpt><trkpt lat="44.98618056667848" lon="8.405069344476786"><ele>159.0</ele><time>2026-03-29T13:21:06.999Z</time></trkpt><trkpt lat="44.98629716883027" lon="8.405058567290764"><ele>158.0</ele><time>2026-03-29T13:21:07.999Z</time></trkpt><trkpt lat="44.98641285376748" lon="8.405048186420883"><ele>157.0</ele><time>2026-03-29T13:21:08.999Z</time></trkpt><trkpt lat="44.98653027279495" lon="8.405039818144099"><ele>157.0</ele><time>2026-03-29T13:21:09.999Z</time></trkpt><trkpt lat="44.98664840518702" lon="8.405030045908628"><ele>157.0</ele><time>2026-03-29T13:21:10.999Z</time></trkpt><trkpt lat="44.98676397508209" lon="8.405018070810499"><ele>157.0</ele><time>2026-03-29T13:21:11.999Z</time></trkpt><trkpt lat="44.98688036254141" lon="8.405007011992115"><ele>157.0</ele><time>2026-03-29T13:21:12.999Z</time></trkpt><trkpt lat="44.986997292367946" lon="8.404997534309258"><ele>156.0</ele><time>2026-03-29T13:21:13.999Z</time></trkpt><trkpt lat="44.98712228537808" lon="8.404985429502348"><ele>155.0</ele><time>2026-03-29T13:21:14.999Z</time></trkpt><trkpt lat="44.98725311095162" lon="8.404967328787693"><ele>154.0</ele><time>2026-03-29T13:21:15.999Z</time></trkpt><trkpt lat="44.987386781879415" lon="8.404945905018128"><ele>153.0</ele><time>2026-03-29T13:21:16.999Z</time></trkpt><trkpt lat="44.98752624818475" lon="8.404915027474924"><ele>151.75</ele><time>2026-03-29T13:21:17.999Z</time></trkpt><trkpt lat="44.98765935130807" lon="8.4048701938262"><ele>150.5</ele><time>2026-03-29T13:21:18.999Z</time></trkpt><trkpt lat="44.98779793932653" lon="8.404829804119583"><ele>149.25</ele><time>2026-03-29T13:21:19.999Z</time></trkpt><trkpt lat="44.98794807134725" lon="8.404778017659416"><ele>148.0</ele><time>2026-03-29T13:21:20.999Z</time></trkpt><trkpt lat="44.98810438621486" lon="8.404719969739304"><ele>149.33333333333334</ele><time>2026-03-29T13:21:21.999Z</time></trkpt><trkpt lat="44.988266058584394" lon="8.40465393713925"><ele>150.66666666666666</ele><time>2026-03-29T13:21:22.999Z</time></trkpt><trkpt lat="44.98841590138262" lon="8.404583036286258"><ele>152.0</ele><time>2026-03-29T13:21:23.999Z</time></trkpt><trkpt lat="44.98856033623083" lon="8.404512057319081"><ele>152.0</ele><time>2026-03-29T13:21:24.999Z</time></trkpt><trkpt lat="44.988694287527636" lon="8.4044390923602"><ele>152.0</ele><time>2026-03-29T13:21:25.999Z</time></trkpt><trkpt lat="44.98882464628248" lon="8.404365369731227"><ele>152.0</ele><time>2026-03-29T13:21:26.999Z</time></trkpt><trkpt lat="44.98895689623532" lon="8.404303997887563"><ele>152.0</ele><time>2026-03-29T13:21:27.999Z</time></trkpt><trkpt lat="44.98908827618647" lon="8.404233737937924"><ele>151.0</ele><time>2026-03-29T13:21:28.999Z</time></trkpt><trkpt lat="44.98921993883705" lon="8.404169081270805"><ele>150.0</ele><time>2026-03-29T13:21:29.999Z</time></trkpt><trkpt lat="44.98934867096673" lon="8.404103657995787"><ele>149.0</ele><time>2026-03-29T13:21:30.999Z</time></trkpt><trkpt lat="44.98948294074432" lon="8.40403581121104"><ele>148.0</ele><time>2026-03-29T13:21:31.999Z</time></trkpt><trkpt lat="44.989615158219074" lon="8.403968120289175"><ele>148.0</ele><time>2026-03-29T13:21:32.999Z</time></trkpt><trkpt lat="44.98974323985786" lon="8.403897759585636"><ele>148.0</ele><time>2026-03-29T13:21:33.999Z</time></trkpt><trkpt lat="44.98987734147454" lon="8.403821885209329"><ele>148.0</ele><time>2026-03-29T13:21:34.999Z</time></trkpt><trkpt lat="44.99001068138106" lon="8.40375269939138"><ele>148.0</ele><time>2026-03-29T13:21:35.999Z</time></trkpt><trkpt lat="44.99013992495337" lon="8.403690277501337"><ele>148.0</ele><time>2026-03-29T13:21:36.999Z</time></trkpt><trkpt lat="44.990265788589596" lon="8.403628933209795"><ele>148.0</ele><time>2026-03-29T13:21:37.999Z</time></trkpt><trkpt lat="44.990383452818534" lon="8.40356807110261"><ele>148.0</ele><time>2026-03-29T13:21:38.999Z</time></trkpt><trkpt lat="44.99049838365335" lon="8.403507346836154"><ele>148.0</ele><time>2026-03-29T13:21:39.999Z</time></trkpt><trkpt lat="44.9906151604065" lon="8.4034462845368"><ele>148.0</ele><time>2026-03-29T13:21:40.999Z</time></trkpt><trkpt lat="44.99073100122193" lon="8.40338305990385"><ele>148.0</ele><time>2026-03-29T13:21:41.999Z</time></trkpt><trkpt lat="44.99084525717998" lon="8.403314600964556"><ele>148.0</ele><time>2026-03-29T13:21:42.999Z</time></trkpt><trkpt lat="44.99095667956137" lon="8.403234969478646"><ele>148.0</ele><time>2026-03-29T13:21:43.999Z</time></trkpt><trkpt lat="44.991060656041164" lon="8.403135525759927"><ele>147.5</ele><time>2026-03-29T13:21:44.999Z</time></trkpt><trkpt lat="44.991160658883445" lon="8.403031174450742"><ele>147.0</ele><time>2026-03-29T13:21:45.999Z</time></trkpt><trkpt lat="44.991260325527605" lon="8.40291995334968"><ele>146.5</ele><time>2026-03-29T13:21:46.999Z</time></trkpt><trkpt lat="44.99135103805496" lon="8.402795568127571"><ele>146.0</ele><time>2026-03-29T13:21:47.999Z</time></trkpt><trkpt lat="44.99143528278866" lon="8.402658191832526"><ele>146.0</ele><time>2026-03-29T13:21:48.999Z</time></trkpt><trkpt lat="44.9915148697345" lon="8.402506722230536"><ele>146.0</ele><time>2026-03-29T13:21:49.999Z</time></trkpt><trkpt lat="44.991588943335415" lon="8.402350359294395"><ele>146.0</ele><time>2026-03-29T13:21:50.999Z</time></trkpt><trkpt lat="44.99165093779324" lon="8.402177499406728"><ele>146.0</ele><time>2026-03-29T13:21:51.999Z</time></trkpt><trkpt lat="44.99170787657747" lon="8.401996896817646"><ele>146.0</ele><time>2026-03-29T13:21:52.999Z</time></trkpt><trkpt lat="44.99176271527185" lon="8.401808876543784"><ele>146.0</ele><time>2026-03-29T13:21:53.999Z</time></trkpt><trkpt lat="44.99181897872358" lon="8.40161235136453"><ele>146.0</ele><time>2026-03-29T13:21:54.999Z</time></trkpt><trkpt lat="44.99187246667785" lon="8.401410789097785"><ele>146.0</ele><time>2026-03-29T13:21:55.999Z</time></trkpt><trkpt lat="44.99192025431917" lon="8.401203931880056"><ele>146.33333333333331</ele><time>2026-03-29T13:21:56.999Z</time></trkpt><trkpt lat="44.991970010215866" lon="8.400984235494763"><ele>146.66666666666666</ele><time>2026-03-29T13:21:57.999Z</time></trkpt><trkpt lat="44.99202311822724" lon="8.400763187049304"><ele>147.0</ele><time>2026-03-29T13:21:58.999Z</time></trkpt><trkpt lat="44.99208071728613" lon="8.400534904120127"><ele>147.33333333333334</ele><time>2026-03-29T13:21:59.999Z</time></trkpt><trkpt lat="44.99214205201916" lon="8.400304241075318"><ele>147.66666666666669</ele><time>2026-03-29T13:22:00.999Z</time></trkpt><trkpt lat="44.99220122646631" lon="8.40006929218925"><ele>148.0</ele><time>2026-03-29T13:22:01.999Z</time></trkpt><trkpt lat="44.99225936971268" lon="8.399826547439089"><ele>148.33333333333334</ele><time>2026-03-29T13:22:02.999Z</time></trkpt><trkpt lat="44.9923176004097" lon="8.399577258998447"><ele>148.66666666666666</ele><time>2026-03-29T13:22:03.999Z</time></trkpt><trkpt lat="44.99237534157515" lon="8.399339702414574"><ele>149.0</ele><time>2026-03-29T13:22:04.999Z</time></trkpt><trkpt lat="44.992432995917376" lon="8.399108398316748"><ele>149.0</ele><time>2026-03-29T13:22:05.999Z</time></trkpt><trkpt lat="44.99248670241995" lon="8.398892899999879"><ele>149.0</ele><time>2026-03-29T13:22:06.999Z</time></trkpt><trkpt lat="44.99253853130323" lon="8.39868285836709"><ele>149.0</ele><time>2026-03-29T13:22:07.999Z</time></trkpt><trkpt lat="44.99258704358255" lon="8.39848919818233"><ele>149.0</ele><time>2026-03-29T13:22:08.999Z</time></trkpt><trkpt lat="44.99263266464313" lon="8.398297057073654"><ele>149.0</ele><time>2026-03-29T13:22:09.999Z</time></trkpt><trkpt lat="44.99267770193306" lon="8.398110561310311"><ele>149.0</ele><time>2026-03-29T13:22:10.999Z</time></trkpt><trkpt lat="44.992718402608084" lon="8.397939183517844"><ele>149.0</ele><time>2026-03-29T13:22:11.999Z</time></trkpt><trkpt lat="44.99275941039615" lon="8.397775004195543"><ele>149.0</ele><time>2026-03-29T13:22:12.999Z</time></trkpt><trkpt lat="44.992796268982545" lon="8.397626854291525"><ele>149.0</ele><time>2026-03-29T13:22:13.999Z</time></trkpt><trkpt lat="44.99282760092747" lon="8.39749945313542"><ele>149.0</ele><time>2026-03-29T13:22:14.999Z</time></trkpt><trkpt lat="44.99285501028542" lon="8.397391578557244"><ele>149.0</ele><time>2026-03-29T13:22:15.999Z</time></trkpt><trkpt lat="44.992880800899705" lon="8.397302481521512"><ele>149.0</ele><time>2026-03-29T13:22:16.999Z</time></trkpt><trkpt lat="44.99291335306828" lon="8.397118398271926"><ele>149.16666666666666</ele><time>2026-03-29T13:22:19.999Z</time></trkpt><trkpt lat="44.992823465199194" lon="8.397010448557863"><ele>149.33333333333331</ele><time>2026-03-29T13:22:23.999Z</time></trkpt><trkpt lat="44.992696284068685" lon="8.397020245782281"><ele>149.5</ele><time>2026-03-29T13:22:25.999Z</time></trkpt><trkpt lat="44.99262631482705" lon="8.397017282692861"><ele>149.66666666666666</ele><time>2026-03-29T13:22:26.999Z</time></trkpt><trkpt lat="44.99256982310645" lon="8.396974644217718"><ele>149.83333333333334</ele><time>2026-03-29T13:22:27.999Z</time></trkpt><trkpt lat="44.99250936588394" lon="8.396946212118271"><ele>150.0</ele><time>2026-03-29T13:22:28.999Z</time></trkpt><trkpt lat="44.99248565447074" lon="8.396836863088396"><ele>150.6</ele><time>2026-03-29T13:22:29.999Z</time></trkpt><trkpt lat="44.99245968215038" lon="8.396723963053748"><ele>151.2</ele><time>2026-03-29T13:22:30.999Z</time></trkpt><trkpt lat="44.992463307837646" lon="8.39659196409378"><ele>151.8</ele><time>2026-03-29T13:22:31.999Z</time></trkpt><trkpt lat="44.992458285617474" lon="8.396433957317244"><ele>152.4</ele><time>2026-03-29T13:22:32.999Z</time></trkpt><trkpt lat="44.9924373870565" lon="8.396272486375993"><ele>153.0</ele><time>2026-03-29T13:22:33.999Z</time></trkpt><trkpt lat="44.99243009066708" lon="8.396124943652154"><ele>153.0</ele><time>2026-03-29T13:22:34.999Z</time></trkpt><trkpt lat="44.99243692301058" lon="8.39597421371045"><ele>153.0</ele><time>2026-03-29T13:22:35.999Z</time></trkpt><trkpt lat="44.99241695158548" lon="8.395823540487541"><ele>153.0</ele><time>2026-03-29T13:22:36.999Z</time></trkpt><trkpt lat="44.99240877851501" lon="8.395672349911278"><ele>153.0</ele><time>2026-03-29T13:22:37.999Z</time></trkpt><trkpt lat="44.99239993445744" lon="8.395528621650163"><ele>153.0</ele><time>2026-03-29T13:22:38.999Z</time></trkpt><trkpt lat="44.99239672681983" lon="8.395389453128196"><ele>152.83333333333334</ele><time>2026-03-29T13:22:39.999Z</time></trkpt><trkpt lat="44.99238913351876" lon="8.395251985504673"><ele>152.66666666666666</ele><time>2026-03-29T13:22:40.999Z</time></trkpt><trkpt lat="44.992378135941294" lon="8.395122275007314"><ele>152.5</ele><time>2026-03-29T13:22:41.999Z</time></trkpt><trkpt lat="44.9923671654301" lon="8.394998914321892"><ele>152.33333333333331</ele><time>2026-03-29T13:22:42.999Z</time></trkpt><trkpt lat="44.99235702069996" lon="8.394884985074613"><ele>152.16666666666666</ele><time>2026-03-29T13:22:43.999Z</time></trkpt><trkpt lat="44.99230919393513" lon="8.39481591140899"><ele>152.0</ele><time>2026-03-29T13:22:44.999Z</time></trkpt><trkpt lat="44.992212704550624" lon="8.394777065650423"><ele>152.0</ele><time>2026-03-29T13:22:46.998Z</time></trkpt><trkpt lat="44.992103778005664" lon="8.394839610329445"><ele>152.0</ele><time>2026-03-29T13:22:48.998Z</time></trkpt><trkpt lat="44.992041333449734" lon="8.394871626953673"><ele>152.0</ele><time>2026-03-29T13:22:49.998Z</time></trkpt><trkpt lat="44.99197381466328" lon="8.394905141685859"><ele>152.0</ele><time>2026-03-29T13:22:50.998Z</time></trkpt><trkpt lat="44.991907126527764" lon="8.394933406495406"><ele>152.0</ele><time>2026-03-29T13:22:51.998Z</time></trkpt><trkpt lat="44.991840561075044" lon="8.394953171188156"><ele>152.0</ele><time>2026-03-29T13:22:52.997Z</time></trkpt><trkpt lat="44.99172123071168" lon="8.394977615882702"><ele>152.0</ele><time>2026-03-29T13:22:54.997Z</time></trkpt><trkpt lat="44.991641362576324" lon="8.395022978299725"><ele>152.0</ele><time>2026-03-29T13:22:56.997Z</time></trkpt><trkpt lat="44.99158337102525" lon="8.394986382299782"><ele>152.0</ele><time>2026-03-29T13:22:58.997Z</time></trkpt><trkpt lat="44.991658596068255" lon="8.395021896391473"><ele>152.0</ele><time>2026-03-29T13:31:51Z</time></trkpt><trkpt lat="44.99175342275721" lon="8.394986817225758"><ele>152.0</ele><time>2026-03-29T13:31:53Z</time></trkpt><trkpt lat="44.99181655334649" lon="8.394968171137068"><ele>152.0</ele><time>2026-03-29T13:31:54Z</time></trkpt><trkpt lat="44.99193463889884" lon="8.39493206088682"><ele>152.0</ele><time>2026-03-29T13:31:56Z</time></trkpt><trkpt lat="44.99203979844948" lon="8.394887474740232"><ele>152.0</ele><time>2026-03-29T13:31:58Z</time></trkpt><trkpt lat="44.99213585983185" lon="8.394830549172987"><ele>152.0</ele><time>2026-03-29T13:32:00Z</time></trkpt><trkpt lat="44.99222941979314" lon="8.394817912609822"><ele>152.0</ele><time>2026-03-29T13:32:02Z</time></trkpt><trkpt lat="44.99229581767872" lon="8.394851409038896"><ele>152.0</ele><time>2026-03-29T13:32:06Z</time></trkpt><trkpt lat="44.99234959124552" lon="8.394941359488303"><ele>152.0</ele><time>2026-03-29T13:32:50Z</time></trkpt><trkpt lat="44.992375607250864" lon="8.395100295011467"><ele>152.0</ele><time>2026-03-29T13:32:52Z</time></trkpt><trkpt lat="44.99238032998971" lon="8.39519292687217"><ele>152.0</ele><time>2026-03-29T13:32:53Z</time></trkpt><trkpt lat="44.992369345905615" lon="8.395283164277556"><ele>152.0</ele><time>2026-03-29T13:32:54Z</time></trkpt><trkpt lat="44.99237367967969" lon="8.39538106199001"><ele>152.0</ele><time>2026-03-29T13:32:55Z</time></trkpt><trkpt lat="44.992392466082904" lon="8.395484044618582"><ele>152.0</ele><time>2026-03-29T13:32:56Z</time></trkpt><trkpt lat="44.99239585494509" lon="8.395596475869084"><ele>152.16666666666666</ele><time>2026-03-29T13:32:57Z</time></trkpt><trkpt lat="44.99239930133387" lon="8.395711758105385"><ele>152.33333333333331</ele><time>2026-03-29T13:32:58Z</time></trkpt><trkpt lat="44.99240680282842" lon="8.395820583981452"><ele>152.5</ele><time>2026-03-29T13:32:59Z</time></trkpt><trkpt lat="44.99241272377251" lon="8.395925859833575"><ele>152.66666666666666</ele><time>2026-03-29T13:33:00Z</time></trkpt><trkpt lat="44.99241874157054" lon="8.396038008846574"><ele>152.83333333333334</ele><time>2026-03-29T13:33:01Z</time></trkpt><trkpt lat="44.99242468308012" lon="8.396150182730173"><ele>153.0</ele><time>2026-03-29T13:33:02Z</time></trkpt><trkpt lat="44.992430316931696" lon="8.396249431631158"><ele>153.0</ele><time>2026-03-29T13:33:03Z</time></trkpt><trkpt lat="44.99244000684172" lon="8.396417881045643"><ele>153.0</ele><time>2026-03-29T13:33:05Z</time></trkpt><trkpt lat="44.99244089907884" lon="8.396569681130204"><ele>153.0</ele><time>2026-03-29T13:33:07Z</time></trkpt><trkpt lat="44.99244891424995" lon="8.396708753470431"><ele>153.0</ele><time>2026-03-29T13:33:09Z</time></trkpt><trkpt lat="44.99246831434796" lon="8.396839446899165"><ele>153.0</ele><time>2026-03-29T13:33:11Z</time></trkpt><trkpt lat="44.99251423733255" lon="8.396976187958334"><ele>152.4</ele><time>2026-03-29T13:33:13.001Z</time></trkpt><trkpt lat="44.99263191778708" lon="8.397028346094395"><ele>151.8</ele><time>2026-03-29T13:33:15.001Z</time></trkpt><trkpt lat="44.99274417109072" lon="8.397029576986581"><ele>151.2</ele><time>2026-03-29T13:33:17.001Z</time></trkpt><trkpt lat="44.992842753240815" lon="8.397050805931263"><ele>150.6</ele><time>2026-03-29T13:33:19.001Z</time></trkpt><trkpt lat="44.99292714392778" lon="8.397078627491211"><ele>150.0</ele><time>2026-03-29T13:33:45Z</time></trkpt><trkpt lat="44.99298203377571" lon="8.396958024327393"><ele>150.0</ele><time>2026-03-29T13:33:47Z</time></trkpt><trkpt lat="44.993005856276824" lon="8.396787693363791"><ele>150.0</ele><time>2026-03-29T13:33:49Z</time></trkpt><trkpt lat="44.99302700339348" lon="8.396683243182967"><ele>150.0</ele><time>2026-03-29T13:33:50Z</time></trkpt><trkpt lat="44.99305738084376" lon="8.396564372794217"><ele>150.0</ele><time>2026-03-29T13:33:51Z</time></trkpt><trkpt lat="44.99309183126065" lon="8.39643016271241"><ele>150.0</ele><time>2026-03-29T13:33:52Z</time></trkpt><trkpt lat="44.993126648783225" lon="8.396306729550435"><ele>150.0</ele><time>2026-03-29T13:33:53Z</time></trkpt><trkpt lat="44.993161354874495" lon="8.396175106586005"><ele>150.0</ele><time>2026-03-29T13:33:54Z</time></trkpt><trkpt lat="44.99319509756223" lon="8.396035679559663"><ele>150.0</ele><time>2026-03-29T13:33:55Z</time></trkpt><trkpt lat="44.99322889123715" lon="8.395888250937547"><ele>150.0</ele><time>2026-03-29T13:33:56Z</time></trkpt><trkpt lat="44.99326126844177" lon="8.395737743122869"><ele>150.0</ele><time>2026-03-29T13:33:57Z</time></trkpt><trkpt lat="44.99329855323013" lon="8.395575555955112"><ele>150.0</ele><time>2026-03-29T13:33:58Z</time></trkpt><trkpt lat="44.99333750509452" lon="8.395413394460187"><ele>150.0</ele><time>2026-03-29T13:33:59Z</time></trkpt><trkpt lat="44.993379074943235" lon="8.395243147999823"><ele>150.0</ele><time>2026-03-29T13:34:00Z</time></trkpt><trkpt lat="44.99342775937452" lon="8.395061929536284"><ele>150.0</ele><time>2026-03-29T13:34:01Z</time></trkpt><trkpt lat="44.993476742970806" lon="8.39488490333194"><ele>150.0</ele><time>2026-03-29T13:34:02Z</time></trkpt><trkpt lat="44.99352287127651" lon="8.394694217802577"><ele>150.0</ele><time>2026-03-29T13:34:03Z</time></trkpt><trkpt lat="44.99356909865125" lon="8.39449370389081"><ele>150.0</ele><time>2026-03-29T13:34:04Z</time></trkpt><trkpt lat="44.99361225398062" lon="8.394312352324611"><ele>150.0</ele><time>2026-03-29T13:34:05Z</time></trkpt><trkpt lat="44.99365548483195" lon="8.394134500115673"><ele>150.0</ele><time>2026-03-29T13:34:06Z</time></trkpt><trkpt lat="44.993698197772886" lon="8.393960027999372"><ele>150.0</ele><time>2026-03-29T13:34:07Z</time></trkpt><trkpt lat="44.99373987118202" lon="8.393790050830802"><ele>150.0</ele><time>2026-03-29T13:34:08Z</time></trkpt><trkpt lat="44.99378168792337" lon="8.393619125731506"><ele>150.0</ele><time>2026-03-29T13:34:09Z</time></trkpt><trkpt lat="44.99382356896727" lon="8.393451601269275"><ele>150.0</ele><time>2026-03-29T13:34:10Z</time></trkpt><trkpt lat="44.9938629555123" lon="8.393291957583148"><ele>150.0</ele><time>2026-03-29T13:34:11Z</time></trkpt><trkpt lat="44.99389528030674" lon="8.393142081650991"><ele>150.0</ele><time>2026-03-29T13:34:12Z</time></trkpt><trkpt lat="44.99392678614652" lon="8.39299770240134"><ele>150.0</ele><time>2026-03-29T13:34:13Z</time></trkpt><trkpt lat="44.99396214111372" lon="8.392858090601475"><ele>150.0</ele><time>2026-03-29T13:34:14Z</time></trkpt><trkpt lat="44.99399788224933" lon="8.392722943111048"><ele>150.2</ele><time>2026-03-29T13:34:15Z</time></trkpt><trkpt lat="44.99403419886305" lon="8.392593855929622"><ele>150.4</ele><time>2026-03-29T13:34:16Z</time></trkpt><trkpt lat="44.994073892719655" lon="8.392468231287065"><ele>150.6</ele><time>2026-03-29T13:34:17Z</time></trkpt><trkpt lat="44.99411915495961" lon="8.392346805735487"><ele>150.8</ele><time>2026-03-29T13:34:18Z</time></trkpt><trkpt lat="44.99416859301252" lon="8.392237722414894"><ele>151.0</ele><time>2026-03-29T13:34:19Z</time></trkpt><trkpt lat="44.99422422738022" lon="8.392135084347668"><ele>151.6</ele><time>2026-03-29T13:34:20Z</time></trkpt><trkpt lat="44.99428347674315" lon="8.392042973558326"><ele>152.2</ele><time>2026-03-29T13:34:21Z</time></trkpt><trkpt lat="44.99433774040283" lon="8.391967773966364"><ele>152.8</ele><time>2026-03-29T13:34:22Z</time></trkpt><trkpt lat="44.99443681343683" lon="8.391893318962788"><ele>153.4</ele><time>2026-03-29T13:34:24Z</time></trkpt><trkpt lat="44.99453099577028" lon="8.391864487335448"><ele>154.0</ele><time>2026-03-29T13:34:26Z</time></trkpt><trkpt lat="44.99463558082623" lon="8.391867891612678"><ele>154.0</ele><time>2026-03-29T13:34:28Z</time></trkpt><trkpt lat="44.99474408622612" lon="8.391810822747347"><ele>154.0</ele><time>2026-03-29T13:34:30Z</time></trkpt><trkpt lat="44.99483286116685" lon="8.39176956617443"><ele>154.0</ele><time>2026-03-29T13:34:32Z</time></trkpt><trkpt lat="44.99483701263244" lon="8.391594439282132"><ele>154.0</ele><time>2026-03-29T13:34:33Z</time></trkpt><trkpt lat="44.99482876069705" lon="8.3914923631392"><ele>154.0</ele><time>2026-03-29T13:34:34Z</time></trkpt><trkpt lat="44.994774574310604" lon="8.391399550194695"><ele>153.8</ele><time>2026-03-29T13:34:35Z</time></trkpt><trkpt lat="44.99472839709116" lon="8.391304603991383"><ele>153.60000000000002</ele><time>2026-03-29T13:34:36Z</time></trkpt><trkpt lat="44.99467901587598" lon="8.39120895174368"><ele>153.4</ele><time>2026-03-29T13:34:37Z</time></trkpt><trkpt lat="44.99462401566594" lon="8.391097431074238"><ele>153.20000000000002</ele><time>2026-03-29T13:34:38Z</time></trkpt><trkpt lat="44.994581131330364" lon="8.390968128820843"><ele>153.0</ele><time>2026-03-29T13:34:39Z</time></trkpt><trkpt lat="44.9945517665161" lon="8.390824890554248"><ele>153.0</ele><time>2026-03-29T13:34:40Z</time></trkpt><trkpt lat="44.99454304274222" lon="8.390678885168"><ele>153.0</ele><time>2026-03-29T13:34:41Z</time></trkpt><trkpt lat="44.99455431912091" lon="8.390529140174527"><ele>153.0</ele><time>2026-03-29T13:34:42Z</time></trkpt><trkpt lat="44.99458322649321" lon="8.390376238804437"><ele>153.0</ele><time>2026-03-29T13:34:43Z</time></trkpt><trkpt lat="44.99461990999693" lon="8.39022429223913"><ele>153.0</ele><time>2026-03-29T13:34:44Z</time></trkpt><trkpt lat="44.99465754768277" lon="8.390079059918385"><ele>153.0</ele><time>2026-03-29T13:34:45Z</time></trkpt><trkpt lat="44.99469410682046" lon="8.389937138464537"><ele>153.0</ele><time>2026-03-29T13:34:46Z</time></trkpt><trkpt lat="44.99472717189637" lon="8.38980863627337"><ele>153.0</ele><time>2026-03-29T13:34:47Z</time></trkpt><trkpt lat="44.994757231407455" lon="8.389692306511531"><ele>153.0</ele><time>2026-03-29T13:34:48Z</time></trkpt><trkpt lat="44.9947823094508" lon="8.389586478016463"><ele>153.0</ele><time>2026-03-29T13:34:49Z</time></trkpt><trkpt lat="44.99480823704956" lon="8.389489515565293"><ele>153.0</ele><time>2026-03-29T13:34:50Z</time></trkpt><trkpt lat="44.994835898234555" lon="8.389407004254375"><ele>153.75</ele><time>2026-03-29T13:34:51Z</time></trkpt><trkpt lat="44.99485852262878" lon="8.389306803558542"><ele>154.5</ele><time>2026-03-29T13:34:53Z</time></trkpt><trkpt lat="44.99485155889273" lon="8.389162995041799"><ele>155.25</ele><time>2026-03-29T13:34:57Z</time></trkpt><trkpt lat="44.99471564034469" lon="8.38894369891076"><ele>156.0</ele><time>2026-03-29T13:35:00Z</time></trkpt><trkpt lat="44.99465067158784" lon="8.388859830891082"><ele>156.4</ele><time>2026-03-29T13:35:01Z</time></trkpt><trkpt lat="44.99459040060927" lon="8.388783223001969"><ele>156.8</ele><time>2026-03-29T13:35:02Z</time></trkpt><trkpt lat="44.994529204792634" lon="8.388701256665533"><ele>157.20000000000002</ele><time>2026-03-29T13:35:03Z</time></trkpt><trkpt lat="44.99446595702969" lon="8.388606098532422"><ele>157.6</ele><time>2026-03-29T13:35:04Z</time></trkpt><trkpt lat="44.99439955430857" lon="8.388503101205785"><ele>158.0</ele><time>2026-03-29T13:35:05Z</time></trkpt><trkpt lat="44.99432805621729" lon="8.38838924543214"><ele>158.0</ele><time>2026-03-29T13:35:06Z</time></trkpt><trkpt lat="44.99425036963161" lon="8.388267627602046"><ele>158.0</ele><time>2026-03-29T13:35:07Z</time></trkpt><trkpt lat="44.99418457304995" lon="8.388182458459552"><ele>158.0</ele><time>2026-03-29T13:35:08Z</time></trkpt><trkpt lat="44.994099580122345" lon="8.38805475304615"><ele>158.0</ele><time>2026-03-29T13:35:09Z</time></trkpt><trkpt lat="44.99401899477875" lon="8.387942701270365"><ele>158.0</ele><time>2026-03-29T13:35:10Z</time></trkpt><trkpt lat="44.993945149801434" lon="8.387828172182115"><ele>157.6</ele><time>2026-03-29T13:35:11Z</time></trkpt><trkpt lat="44.99387496344827" lon="8.387721131085195"><ele>157.20000000000002</ele><time>2026-03-29T13:35:12Z</time></trkpt><trkpt lat="44.9938066781468" lon="8.387620822090389"><ele>156.8</ele><time>2026-03-29T13:35:13Z</time></trkpt><trkpt lat="44.9937406123464" lon="8.387519230771286"><ele>156.4</ele><time>2026-03-29T13:35:14Z</time></trkpt><trkpt lat="44.993674568366984" lon="8.387419361082362"><ele>156.0</ele><time>2026-03-29T13:35:15Z</time></trkpt><trkpt lat="44.993600171287305" lon="8.3873206906628"><ele>156.0</ele><time>2026-03-29T13:35:16Z</time></trkpt><trkpt lat="44.99352441346711" lon="8.387224854696896"><ele>156.0</ele><time>2026-03-29T13:35:17Z</time></trkpt><trkpt lat="44.99344934647176" lon="8.387131452408244"><ele>156.0</ele><time>2026-03-29T13:35:18Z</time></trkpt><trkpt lat="44.99337477349437" lon="8.387040448581962"><ele>156.0</ele><time>2026-03-29T13:35:19Z</time></trkpt><trkpt lat="44.99330159633047" lon="8.38694792858524"><ele>156.0</ele><time>2026-03-29T13:35:20Z</time></trkpt><trkpt lat="44.99322327850681" lon="8.386863791612262"><ele>156.6</ele><time>2026-03-29T13:35:21Z</time></trkpt><trkpt lat="44.99314295753326" lon="8.386788289444752"><ele>157.2</ele><time>2026-03-29T13:35:22Z</time></trkpt><trkpt lat="44.99305366560132" lon="8.386722617822288"><ele>157.8</ele><time>2026-03-29T13:35:23Z</time></trkpt><trkpt lat="44.9929636675797" lon="8.38667116859557"><ele>158.4</ele><time>2026-03-29T13:35:24Z</time></trkpt><trkpt lat="44.99287249148159" lon="8.386620307065833"><ele>159.0</ele><time>2026-03-29T13:35:25Z</time></trkpt><trkpt lat="44.992775070550046" lon="8.386574805399695"><ele>159.0</ele><time>2026-03-29T13:35:26Z</time></trkpt><trkpt lat="44.99267588230842" lon="8.386526564047092"><ele>159.0</ele><time>2026-03-29T13:35:27Z</time></trkpt><trkpt lat="44.99257381151125" lon="8.38646554901483"><ele>159.0</ele><time>2026-03-29T13:35:28Z</time></trkpt><trkpt lat="44.99246462690245" lon="8.38640673964515"><ele>159.0</ele><time>2026-03-29T13:35:29Z</time></trkpt><trkpt lat="44.9923591727233" lon="8.38634644866342"><ele>159.0</ele><time>2026-03-29T13:35:30Z</time></trkpt><trkpt lat="44.9922493605911" lon="8.386291722995601"><ele>159.25</ele><time>2026-03-29T13:35:31Z</time></trkpt><trkpt lat="44.992134866164946" lon="8.386233752428117"><ele>159.5</ele><time>2026-03-29T13:35:32Z</time></trkpt><trkpt lat="44.99201932747029" lon="8.386172215647111"><ele>159.75</ele><time>2026-03-29T13:35:33Z</time></trkpt><trkpt lat="44.99189278120633" lon="8.386101720377926"><ele>160.0</ele><time>2026-03-29T13:35:34Z</time></trkpt><trkpt lat="44.99176112917012" lon="8.386025344076037"><ele>159.0</ele><time>2026-03-29T13:35:35Z</time></trkpt><trkpt lat="44.99161305897404" lon="8.38594862988624"><ele>158.0</ele><time>2026-03-29T13:35:36Z</time></trkpt><trkpt lat="44.99145891400427" lon="8.385866295399358"><ele>157.0</ele><time>2026-03-29T13:35:37Z</time></trkpt><trkpt lat="44.99130569934634" lon="8.385784554212073"><ele>157.0</ele><time>2026-03-29T13:35:38Z</time></trkpt><trkpt lat="44.99116370448723" lon="8.385707208793972"><ele>157.0</ele><time>2026-03-29T13:35:39Z</time></trkpt><trkpt lat="44.99102815854943" lon="8.385634259893097"><ele>157.0</ele><time>2026-03-29T13:35:40Z</time></trkpt><trkpt lat="44.99089303907534" lon="8.385561381551064"><ele>157.0</ele><time>2026-03-29T13:35:41Z</time></trkpt><trkpt lat="44.99076381124611" lon="8.385489316089393"><ele>157.5</ele><time>2026-03-29T13:35:42Z</time></trkpt><trkpt lat="44.99064040302579" lon="8.385422687075309"><ele>158.0</ele><time>2026-03-29T13:35:43Z</time></trkpt><trkpt lat="44.99051673891862" lon="8.38535559616564"><ele>158.5</ele><time>2026-03-29T13:35:44Z</time></trkpt><trkpt lat="44.9903991588543" lon="8.385287931931453"><ele>159.0</ele><time>2026-03-29T13:35:45Z</time></trkpt><trkpt lat="44.99028266497293" lon="8.38522156513733"><ele>159.0</ele><time>2026-03-29T13:35:46Z</time></trkpt><trkpt lat="44.990172498956596" lon="8.385153306827672"><ele>159.0</ele><time>2026-03-29T13:35:47Z</time></trkpt><trkpt lat="44.99006624833996" lon="8.385072792090247"><ele>159.0</ele><time>2026-03-29T13:35:48Z</time></trkpt><trkpt lat="44.98996353452733" lon="8.384985922790683"><ele>159.0</ele><time>2026-03-29T13:35:49Z</time></trkpt><trkpt lat="44.98986119141556" lon="8.384890213297815"><ele>159.0</ele><time>2026-03-29T13:35:50Z</time></trkpt><trkpt lat="44.989760725767354" lon="8.384793176531797"><ele>159.0</ele><time>2026-03-29T13:35:51Z</time></trkpt><trkpt lat="44.98966175745128" lon="8.384686756394798"><ele>159.0</ele><time>2026-03-29T13:35:52Z</time></trkpt><trkpt lat="44.98957166596917" lon="8.384571092488853"><ele>159.0</ele><time>2026-03-29T13:35:53Z</time></trkpt><trkpt lat="44.98948459851942" lon="8.38444942947873"><ele>159.0</ele><time>2026-03-29T13:35:54Z</time></trkpt><trkpt lat="44.98939908338144" lon="8.3843281752479"><ele>159.0</ele><time>2026-03-29T13:35:55Z</time></trkpt><trkpt lat="44.989319276967066" lon="8.38420666913116"><ele>159.0</ele><time>2026-03-29T13:35:56Z</time></trkpt><trkpt lat="44.98924524198987" lon="8.384079287523216"><ele>159.0</ele><time>2026-03-29T13:35:57Z</time></trkpt><trkpt lat="44.98917539211089" lon="8.383950799357624"><ele>158.25</ele><time>2026-03-29T13:35:58Z</time></trkpt><trkpt lat="44.989109803180405" lon="8.383820290921774"><ele>157.5</ele><time>2026-03-29T13:35:59Z</time></trkpt><trkpt lat="44.98905067928824" lon="8.383682774584384"><ele>156.75</ele><time>2026-03-29T13:36:00Z</time></trkpt><trkpt lat="44.988993282718994" lon="8.383542987334135"><ele>156.0</ele><time>2026-03-29T13:36:01Z</time></trkpt><trkpt lat="44.98892821724156" lon="8.383403902539671"><ele>156.0</ele><time>2026-03-29T13:36:02Z</time></trkpt><trkpt lat="44.988856895578664" lon="8.383261306798317"><ele>156.0</ele><time>2026-03-29T13:36:03Z</time></trkpt><trkpt lat="44.988784749426586" lon="8.383113449347343"><ele>156.0</ele><time>2026-03-29T13:36:04Z</time></trkpt><trkpt lat="44.98871059264118" lon="8.382960857899924"><ele>156.0</ele><time>2026-03-29T13:36:05Z</time></trkpt><trkpt lat="44.98863773838135" lon="8.382804362058454"><ele>156.75</ele><time>2026-03-29T13:36:06Z</time></trkpt><trkpt lat="44.98856635813563" lon="8.38264200285069"><ele>157.5</ele><time>2026-03-29T13:36:07Z</time></trkpt><trkpt lat="44.98849388262309" lon="8.382483203076543"><ele>158.25</ele><time>2026-03-29T13:36:08Z</time></trkpt><trkpt lat="44.988422427155164" lon="8.382331355550578"><ele>159.0</ele><time>2026-03-29T13:36:09Z</time></trkpt><trkpt lat="44.98836051490046" lon="8.38219377829744"><ele>159.0</ele><time>2026-03-29T13:36:10Z</time></trkpt><trkpt lat="44.988309164968314" lon="8.382076139297997"><ele>159.0</ele><time>2026-03-29T13:36:11Z</time></trkpt><trkpt lat="44.988262573021366" lon="8.381970936379266"><ele>159.0</ele><time>2026-03-29T13:36:12Z</time></trkpt><trkpt lat="44.98822178099909" lon="8.381883132730907"><ele>159.0</ele><time>2026-03-29T13:36:13Z</time></trkpt><trkpt lat="44.98816457516773" lon="8.381760787946561"><ele>159.0</ele><time>2026-03-29T13:36:15Z</time></trkpt><trkpt lat="44.98812551260327" lon="8.381679627342537"><ele>159.0</ele><time>2026-03-29T13:36:17Z</time></trkpt><trkpt lat="44.98806186431328" lon="8.381583821122973"><ele>159.0</ele><time>2026-03-29T13:36:20Z</time></trkpt><trkpt lat="44.98797172295108" lon="8.381624848837852"><ele>159.0</ele><time>2026-03-29T13:36:22Z</time></trkpt><trkpt lat="44.98790209727569" lon="8.381764760406105"><ele>159.0</ele><time>2026-03-29T13:36:24Z</time></trkpt><trkpt lat="44.987848303349345" lon="8.381857053549563"><ele>159.0</ele><time>2026-03-29T13:36:25Z</time></trkpt><trkpt lat="44.987776838571016" lon="8.381940121015308"><ele>159.0</ele><time>2026-03-29T13:36:26Z</time></trkpt><trkpt lat="44.98771756694351" lon="8.382035550262088"><ele>159.0</ele><time>2026-03-29T13:36:27Z</time></trkpt><trkpt lat="44.987659399162986" lon="8.382133421923202"><ele>159.0</ele><time>2026-03-29T13:36:28Z</time></trkpt><trkpt lat="44.98759677181847" lon="8.382241641948985"><ele>159.0</ele><time>2026-03-29T13:36:29Z</time></trkpt><trkpt lat="44.98753918396188" lon="8.38234336465598"><ele>159.0</ele><time>2026-03-29T13:36:30Z</time></trkpt><trkpt lat="44.98748421797371" lon="8.38246650106852"><ele>159.0</ele><time>2026-03-29T13:36:31Z</time></trkpt><trkpt lat="44.98742534250178" lon="8.382588929318716"><ele>157.75</ele><time>2026-03-29T13:36:32Z</time></trkpt><trkpt lat="44.98736807109383" lon="8.382719803811266"><ele>156.5</ele><time>2026-03-29T13:36:33Z</time></trkpt><trkpt lat="44.98730171202466" lon="8.382851190313591"><ele>155.25</ele><time>2026-03-29T13:36:34Z</time></trkpt><trkpt lat="44.987252765473514" lon="8.382994838946596"><ele>154.0</ele><time>2026-03-29T13:36:35Z</time></trkpt><trkpt lat="44.98720184216804" lon="8.383146660321625"><ele>153.75</ele><time>2026-03-29T13:36:36Z</time></trkpt><trkpt lat="44.9871517382115" lon="8.383304958845274"><ele>153.5</ele><time>2026-03-29T13:36:37Z</time></trkpt><trkpt lat="44.98711551716145" lon="8.383466683150223"><ele>153.25</ele><time>2026-03-29T13:36:38Z</time></trkpt><trkpt lat="44.98706438543869" lon="8.38360470231117"><ele>153.0</ele><time>2026-03-29T13:36:39Z</time></trkpt><trkpt lat="44.98701712167598" lon="8.383745457277485"><ele>152.8</ele><time>2026-03-29T13:36:40Z</time></trkpt><trkpt lat="44.986972608717764" lon="8.383877931775249"><ele>152.60000000000002</ele><time>2026-03-29T13:36:41Z</time></trkpt><trkpt lat="44.986932619815285" lon="8.383997963328275"><ele>152.39999999999998</ele><time>2026-03-29T13:36:42Z</time></trkpt><trkpt lat="44.986860146173946" lon="8.38421039342093"><ele>152.2</ele><time>2026-03-29T13:36:44Z</time></trkpt><trkpt lat="44.986824482760056" lon="8.384318043286012"><ele>152.0</ele><time>2026-03-29T13:36:45Z</time></trkpt><trkpt lat="44.98678640067134" lon="8.384421062416388"><ele>152.0</ele><time>2026-03-29T13:36:46Z</time></trkpt><trkpt lat="44.98673801959363" lon="8.384519250509936"><ele>152.0</ele><time>2026-03-29T13:36:47Z</time></trkpt><trkpt lat="44.98667815646881" lon="8.384610704959766"><ele>152.0</ele><time>2026-03-29T13:36:48Z</time></trkpt><trkpt lat="44.98660596303411" lon="8.384701620481827"><ele>152.0</ele><time>2026-03-29T13:36:49Z</time></trkpt><trkpt lat="44.98652339542829" lon="8.384782171752246"><ele>152.0</ele><time>2026-03-29T13:36:50Z</time></trkpt><trkpt lat="44.98642954812044" lon="8.384850854138492"><ele>154.0</ele><time>2026-03-29T13:36:51Z</time></trkpt><trkpt lat="44.986330835267985" lon="8.384914770810385"><ele>156.0</ele><time>2026-03-29T13:36:52Z</time></trkpt><trkpt lat="44.98622806798175" lon="8.384984717307313"><ele>158.0</ele><time>2026-03-29T13:36:53Z</time></trkpt><trkpt lat="44.98612241036533" lon="8.385057901059351"><ele>160.0</ele><time>2026-03-29T13:36:54Z</time></trkpt><trkpt lat="44.9860210909184" lon="8.385134962162168"><ele>160.0</ele><time>2026-03-29T13:36:55Z</time></trkpt><trkpt lat="44.985912950272564" lon="8.385210097789614"><ele>160.0</ele><time>2026-03-29T13:36:56Z</time></trkpt><trkpt lat="44.98581289171827" lon="8.385278982344417"><ele>160.0</ele><time>2026-03-29T13:36:57Z</time></trkpt><trkpt lat="44.985713428526644" lon="8.38535000901706"><ele>160.0</ele><time>2026-03-29T13:36:58Z</time></trkpt><trkpt lat="44.985614765928666" lon="8.385414336591294"><ele>160.4</ele><time>2026-03-29T13:36:59Z</time></trkpt><trkpt lat="44.985516889179685" lon="8.385466281554173"><ele>160.8</ele><time>2026-03-29T13:37:00Z</time></trkpt><trkpt lat="44.98541828898405" lon="8.385500627465381"><ele>161.2</ele><time>2026-03-29T13:37:01Z</time></trkpt><trkpt lat="44.98530778770579" lon="8.385517855869878"><ele>161.6</ele><time>2026-03-29T13:37:02Z</time></trkpt><trkpt lat="44.98519664331677" lon="8.38552814537598"><ele>162.0</ele><time>2026-03-29T13:37:03Z</time></trkpt><trkpt lat="44.985087176962715" lon="8.385536465971008"><ele>164.6</ele><time>2026-03-29T13:37:04Z</time></trkpt><trkpt lat="44.98498504163193" lon="8.385549373081117"><ele>167.2</ele><time>2026-03-29T13:37:05Z</time></trkpt><trkpt lat="44.984887892730704" lon="8.385563286596295"><ele>169.8</ele><time>2026-03-29T13:37:06Z</time></trkpt><trkpt lat="44.98478868078831" lon="8.38556732361155"><ele>172.4</ele><time>2026-03-29T13:37:07Z</time></trkpt><trkpt lat="44.98469193183963" lon="8.385576497006129"><ele>175.0</ele><time>2026-03-29T13:37:08Z</time></trkpt><trkpt lat="44.98459149957588" lon="8.385590655613766"><ele>175.0</ele><time>2026-03-29T13:37:09Z</time></trkpt><trkpt lat="44.984485995529084" lon="8.385611892828612"><ele>175.0</ele><time>2026-03-29T13:37:10Z</time></trkpt><trkpt lat="44.984383263639444" lon="8.385656810711525"><ele>175.0</ele><time>2026-03-29T13:37:11Z</time></trkpt><trkpt lat="44.98428066337507" lon="8.385723406781178"><ele>175.0</ele><time>2026-03-29T13:37:12Z</time></trkpt><trkpt lat="44.98418053617929" lon="8.38580901329757"><ele>175.0</ele><time>2026-03-29T13:37:13Z</time></trkpt><trkpt lat="44.98408397671296" lon="8.385899859772191"><ele>175.5</ele><time>2026-03-29T13:37:14Z</time></trkpt><trkpt lat="44.98398513021158" lon="8.385981708832002"><ele>176.0</ele><time>2026-03-29T13:37:15Z</time></trkpt><trkpt lat="44.98388330348417" lon="8.386060330012219"><ele>176.5</ele><time>2026-03-29T13:37:16Z</time></trkpt><trkpt lat="44.98378746983502" lon="8.386135042560785"><ele>177.0</ele><time>2026-03-29T13:37:17Z</time></trkpt><trkpt lat="44.98368949877224" lon="8.386204840463773"><ele>177.0</ele><time>2026-03-29T13:37:18Z</time></trkpt><trkpt lat="44.98358237986466" lon="8.386268094449148"><ele>177.0</ele><time>2026-03-29T13:37:19Z</time></trkpt><trkpt lat="44.98347133609655" lon="8.386322384010512"><ele>177.0</ele><time>2026-03-29T13:37:20Z</time></trkpt><trkpt lat="44.98336626596156" lon="8.3863663498303"><ele>177.0</ele><time>2026-03-29T13:37:21Z</time></trkpt><trkpt lat="44.98325569004259" lon="8.386405118190728"><ele>181.5</ele><time>2026-03-29T13:37:22Z</time></trkpt><trkpt lat="44.983137690288565" lon="8.386437389084803"><ele>186.0</ele><time>2026-03-29T13:37:23Z</time></trkpt><trkpt lat="44.98302488675055" lon="8.386469508477694"><ele>190.5</ele><time>2026-03-29T13:37:24Z</time></trkpt><trkpt lat="44.982913861283855" lon="8.386456146485926"><ele>195.0</ele><time>2026-03-29T13:37:25Z</time></trkpt><trkpt lat="44.98279762335677" lon="8.386469889559653"><ele>195.0</ele><time>2026-03-29T13:37:26Z</time></trkpt><trkpt lat="44.98268151232337" lon="8.386458400944905"><ele>195.0</ele><time>2026-03-29T13:37:27Z</time></trkpt><trkpt lat="44.9825701152741" lon="8.386460007168935"><ele>195.0</ele><time>2026-03-29T13:37:28Z</time></trkpt><trkpt lat="44.98245986491472" lon="8.38646382211807"><ele>195.0</ele><time>2026-03-29T13:37:29Z</time></trkpt><trkpt lat="44.982359670273254" lon="8.38648268287127"><ele>195.0</ele><time>2026-03-29T13:37:30Z</time></trkpt><trkpt lat="44.98226695986157" lon="8.386513934751429"><ele>196.0</ele><time>2026-03-29T13:37:31Z</time></trkpt><trkpt lat="44.98217300358646" lon="8.386570512196771"><ele>197.0</ele><time>2026-03-29T13:37:32Z</time></trkpt><trkpt lat="44.982077888371116" lon="8.386639800742188"><ele>198.0</ele><time>2026-03-29T13:37:33Z</time></trkpt><trkpt lat="44.98196880054576" lon="8.386676076368078"><ele>199.0</ele><time>2026-03-29T13:37:34Z</time></trkpt><trkpt lat="44.98188121785965" lon="8.386735865602219"><ele>200.0</ele><time>2026-03-29T13:37:35Z</time></trkpt><trkpt lat="44.98179838098602" lon="8.38678648155561"><ele>200.0</ele><time>2026-03-29T13:37:36Z</time></trkpt><trkpt lat="44.98170707457003" lon="8.386838032876081"><ele>200.0</ele><time>2026-03-29T13:37:37Z</time></trkpt><trkpt lat="44.98161136772427" lon="8.386887740995567"><ele>200.0</ele><time>2026-03-29T13:37:38Z</time></trkpt><trkpt lat="44.98151092796293" lon="8.386938738267569"><ele>200.0</ele><time>2026-03-29T13:37:39Z</time></trkpt><trkpt lat="44.981409761157046" lon="8.386993819436194"><ele>200.0</ele><time>2026-03-29T13:37:40Z</time></trkpt><trkpt lat="44.981305969770595" lon="8.387054176686492"><ele>202.0</ele><time>2026-03-29T13:37:41Z</time></trkpt><trkpt lat="44.98119454261898" lon="8.387108747548027"><ele>204.0</ele><time>2026-03-29T13:37:42Z</time></trkpt><trkpt lat="44.98108047148639" lon="8.387148919374185"><ele>206.0</ele><time>2026-03-29T13:37:43Z</time></trkpt><trkpt lat="44.98096262591637" lon="8.38716831106809"><ele>208.0</ele><time>2026-03-29T13:37:44Z</time></trkpt><trkpt lat="44.980845461351045" lon="8.387164001451698"><ele>213.5</ele><time>2026-03-29T13:37:45Z</time></trkpt><trkpt lat="44.98072396384521" lon="8.38713544893816"><ele>219.0</ele><time>2026-03-29T13:37:46Z</time></trkpt><trkpt lat="44.98059365133107" lon="8.387118212113478"><ele>224.5</ele><time>2026-03-29T13:37:47Z</time></trkpt><trkpt lat="44.98047665358796" lon="8.387120326973365"><ele>230.0</ele><time>2026-03-29T13:37:48Z</time></trkpt><trkpt lat="44.98036975400153" lon="8.387123959330578"><ele>230.0</ele><time>2026-03-29T13:37:49Z</time></trkpt><trkpt lat="44.98025865397841" lon="8.387123320403868"><ele>230.0</ele><time>2026-03-29T13:37:50Z</time></trkpt><trkpt lat="44.98014813340034" lon="8.387157643170601"><ele>230.0</ele><time>2026-03-29T13:37:51Z</time></trkpt><trkpt lat="44.980040164840915" lon="8.387201655139975"><ele>230.0</ele><time>2026-03-29T13:37:52Z</time></trkpt><trkpt lat="44.97992602992601" lon="8.3872441793079"><ele>231.8</ele><time>2026-03-29T13:37:53Z</time></trkpt><trkpt lat="44.97981384798676" lon="8.38728429815312"><ele>233.6</ele><time>2026-03-29T13:37:54Z</time></trkpt><trkpt lat="44.979708082122436" lon="8.387318756623603"><ele>235.39999999999998</ele><time>2026-03-29T13:37:55Z</time></trkpt><trkpt lat="44.97960118072984" lon="8.387352800287807"><ele>237.2</ele><time>2026-03-29T13:37:56Z</time></trkpt><trkpt lat="44.97950026098199" lon="8.38739405460466"><ele>239.0</ele><time>2026-03-29T13:37:57Z</time></trkpt><trkpt lat="44.97940132518026" lon="8.387428161959676"><ele>239.0</ele><time>2026-03-29T13:37:58Z</time></trkpt><trkpt lat="44.97928714559648" lon="8.387457911281198"><ele>239.0</ele><time>2026-03-29T13:37:59Z</time></trkpt><trkpt lat="44.97917087945364" lon="8.387483703138958"><ele>239.0</ele><time>2026-03-29T13:38:00Z</time></trkpt><trkpt lat="44.979048251446315" lon="8.387520073209743"><ele>239.0</ele><time>2026-03-29T13:38:01Z</time></trkpt><trkpt lat="44.97891856475423" lon="8.387560167843134"><ele>236.5</ele><time>2026-03-29T13:38:02Z</time></trkpt><trkpt lat="44.97879006304548" lon="8.38760529018656"><ele>234.0</ele><time>2026-03-29T13:38:03Z</time></trkpt><trkpt lat="44.97865762880203" lon="8.387647537615454"><ele>231.5</ele><time>2026-03-29T13:38:04Z</time></trkpt><trkpt lat="44.97852237075516" lon="8.387696221293163"><ele>229.0</ele><time>2026-03-29T13:38:05Z</time></trkpt><trkpt lat="44.9783807343287" lon="8.387741737411924"><ele>228.0</ele><time>2026-03-29T13:38:06Z</time></trkpt><trkpt lat="44.978241624771194" lon="8.387783979182387"><ele>227.0</ele><time>2026-03-29T13:38:07Z</time></trkpt><trkpt lat="44.97811828013096" lon="8.38782105115781"><ele>226.0</ele><time>2026-03-29T13:38:08Z</time></trkpt><trkpt lat="44.978011553909056" lon="8.387859280549092"><ele>225.0</ele><time>2026-03-29T13:38:09Z</time></trkpt><trkpt lat="44.977913247889774" lon="8.387885937885315"><ele>225.0</ele><time>2026-03-29T13:38:10Z</time></trkpt><trkpt lat="44.97782380815479" lon="8.38790922377454"><ele>225.0</ele><time>2026-03-29T13:38:11Z</time></trkpt><trkpt lat="44.97774291787439" lon="8.387924142635924"><ele>225.0</ele><time>2026-03-29T13:38:12Z</time></trkpt><trkpt lat="44.97761317597714" lon="8.387924479881317"><ele>225.0</ele><time>2026-03-29T13:38:14Z</time></trkpt><trkpt lat="44.97754370072864" lon="8.387909254549799"><ele>225.0</ele><time>2026-03-29T13:38:15Z</time></trkpt><trkpt lat="44.977469406484566" lon="8.387881736305017"><ele>225.0</ele><time>2026-03-29T13:38:16Z</time></trkpt><trkpt lat="44.977384974638575" lon="8.387839251815903"><ele>225.0</ele><time>2026-03-29T13:38:17Z</time></trkpt><trkpt lat="44.97729783419421" lon="8.387798394330265"><ele>225.0</ele><time>2026-03-29T13:38:18Z</time></trkpt><trkpt lat="44.977209707814296" lon="8.387752362754645"><ele>225.0</ele><time>2026-03-29T13:38:19Z</time></trkpt><trkpt lat="44.97712075724557" lon="8.387708974687218"><ele>225.0</ele><time>2026-03-29T13:38:20Z</time></trkpt><trkpt lat="44.97702811428887" lon="8.387660006171602"><ele>225.0</ele><time>2026-03-29T13:38:21Z</time></trkpt><trkpt lat="44.976937900008345" lon="8.387613478760708"><ele>225.0</ele><time>2026-03-29T13:38:22Z</time></trkpt><trkpt lat="44.97684976726709" lon="8.387569489356139"><ele>225.0</ele><time>2026-03-29T13:38:23Z</time></trkpt><trkpt lat="44.97676083643374" lon="8.38751838922612"><ele>225.0</ele><time>2026-03-29T13:38:24Z</time></trkpt><trkpt lat="44.97667700421358" lon="8.387459168657525"><ele>225.0</ele><time>2026-03-29T13:38:25Z</time></trkpt><trkpt lat="44.976592538522944" lon="8.387403563341659"><ele>225.0</ele><time>2026-03-29T13:38:26Z</time></trkpt><trkpt lat="44.97651190875928" lon="8.38735469881251"><ele>225.83333333333334</ele><time>2026-03-29T13:38:27Z</time></trkpt><trkpt lat="44.97643212356661" lon="8.387309441471407"><ele>226.66666666666669</ele><time>2026-03-29T13:38:28Z</time></trkpt><trkpt lat="44.97635494513754" lon="8.387263525027176"><ele>227.5</ele><time>2026-03-29T13:38:29Z</time></trkpt><trkpt lat="44.976279520894565" lon="8.387220498903249"><ele>228.33333333333334</ele><time>2026-03-29T13:38:30Z</time></trkpt><trkpt lat="44.9762161500618" lon="8.387181990774366"><ele>229.16666666666669</ele><time>2026-03-29T13:38:31Z</time></trkpt><trkpt lat="44.97615453049167" lon="8.3871445183187"><ele>230.0</ele><time>2026-03-29T13:38:32Z</time></trkpt><trkpt lat="44.97604311083143" lon="8.387085885866426"><ele>229.16666666666669</ele><time>2026-03-29T13:38:34Z</time></trkpt><trkpt lat="44.9759817091118" lon="8.38706537428612"><ele>228.33333333333334</ele><time>2026-03-29T13:38:35Z</time></trkpt><trkpt lat="44.97591724760883" lon="8.38705000516252"><ele>227.5</ele><time>2026-03-29T13:38:36Z</time></trkpt><trkpt lat="44.97584237701917" lon="8.387035538685971"><ele>226.66666666666669</ele><time>2026-03-29T13:38:37Z</time></trkpt><trkpt lat="44.97576124206162" lon="8.387019020563336"><ele>225.83333333333334</ele><time>2026-03-29T13:38:38Z</time></trkpt><trkpt lat="44.975672890082784" lon="8.387013372968932"><ele>225.0</ele><time>2026-03-29T13:38:39Z</time></trkpt><trkpt lat="44.97558148016582" lon="8.387019239643694"><ele>225.0</ele><time>2026-03-29T13:38:40Z</time></trkpt><trkpt lat="44.97549309823464" lon="8.387037895843024"><ele>225.0</ele><time>2026-03-29T13:38:41Z</time></trkpt><trkpt lat="44.97540274958742" lon="8.387061568690235"><ele>225.0</ele><time>2026-03-29T13:38:42Z</time></trkpt><trkpt lat="44.975312996723524" lon="8.387102696643428"><ele>225.0</ele><time>2026-03-29T13:38:43Z</time></trkpt><trkpt lat="44.97522405112848" lon="8.387158565483547"><ele>225.0</ele><time>2026-03-29T13:38:44Z</time></trkpt><trkpt lat="44.97513416333918" lon="8.387216384684148"><ele>225.4</ele><time>2026-03-29T13:38:45Z</time></trkpt><trkpt lat="44.97505105725988" lon="8.387285364679649"><ele>225.8</ele><time>2026-03-29T13:38:46Z</time></trkpt><trkpt lat="44.97497026378608" lon="8.387353604799664"><ele>226.2</ele><time>2026-03-29T13:38:47Z</time></trkpt><trkpt lat="44.97489458860685" lon="8.387423762161236"><ele>226.6</ele><time>2026-03-29T13:38:48Z</time></trkpt><trkpt lat="44.9748046857586" lon="8.387473459946227"><ele>227.0</ele><time>2026-03-29T13:38:49Z</time></trkpt><trkpt lat="44.97472139879016" lon="8.387543178293722"><ele>227.0</ele><time>2026-03-29T13:38:50Z</time></trkpt><trkpt lat="44.97464661711313" lon="8.387634784574201"><ele>227.0</ele><time>2026-03-29T13:38:51Z</time></trkpt><trkpt lat="44.9745613045299" lon="8.387689818246479"><ele>227.0</ele><time>2026-03-29T13:38:52Z</time></trkpt><trkpt lat="44.97448106137919" lon="8.387738869636683"><ele>227.0</ele><time>2026-03-29T13:38:53Z</time></trkpt><trkpt lat="44.97439665709725" lon="8.387776306008016"><ele>227.0</ele><time>2026-03-29T13:38:54Z</time></trkpt><trkpt lat="44.97431141670497" lon="8.387797998530372"><ele>227.0</ele><time>2026-03-29T13:38:55Z</time></trkpt><trkpt lat="44.97422330158906" lon="8.387801529065127"><ele>227.0</ele><time>2026-03-29T13:38:56Z</time></trkpt><trkpt lat="44.97412799139698" lon="8.387787790020518"><ele>227.0</ele><time>2026-03-29T13:38:57Z</time></trkpt><trkpt lat="44.974029688850635" lon="8.387756925406277"><ele>227.0</ele><time>2026-03-29T13:38:58Z</time></trkpt><trkpt lat="44.9739287908277" lon="8.387710760757853"><ele>227.0</ele><time>2026-03-29T13:38:59Z</time></trkpt><trkpt lat="44.973821557445845" lon="8.387654887439643"><ele>223.75</ele><time>2026-03-29T13:39:00Z</time></trkpt><trkpt lat="44.973708642310164" lon="8.387591686364729"><ele>220.5</ele><time>2026-03-29T13:39:01Z</time></trkpt><trkpt lat="44.97359549981383" lon="8.387530134142333"><ele>217.25</ele><time>2026-03-29T13:39:02Z</time></trkpt><trkpt lat="44.9734826798765" lon="8.387466731351303"><ele>214.0</ele><time>2026-03-29T13:39:03Z</time></trkpt><trkpt lat="44.97336057706853" lon="8.387397094032046"><ele>214.25</ele><time>2026-03-29T13:39:04Z</time></trkpt><trkpt lat="44.97324051782697" lon="8.387317798304736"><ele>214.5</ele><time>2026-03-29T13:39:05Z</time></trkpt><trkpt lat="44.97313011333617" lon="8.387231896353569"><ele>214.75</ele><time>2026-03-29T13:39:06Z</time></trkpt><trkpt lat="44.97301760716618" lon="8.387137959993687"><ele>215.0</ele><time>2026-03-29T13:39:07.001Z</time></trkpt><trkpt lat="44.972908764633175" lon="8.38704139475575"><ele>213.5</ele><time>2026-03-29T13:39:08.001Z</time></trkpt><trkpt lat="44.97281029282253" lon="8.386940813246907"><ele>212.0</ele><time>2026-03-29T13:39:09.001Z</time></trkpt><trkpt lat="44.97271411184523" lon="8.38684385603007"><ele>210.5</ele><time>2026-03-29T13:39:10.001Z</time></trkpt><trkpt lat="44.972619930958004" lon="8.386750977648207"><ele>209.0</ele><time>2026-03-29T13:39:11.001Z</time></trkpt><trkpt lat="44.97252606303464" lon="8.386659106650317"><ele>210.79999999999998</ele><time>2026-03-29T13:39:12.001Z</time></trkpt><trkpt lat="44.972437302480294" lon="8.386577949994322"><ele>212.6</ele><time>2026-03-29T13:39:13.001Z</time></trkpt><trkpt lat="44.972345095793685" lon="8.386508937672872"><ele>214.4</ele><time>2026-03-29T13:39:14.001Z</time></trkpt><trkpt lat="44.97224471356816" lon="8.386448626678249"><ele>216.2</ele><time>2026-03-29T13:39:15.001Z</time></trkpt><trkpt lat="44.97214527976153" lon="8.386374497070605"><ele>218.0</ele><time>2026-03-29T13:39:16.001Z</time></trkpt><trkpt lat="44.97203449937336" lon="8.38634696509313"><ele>218.2</ele><time>2026-03-29T13:39:17.001Z</time></trkpt><trkpt lat="44.971932940331556" lon="8.386301612241837"><ele>218.4</ele><time>2026-03-29T13:39:18.001Z</time></trkpt><trkpt lat="44.97183347927656" lon="8.3862531429272"><ele>218.59999999999997</ele><time>2026-03-29T13:39:19.001Z</time></trkpt><trkpt lat="44.97173488316898" lon="8.38621005210196"><ele>218.79999999999998</ele><time>2026-03-29T13:39:20.001Z</time></trkpt><trkpt lat="44.971630665051094" lon="8.386159548854774"><ele>219.0</ele><time>2026-03-29T13:39:21.001Z</time></trkpt><trkpt lat="44.97153212556112" lon="8.386117957941986"><ele>219.0</ele><time>2026-03-29T13:39:22.001Z</time></trkpt><trkpt lat="44.971426594907655" lon="8.386075067458334"><ele>218.99999999999997</ele><time>2026-03-29T13:39:23.001Z</time></trkpt><trkpt lat="44.971322741717266" lon="8.386046778626886"><ele>218.99999999999997</ele><time>2026-03-29T13:39:24.001Z</time></trkpt><trkpt lat="44.971216337170205" lon="8.38603363797433"><ele>219.0</ele><time>2026-03-29T13:39:25.001Z</time></trkpt><trkpt lat="44.97110974839585" lon="8.38603030306071"><ele>219.0</ele><time>2026-03-29T13:39:26.001Z</time></trkpt><trkpt lat="44.97100587929364" lon="8.386045679306998"><ele>219.0</ele><time>2026-03-29T13:39:27.001Z</time></trkpt><trkpt lat="44.97090496654817" lon="8.386078764709165"><ele>218.99999999999997</ele><time>2026-03-29T13:39:28.001Z</time></trkpt><trkpt lat="44.970804558265215" lon="8.386127719775455"><ele>218.99999999999997</ele><time>2026-03-29T13:39:29.001Z</time></trkpt><trkpt lat="44.97070452023152" lon="8.386183103845573"><ele>219.0</ele><time>2026-03-29T13:39:30.001Z</time></trkpt><trkpt lat="44.97060280659593" lon="8.386248933590629"><ele>219.0</ele><time>2026-03-29T13:39:31.001Z</time></trkpt><trkpt lat="44.970502161635785" lon="8.38631731664252"><ele>217.25</ele><time>2026-03-29T13:39:32.001Z</time></trkpt><trkpt lat="44.97040458334115" lon="8.386385407601681"><ele>215.5</ele><time>2026-03-29T13:39:33.001Z</time></trkpt><trkpt lat="44.9703033683037" lon="8.38645065102779"><ele>213.75</ele><time>2026-03-29T13:39:34.001Z</time></trkpt><trkpt lat="44.97019777039023" lon="8.386512886823203"><ele>212.0</ele><time>2026-03-29T13:39:35.001Z</time></trkpt><trkpt lat="44.97008749740942" lon="8.38658631819549"><ele>212.39999999999998</ele><time>2026-03-29T13:39:36.001Z</time></trkpt><trkpt lat="44.96998130397635" lon="8.38666118534115"><ele>212.79999999999998</ele><time>2026-03-29T13:39:37.001Z</time></trkpt><trkpt lat="44.96988001929164" lon="8.38673297635033"><ele>213.2</ele><time>2026-03-29T13:39:38.001Z</time></trkpt><trkpt lat="44.96978349577465" lon="8.386794058323089"><ele>213.6</ele><time>2026-03-29T13:39:39.001Z</time></trkpt><trkpt lat="44.96969257583966" lon="8.386856038376559"><ele>214.0</ele><time>2026-03-29T13:39:40.001Z</time></trkpt><trkpt lat="44.96959675223248" lon="8.386919683501265"><ele>214.0</ele><time>2026-03-29T13:39:41.001Z</time></trkpt><trkpt lat="44.96950547874922" lon="8.38698920869963"><ele>213.99999999999997</ele><time>2026-03-29T13:39:42.001Z</time></trkpt><trkpt lat="44.96940346420798" lon="8.387051472926542"><ele>213.99999999999997</ele><time>2026-03-29T13:39:43.001Z</time></trkpt><trkpt lat="44.969309056717854" lon="8.387146797721137"><ele>214.0</ele><time>2026-03-29T13:39:44.001Z</time></trkpt><trkpt lat="44.96920868167852" lon="8.387220692396825"><ele>214.0</ele><time>2026-03-29T13:39:45.001Z</time></trkpt><trkpt lat="44.96911264672099" lon="8.387286336987733"><ele>214.0</ele><time>2026-03-29T13:39:46.001Z</time></trkpt><trkpt lat="44.96901864939541" lon="8.387335856879684"><ele>213.99999999999997</ele><time>2026-03-29T13:39:47.001Z</time></trkpt><trkpt lat="44.9689239459868" lon="8.387355554146383"><ele>213.99999999999997</ele><time>2026-03-29T13:39:48.001Z</time></trkpt><trkpt lat="44.96881578057226" lon="8.38734564145966"><ele>214.0</ele><time>2026-03-29T13:39:49.001Z</time></trkpt><trkpt lat="44.96870383391885" lon="8.38730924832773"><ele>214.0</ele><time>2026-03-29T13:39:50.001Z</time></trkpt><trkpt lat="44.96859133895706" lon="8.387267339545275"><ele>214.0</ele><time>2026-03-29T13:39:51.001Z</time></trkpt><trkpt lat="44.96847504416411" lon="8.387215131327272"><ele>214.0</ele><time>2026-03-29T13:39:52.001Z</time></trkpt><trkpt lat="44.968355119925626" lon="8.387155886806674"><ele>214.0</ele><time>2026-03-29T13:39:53.001Z</time></trkpt><trkpt lat="44.96823777843797" lon="8.387105903634552"><ele>214.0</ele><time>2026-03-29T13:39:54.001Z</time></trkpt><trkpt lat="44.96812344218526" lon="8.387051762391962"><ele>212.5</ele><time>2026-03-29T13:39:55.001Z</time></trkpt><trkpt lat="44.96800796182982" lon="8.386996983362215"><ele>211.0</ele><time>2026-03-29T13:39:56.001Z</time></trkpt><trkpt lat="44.96789297699363" lon="8.386938482554902"><ele>209.5</ele><time>2026-03-29T13:39:57.001Z</time></trkpt><trkpt lat="44.967778605177394" lon="8.386858469091672"><ele>208.0</ele><time>2026-03-29T13:39:58.001Z</time></trkpt><trkpt lat="44.96767262693643" lon="8.386767686131277"><ele>208.0</ele><time>2026-03-29T13:39:59.001Z</time></trkpt><trkpt lat="44.967570339837266" lon="8.386672437298072"><ele>208.0</ele><time>2026-03-29T13:40:00.001Z</time></trkpt><trkpt lat="44.96747756252948" lon="8.386590971672579"><ele>208.0</ele><time>2026-03-29T13:40:01.001Z</time></trkpt><trkpt lat="44.96739416515584" lon="8.386514640555685"><ele>208.0</ele><time>2026-03-29T13:40:02.001Z</time></trkpt><trkpt lat="44.96732114427496" lon="8.386455121444968"><ele>208.0</ele><time>2026-03-29T13:40:03.001Z</time></trkpt><trkpt lat="44.96725675195853" lon="8.386413922276772"><ele>208.4</ele><time>2026-03-29T13:40:04.001Z</time></trkpt><trkpt lat="44.96711721370029" lon="8.386342645330807"><ele>208.8</ele><time>2026-03-29T13:40:06.001Z</time></trkpt><trkpt lat="44.967049463247655" lon="8.38637806675048"><ele>209.2</ele><time>2026-03-29T13:40:07.001Z</time></trkpt><trkpt lat="44.96697086817408" lon="8.386408431811349"><ele>209.6</ele><time>2026-03-29T13:40:08.001Z</time></trkpt><trkpt lat="44.96687599317207" lon="8.386453785536885"><ele>210.0</ele><time>2026-03-29T13:40:09.001Z</time></trkpt><trkpt lat="44.9667674455358" lon="8.386472651027834"><ele>210.0</ele><time>2026-03-29T13:40:10.001Z</time></trkpt><trkpt lat="44.96664950680135" lon="8.386492098626773"><ele>210.0</ele><time>2026-03-29T13:40:11.001Z</time></trkpt><trkpt lat="44.966532943006996" lon="8.38651152295927"><ele>210.0</ele><time>2026-03-29T13:40:12.001Z</time></trkpt><trkpt lat="44.9664201608578" lon="8.386528600133795"><ele>210.0</ele><time>2026-03-29T13:40:13.001Z</time></trkpt><trkpt lat="44.96630659131079" lon="8.386548315061908"><ele>210.0</ele><time>2026-03-29T13:40:14.001Z</time></trkpt><trkpt lat="44.96620300957782" lon="8.386559149230829"><ele>210.0</ele><time>2026-03-29T13:40:15.001Z</time></trkpt><trkpt lat="44.96610915668236" lon="8.386568754127588"><ele>210.0</ele><time>2026-03-29T13:40:16.001Z</time></trkpt><trkpt lat="44.96601620928334" lon="8.38657940665846"><ele>210.0</ele><time>2026-03-29T13:40:17.001Z</time></trkpt><trkpt lat="44.9659251441411" lon="8.386594337623697"><ele>210.0</ele><time>2026-03-29T13:40:18.001Z</time></trkpt><trkpt lat="44.96583554090994" lon="8.38660867450333"><ele>210.0</ele><time>2026-03-29T13:40:19.001Z</time></trkpt><trkpt lat="44.96574534184474" lon="8.386627050000541"><ele>210.0</ele><time>2026-03-29T13:40:20.001Z</time></trkpt><trkpt lat="44.965653638755285" lon="8.386654538381915"><ele>210.0</ele><time>2026-03-29T13:40:21.001Z</time></trkpt><trkpt lat="44.96555923402497" lon="8.386686995728573"><ele>210.0</ele><time>2026-03-29T13:40:22.001Z</time></trkpt><trkpt lat="44.96547063612438" lon="8.386714359096677"><ele>210.0</ele><time>2026-03-29T13:40:23.001Z</time></trkpt><trkpt lat="44.96538059864622" lon="8.386742875844183"><ele>210.0</ele><time>2026-03-29T13:40:24.001Z</time></trkpt><trkpt lat="44.96528705254879" lon="8.38676839470557"><ele>210.0</ele><time>2026-03-29T13:40:25.001Z</time></trkpt><trkpt lat="44.96519802587599" lon="8.386788335990902"><ele>210.0</ele><time>2026-03-29T13:40:26.001Z</time></trkpt><trkpt lat="44.96510949822265" lon="8.38681612430158"><ele>210.0</ele><time>2026-03-29T13:40:27.001Z</time></trkpt><trkpt lat="44.96502125659308" lon="8.386847271363214"><ele>210.0</ele><time>2026-03-29T13:40:28.001Z</time></trkpt><trkpt lat="44.964940578716686" lon="8.38687382969085"><ele>209.16666666666666</ele><time>2026-03-29T13:40:29.001Z</time></trkpt><trkpt lat="44.96485869079263" lon="8.38689958948347"><ele>208.33333333333331</ele><time>2026-03-29T13:40:30.001Z</time></trkpt><trkpt lat="44.96477829257641" lon="8.386935012701644"><ele>207.5</ele><time>2026-03-29T13:40:31.001Z</time></trkpt><trkpt lat="44.96470483843601" lon="8.386979283249953"><ele>206.66666666666666</ele><time>2026-03-29T13:40:32.001Z</time></trkpt><trkpt lat="44.96462727372498" lon="8.387004404507696"><ele>205.83333333333331</ele><time>2026-03-29T13:40:33.001Z</time></trkpt><trkpt lat="44.964570730345145" lon="8.387072080188728"><ele>205.0</ele><time>2026-03-29T13:40:34.001Z</time></trkpt><trkpt lat="44.964507556134066" lon="8.387126460285605"><ele>205.0</ele><time>2026-03-29T13:40:35.001Z</time></trkpt><trkpt lat="44.96445350908242" lon="8.387196455868603"><ele>205.0</ele><time>2026-03-29T13:40:36.001Z</time></trkpt><trkpt lat="44.9643812622919" lon="8.387250660425186"><ele>205.0</ele><time>2026-03-29T13:40:37.001Z</time></trkpt><trkpt lat="44.96430986432257" lon="8.387334258853636"><ele>205.0</ele><time>2026-03-29T13:40:38.001Z</time></trkpt><trkpt lat="44.96423346248563" lon="8.387426837645862"><ele>205.0</ele><time>2026-03-29T13:40:39.001Z</time></trkpt><trkpt lat="44.96414967009628" lon="8.387531524844224"><ele>204.8</ele><time>2026-03-29T13:40:40.001Z</time></trkpt><trkpt lat="44.964065866605424" lon="8.38763622589584"><ele>204.6</ele><time>2026-03-29T13:40:41.001Z</time></trkpt><trkpt lat="44.96399607076689" lon="8.387753642813397"><ele>204.39999999999998</ele><time>2026-03-29T13:40:42.001Z</time></trkpt><trkpt lat="44.96391837135629" lon="8.387842389996916"><ele>204.2</ele><time>2026-03-29T13:40:43.001Z</time></trkpt><trkpt lat="44.963849074571826" lon="8.387929216805132"><ele>204.0</ele><time>2026-03-29T13:40:44.001Z</time></trkpt><trkpt lat="44.96378006234178" lon="8.388009111502933"><ele>202.66666666666666</ele><time>2026-03-29T13:40:45.001Z</time></trkpt><trkpt lat="44.96371284088117" lon="8.388092146205587"><ele>201.33333333333331</ele><time>2026-03-29T13:40:46.001Z</time></trkpt><trkpt lat="44.96364839222065" lon="8.388182275610957"><ele>200.0</ele><time>2026-03-29T13:40:47.001Z</time></trkpt><trkpt lat="44.96358697075391" lon="8.388257206405498"><ele>198.66666666666666</ele><time>2026-03-29T13:40:48.001Z</time></trkpt><trkpt lat="44.963528105613975" lon="8.388322328037932"><ele>197.33333333333331</ele><time>2026-03-29T13:40:49.001Z</time></trkpt><trkpt lat="44.96347266600405" lon="8.388385204149943"><ele>196.0</ele><time>2026-03-29T13:40:50.001Z</time></trkpt><trkpt lat="44.96341788558214" lon="8.38845260509518"><ele>195.99999999999997</ele><time>2026-03-29T13:40:51.001Z</time></trkpt><trkpt lat="44.96337177210701" lon="8.388523741830854"><ele>196.0</ele><time>2026-03-29T13:40:52.001Z</time></trkpt><trkpt lat="44.96330725750262" lon="8.388598140470917"><ele>196.0</ele><time>2026-03-29T13:40:53.001Z</time></trkpt><trkpt lat="44.96325758331253" lon="8.388704501554027"><ele>196.0</ele><time>2026-03-29T13:40:54.001Z</time></trkpt><trkpt lat="44.963230155282645" lon="8.388785923500697"><ele>195.99999999999997</ele><time>2026-03-29T13:40:55.001Z</time></trkpt><trkpt lat="44.963191016624926" lon="8.38894698208784"><ele>196.0</ele><time>2026-03-29T13:40:57.001Z</time></trkpt><trkpt lat="44.96316462447556" lon="8.389113255923775"><ele>195.0</ele><time>2026-03-29T13:40:59.001Z</time></trkpt><trkpt lat="44.963139070662486" lon="8.38927680030252"><ele>194.0</ele><time>2026-03-29T13:41:01.001Z</time></trkpt><trkpt lat="44.96311165511246" lon="8.38944338789141"><ele>193.0</ele><time>2026-03-29T13:41:03.001Z</time></trkpt><trkpt lat="44.96308449773053" lon="8.389604322799967"><ele>192.0</ele><time>2026-03-29T13:41:05.001Z</time></trkpt><trkpt lat="44.96305852893192" lon="8.389757215654383"><ele>192.0</ele><time>2026-03-29T13:41:07.001Z</time></trkpt><trkpt lat="44.96302631408542" lon="8.389895800618596"><ele>192.0</ele><time>2026-03-29T13:41:09.001Z</time></trkpt><trkpt lat="44.96295128333078" lon="8.389938370628782"><ele>192.0</ele><time>2026-03-29T13:41:11.001Z</time></trkpt><trkpt lat="44.962878510511764" lon="8.390043788123455"><ele>192.0</ele><time>2026-03-29T13:41:13.001Z</time></trkpt><trkpt lat="44.96286044521391" lon="8.390133991333263"><ele>192.0</ele><time>2026-03-29T13:41:14.001Z</time></trkpt><trkpt lat="44.96283593567418" lon="8.390223096853154"><ele>192.0</ele><time>2026-03-29T13:41:15.001Z</time></trkpt><trkpt lat="44.962805547342285" lon="8.390368349412041"><ele>192.0</ele><time>2026-03-29T13:41:17.001Z</time></trkpt><trkpt lat="44.96275701431236" lon="8.390492210641755"><ele>192.0</ele><time>2026-03-29T13:41:19.001Z</time></trkpt><trkpt lat="44.96269302358225" lon="8.390584963842862"><ele>192.0</ele><time>2026-03-29T13:41:21.001Z</time></trkpt><trkpt lat="44.962626299836856" lon="8.390676871042883"><ele>192.0</ele><time>2026-03-29T13:41:23.001Z</time></trkpt><trkpt lat="44.96256518242851" lon="8.390785002504503"><ele>192.0</ele><time>2026-03-29T13:41:25.001Z</time></trkpt><trkpt lat="44.96253163027013" lon="8.390918945531492"><ele>191.66666666666666</ele><time>2026-03-29T13:41:27.001Z</time></trkpt><trkpt lat="44.962520855300866" lon="8.391044481107013"><ele>191.33333333333334</ele><time>2026-03-29T13:41:29.001Z</time></trkpt><trkpt lat="44.96251141355952" lon="8.391158494539546"><ele>191.0</ele><time>2026-03-29T13:41:31.001Z</time></trkpt><trkpt lat="44.962502151285456" lon="8.391270340811017"><ele>190.66666666666669</ele><time>2026-03-29T13:41:33.001Z</time></trkpt><trkpt lat="44.96249273883526" lon="8.391384000555306"><ele>190.33333333333334</ele><time>2026-03-29T13:41:35.001Z</time></trkpt><trkpt lat="44.96248205926852" lon="8.391499701736386"><ele>190.0</ele><time>2026-03-29T13:41:37.001Z</time></trkpt><trkpt lat="44.96246895848641" lon="8.39163214526148"><ele>188.6</ele><time>2026-03-29T13:41:39.001Z</time></trkpt><trkpt lat="44.962446502764884" lon="8.391782107644824"><ele>187.2</ele><time>2026-03-29T13:41:41.001Z</time></trkpt><trkpt lat="44.96239966770242" lon="8.391938326065553"><ele>185.8</ele><time>2026-03-29T13:41:43.001Z</time></trkpt><trkpt lat="44.96237038395953" lon="8.392026177239893"><ele>184.4</ele><time>2026-03-29T13:41:44.002Z</time></trkpt><trkpt lat="44.962342351046004" lon="8.392111355007248"><ele>183.0</ele><time>2026-03-29T13:41:45.002Z</time></trkpt><trkpt lat="44.962290730600834" lon="8.392273313390843"><ele>181.71428571428572</ele><time>2026-03-29T13:41:47.002Z</time></trkpt><trkpt lat="44.962265519168014" lon="8.392358976546442"><ele>180.42857142857144</ele><time>2026-03-29T13:41:48.002Z</time></trkpt><trkpt lat="44.96224323346822" lon="8.392447560501632"><ele>179.14285714285714</ele><time>2026-03-29T13:41:49.001Z</time></trkpt><trkpt lat="44.96222109725422" lon="8.392549811362823"><ele>177.85714285714286</ele><time>2026-03-29T13:41:50.001Z</time></trkpt><trkpt lat="44.96220239201299" lon="8.392659252792532"><ele>176.57142857142858</ele><time>2026-03-29T13:41:51.001Z</time></trkpt><trkpt lat="44.96218737547329" lon="8.392759682759127"><ele>175.28571428571428</ele><time>2026-03-29T13:41:52.001Z</time></trkpt><trkpt lat="44.962174021035246" lon="8.392853347577166"><ele>174.0</ele><time>2026-03-29T13:41:53.001Z</time></trkpt><trkpt lat="44.962177081315886" lon="8.392948667460946"><ele>171.79999999999998</ele><time>2026-03-29T13:41:54.001Z</time></trkpt><trkpt lat="44.9621402554852" lon="8.393107451133787"><ele>169.6</ele><time>2026-03-29T13:41:56.001Z</time></trkpt><trkpt lat="44.96212258492336" lon="8.393251585587965"><ele>167.4</ele><time>2026-03-29T13:41:58.001Z</time></trkpt><trkpt lat="44.962104482241045" lon="8.39339567278568"><ele>165.2</ele><time>2026-03-29T13:42:00.001Z</time></trkpt><trkpt lat="44.9620856995818" lon="8.393534414979925"><ele>163.0</ele><time>2026-03-29T13:42:02.001Z</time></trkpt><trkpt lat="44.96207225427733" lon="8.393665439464446"><ele>163.0</ele><time>2026-03-29T13:42:04.001Z</time></trkpt><trkpt lat="44.96206457246131" lon="8.39378160145755"><ele>163.0</ele><time>2026-03-29T13:42:06.001Z</time></trkpt><trkpt lat="44.96205992315784" lon="8.393876137279957"><ele>163.0</ele><time>2026-03-29T13:42:08.001Z</time></trkpt><trkpt lat="44.96205734925622" lon="8.39398186234351"><ele>163.0</ele><time>2026-03-29T13:42:11.001Z</time></trkpt><trkpt lat="44.962073247527655" lon="8.394076242579917"><ele>163.0</ele><time>2026-03-29T13:42:17.001Z</time></trkpt><trkpt lat="44.96228119019183" lon="8.394095531950656"><ele>162.66666666666669</ele><time>2026-03-29T13:42:18.001Z</time></trkpt><trkpt lat="44.96239380071465" lon="8.394134524480052"><ele>162.33333333333334</ele><time>2026-03-29T13:42:20.001Z</time></trkpt><trkpt lat="44.962459025543545" lon="8.394166395703285"><ele>162.0</ele><time>2026-03-29T13:42:21.001Z</time></trkpt><trkpt lat="44.962520956513785" lon="8.394200833324113"><ele>161.66666666666666</ele><time>2026-03-29T13:42:22.001Z</time></trkpt><trkpt lat="44.9625837965228" lon="8.394236390690955"><ele>161.33333333333331</ele><time>2026-03-29T13:42:23.001Z</time></trkpt><trkpt lat="44.96264498285406" lon="8.394267333677224"><ele>161.0</ele><time>2026-03-29T13:42:24.001Z</time></trkpt><trkpt lat="44.962713446805765" lon="8.394309273883609"><ele>161.0</ele><time>2026-03-29T13:42:25.001Z</time></trkpt><trkpt lat="44.962781534188956" lon="8.394346912356069"><ele>161.0</ele><time>2026-03-29T13:42:26.001Z</time></trkpt><trkpt lat="44.96285062034576" lon="8.39438410357513"><ele>161.0</ele><time>2026-03-29T13:42:27.001Z</time></trkpt><trkpt lat="44.962927277636346" lon="8.394423001424416"><ele>161.0</ele><time>2026-03-29T13:42:28.001Z</time></trkpt><trkpt lat="44.96300521413828" lon="8.394463153161082"><ele>161.0</ele><time>2026-03-29T13:42:29.001Z</time></trkpt><trkpt lat="44.96307901766332" lon="8.394501619294159"><ele>161.0</ele><time>2026-03-29T13:42:30.001Z</time></trkpt><trkpt lat="44.96315162067033" lon="8.394540396813207"><ele>161.0</ele><time>2026-03-29T13:42:31.001Z</time></trkpt><trkpt lat="44.96322607451628" lon="8.39458051462108"><ele>161.0</ele><time>2026-03-29T13:42:32.001Z</time></trkpt><trkpt lat="44.96329788841608" lon="8.394616245809733"><ele>161.0</ele><time>2026-03-29T13:42:33.001Z</time></trkpt><trkpt lat="44.96337852700599" lon="8.394653771475319"><ele>161.0</ele><time>2026-03-29T13:42:34.001Z</time></trkpt><trkpt lat="44.96345910518123" lon="8.394691507066641"><ele>161.0</ele><time>2026-03-29T13:42:35.001Z</time></trkpt><trkpt lat="44.963531753047825" lon="8.394726805164382"><ele>161.0</ele><time>2026-03-29T13:42:36.001Z</time></trkpt><trkpt lat="44.96360700882166" lon="8.394766699883624"><ele>161.33333333333331</ele><time>2026-03-29T13:42:37.001Z</time></trkpt><trkpt lat="44.963680279363125" lon="8.394810459111522"><ele>161.66666666666666</ele><time>2026-03-29T13:42:38.001Z</time></trkpt><trkpt lat="44.96374982569453" lon="8.394855458182901"><ele>162.0</ele><time>2026-03-29T13:42:39.001Z</time></trkpt><trkpt lat="44.96382243085085" lon="8.394905651502096"><ele>162.33333333333334</ele><time>2026-03-29T13:42:40.001Z</time></trkpt><trkpt lat="44.96389323147794" lon="8.394952942543833"><ele>162.66666666666669</ele><time>2026-03-29T13:42:41.001Z</time></trkpt><trkpt lat="44.96395803629292" lon="8.394993092714138"><ele>163.0</ele><time>2026-03-29T13:42:42.001Z</time></trkpt><trkpt lat="44.96402024526718" lon="8.395032911955147"><ele>163.0</ele><time>2026-03-29T13:42:43.001Z</time></trkpt><trkpt lat="44.96408159802958" lon="8.395072434987242"><ele>163.0</ele><time>2026-03-29T13:42:44.001Z</time></trkpt><trkpt lat="44.964143032183124" lon="8.39511096041722"><ele>163.0</ele><time>2026-03-29T13:42:45.001Z</time></trkpt><trkpt lat="44.96420872746483" lon="8.395150344569059"><ele>163.0</ele><time>2026-03-29T13:42:46.001Z</time></trkpt><trkpt lat="44.96427007201475" lon="8.395187839122645"><ele>163.0</ele><time>2026-03-29T13:42:47.001Z</time></trkpt><trkpt lat="44.96433565505449" lon="8.395222201113587"><ele>163.0</ele><time>2026-03-29T13:42:48.001Z</time></trkpt><trkpt lat="44.96439929178512" lon="8.39526123111796"><ele>163.0</ele><time>2026-03-29T13:42:49.001Z</time></trkpt><trkpt lat="44.96445814456645" lon="8.395295483827086"><ele>163.71428571428572</ele><time>2026-03-29T13:42:50.001Z</time></trkpt><trkpt lat="44.964520510785626" lon="8.395330292228406"><ele>164.42857142857142</ele><time>2026-03-29T13:42:51.001Z</time></trkpt><trkpt lat="44.96458352232484" lon="8.395364477234674"><ele>165.14285714285714</ele><time>2026-03-29T13:42:52.001Z</time></trkpt><trkpt lat="44.96464785894825" lon="8.395400241002593"><ele>165.85714285714286</ele><time>2026-03-29T13:42:53.001Z</time></trkpt><trkpt lat="44.964711797238245" lon="8.395433094078221"><ele>166.57142857142856</ele><time>2026-03-29T13:42:54.001Z</time></trkpt><trkpt lat="44.96477479432405" lon="8.395465096570401"><ele>167.28571428571428</ele><time>2026-03-29T13:42:55.001Z</time></trkpt><trkpt lat="44.9648417909846" lon="8.395500152511646"><ele>168.0</ele><time>2026-03-29T13:42:56.001Z</time></trkpt><trkpt lat="44.9649052967954" lon="8.395531834616964"><ele>168.14285714285714</ele><time>2026-03-29T13:42:57.001Z</time></trkpt><trkpt lat="44.9649756933889" lon="8.395562555121744"><ele>168.28571428571428</ele><time>2026-03-29T13:42:58.001Z</time></trkpt><trkpt lat="44.96503846072733" lon="8.395592275222034"><ele>168.42857142857144</ele><time>2026-03-29T13:42:59.001Z</time></trkpt><trkpt lat="44.96510507985738" lon="8.395625499175976"><ele>168.57142857142856</ele><time>2026-03-29T13:43:00.001Z</time></trkpt><trkpt lat="44.96517586385893" lon="8.395662306065029"><ele>168.71428571428572</ele><time>2026-03-29T13:43:01.001Z</time></trkpt><trkpt lat="44.96524282557356" lon="8.395694081628177"><ele>168.85714285714286</ele><time>2026-03-29T13:43:02.001Z</time></trkpt><trkpt lat="44.9653064630555" lon="8.39572837422927"><ele>169.0</ele><time>2026-03-29T13:43:03.001Z</time></trkpt><trkpt lat="44.965366281937726" lon="8.39576374920217"><ele>168.66666666666669</ele><time>2026-03-29T13:43:04.001Z</time></trkpt><trkpt lat="44.96542460916921" lon="8.395801008854136"><ele>168.33333333333334</ele><time>2026-03-29T13:43:05.001Z</time></trkpt><trkpt lat="44.965484424231704" lon="8.395835825816444"><ele>168.0</ele><time>2026-03-29T13:43:06.001Z</time></trkpt><trkpt lat="44.96555322060598" lon="8.395876269703223"><ele>167.66666666666666</ele><time>2026-03-29T13:43:07.001Z</time></trkpt><trkpt lat="44.96563740776118" lon="8.395922080958988"><ele>167.33333333333331</ele><time>2026-03-29T13:43:08.001Z</time></trkpt><trkpt lat="44.9657275377108" lon="8.395958231192369"><ele>167.0</ele><time>2026-03-29T13:43:09.001Z</time></trkpt><trkpt lat="44.96580781127614" lon="8.395996349799352"><ele>167.5</ele><time>2026-03-29T13:43:10.001Z</time></trkpt><trkpt lat="44.96588650695719" lon="8.396031646699477"><ele>168.0</ele><time>2026-03-29T13:43:11.001Z</time></trkpt><trkpt lat="44.96596016224183" lon="8.396064003707586"><ele>168.5</ele><time>2026-03-29T13:43:12.001Z</time></trkpt><trkpt lat="44.96603483681762" lon="8.396097323310407"><ele>169.0</ele><time>2026-03-29T13:43:13.001Z</time></trkpt><trkpt lat="44.96610784466315" lon="8.396131122707159"><ele>169.5</ele><time>2026-03-29T13:43:14.001Z</time></trkpt><trkpt lat="44.96617950541507" lon="8.39617679564204"><ele>170.0</ele><time>2026-03-29T13:43:15.001Z</time></trkpt><trkpt lat="44.966244364728865" lon="8.396203450547393"><ele>170.0</ele><time>2026-03-29T13:43:16.001Z</time></trkpt><trkpt lat="44.966303572022035" lon="8.396235779379039"><ele>170.0</ele><time>2026-03-29T13:43:17.001Z</time></trkpt><trkpt lat="44.966365101804875" lon="8.3962746124614"><ele>170.0</ele><time>2026-03-29T13:43:18.001Z</time></trkpt><trkpt lat="44.96642801500908" lon="8.396309847915017"><ele>170.0</ele><time>2026-03-29T13:43:19.001Z</time></trkpt><trkpt lat="44.96649479037392" lon="8.396353243237195"><ele>170.0</ele><time>2026-03-29T13:43:20.001Z</time></trkpt><trkpt lat="44.96656176075623" lon="8.396393106039922"><ele>170.0</ele><time>2026-03-29T13:43:21.001Z</time></trkpt><trkpt lat="44.966626469865204" lon="8.396437519740118"><ele>170.0</ele><time>2026-03-29T13:43:22.001Z</time></trkpt><trkpt lat="44.96669257955015" lon="8.396482672600628"><ele>169.85714285714286</ele><time>2026-03-29T13:43:23.001Z</time></trkpt><trkpt lat="44.96675432667097" lon="8.396528669281503"><ele>169.7142857142857</ele><time>2026-03-29T13:43:24.001Z</time></trkpt><trkpt lat="44.966817326957425" lon="8.396574054402233"><ele>169.57142857142856</ele><time>2026-03-29T13:43:25.001Z</time></trkpt><trkpt lat="44.96688282524615" lon="8.396620122140737"><ele>169.42857142857144</ele><time>2026-03-29T13:43:26.001Z</time></trkpt><trkpt lat="44.96694610919484" lon="8.396659255803574"><ele>169.28571428571428</ele><time>2026-03-29T13:43:27.001Z</time></trkpt><trkpt lat="44.96701124044291" lon="8.39670354174395"><ele>169.14285714285714</ele><time>2026-03-29T13:43:28.001Z</time></trkpt><trkpt lat="44.96707003127113" lon="8.396744540131358"><ele>169.0</ele><time>2026-03-29T13:43:29.001Z</time></trkpt><trkpt lat="44.967169386212674" lon="8.396814784196476"><ele>169.0</ele><time>2026-03-29T13:43:31.001Z</time></trkpt><trkpt lat="44.96727322262004" lon="8.396887077819738"><ele>169.0</ele><time>2026-03-29T13:43:33.001Z</time></trkpt><trkpt lat="44.9673936935692" lon="8.396952872539137"><ele>169.0</ele><time>2026-03-29T13:43:35.001Z</time></trkpt><trkpt lat="44.96745459997187" lon="8.396989679324331"><ele>169.0</ele><time>2026-03-29T13:43:36.001Z</time></trkpt><trkpt lat="44.967516362198815" lon="8.39703097243381"><ele>169.0</ele><time>2026-03-29T13:43:37.001Z</time></trkpt><trkpt lat="44.96757914027803" lon="8.397080551200393"><ele>168.5</ele><time>2026-03-29T13:43:38.001Z</time></trkpt><trkpt lat="44.96764031433506" lon="8.397131113572597"><ele>168.0</ele><time>2026-03-29T13:43:39.001Z</time></trkpt><trkpt lat="44.96770109237909" lon="8.397185606442557"><ele>167.5</ele><time>2026-03-29T13:43:40.001Z</time></trkpt><trkpt lat="44.967764947911014" lon="8.397240400946238"><ele>167.0</ele><time>2026-03-29T13:43:41.001Z</time></trkpt><trkpt lat="44.96783978074203" lon="8.397308084046673"><ele>166.5</ele><time>2026-03-29T13:43:42.001Z</time></trkpt><trkpt lat="44.96792368543014" lon="8.397388559063781"><ele>166.0</ele><time>2026-03-29T13:43:43.001Z</time></trkpt><trkpt lat="44.96801123675759" lon="8.397464252116729"><ele>166.0</ele><time>2026-03-29T13:43:44.001Z</time></trkpt><trkpt lat="44.968089080562514" lon="8.397532861923223"><ele>166.0</ele><time>2026-03-29T13:43:45.001Z</time></trkpt><trkpt lat="44.96815154421948" lon="8.397584478067516"><ele>166.0</ele><time>2026-03-29T13:43:46.001Z</time></trkpt><trkpt lat="44.96820899861219" lon="8.397626509402091"><ele>166.0</ele><time>2026-03-29T13:43:47.001Z</time></trkpt><trkpt lat="44.96826858115104" lon="8.39766875261981"><ele>166.0</ele><time>2026-03-29T13:43:48.001Z</time></trkpt><trkpt lat="44.96837108163999" lon="8.397744344774566"><ele>166.0</ele><time>2026-03-29T13:43:50.001Z</time></trkpt><trkpt lat="44.96845724845032" lon="8.39780751961281"><ele>166.83333333333334</ele><time>2026-03-29T13:43:52.001Z</time></trkpt><trkpt lat="44.96852565305888" lon="8.39785295238352"><ele>167.66666666666669</ele><time>2026-03-29T13:43:54.001Z</time></trkpt><trkpt lat="44.968598329774004" lon="8.397874857455035"><ele>168.5</ele><time>2026-03-29T13:43:57.001Z</time></trkpt><trkpt lat="44.96863256750692" lon="8.397782737840929"><ele>169.33333333333334</ele><time>2026-03-29T13:45:12Z</time></trkpt><trkpt lat="44.96862232738965" lon="8.397621775395939"><ele>170.16666666666666</ele><time>2026-03-29T13:45:17Z</time></trkpt><trkpt lat="44.968610291763426" lon="8.39746763297867"><ele>171.0</ele><time>2026-03-29T13:45:23Z</time></trkpt><trkpt lat="44.968604929354726" lon="8.397375769445826"><ele>171.0</ele><time>2026-03-29T13:45:24Z</time></trkpt><trkpt lat="44.96860006647554" lon="8.39727470988805"><ele>171.0</ele><time>2026-03-29T13:45:25Z</time></trkpt><trkpt lat="44.96859464581111" lon="8.39715224572347"><ele>171.0</ele><time>2026-03-29T13:45:26Z</time></trkpt><trkpt lat="44.968588600334684" lon="8.397016917844041"><ele>171.0</ele><time>2026-03-29T13:45:27Z</time></trkpt><trkpt lat="44.96858421727969" lon="8.396896764129899"><ele>171.0</ele><time>2026-03-29T13:45:28Z</time></trkpt><trkpt lat="44.968578256159375" lon="8.396781404557885"><ele>171.0</ele><time>2026-03-29T13:45:29Z</time></trkpt><trkpt lat="44.96857215847895" lon="8.396677661379416"><ele>172.99999999999997</ele><time>2026-03-29T13:45:30Z</time></trkpt><trkpt lat="44.96857044847391" lon="8.396572401745365"><ele>175.0</ele><time>2026-03-29T13:45:31Z</time></trkpt><trkpt lat="44.96857147494416" lon="8.396462649775977"><ele>177.0</ele><time>2026-03-29T13:45:32Z</time></trkpt><trkpt lat="44.968576560006355" lon="8.396359602582951"><ele>179.0</ele><time>2026-03-29T13:45:33Z</time></trkpt><trkpt lat="44.968587230336" lon="8.396258579875507"><ele>181.0</ele><time>2026-03-29T13:45:34Z</time></trkpt><trkpt lat="44.96860371608417" lon="8.39615669333667"><ele>182.99999999999997</ele><time>2026-03-29T13:45:35Z</time></trkpt><trkpt lat="44.96863346618905" lon="8.396055398776758"><ele>185.0</ele><time>2026-03-29T13:45:36Z</time></trkpt><trkpt lat="44.96867451797383" lon="8.395954086286183"><ele>186.33333333333331</ele><time>2026-03-29T13:45:37Z</time></trkpt><trkpt lat="44.96871853494645" lon="8.395853873710577"><ele>187.66666666666666</ele><time>2026-03-29T13:45:38Z</time></trkpt><trkpt lat="44.968768130830824" lon="8.39575807289878"><ele>189.0</ele><time>2026-03-29T13:45:39Z</time></trkpt><trkpt lat="44.96882177533587" lon="8.395668658780275"><ele>190.33333333333331</ele><time>2026-03-29T13:45:40Z</time></trkpt><trkpt lat="44.96888190056898" lon="8.39558017537995"><ele>191.66666666666666</ele><time>2026-03-29T13:45:41Z</time></trkpt><trkpt lat="44.96894145463998" lon="8.395496210176523"><ele>193.0</ele><time>2026-03-29T13:45:42Z</time></trkpt><trkpt lat="44.96900340294444" lon="8.395420718533078"><ele>192.99999999999997</ele><time>2026-03-29T13:45:43Z</time></trkpt><trkpt lat="44.96906393275212" lon="8.395345036214454"><ele>193.0</ele><time>2026-03-29T13:45:44Z</time></trkpt><trkpt lat="44.96911924789318" lon="8.395274642428188"><ele>193.0</ele><time>2026-03-29T13:45:45Z</time></trkpt><trkpt lat="44.969167800319845" lon="8.395211801106196"><ele>193.0</ele><time>2026-03-29T13:45:46Z</time></trkpt><trkpt lat="44.969261538812816" lon="8.39512748348767"><ele>192.99999999999997</ele><time>2026-03-29T13:45:48Z</time></trkpt><trkpt lat="44.96934188246992" lon="8.395081502489916"><ele>193.0</ele><time>2026-03-29T13:45:50Z</time></trkpt><trkpt lat="44.96940281610772" lon="8.39516989251749"><ele>195.83333333333331</ele><time>2026-03-29T13:45:52Z</time></trkpt><trkpt lat="44.96936171481626" lon="8.39530866977618"><ele>198.66666666666666</ele><time>2026-03-29T13:45:54Z</time></trkpt><trkpt lat="44.96932979227569" lon="8.395389799100275"><ele>201.5</ele><time>2026-03-29T13:45:55Z</time></trkpt><trkpt lat="44.969305933014475" lon="8.395530656163718"><ele>204.33333333333331</ele><time>2026-03-29T13:45:57Z</time></trkpt><trkpt lat="44.969336053136985" lon="8.39566173612821"><ele>207.16666666666666</ele><time>2026-03-29T13:45:59Z</time></trkpt><trkpt lat="44.969386165818854" lon="8.395723573886166"><ele>210.0</ele><time>2026-03-29T13:46:00Z</time></trkpt><trkpt lat="44.96944898275523" lon="8.39576734687849"><ele>210.0</ele><time>2026-03-29T13:46:01Z</time></trkpt><trkpt lat="44.96952216376654" lon="8.395811968355364"><ele>210.0</ele><time>2026-03-29T13:46:02Z</time></trkpt><trkpt lat="44.9695857110479" lon="8.395840710921284"><ele>210.0</ele><time>2026-03-29T13:46:03Z</time></trkpt><trkpt lat="44.96967931838722" lon="8.39588585193856"><ele>210.0</ele><time>2026-03-29T13:46:05Z</time></trkpt><trkpt lat="44.969762165508826" lon="8.39579363513921"><ele>210.0</ele><time>2026-03-29T13:46:07Z</time></trkpt><trkpt lat="44.96980623914411" lon="8.395645917224883"><ele>210.2</ele><time>2026-03-29T13:46:09Z</time></trkpt><trkpt lat="44.96984827237669" lon="8.395488691335744"><ele>210.4</ele><time>2026-03-29T13:46:11Z</time></trkpt><trkpt lat="44.96989411160526" lon="8.395342223991804"><ele>210.60000000000002</ele><time>2026-03-29T13:46:13Z</time></trkpt><trkpt lat="44.96992208515784" lon="8.395253830172285"><ele>210.8</ele><time>2026-03-29T13:46:14Z</time></trkpt><trkpt lat="44.9699526754053" lon="8.395156239306626"><ele>211.0</ele><time>2026-03-29T13:46:15Z</time></trkpt><trkpt lat="44.969992496575784" lon="8.395041299147827"><ele>209.99999999999997</ele><time>2026-03-29T13:46:16Z</time></trkpt><trkpt lat="44.97002709325885" lon="8.394942083413195"><ele>209.0</ele><time>2026-03-29T13:46:17Z</time></trkpt><trkpt lat="44.97006720206908" lon="8.39483578355365"><ele>208.0</ele><time>2026-03-29T13:46:18Z</time></trkpt><trkpt lat="44.970099174551656" lon="8.394730748647067"><ele>207.0</ele><time>2026-03-29T13:46:19Z</time></trkpt><trkpt lat="44.970128378333854" lon="8.394625953053351"><ele>205.99999999999997</ele><time>2026-03-29T13:46:20Z</time></trkpt><trkpt lat="44.970148257845956" lon="8.394524078322634"><ele>205.0</ele><time>2026-03-29T13:46:21Z</time></trkpt><trkpt lat="44.97016406420809" lon="8.394421359860758"><ele>203.4</ele><time>2026-03-29T13:46:22Z</time></trkpt><trkpt lat="44.97017407994803" lon="8.394310733155118"><ele>201.8</ele><time>2026-03-29T13:46:23Z</time></trkpt><trkpt lat="44.97017280866294" lon="8.394195730390411"><ele>200.2</ele><time>2026-03-29T13:46:24Z</time></trkpt><trkpt lat="44.97016005673103" lon="8.394053494569127"><ele>198.6</ele><time>2026-03-29T13:46:25Z</time></trkpt><trkpt lat="44.97012514304073" lon="8.393853230300099"><ele>197.0</ele><time>2026-03-29T13:46:26Z</time></trkpt><trkpt lat="44.97006998592162" lon="8.393614058072517"><ele>200.33333333333334</ele><time>2026-03-29T13:46:27Z</time></trkpt><trkpt lat="44.97001354019992" lon="8.39338663776151"><ele>203.66666666666669</ele><time>2026-03-29T13:46:28Z</time></trkpt><trkpt lat="44.96993122970771" lon="8.393128407706122"><ele>207.0</ele><time>2026-03-29T13:46:29Z</time></trkpt><trkpt lat="44.96984418658712" lon="8.392900473846618"><ele>207.5</ele><time>2026-03-29T13:46:30Z</time></trkpt><trkpt lat="44.96977199512324" lon="8.392712632916592"><ele>208.0</ele><time>2026-03-29T13:46:31Z</time></trkpt><trkpt lat="44.96971346638963" lon="8.39256623982424"><ele>208.5</ele><time>2026-03-29T13:46:32Z</time></trkpt><trkpt lat="44.96966270291506" lon="8.392437041526904"><ele>209.0</ele><time>2026-03-29T13:46:33Z</time></trkpt><trkpt lat="44.96961621206013" lon="8.392312586346998"><ele>209.00000000000003</ele><time>2026-03-29T13:46:34Z</time></trkpt><trkpt lat="44.969581447731684" lon="8.392195653785787"><ele>209.0</ele><time>2026-03-29T13:46:35Z</time></trkpt><trkpt lat="44.969554187987875" lon="8.392091289647205"><ele>209.0</ele><time>2026-03-29T13:46:36Z</time></trkpt><trkpt lat="44.96953371081125" lon="8.391987673115477"><ele>209.0</ele><time>2026-03-29T13:46:37Z</time></trkpt><trkpt lat="44.96952064528764" lon="8.391884903377417"><ele>209.00000000000003</ele><time>2026-03-29T13:46:38Z</time></trkpt><trkpt lat="44.969520644564106" lon="8.39176601103466"><ele>209.0</ele><time>2026-03-29T13:46:39Z</time></trkpt><trkpt lat="44.96952953583842" lon="8.3916353173138"><ele>209.0</ele><time>2026-03-29T13:46:40Z</time></trkpt><trkpt lat="44.969546883426226" lon="8.391489763436214"><ele>209.0</ele><time>2026-03-29T13:46:41Z</time></trkpt><trkpt lat="44.969565623696894" lon="8.391328395379595"><ele>209.0</ele><time>2026-03-29T13:46:42Z</time></trkpt><trkpt lat="44.96958566578433" lon="8.391122859042444"><ele>209.0</ele><time>2026-03-29T13:46:43Z</time></trkpt><trkpt lat="44.96960082707444" lon="8.390970835542213"><ele>209.0</ele><time>2026-03-29T13:46:44Z</time></trkpt><trkpt lat="44.96960614384645" lon="8.390795966471186"><ele>209.0</ele><time>2026-03-29T13:46:45Z</time></trkpt><trkpt lat="44.96960169907861" lon="8.390623713319856"><ele>209.0</ele><time>2026-03-29T13:46:46Z</time></trkpt><trkpt lat="44.96959824645445" lon="8.390449638131402"><ele>209.0</ele><time>2026-03-29T13:46:47Z</time></trkpt><trkpt lat="44.96959855761623" lon="8.390273133410997"><ele>209.25</ele><time>2026-03-29T13:46:48Z</time></trkpt><trkpt lat="44.96960093736367" lon="8.390088723423851"><ele>209.5</ele><time>2026-03-29T13:46:49Z</time></trkpt><trkpt lat="44.96960221337278" lon="8.389913826586236"><ele>209.75</ele><time>2026-03-29T13:46:50Z</time></trkpt><trkpt lat="44.969604839425294" lon="8.389746779686718"><ele>210.0</ele><time>2026-03-29T13:46:51Z</time></trkpt><trkpt lat="44.96963152973715" lon="8.389590628667637"><ele>209.4</ele><time>2026-03-29T13:46:52Z</time></trkpt><trkpt lat="44.9696480760503" lon="8.389439448693611"><ele>208.8</ele><time>2026-03-29T13:46:53Z</time></trkpt><trkpt lat="44.96967066989913" lon="8.389286460645485"><ele>208.2</ele><time>2026-03-29T13:46:54Z</time></trkpt><trkpt lat="44.96968084911895" lon="8.389147057448474"><ele>207.6</ele><time>2026-03-29T13:46:55Z</time></trkpt><trkpt lat="44.969711233371505" lon="8.389018630310526"><ele>207.0</ele><time>2026-03-29T13:46:56Z</time></trkpt><trkpt lat="44.96974492408126" lon="8.388889173163363"><ele>207.0</ele><time>2026-03-29T13:46:57Z</time></trkpt><trkpt lat="44.96978063856703" lon="8.388754484057165"><ele>207.0</ele><time>2026-03-29T13:46:58Z</time></trkpt><trkpt lat="44.969817476550254" lon="8.388616798444502"><ele>207.0</ele><time>2026-03-29T13:46:59Z</time></trkpt><trkpt lat="44.96984001973733" lon="8.388482973899755"><ele>207.0</ele><time>2026-03-29T13:47:00Z</time></trkpt><trkpt lat="44.96985527829612" lon="8.388342232745574"><ele>207.0</ele><time>2026-03-29T13:47:01Z</time></trkpt><trkpt lat="44.96986409588076" lon="8.388212589843635"><ele>207.0</ele><time>2026-03-29T13:47:02Z</time></trkpt><trkpt lat="44.969869219549246" lon="8.388104280934492"><ele>207.0</ele><time>2026-03-29T13:47:03Z</time></trkpt><trkpt lat="44.969898201383714" lon="8.388010895079795"><ele>207.0</ele><time>2026-03-29T13:47:04Z</time></trkpt><trkpt lat="44.969931845936316" lon="8.387898111035506"><ele>207.0</ele><time>2026-03-29T13:47:05Z</time></trkpt><trkpt lat="44.9699770197682" lon="8.387756447930654"><ele>207.0</ele><time>2026-03-29T13:47:06Z</time></trkpt><trkpt lat="44.97002703589072" lon="8.387567038100237"><ele>201.0</ele><time>2026-03-29T13:47:07Z</time></trkpt><trkpt lat="44.97008681067583" lon="8.38742767549604"><ele>201.0</ele><time>2026-03-29T13:47:08Z</time></trkpt><trkpt lat="44.97013578018557" lon="8.387299923648134"><ele>201.0</ele><time>2026-03-29T13:47:09Z</time></trkpt><trkpt lat="44.97018090781709" lon="8.387170573287543"><ele>212.0</ele><time>2026-03-29T13:47:10Z</time></trkpt></trkseg></trk></gpx>